Kessler Spring Weather Data 2004

Kessler Spring -- Soil Temperature (TMPC *C) Solar Rad (SRD wat/m2) Air Temperature (TMP *C) Relative Humidity (HMD %) Wind Direction (WND Deg) Wind Gust (WNG km/h) Wind Speed (WNS km/h) Rainfall (RNF mm)

Year Month Day Hour TMPC SRD TMP HMD WND WNG WNS RNF
2004 11 10 11:28 8.2 211.8 12.9 57.4 14.1 3.2 3.2 0
2004 11 10 11:43 8.2 747.1 13.7 56.6 233.4 12.9 4.8 0
2004 11 10 11:58 8.6 735.3 13.7 57.5 102.7 12.9 4.8 0
2004 11 10 12:13 8.6 729.4 13.7 57.4 265.8 11.3 4.8 0
2004 11 10 12:28 9 717.6 13.7 56.6 164.5 11.3 6.4 0
2004 11 10 12:43 9.4 700 14.4 54.8 151.9 14.5 4.8 0
2004 11 10 12:58 9.4 682.4 14.1 53.9 137.8 11.3 4.8 0
2004 11 10 13:13 9.8 647.1 14.1 53.5 158.9 11.3 6.4 0
2004 11 10 13:28 10.1 605.9 13.7 54.5 180 11.3 6.4 0
2004 11 10 13:43 10.1 564.7 13.7 53.7 142 12.9 6.4 0
2004 11 10 13:58 10.5 517.6 14.1 51.4 135 14.5 6.4 0
2004 11 10 14:13 10.5 470.6 14.4 53.2 189.8 8 4.8 0
2004 11 10 14:28 10.9 405.9 14.4 53.9 151.9 12.9 6.4 0
2004 11 10 14:43 10.9 341.2 14.1 52.7 208.1 14.5 8 0
2004 11 10 14:58 11.3 282.4 13.7 54.8 195.5 9.7 4.8 0
2004 11 10 15:13 11.3 217.6 13.3 55.4 251.7 11.3 8 0
2004 11 10 15:28 11.3 158.8 12.5 59.8 225 12.9 6.4 0
2004 11 10 15:43 11.3 105.9 12.1 62.5 182.8 11.3 6.4 0
2004 11 10 15:58 11.3 64.7 11.7 63.9 181.4 12.9 6.4 0
2004 11 10 16:13 11.3 17.6 11.3 66.2 184.2 6.4 3.2 0
2004 11 10 16:28 11.3 5.9 9.4 72.9 203.9 6.4 1.6 0
2004 11 10 16:43 11.3 0 8.2 79.2 240.5 4.8 1.6 0
2004 11 10 16:58 10.9 0 7.3 84.3 241.9 4.8 3.2 0
2004 11 10 17:13 10.9 0 6.9 86.6 247.5 4.8 3.2 0
2004 11 10 17:28 10.9 0 6.5 87.3 244.7 4.8 3.2 0
2004 11 10 17:43 10.5 0 6.1 89 246.1 6.4 3.2 0
2004 11 10 17:58 10.5 0 5.3 92.3 246.1 3.2 3.2 0
2004 11 10 18:13 10.5 0 5.7 94.7 251.7 4.8 3.2 0
2004 11 10 18:28 10.1 0 5.7 95.4 251.7 4.8 3.2 0
2004 11 10 18:43 10.1 0 5.3 96.2 251.7 6.4 3.2 0
2004 11 10 18:58 10.1 0 5.3 96.2 251.7 4.8 3.2 0
2004 11 10 19:13 9.8 0 4.9 97.1 251.7 3.2 3.2 0
2004 11 10 19:28 9.8 0 4 97.1 264.4 4.8 3.2 0
2004 11 10 19:43 9.4 0 3.6 97.1 264.4 4.8 3.2 0
2004 11 10 19:58 9.4 0 3.6 97.9 264.4 4.8 3.2 0
2004 11 10 20:13 9.4 0 3.6 98.7 264.4 4.8 4.8 0
2004 11 10 20:28 9 0 2.7 98.7 264.4 4.8 3.2 0
2004 11 10 20:43 9 0 2.7 99.5 265.8 4.8 3.2 0
2004 11 10 20:58 9 0 2.7 99.5 265.8 4.8 3.2 0
2004 11 10 21:13 9 0 2.3 99.5 267.2 6.4 3.2 0
2004 11 10 21:28 8.6 0 3.2 99.5 267.2 4.8 3.2 0
2004 11 10 21:43 8.6 0 3.2 99.5 270 6.4 3.2 0
2004 11 10 21:58 8.6 0 3.2 99.5 289.7 6.4 3.2 0
2004 11 10 22:13 8.2 0 3.6 99.5 289.7 6.4 3.2 0
2004 11 10 22:28 8.2 0 4 99.5 289.7 4.8 3.2 0
2004 11 10 22:43 8.2 0 4.5 100 289.7 4.8 3.2 0
2004 11 10 22:58 8.2 0 4.9 99.5 289.7 3.2 1.6 0
2004 11 10 23:13 8.2 0 3.6 98.7 289.7 4.8 3.2 0
2004 11 10 23:28 7.7 0 3.2 99.5 289.7 4.8 3.2 0
2004 11 10 23:43 7.7 0 3.6 100 289.7 4.8 3.2 0
2004 11 10 23:58 7.7 0 3.2 100 289.7 4.8 3.2 0
2004 11 11 0:13 7.7 0 3.2 100 289.7 4.8 3.2 0
2004 11 11 0:28 7.7 0 1.4 100 289.7 4.8 3.2 0
2004 11 11 0:43 7.3 0 2.3 100 289.7 6.4 4.8 0
2004 11 11 0:58 7.3 0 3.6 100 289.7 6.4 3.2 0
2004 11 11 1:13 7.3 0 3.6 100 289.7 6.4 3.2 0
2004 11 11 1:28 7.3 0 4 99.5 305.2 6.4 3.2 0
2004 11 11 1:43 7.3 0 4.9 98.7 309.4 6.4 3.2 0
2004 11 11 1:58 6.9 0 6.1 93.1 300.9 9.7 3.2 0
2004 11 11 2:13 6.9 0 6.1 87.8 353 8 3.2 0
2004 11 11 2:28 6.9 0 5.3 87.8 353 4.8 1.6 0
2004 11 11 2:43 6.9 0 4.9 91.5 320.6 4.8 3.2 0
2004 11 11 2:58 6.9 0 4.5 93.9 320.6 4.8 3.2 0
2004 11 11 3:13 6.9 0 4 95.4 271.4 4.8 3.2 0
2004 11 11 3:28 6.5 0 4 95.4 275.6 3.2 1.6 0
2004 11 11 3:43 6.5 0 2.7 95.4 275.6 4.8 3.2 0
2004 11 11 3:58 6.5 0 2.3 97.1 275.6 4.8 3.2 0
2004 11 11 4:13 6.5 0 3.2 100 275.6 4.8 1.6 0
2004 11 11 4:28 6.5 0 3.6 99.5 275.6 4.8 1.6 0
2004 11 11 4:43 6.5 0 2.7 98.7 275.6 4.8 3.2 0
2004 11 11 4:58 6.1 0 3.2 99.5 275.6 3.2 1.6 0
2004 11 11 5:13 6.1 0 4 100 255.9 4.8 3.2 0
2004 11 11 5:28 6.1 0 4.9 98.7 240.5 6.4 3.2 0
2004 11 11 5:43 6.1 0 5.3 96.2 239.1 6.4 3.2 0
2004 11 11 5:58 6.1 0 5.7 95.4 246.1 6.4 4.8 0
2004 11 11 6:13 6.1 0 5.7 95.4 253.1 9.7 3.2 0
2004 11 11 6:28 6.1 5.9 6.1 93.1 236.3 12.9 4.8 0
2004 11 11 6:43 6.1 11.8 6.5 90.6 226.4 16.1 6.4 0
2004 11 11 6:58 6.1 23.5 6.5 89.8 223.6 17.7 9.7 0
2004 11 11 7:13 6.1 41.2 6.5 90.6 213.8 16.1 9.7 0
2004 11 11 7:28 6.1 58.8 6.5 89.8 223.6 17.7 9.7 0
2004 11 11 7:43 6.1 88.2 6.5 91.5 222.2 14.5 8 0
2004 11 11 7:58 6.1 235.3 6.1 94.7 227.8 16.1 8 0
2004 11 11 8:13 6.1 111.8 6.5 94.7 236.3 16.1 8 0
2004 11 11 8:28 6.1 158.8 6.9 93.9 270 12.9 8 0
2004 11 11 8:43 6.1 535.3 6.9 92.3 251.7 16.1 8 0
2004 11 11 8:58 6.1 564.7 8.2 86.1 247.5 20.9 9.7 0
2004 11 11 9:13 6.1 282.4 9 72.2 223.6 20.9 9.7 0
2004 11 11 9:28 6.5 594.1 9.8 63.6 202.5 16.1 11.3 0
2004 11 11 9:43 6.5 652.9 10.1 61.7 244.7 16.1 9.7 0
2004 11 11 9:58 6.5 688.2 9.8 63.8 232 22.5 11.3 0
2004 11 11 10:13 6.9 770.6 10.1 60.7 240.5 20.9 11.3 0
2004 11 11 10:28 6.9 658.8 10.5 57.7 229.2 20.9 11.3 0
2004 11 11 10:43 7.3 670.6 10.5 57.1 241.9 19.3 9.7 0
2004 11 11 10:58 7.3 694.1 10.5 57.7 222.2 22.5 11.3 0
2004 11 11 11:13 7.7 705.9 10.1 59.6 223.6 20.9 12.9 0
2004 11 11 11:28 8.2 711.8 10.1 58.3 279.8 24.1 12.9 0
2004 11 11 11:43 8.2 723.5 10.5 57.1 255.9 20.9 11.3 0
2004 11 11 11:58 8.6 741.2 10.5 54.5 264.4 24.1 11.3 0
2004 11 11 12:13 9 747.1 10.5 53.5 270 25.7 14.5 0
2004 11 11 12:28 9 741.2 10.5 52.5 255.9 24.1 14.5 0
2004 11 11 12:43 9.4 364.7 10.1 52.2 220.8 25.7 14.5 0
2004 11 11 12:58 9.4 311.8 9.4 58.4 225 27.4 12.9 0
2004 11 11 13:13 9.4 294.1 9.4 58 272.8 20.9 12.9 0
2004 11 11 13:28 9.8 576.5 9.8 55.7 246.1 19.3 11.3 0
2004 11 11 13:43 9.8 564.7 10.1 54.5 298.1 19.3 11.3 0
2004 11 11 13:58 9.8 541.2 9.8 53.1 275.6 24.1 11.3 0
2004 11 11 14:13 9.8 464.7 10.1 53.5 271.4 24.1 12.9 0
2004 11 11 14:28 9.8 388.2 10.1 52.2 300.9 24.1 11.3 0
2004 11 11 14:43 10.1 311.8 10.1 51.4 260.2 19.3 9.7 0
2004 11 11 14:58 10.1 264.7 10.1 52.7 250.3 17.7 9.7 0
2004 11 11 15:13 10.1 235.3 9.8 53.1 260.2 14.5 8 0
2004 11 11 15:28 10.1 135.3 9.4 54.3 250.3 16.1 9.7 0
2004 11 11 15:43 10.1 105.9 9.4 55.4 279.8 12.9 8 0
2004 11 11 15:58 10.1 64.7 8.6 57.2 272.8 12.9 8 0
2004 11 11 16:13 10.1 11.8 7.7 59.9 284.1 12.9 6.4 0
2004 11 11 16:28 9.8 0 6.9 65.2 284.1 6.4 3.2 0
2004 11 11 16:43 9.8 0 6.1 69.7 271.4 6.4 3.2 0
2004 11 11 16:58 9.8 0 5.7 74.1 279.8 4.8 3.2 0
2004 11 11 17:13 9.8 0 5.7 76.8 279.8 4.8 3.2 0
2004 11 11 17:28 9.4 0 5.7 77.8 279.8 4.8 1.6 0
2004 11 11 17:43 9.4 0 5.3 79.6 279.8 4.8 1.6 0
2004 11 11 17:58 9.4 0 5.7 77.8 260.2 6.4 3.2 0
2004 11 11 18:13 9.4 0 5.7 76.4 285.5 6.4 3.2 0
2004 11 11 18:28 9 0 5.3 78.5 288.3 4.8 1.6 0
2004 11 11 18:43 9 0 4.9 80 289.7 6.4 3.2 0
2004 11 11 18:58 9 0 4.5 82.3 293.9 4.8 3.2 0
2004 11 11 19:13 9 0 4.5 83.5 298.1 6.4 3.2 0
2004 11 11 19:28 8.6 0 4 83.5 298.1 4.8 1.6 0
2004 11 11 19:43 8.6 0 3.6 84.3 298.1 4.8 3.2 0
2004 11 11 19:58 8.6 0 4.5 86.1 258.8 6.4 3.2 0
2004 11 11 20:13 8.2 0 4.5 84.3 260.2 4.8 3.2 0
2004 11 11 20:28 8.2 0 4.5 84.3 278.4 4.8 3.2 0
2004 11 11 20:43 8.2 0 4 83.1 271.4 6.4 3.2 0
2004 11 11 20:58 8.2 0 3.2 82.6 284.1 4.8 3.2 0
2004 11 11 21:13 7.7 0 1.9 86.9 284.1 6.4 3.2 0
2004 11 11 21:28 7.7 0 1.9 88.2 292.5 6.4 3.2 0
2004 11 11 21:43 7.7 0 1.4 89 293.9 6.4 4.8 0
2004 11 11 21:58 7.7 0 1.9 88.2 282.7 6.4 4.8 0
2004 11 11 22:13 7.3 0 3.2 82.6 278.4 6.4 3.2 0
2004 11 11 22:28 7.3 0 2.3 80.7 285.5 4.8 3.2 0
2004 11 11 22:43 7.3 0 1 82.3 286.9 4.8 3.2 0
2004 11 11 22:58 6.9 0 0.6 86.1 288.3 4.8 3.2 0
2004 11 11 23:13 6.9 0 0.6 90.6 300.9 8 4.8 0
2004 11 11 23:28 6.9 0 1.4 92.3 316.4 6.4 4.8 0
2004 11 11 23:43 6.9 0 2.3 90.6 316.4 4.8 3.2 0
2004 11 11 23:58 6.5 0 2.7 91.5 306.6 6.4 4.8 0
2004 11 12 0:13 6.5 0 2.7 91.5 302.3 6.4 4.8 0
2004 11 12 0:28 6.5 0 3.2 92.3 296.7 8 3.2 0
2004 11 12 0:43 6.5 0 2.3 91.5 289.7 6.4 4.8 0
2004 11 12 0:58 6.5 0 1.9 93.9 293.9 6.4 4.8 0
2004 11 12 1:13 6.1 0 1.9 95.4 291.1 8 4.8 0
2004 11 12 1:28 6.1 0 1.4 95.4 292.5 6.4 4.8 0
2004 11 12 1:43 6.1 0 0.6 96.2 292.5 6.4 4.8 0
2004 11 12 1:58 6.1 0 1 97.1 284.1 4.8 3.2 0
2004 11 12 2:13 6.1 0 -0.3 97.1 305.2 8 4.8 0
2004 11 12 2:28 6.1 0 -0.3 98.7 305.2 6.4 4.8 0
2004 11 12 2:43 6.1 0 -0.3 99.5 302.3 6.4 4.8 0
2004 11 12 2:58 5.7 0 -0.3 99.5 302.3 6.4 4.8 0
2004 11 12 3:13 5.7 0 -0.3 99.5 291.1 6.4 4.8 0
2004 11 12 3:28 5.7 0 -0.3 99.5 291.1 6.4 4.8 0
2004 11 12 3:43 5.7 0 -0.8 99.5 291.1 4.8 4.8 0
2004 11 12 3:58 5.7 0 0.1 99.5 291.1 6.4 4.8 0
2004 11 12 4:13 5.3 0 0.6 99.5 291.1 8 6.4 0
2004 11 12 4:28 5.3 0 0.1 98.7 295.3 8 4.8 0
2004 11 12 4:43 5.3 0 1 99.5 296.7 8 4.8 0
2004 11 12 4:58 5.3 0 1 99.5 308 6.4 4.8 0
2004 11 12 5:13 5.3 0 4 97.1 324.8 14.5 8 0
2004 11 12 5:28 5.3 0 1.9 93.1 296.7 9.7 6.4 0
2004 11 12 5:43 4.9 0 1.4 97.1 296.7 6.4 4.8 0
2004 11 12 5:58 4.9 0 1 97.9 296.7 6.4 4.8 0
2004 11 12 6:13 4.9 0 1 99.5 300.9 6.4 4.8 0
2004 11 12 6:28 4.9 11.8 0.6 99.5 308 8 4.8 0
2004 11 12 6:43 4.9 52.9 1.9 100 336.1 9.7 6.4 0
2004 11 12 6:58 4.9 94.1 5.7 93.1 330.5 12.9 8 0
2004 11 12 7:13 4.9 135.3 6.1 81.8 334.7 16.1 8 0
2004 11 12 7:28 4.9 188.2 6.1 81.2 316.4 12.9 8 0
2004 11 12 7:43 4.9 241.2 6.5 78.5 313.6 12.9 8 0
2004 11 12 7:58 4.9 294.1 6.9 76.8 319.2 12.9 8 0
2004 11 12 8:13 4.9 276.5 7.3 74.1 317.8 11.3 8 0
2004 11 12 8:28 4.9 417.6 8.6 71.9 305.2 11.3 8 0
2004 11 12 8:43 4.9 494.1 9.4 67.4 330.5 11.3 8 0
2004 11 12 8:58 4.9 529.4 9.4 64.2 303.8 14.5 9.7 0
2004 11 12 9:13 4.9 405.9 8.2 68.1 308 17.7 11.3 0
2004 11 12 9:28 5.3 547.1 8.2 69.5 303.8 16.1 11.3 0
2004 11 12 9:43 5.3 588.2 8.6 68.1 277 17.7 11.3 0
2004 11 12 9:58 5.7 623.5 9 67.2 299.5 14.5 9.7 0
2004 11 12 10:13 5.7 682.4 9.4 65.7 282.7 16.1 9.7 0
2004 11 12 10:28 6.1 358.8 9 65.4 302.3 17.7 11.3 0
2004 11 12 10:43 6.1 558.8 9.4 63.6 336.1 16.1 8 0
2004 11 12 10:58 6.5 770.6 9 64.7 331.9 17.7 9.7 0
2004 11 12 11:13 6.5 829.4 9.8 63.9 272.8 16.1 11.3 0
2004 11 12 11:28 6.9 582.4 10.1 61.1 320.6 16.1 9.7 0
2004 11 12 11:43 6.9 876.5 9.8 61.9 303.8 16.1 11.3 0
2004 11 12 11:58 7.3 835.3 10.5 59.8 308 19.3 11.3 0
2004 11 12 12:13 7.7 858.8 10.5 57.7 302.3 20.9 12.9 0
2004 11 12 12:28 7.7 823.5 10.1 57.2 305.2 20.9 12.9 0
2004 11 12 12:43 8.2 735.3 10.5 55.2 285.5 20.9 14.5 0
2004 11 12 12:58 8.6 723.5 10.9 54.3 320.6 20.9 14.5 0
2004 11 12 13:13 8.6 658.8 10.1 55.6 312.2 24.1 16.1 0
2004 11 12 13:28 9 676.5 9.8 59.2 306.6 24.1 16.1 0
2004 11 12 13:43 9 558.8 9.8 61.9 300.9 24.1 14.5 0
2004 11 12 13:58 9.4 505.9 9.8 59.6 298.1 22.5 12.9 0
2004 11 12 14:13 9.4 100 8.6 61.2 300.9 19.3 12.9 0
2004 11 12 14:28 9.4 400 9.8 57.4 317.8 17.7 12.9 0
2004 11 12 14:43 9.8 364.7 10.1 54 299.5 20.9 12.9 0
2004 11 12 14:58 9.8 288.2 10.5 53.1 303.8 19.3 14.5 0
2004 11 12 15:13 9.8 247.1 9.8 54 323.4 20.9 14.5 0
2004 11 12 15:28 9.8 158.8 9.8 51.1 329.1 27.4 16.1 0
2004 11 12 15:43 9.8 100 9 51.7 330.5 27.4 17.7 0
2004 11 12 15:58 9.8 58.8 9 53.2 300.9 24.1 14.5 0
2004 11 12 16:13 9.8 17.6 8.2 54 317.8 19.3 14.5 0
2004 11 12 16:28 9.8 5.9 7.7 57.2 322 16.1 11.3 0
2004 11 12 16:43 9.4 0 7.3 60.1 316.4 14.5 9.7 0
2004 11 12 16:58 9.4 0 6.5 61.7 344.5 16.1 9.7 0
2004 11 12 17:13 9.4 0 6.1 64.2 324.8 9.7 6.4 0
2004 11 12 17:28 9.4 0 6.1 66.2 303.8 11.3 6.4 0
2004 11 12 17:43 9 0 4.5 70.5 303.8 4.8 3.2 0
2004 11 12 17:58 9 0 4.5 76.2 299.5 6.4 4.8 0
2004 11 12 18:13 9 0 3.2 80 295.3 6.4 4.8 0
2004 11 12 18:28 8.6 0 3.6 81.5 292.5 6.4 4.8 0
2004 11 12 18:43 8.6 0 3.2 83.5 292.5 6.4 4.8 0
2004 11 12 18:58 8.6 0 2.7 85.7 292.5 6.4 3.2 0
2004 11 12 19:13 8.2 0 1.9 88.2 308 6.4 4.8 0
2004 11 12 19:28 8.2 0 3.6 87.8 316.4 6.4 4.8 0
2004 11 12 19:43 8.2 0 2.7 83.1 308 9.7 4.8 0
2004 11 12 19:58 7.7 0 5.3 80.4 334.7 9.7 6.4 0
2004 11 12 20:13 7.7 0 5.7 71.6 355.8 11.3 4.8 0
2004 11 12 20:28 7.7 0 6.5 62.8 319.2 16.1 8 0
2004 11 12 20:43 7.3 0 3.2 72.2 299.5 8 4.8 0
2004 11 12 20:58 7.3 0 4.9 69.2 313.6 11.3 4.8 0
2004 11 12 21:13 7.3 0 6.5 62.8 322 16.1 8 0
2004 11 12 21:28 7.3 0 4 66 288.3 16.1 6.4 0
2004 11 12 21:43 7.3 0 1.9 75.6 291.1 6.4 3.2 0
2004 11 12 21:58 6.9 0 3.6 79.2 348.8 9.7 4.8 0
2004 11 12 22:13 6.9 0 5.7 67.2 338.9 9.7 4.8 0
2004 11 12 22:28 6.9 0 6.9 60.3 312.2 22.5 6.4 0
2004 11 12 22:43 6.9 0 6.9 58.3 150.5 17.7 6.4 0
2004 11 12 22:58 6.9 0 6.5 60.3 219.4 11.3 4.8 0
2004 11 12 23:13 6.5 0 6.1 60.9 19.7 11.3 3.2 0
2004 11 12 23:28 6.5 0 6.9 59.9 329.1 24.1 9.7 0
2004 11 12 23:43 6.5 0 6.9 59 330.5 22.5 11.3 0
2004 11 12 23:58 6.5 0 6.9 59.4 336.1 22.5 9.7 0
2004 11 13 0:13 6.5 0 6.9 59.8 61.9 19.3 9.7 0
2004 11 13 0:28 6.5 0 6.5 60.9 357.2 25.7 9.7 0
2004 11 13 0:43 6.1 0 6.1 61.7 354.4 14.5 8 0
2004 11 13 0:58 6.1 0 5.3 64.7 337.5 17.7 8 0
2004 11 13 1:13 6.1 0 5.7 65.5 351.6 12.9 6.4 0
2004 11 13 1:28 6.1 0 2.7 70.9 306.6 8 6.4 0
2004 11 13 1:43 6.1 0 1.4 80 300.9 8 4.8 0
2004 11 13 1:58 6.1 0 0.6 82.6 308 8 6.4 0
2004 11 13 2:13 6.1 0 1 85.7 300.9 6.4 4.8 0
2004 11 13 2:28 6.1 0 1.4 85.7 270 6.4 4.8 0
2004 11 13 2:43 5.7 0 -0.8 86.9 295.3 6.4 4.8 0
2004 11 13 2:58 5.7 0 -1.3 90.6 293.9 6.4 4.8 0
2004 11 13 3:13 5.7 0 -0.3 93.1 310.8 6.4 4.8 0
2004 11 13 3:28 5.7 0 -0.3 93.9 305.2 6.4 4.8 0
2004 11 13 3:43 5.7 0 0.6 93.9 300.9 8 4.8 0
2004 11 13 3:58 5.3 0 -0.8 90.6 305.2 8 4.8 0
2004 11 13 4:13 5.3 0 -1.3 95.4 316.4 8 6.4 0
2004 11 13 4:28 5.3 0 0.1 96.2 300.9 6.4 4.8 0
2004 11 13 4:43 5.3 0 0.1 95.4 300.9 6.4 4.8 0
2004 11 13 4:58 5.3 0 1 93.1 300.9 6.4 4.8 0
2004 11 13 5:13 4.9 0 0.6 90.6 293.9 6.4 4.8 0
2004 11 13 5:28 4.9 0 0.6 91.5 292.5 6.4 4.8 0
2004 11 13 5:43 4.9 0 -0.3 92.3 310.8 6.4 4.8 0
2004 11 13 5:58 4.9 0 -1.3 93.9 296.7 6.4 3.2 0
2004 11 13 6:13 4.9 5.9 -0.8 96.2 305.2 8 3.2 0
2004 11 13 6:28 4.9 17.6 -0.8 96.2 306.6 6.4 4.8 0
2004 11 13 6:43 4.9 64.7 0.1 97.1 322 6.4 3.2 0
2004 11 13 6:58 4.5 105.9 5.7 86.1 61.9 17.7 8 0
2004 11 13 7:13 4.5 147.1 6.5 69 52 20.9 14.5 0
2004 11 13 7:28 4.5 200 6.9 65 47.8 22.5 14.5 0
2004 11 13 7:43 4.5 252.9 6.9 63.8 40.8 20.9 14.5 0
2004 11 13 7:58 4.5 305.9 7.3 62.5 73.1 25.7 12.9 0
2004 11 13 8:13 4.5 358.8 7.3 61.7 73.1 33.8 11.3 0
2004 11 13 8:28 4.5 358.8 7.7 58.9 78.8 25.7 9.7 0
2004 11 13 8:43 4.5 435.3 7.7 59.2 322 27.4 9.7 0
2004 11 13 8:58 4.9 476.5 8.2 59.8 53.4 27.4 11.3 0
2004 11 13 9:13 4.9 511.8 8.2 59.6 11.3 30.6 14.5 0
2004 11 13 9:28 4.9 541.2 8.2 60.1 340.3 43.5 16.1 0
2004 11 13 9:43 4.9 570.6 8.2 59.4 61.9 38.6 12.9 0
2004 11 13 9:58 5.3 594.1 8.2 60.3 95.6 29 16.1 0
2004 11 13 10:13 5.3 617.6 8.6 59.6 113.9 32.2 14.5 0
2004 11 13 10:28 5.3 641.2 8.2 59.8 300.9 35.4 14.5 0
2004 11 13 10:43 5.7 658.8 8.2 61.9 70.3 46.7 16.1 0
2004 11 13 10:58 6.1 676.5 8.2 61.9 101.3 33.8 17.7 0
2004 11 13 11:13 6.1 688.2 8.6 61.9 80.2 32.2 14.5 0
2004 11 13 11:28 6.5 700 9 60.9 139.2 27.4 11.3 0
2004 11 13 11:43 6.5 711.8 9.4 60.9 357.2 25.7 11.3 0
2004 11 13 11:58 6.9 735.3 9.8 58.9 120.9 20.9 8 0
2004 11 13 12:13 7.3 723.5 9.4 59 7 29 11.3 0
2004 11 13 12:28 7.3 123.5 9.8 59.6 21.1 35.4 9.7 0
2004 11 13 12:43 7.7 705.9 9.4 61.1 90 29 14.5 0
2004 11 13 12:58 8.2 670.6 9.4 61.1 70.3 24.1 12.9 0
2004 11 13 13:13 8.2 741.2 9.4 61.9 128 33.8 12.9 0
2004 11 13 13:28 8.6 447.1 8.6 63.9 220.8 25.7 9.7 0
2004 11 13 13:43 8.6 629.4 8.2 64.2 310.8 20.9 9.7 0
2004 11 13 13:58 9 94.1 8.6 61.2 291.1 33.8 8 0
2004 11 13 14:13 9 476.5 8.6 63 308 12.9 3.2 0
2004 11 13 14:28 9 82.4 8.2 59.2 312.2 25.7 9.7 0
2004 11 13 14:43 9 341.2 9.8 57.4 288.3 9.7 4.8 0
2004 11 13 14:58 9.4 270.6 9.8 55 316.4 20.9 6.4 0
2004 11 13 15:13 9.4 211.8 9.8 56.8 317.8 12.9 4.8 0
2004 11 13 15:28 9.4 47.1 8.2 57.5 315 16.1 6.4 0
2004 11 13 15:43 9.4 29.4 7.3 60.5 288.3 16.1 8 0
2004 11 13 15:58 9.4 41.2 7.7 57.5 340.3 20.9 8 0
2004 11 13 16:13 9.4 17.6 7.7 57.5 270 27.4 11.3 0
2004 11 13 16:28 9.4 5.9 7.3 60.1 268.6 27.4 9.7 0
2004 11 13 16:43 9 0 7.3 60.1 285.5 25.7 12.9 0
2004 11 13 16:58 9 0 6.9 60.7 333.3 25.7 9.7 0
2004 11 13 17:13 9 0 5.7 73.3 327.7 19.3 9.7 0
2004 11 13 17:28 9 0 5.3 77 316.4 11.3 6.4 0
2004 11 13 17:43 8.6 0 4.9 80 330.5 11.3 6.4 0
2004 11 13 17:58 8.6 0 5.3 80.4 347.3 9.7 6.4 0
2004 11 13 18:13 8.6 0 5.7 75.1 341.7 12.9 6.4 0
2004 11 13 18:28 8.2 0 4.9 76.4 296.7 11.3 4.8 0
2004 11 13 18:43 8.2 0 5.7 77.3 312.2 17.7 6.4 0
2004 11 13 18:58 8.2 0 5.3 76.2 324.8 12.9 6.4 0
2004 11 13 19:13 7.7 0 5.7 76.8 329.1 12.9 4.8 0
2004 11 13 19:28 7.7 0 6.1 74.1 337.5 14.5 6.4 0
2004 11 13 19:43 7.7 0 6.1 72.9 326.3 19.3 8 0
2004 11 13 19:58 7.7 0 6.5 71.1 333.3 17.7 9.7 0
2004 11 13 20:13 7.3 0 6.1 71.9 351.6 22.5 9.7 0
2004 11 13 20:28 7.3 0 6.5 71.6 323.4 24.1 9.7 0
2004 11 13 20:43 7.3 0 6.5 69.7 308 22.5 11.3 0
2004 11 13 20:58 7.3 0 6.5 70.5 341.7 25.7 11.3 0
2004 11 13 21:13 7.3 0 6.9 70.5 357.2 25.7 12.9 0
2004 11 13 21:28 6.9 0 6.9 69.5 334.7 30.6 9.7 0
2004 11 13 21:43 6.9 0 6.9 69 8.4 19.3 11.3 0
2004 11 13 21:58 6.9 0 6.9 67.7 308 22.5 9.7 0
2004 11 13 22:13 6.9 0 6.9 68.3 350.2 27.4 11.3 0
2004 11 13 22:28 6.9 0 6.5 69 316.4 25.7 11.3 0
2004 11 13 22:43 6.9 0 6.9 69.2 320.6 25.7 12.9 0
2004 11 13 22:58 6.9 0 6.9 69.5 317.8 20.9 11.3 0
2004 11 13 23:13 6.9 0 6.9 69.2 357.2 35.4 12.9 0
2004 11 13 23:28 6.9 0 6.9 68.8 309.4 30.6 14.5 0
2004 11 13 23:43 6.5 0 6.9 68.1 324.8 35.4 17.7 0
2004 11 13 23:58 6.5 0 6.9 67.9 310.8 40.2 16.1 0
2004 11 14 0:13 6.5 0 6.9 68.8 303.8 43.5 17.7 0
2004 11 14 0:28 6.5 0 6.9 69 295.3 37 17.7 0
2004 11 14 0:43 6.5 0 6.5 70 132.2 30.6 12.9 0
2004 11 14 0:58 6.5 0 6.1 72.9 250.3 22.5 9.7 0
2004 11 14 1:13 6.5 0 6.5 73.3 220.8 24.1 11.3 0
2004 11 14 1:28 6.5 0 6.5 71.1 272.8 33.8 11.3 0
2004 11 14 1:43 6.5 0 6.5 70.7 161.7 24.1 11.3 0
2004 11 14 1:58 6.5 0 6.1 70.2 168.8 20.9 12.9 0
2004 11 14 2:13 6.1 0 6.1 71.4 112.5 25.7 16.1 0
2004 11 14 2:28 6.1 0 6.1 72.5 150.5 45.1 16.1 0
2004 11 14 2:43 6.1 0 6.1 74.3 63.3 27.4 12.9 0
2004 11 14 2:58 6.1 0 6.1 74.3 15.5 37 14.5 0
2004 11 14 3:13 6.1 0 6.5 70.7 312.2 38.6 12.9 0
2004 11 14 3:28 6.1 0 6.5 67.2 312.2 38.6 16.1 0
2004 11 14 3:43 6.1 0 6.5 64.2 295.3 33.8 16.1 0
2004 11 14 3:58 6.1 0 6.5 64.2 308 27.4 16.1 0
2004 11 14 4:13 6.1 0 6.5 65.2 285.5 32.2 16.1 0
2004 11 14 4:28 6.1 0 6.1 68.1 316.4 35.4 14.5 0
2004 11 14 4:43 6.1 0 6.1 71.4 329.1 32.2 14.5 0
2004 11 14 4:58 6.1 0 5.7 76.2 306.6 29 16.1 0
2004 11 14 5:13 5.7 0 5.7 76.8 285.5 25.7 14.5 0
2004 11 14 5:28 5.7 0 5.7 76.8 317.8 40.2 16.1 0
2004 11 14 5:43 5.7 0 5.7 77.3 316.4 37 19.3 0
2004 11 14 5:58 5.7 0 5.7 77 334.7 32.2 17.7 0
2004 11 14 6:13 5.7 0 5.7 76.8 338.9 35.4 16.1 0
2004 11 14 6:28 5.7 11.8 5.7 76.8 316.4 25.7 12.9 0
2004 11 14 6:43 5.7 41.2 5.7 77.3 12.7 33.8 12.9 0
2004 11 14 6:58 5.7 88.2 6.1 74.3 243.3 33.8 12.9 0
2004 11 14 7:13 5.7 129.4 6.5 72.7 324.8 33.8 14.5 0
2004 11 14 7:28 5.7 182.4 6.9 70.9 347.3 24.1 12.9 0
2004 11 14 7:43 5.7 229.4 7.3 68.8 25.3 32.2 11.3 0
2004 11 14 7:58 5.7 305.9 7.7 65.4 208.1 33.8 11.3 0
2004 11 14 8:13 5.7 347.1 7.7 63.9 289.7 32.2 14.5 0
2004 11 14 8:28 5.7 388.2 8.2 62.8 282.7 33.8 14.5 0
2004 11 14 8:43 5.7 458.8 8.2 61.2 313.6 37 16.1 0
2004 11 14 8:58 5.7 482.4 7.7 62 347.3 30.6 16.1 0
2004 11 14 9:13 5.7 505.9 8.6 60.7 272.8 30.6 12.9 0
2004 11 14 9:28 5.7 535.3 8.6 60.3 150.5 27.4 16.1 0
2004 11 14 9:43 6.1 564.7 8.6 59.6 288.3 41.8 16.1 0
2004 11 14 9:58 6.1 588.2 9.4 57.2 303.8 19.3 8 0
2004 11 14 10:13 6.1 541.2 8.6 59 296.7 37 14.5 0
2004 11 14 10:28 6.5 658.8 9.4 58.4 274.2 40.2 16.1 0
2004 11 14 10:43 6.5 694.1 9 58 357.2 37 14.5 0
2004 11 14 10:58 6.9 694.1 9.4 57.4 309.4 37 12.9 0
2004 11 14 11:13 6.9 694.1 9.4 56.3 278.4 33.8 11.3 0
2004 11 14 11:28 7.3 700 9.8 56.5 246.1 38.6 16.1 0
2004 11 14 11:43 7.3 311.8 9.8 55.7 47.8 25.7 14.5 0
2004 11 14 11:58 7.7 705.9 9.8 55.6 327.7 29 14.5 0
2004 11 14 12:13 8.2 694.1 10.1 53.5 337.5 35.4 12.9 0
2004 11 14 12:28 8.2 688.2 10.1 52.2 5.6 35.4 14.5 0
2004 11 14 12:43 8.6 670.6 10.1 51.4 299.5 33.8 14.5 0
2004 11 14 12:58 8.6 735.3 10.1 52.7 344.5 24.1 14.5 0
2004 11 14 13:13 9 658.8 10.1 52.9 345.9 32.2 12.9 0
2004 11 14 13:28 9 82.4 9.4 53.1 247.5 37 14.5 0
2004 11 14 13:43 9.4 535.3 10.1 51.2 285.5 25.7 14.5 0
2004 11 14 13:58 9.4 494.1 10.1 51.2 351.6 32.2 16.1 0
2004 11 14 14:13 9.4 441.2 10.5 50.9 7 30.6 16.1 0
2004 11 14 14:28 9.4 382.4 10.5 50.4 312.2 30.6 14.5 0
2004 11 14 14:43 9.8 323.5 10.5 50.9 295.3 25.7 14.5 0
2004 11 14 14:58 9.8 258.8 10.1 51.2 315 29 14.5 0
2004 11 14 15:13 9.8 200 10.1 51.4 317.8 33.8 14.5 0
2004 11 14 15:28 9.8 141.2 10.1 51.9 334.7 32.2 14.5 0
2004 11 14 15:43 9.8 94.1 9.8 52.5 261.6 30.6 14.5 0
2004 11 14 15:58 9.8 52.9 9.4 53.9 309.4 33.8 14.5 0
2004 11 14 16:13 9.8 17.6 9 55.4 7 32.2 14.5 0
2004 11 14 16:28 9.8 5.9 8.6 57.2 320.6 32.2 16.1 0
2004 11 14 16:43 9.8 0 8.6 57.1 336.1 25.7 14.5 0
2004 11 14 16:58 9.8 0 8.6 57.2 330.5 25.7 12.9 0
2004 11 14 17:13 9.4 0 8.6 56.8 310.8 25.7 12.9 0
2004 11 14 17:28 9.4 0 8.2 56.6 354.4 22.5 12.9 0
2004 11 14 17:43 9.4 0 8.6 55.9 330.5 29 16.1 0
2004 11 14 17:58 9 0 8.6 55.4 309.4 30.6 16.1 0
2004 11 14 18:13 9 0 8.6 55.4 282.7 25.7 12.9 0
2004 11 14 18:28 9 0 8.6 55.4 312.2 29 14.5 0
2004 11 14 18:43 9 0 8.6 56.2 312.2 33.8 17.7 0
2004 11 14 18:58 8.6 0 8.6 56.3 351.6 27.4 17.7 0
2004 11 14 19:13 8.6 0 8.6 55.6 340.3 29 16.1 0
2004 11 14 19:28 8.6 0 8.6 55.6 289.7 30.6 16.1 0
2004 11 14 19:43 8.6 0 8.6 54.8 319.2 35.4 17.7 0
2004 11 14 19:58 8.2 0 8.6 54.8 258.8 33.8 17.7 0
2004 11 14 20:13 8.2 0 8.6 55 327.7 27.4 14.5 0
2004 11 14 20:28 8.2 0 8.6 55.6 329.1 24.1 14.5 0
2004 11 14 20:43 8.2 0 8.2 56.5 295.3 24.1 17.7 0
2004 11 14 20:58 8.2 0 8.2 56.2 333.3 29 14.5 0
2004 11 14 21:13 8.2 0 8.2 57.1 309.4 38.6 14.5 0
2004 11 14 21:28 7.7 0 7.7 56.8 320.6 33.8 12.9 0
2004 11 14 21:43 7.7 0 7.7 57.2 310.8 32.2 16.1 0
2004 11 14 21:58 7.7 0 7.7 57.2 333.3 40.2 14.5 0
2004 11 14 22:13 7.7 0 7.7 58.1 340.3 40.2 16.1 0
2004 11 14 22:28 7.7 0 7.7 58.7 293.9 24.1 12.9 0
2004 11 14 22:43 7.7 0 7.3 59.6 244.7 25.7 11.3 0
2004 11 14 22:58 7.7 0 7.3 59.8 282.7 19.3 8 0
2004 11 14 23:13 7.3 0 7.3 61.2 302.3 33.8 11.3 0
2004 11 14 23:28 7.3 0 7.3 61.5 351.6 35.4 12.9 0
2004 11 14 23:43 7.3 0 7.3 62 308 33.8 12.9 0
2004 11 14 23:58 7.3 0 7.3 60.5 305.2 48.3 19.3 0
2004 11 15 0:13 7.3 0 7.3 59.6 247.5 40.2 16.1 0
2004 11 15 0:28 7.3 0 6.9 60.3 327.7 33.8 11.3 0
2004 11 15 0:43 7.3 0 6.9 60.7 289.7 35.4 12.9 0
2004 11 15 0:58 6.9 0 6.5 61.5 63.3 37 12.9 0
2004 11 15 1:13 6.9 0 6.9 60.7 282.7 40.2 19.3 0
2004 11 15 1:28 6.9 0 6.5 60.3 194.1 33.8 14.5 0
2004 11 15 1:43 6.9 0 6.5 60.5 255.9 35.4 12.9 0
2004 11 15 1:58 6.9 0 6.5 59.8 232 24.1 11.3 0
2004 11 15 2:13 6.9 0 6.5 59.9 300.9 24.1 9.7 0
2004 11 15 2:28 6.9 0 6.5 59.4 291.1 30.6 14.5 0
2004 11 15 2:43 6.9 0 6.5 58.9 353 33.8 16.1 0
2004 11 15 2:58 6.5 0 6.5 58.9 357.2 48.3 20.9 0
2004 11 15 3:13 6.5 0 6.5 58.9 296.7 53.1 24.1 0
2004 11 15 3:28 6.5 0 6.5 58.9 274.2 37 19.3 0
2004 11 15 3:43 6.5 0 6.9 56.3 284.1 32.2 12.9 0
2004 11 15 3:58 6.5 0 6.5 58 306.6 22.5 12.9 0
2004 11 15 4:13 6.5 0 6.5 61.2 195.5 45.1 16.1 0
2004 11 15 4:28 6.5 0 6.1 63.3 88.6 32.2 14.5 0
2004 11 15 4:43 6.5 0 5.7 65.4 54.8 29 12.9 0
2004 11 15 4:58 6.5 0 5.7 66.4 272.8 48.3 14.5 0
2004 11 15 5:13 6.1 0 5.7 67.2 264.4 40.2 11.3 0
2004 11 15 5:28 6.1 0 5.7 66.6 232 30.6 14.5 0
2004 11 15 5:43 6.1 0 5.7 67.2 219.4 46.7 11.3 0
2004 11 15 5:58 6.1 0 5.7 67.9 291.1 41.8 12.9 0
2004 11 15 6:13 6.1 0 5.7 66.6 277 33.8 9.7 0
2004 11 15 6:28 6.1 5.9 5.7 66 92.8 45.1 14.5 0
2004 11 15 6:43 6.1 41.2 6.1 64.2 320.6 57.9 19.3 0
2004 11 15 6:58 6.1 82.4 6.5 61.9 243.3 40.2 14.5 0
2004 11 15 7:13 6.1 129.4 6.5 61.9 254.5 53.1 14.5 0
2004 11 15 7:28 6.1 176.5 6.9 60.7 39.4 32.2 14.5 0
2004 11 15 7:43 6.1 229.4 7.3 59 272.8 35.4 14.5 0
2004 11 15 7:58 6.1 282.4 7.7 56.6 275.6 24.1 11.3 0
2004 11 15 8:13 5.7 329.4 7.7 56.6 334.7 30.6 14.5 0
2004 11 15 8:28 5.7 382.4 7.7 56.5 309.4 51.5 17.7 0
2004 11 15 8:43 6.1 423.5 8.2 55.6 64.7 29 12.9 0
2004 11 15 8:58 6.1 464.7 9 52.7 282.7 27.4 8 0
2004 11 15 9:13 6.1 500 9 53.2 61.9 32.2 9.7 0
2004 11 15 9:28 6.1 535.3 8.2 54.5 319.2 46.7 20.9 0
2004 11 15 9:43 6.1 564.7 8.6 54.8 60.5 41.8 24.1 0
2004 11 15 9:58 6.1 588.2 8.6 55 38 35.4 22.5 0
2004 11 15 10:13 6.5 611.8 8.6 54.8 60.5 40.2 24.1 0
2004 11 15 10:28 6.5 629.4 8.6 54.8 46.4 38.6 25.7 0
2004 11 15 10:43 6.9 652.9 9.4 53.7 40.8 37 20.9 0
2004 11 15 10:58 6.9 664.7 9 53.1 63.3 45.1 24.1 0
2004 11 15 11:13 7.3 676.5 9.4 52.5 71.7 45.1 22.5 0
2004 11 15 11:28 7.3 688.2 10.1 50.9 199.7 24.1 11.3 0
2004 11 15 11:43 7.7 694.1 10.1 49.9 77.3 37 14.5 0
2004 11 15 11:58 7.7 694.1 10.9 48 68.9 27.4 9.7 0
2004 11 15 12:13 8.2 688.2 10.9 48.4 351.6 33.8 11.3 0
2004 11 15 12:28 8.6 682.4 10.9 47.7 88.6 16.1 9.7 0
2004 11 15 12:43 8.6 664.7 10.9 48.4 105.5 17.7 8 0
2004 11 15 12:58 9 647.1 10.9 48.9 61.9 17.7 8 0
2004 11 15 13:13 9.4 617.6 10.9 48.6 53.4 27.4 9.7 0
2004 11 15 13:28 9.4 576.5 10.9 47.7 77.3 20.9 9.7 0
2004 11 15 13:43 9.8 535.3 10.9 48 84.4 12.9 6.4 0
2004 11 15 13:58 9.8 488.2 11.3 47.5 329.1 24.1 6.4 0
2004 11 15 14:13 10.1 435.3 11.3 47.2 61.9 17.7 6.4 0
2004 11 15 14:28 10.1 376.5 10.9 47.4 275.6 20.9 8 0
2004 11 15 14:43 10.1 317.6 11.3 47.7 61.9 17.7 8 0
2004 11 15 14:58 10.5 252.9 11.3 47.7 105.5 19.3 6.4 0
2004 11 15 15:13 10.5 194.1 11.7 47.2 239.1 9.7 4.8 0
2004 11 15 15:28 10.5 141.2 10.5 47.7 28.1 19.3 6.4 0
2004 11 15 15:43 10.5 94.1 10.5 49.4 355.8 14.5 4.8 0
2004 11 15 15:58 10.5 52.9 10.5 49.9 315 12.9 3.2 0
2004 11 15 16:13 10.5 11.8 9 51.9 83 20.9 6.4 0
2004 11 15 16:28 10.5 5.9 8.6 53.9 329.1 6.4 3.2 0
2004 11 15 16:43 10.5 0 8.2 55.2 223.6 9.7 3.2 0
2004 11 15 16:58 10.1 0 8.2 56.2 293.9 16.1 3.2 0
2004 11 15 17:13 10.1 0 8.6 55.4 118.1 16.1 6.4 0
2004 11 15 17:28 10.1 0 8.6 55 63.3 14.5 6.4 0
2004 11 15 17:43 9.8 0 8.2 55.6 47.8 14.5 9.7 0
2004 11 15 17:58 9.8 0 8.2 55.9 56.3 16.1 6.4 0
2004 11 15 18:13 9.8 0 8.2 56.3 14.1 19.3 6.4 0
2004 11 15 18:28 9.4 0 8.2 56.6 18.3 14.5 8 0
2004 11 15 18:43 9.4 0 7.7 57.2 9.8 16.1 6.4 0
2004 11 15 18:58 9.4 0 8.2 57.4 43.6 16.1 8 0
2004 11 15 19:13 9 0 8.2 57.7 18.3 17.7 9.7 0
2004 11 15 19:28 9 0 8.2 58 61.9 16.1 9.7 0
2004 11 15 19:43 9 0 8.2 57.7 43.6 19.3 11.3 0
2004 11 15 19:58 9 0 7.7 58.4 43.6 14.5 8 0
2004 11 15 20:13 8.6 0 7.7 58.9 61.9 9.7 4.8 0
2004 11 15 20:28 8.6 0 7.7 59.8 296.7 11.3 3.2 0
2004 11 15 20:43 8.6 0 6.5 60.3 303.8 11.3 4.8 0
2004 11 15 20:58 8.6 0 4.9 70.2 274.2 8 4.8 0
2004 11 15 21:13 8.2 0 4.9 72.2 288.3 11.3 4.8 0
2004 11 15 21:28 8.2 0 4.5 73.5 288.3 6.4 3.2 0
2004 11 15 21:43 8.2 0 4.5 75.1 288.3 4.8 1.6 0
2004 11 15 21:58 8.2 0 7.3 69.5 57.7 11.3 3.2 0
2004 11 15 22:13 8.2 0 7.7 63.6 57.7 12.9 3.2 0
2004 11 15 22:28 7.7 0 7.7 62.8 329.1 8 3.2 0
2004 11 15 22:43 7.7 0 7.7 60.9 63.3 11.3 3.2 0
2004 11 15 22:58 7.7 0 7.7 62 8.4 9.7 3.2 0
2004 11 15 23:13 7.7 0 8.6 60.1 19.7 11.3 6.4 0
2004 11 15 23:28 7.7 0 8.6 59 7 12.9 8 0
2004 11 15 23:43 7.3 0 8.2 61.5 26.7 11.3 4.8 0
2004 11 15 23:58 7.3 0 8.6 59.2 52 17.7 6.4 0
2004 11 16 0:13 7.3 0 8.2 59.6 43.6 16.1 8 0
2004 11 16 0:28 7.3 0 8.6 59 19.7 17.7 9.7 0
2004 11 16 0:43 7.3 0 8.2 58.7 63.3 19.3 9.7 0
2004 11 16 0:58 7.3 0 8.2 58.9 60.5 19.3 8 0
2004 11 16 1:13 7.3 0 8.2 58.4 33.8 17.7 9.7 0
2004 11 16 1:28 7.3 0 8.2 58.4 61.9 16.1 9.7 0
2004 11 16 1:43 6.9 0 7.7 59.2 14.1 12.9 8 0
2004 11 16 1:58 6.9 0 8.2 58.9 32.3 16.1 9.7 0
2004 11 16 2:13 6.9 0 7.7 60.1 32.3 14.5 8 0
2004 11 16 2:28 6.9 0 7.7 61.2 47.8 17.7 9.7 0
2004 11 16 2:43 6.9 0 7.7 61.2 45 16.1 9.7 0
2004 11 16 2:58 6.9 0 7.7 61.2 45 16.1 8 0
2004 11 16 3:13 6.9 0 7.7 62.5 47.8 14.5 9.7 0
2004 11 16 3:28 6.9 0 7.3 63 46.4 14.5 9.7 0
2004 11 16 3:43 6.9 0 7.3 63.8 42.2 12.9 6.4 0
2004 11 16 3:58 6.9 0 6.9 65.4 63.3 12.9 8 0
2004 11 16 4:13 6.5 0 7.3 65.2 35.2 12.9 8 0
2004 11 16 4:28 6.5 0 7.3 64.6 43.6 12.9 6.4 0
2004 11 16 4:43 6.5 0 6.9 67.2 61.9 8 3.2 0
2004 11 16 4:58 6.5 0 6.1 68.3 63.3 8 3.2 0
2004 11 16 5:13 6.5 0 4.5 72.9 255.9 4.8 1.6 0
2004 11 16 5:28 6.5 0 3.2 78.1 255.9 4.8 1.6 0
2004 11 16 5:43 6.5 0 3.6 83.1 191.3 4.8 1.6 0
2004 11 16 5:58 6.5 0 4.5 81.5 185.6 6.4 3.2 0
2004 11 16 6:13 6.1 0 4 77.3 174.4 8 3.2 0
2004 11 16 6:28 6.1 5.9 4 80.7 174.4 6.4 3.2 0
2004 11 16 6:43 6.1 23.5 3.6 80.7 174.4 6.4 1.6 0
2004 11 16 6:58 6.1 76.5 5.7 79.2 174.4 4.8 1.6 0
2004 11 16 7:13 6.1 135.3 7.7 71.9 181.4 3.2 1.6 0
2004 11 16 7:28 6.1 188.2 9.8 62 306.6 4.8 1.6 0
2004 11 16 7:43 6.1 229.4 10.5 57.1 196.9 8 3.2 0
2004 11 16 7:58 5.7 276.5 11.3 54.3 38 6.4 1.6 0
2004 11 16 8:13 5.7 347.1 10.9 55.9 61.9 8 4.8 0
2004 11 16 8:28 5.7 400 11.3 55.2 22.5 11.3 6.4 0
2004 11 16 8:43 6.1 447.1 11.3 54 57.7 12.9 8 0
2004 11 16 8:58 6.1 452.9 11.3 54.5 40.8 14.5 9.7 0
2004 11 16 9:13 6.1 500 11.7 53.7 33.8 14.5 8 0
2004 11 16 9:28 6.1 529.4 12.1 52.5 74.5 16.1 8 0
2004 11 16 9:43 6.1 552.9 11.7 52.9 26.7 14.5 9.7 0
2004 11 16 9:58 6.5 582.4 12.1 53.1 66.1 12.9 8 0
2004 11 16 10:13 6.5 605.9 12.1 53.7 61.9 14.5 8 0
2004 11 16 10:28 6.9 623.5 12.1 53.1 63.3 14.5 9.7 0
2004 11 16 10:43 6.9 641.2 12.5 52.9 92.8 16.1 9.7 0
2004 11 16 10:58 7.3 658.8 12.1 53.9 61.9 17.7 11.3 0
2004 11 16 11:13 7.7 670.6 12.5 52.1 61.9 14.5 9.7 0
2004 11 16 11:28 7.7 682.4 12.9 50.1 38 11.3 8 0
2004 11 16 11:43 8.2 694.1 12.9 49.3 46.4 16.1 9.7 0
2004 11 16 11:58 8.6 664.7 13.3 48.6 53.4 17.7 8 0
2004 11 16 12:13 9 635.3 13.3 49.1 63.3 14.5 8 0
2004 11 16 12:28 9 717.6 13.7 48.2 355.8 17.7 9.7 0
2004 11 16 12:43 9.4 300 12.1 51.4 21.1 12.9 8 0
2004 11 16 12:58 9.8 341.2 13.3 49.1 39.4 12.9 8 0
2004 11 16 13:13 9.8 247.1 13.3 49.4 46.4 14.5 8 0
2004 11 16 13:28 10.1 229.4 12.5 51.4 61.9 12.9 8 0
2004 11 16 13:43 10.5 294.1 12.1 52.1 81.6 14.5 8 0
2004 11 16 13:58 10.5 282.4 12.1 52.5 30.9 14.5 8 0
2004 11 16 14:13 10.5 205.9 12.1 52.5 30.9 16.1 9.7 0
2004 11 16 14:28 10.5 294.1 11.7 54 46.4 19.3 9.7 0
2004 11 16 14:43 10.9 400 12.1 52.5 61.9 14.5 8 0
2004 11 16 14:58 10.9 229.4 12.5 51.9 74.5 12.9 8 0
2004 11 16 15:13 10.9 211.8 12.1 51.2 67.5 12.9 9.7 0
2004 11 16 15:28 10.9 147.1 12.1 52.1 57.7 12.9 8 0
2004 11 16 15:43 10.9 64.7 11.3 53.2 329.1 9.7 4.8 0
2004 11 16 15:58 10.9 35.3 10.9 55.4 16.9 8 4.8 0
2004 11 16 16:13 10.9 17.6 10.1 57.2 33.8 6.4 1.6 0
2004 11 16 16:28 10.9 5.9 9 62.8 95.6 4.8 1.6 0
2004 11 16 16:43 10.9 0 6.9 68.3 25.3 3.2 1.6 0
2004 11 16 16:58 10.5 0 6.1 73.7 296.7 6.4 3.2 0
2004 11 16 17:13 10.5 0 6.5 77.8 310.8 8 6.4 0
2004 11 16 17:28 10.5 0 6.9 74.6 306.6 8 4.8 0
2004 11 16 17:43 10.5 0 6.5 75.9 300.9 8 4.8 0
2004 11 16 17:58 10.1 0 6.1 76.4 298.1 8 4.8 0
2004 11 16 18:13 10.1 0 5.7 78.5 296.7 8 4.8 0
2004 11 16 18:28 9.8 0 5.7 79.6 295.3 8 4.8 0
2004 11 16 18:43 9.8 0 5.3 81.2 293.9 6.4 4.8 0
2004 11 16 18:58 9.8 0 5.7 80.7 291.1 8 4.8 0
2004 11 16 19:13 9.4 0 5.3 81.2 289.7 8 6.4 0
2004 11 16 19:28 9.4 0 4.5 81.5 277 6.4 4.8 0
2004 11 16 19:43 9.4 0 4 86.9 289.7 6.4 4.8 0
2004 11 16 19:58 9 0 3.2 86.1 289.7 6.4 4.8 0
2004 11 16 20:13 9 0 3.6 89 289.7 8 6.4 0
2004 11 16 20:28 9 0 3.6 88.2 291.1 8 4.8 0
2004 11 16 20:43 8.6 0 3.6 88.2 291.1 6.4 4.8 0
2004 11 16 20:58 8.6 0 3.2 90.6 292.5 6.4 6.4 0
2004 11 16 21:13 8.6 0 3.2 89.8 292.5 8 4.8 0
2004 11 16 21:28 8.6 0 3.2 90.6 292.5 6.4 4.8 0
2004 11 16 21:43 8.2 0 3.6 89.8 292.5 6.4 4.8 0
2004 11 16 21:58 8.2 0 3.6 89 292.5 6.4 4.8 0
2004 11 16 22:13 8.2 0 3.6 88.2 292.5 8 4.8 0
2004 11 16 22:28 8.2 0 2.3 90.6 292.5 6.4 4.8 0
2004 11 16 22:43 7.7 0 1.4 93.1 292.5 6.4 4.8 0
2004 11 16 22:58 7.7 0 1.4 95.4 292.5 6.4 4.8 0
2004 11 16 23:13 7.7 0 1 95.4 292.5 6.4 4.8 0
2004 11 16 23:28 7.7 0 1.4 96.2 292.5 6.4 4.8 0
2004 11 16 23:43 7.3 0 1.9 95.4 292.5 6.4 6.4 0
2004 11 16 23:58 7.3 0 2.3 95.4 300.9 8 6.4 0
2004 11 17 0:13 7.3 0 2.7 93.9 299.5 6.4 4.8 0
2004 11 17 0:28 7.3 0 3.2 92.3 299.5 6.4 4.8 0
2004 11 17 0:43 6.9 0 1 93.1 299.5 6.4 4.8 0
2004 11 17 0:58 6.9 0 2.3 96.2 299.5 6.4 4.8 0
2004 11 17 1:13 6.9 0 2.3 96.2 299.5 6.4 4.8 0
2004 11 17 1:28 6.9 0 1 95.4 299.5 4.8 3.2 0
2004 11 17 1:43 6.9 0 1 97.1 299.5 6.4 3.2 0
2004 11 17 1:58 6.5 0 1.9 97.1 299.5 6.4 4.8 0
2004 11 17 2:13 6.5 0 2.3 96.2 299.5 6.4 4.8 0
2004 11 17 2:28 6.5 0 1 95.4 299.5 6.4 4.8 0
2004 11 17 2:43 6.5 0 1.4 96.2 302.3 8 4.8 0
2004 11 17 2:58 6.1 0 1.4 95.4 299.5 8 4.8 0
2004 11 17 3:13 6.1 0 0.6 95.4 302.3 8 4.8 0
2004 11 17 3:28 6.1 0 1.4 96.2 315 8 6.4 0
2004 11 17 3:43 6.1 0 2.3 95.4 293.9 8 4.8 0
2004 11 17 3:58 6.1 0 2.3 93.1 295.3 8 6.4 0
2004 11 17 4:13 6.1 0 2.7 90.6 293.9 8 4.8 0
2004 11 17 4:28 5.7 0 3.2 89 293.9 8 4.8 0
2004 11 17 4:43 5.7 0 3.6 86.6 292.5 8 4.8 0
2004 11 17 4:58 5.7 0 3.6 86.6 292.5 6.4 4.8 0
2004 11 17 5:13 5.7 0 2.3 86.1 292.5 6.4 4.8 0
2004 11 17 5:28 5.7 0 2.3 88.2 299.5 8 4.8 0
2004 11 17 5:43 5.7 0 2.3 90.6 281.3 6.4 4.8 0
2004 11 17 5:58 5.7 0 2.7 87.8 281.3 6.4 3.2 0
2004 11 17 6:13 5.3 0 2.3 88.2 281.3 6.4 1.6 0
2004 11 17 6:28 5.3 5.9 2.3 89 281.3 6.4 3.2 0
2004 11 17 6:43 5.3 35.3 2.3 89.8 246.1 6.4 3.2 0
2004 11 17 6:58 5.3 76.5 4 91.5 246.1 6.4 4.8 0
2004 11 17 7:13 5.3 111.8 6.1 86.9 293.9 6.4 4.8 0
2004 11 17 7:28 5.3 158.8 8.6 79.2 295.3 4.8 3.2 0
2004 11 17 7:43 5.3 135.3 10.5 65.7 293.9 6.4 1.6 0
2004 11 17 7:58 5.3 300 10.5 63.6 293.9 4.8 1.6 0
2004 11 17 8:13 5.3 176.5 10.9 58.1 298.1 4.8 3.2 0
2004 11 17 8:28 5.3 258.8 10.9 59 298.1 4.8 3.2 0
2004 11 17 8:43 5.3 382.4 12.5 53.2 298.1 3.2 0 0
2004 11 17 8:58 5.3 523.5 13.3 50.4 63.3 11.3 3.2 0
2004 11 17 9:13 5.3 423.5 13.3 49.1 49.2 12.9 6.4 0
2004 11 17 9:28 5.3 458.8 12.5 50.7 73.1 16.1 6.4 0
2004 11 17 9:43 5.7 582.4 12.9 48.6 91.4 12.9 6.4 0
2004 11 17 9:58 5.7 623.5 13.3 48.4 108.3 17.7 8 0
2004 11 17 10:13 6.1 623.5 13.3 48.4 33.8 16.1 8 0
2004 11 17 10:28 6.1 658.8 12.9 49.3 49.2 14.5 8 0
2004 11 17 10:43 6.5 664.7 13.7 47.5 71.7 14.5 8 0
2004 11 17 10:58 6.5 682.4 13.3 48.6 56.3 12.9 6.4 0
2004 11 17 11:13 6.9 670.6 13.3 47.2 52 14.5 8 0
2004 11 17 11:28 7.3 635.3 13.3 47.5 36.6 14.5 8 0
2004 11 17 11:43 7.7 776.5 13.7 46.7 21.1 16.1 8 0
2004 11 17 11:58 7.7 694.1 13.7 44.7 40.8 11.3 6.4 0
2004 11 17 12:13 8.2 688.2 14.4 44.4 66.1 14.5 6.4 0
2004 11 17 12:28 8.6 676.5 14.1 43.7 63.3 16.1 9.7 0
2004 11 17 12:43 9 664.7 14.4 43.5 63.3 16.1 8 0
2004 11 17 12:58 9.4 635.3 14.1 43.7 91.4 17.7 9.7 0
2004 11 17 13:13 9.4 617.6 14.1 44.1 61.9 16.1 9.7 0
2004 11 17 13:28 9.8 582.4 14.1 43.7 61.9 12.9 8 0
2004 11 17 13:43 10.1 535.3 14.1 43.7 75.9 11.3 8 0
2004 11 17 13:58 10.1 488.2 14.1 42.9 78.8 14.5 8 0
2004 11 17 14:13 10.5 429.4 14.1 42.9 70.3 14.5 8 0
2004 11 17 14:28 10.5 382.4 13.7 43.2 46.4 16.1 8 0
2004 11 17 14:43 10.9 152.9 13.3 44.7 53.4 11.3 6.4 0
2004 11 17 14:58 10.9 264.7 14.1 43.7 63.3 11.3 6.4 0
2004 11 17 15:13 10.9 200 13.7 43.7 57.7 12.9 8 0
2004 11 17 15:28 10.9 147.1 13.3 44.7 52 16.1 8 0
2004 11 17 15:43 10.9 88.2 12.5 44.9 60.5 12.9 6.4 0
2004 11 17 15:58 11.3 47.1 12.1 46.5 306.6 14.5 6.4 0
2004 11 17 16:13 10.9 11.8 11.3 49.6 21.1 6.4 3.2 0
2004 11 17 16:28 10.9 5.9 9.8 54.3 104.1 6.4 3.2 0
2004 11 17 16:43 10.9 0 8.2 59.4 167.3 4.8 1.6 0
2004 11 17 16:58 10.9 0 6.9 65.2 277 4.8 3.2 0
2004 11 17 17:13 10.9 0 6.1 70.9 303.8 6.4 3.2 0
2004 11 17 17:28 10.5 0 5.3 74.9 303.8 4.8 3.2 0
2004 11 17 17:43 10.5 0 6.1 75.9 303.8 4.8 3.2 0
2004 11 17 17:58 10.1 0 5.3 77 303.8 4.8 3.2 0
2004 11 17 18:13 10.1 0 5.3 81.2 302.3 6.4 4.8 0
2004 11 17 18:28 10.1 0 4.9 81.5 300.9 6.4 4.8 0
2004 11 17 18:43 9.8 0 4.9 82.6 300.9 6.4 4.8 0
2004 11 17 18:58 9.8 0 2.7 84.3 300.9 4.8 3.2 0
2004 11 17 19:13 9.4 0 3.2 87.8 300.9 6.4 4.8 0
2004 11 17 19:28 9.4 0 2.7 87.8 300.9 6.4 4.8 0
2004 11 17 19:43 9.4 0 3.2 90.6 300.9 6.4 4.8 0
2004 11 17 19:58 9 0 3.2 90.6 300.9 6.4 4.8 0
2004 11 17 20:13 9 0 2.7 88.2 300.9 6.4 4.8 0
2004 11 17 20:28 9 0 1.9 92.3 300.9 4.8 4.8 0
2004 11 17 20:43 8.6 0 1.9 93.9 300.9 6.4 4.8 0
2004 11 17 20:58 8.6 0 2.7 93.1 300.9 8 6.4 0
2004 11 17 21:13 8.6 0 1.9 91.5 299.5 9.7 6.4 0
2004 11 17 21:28 8.2 0 1.9 93.1 299.5 6.4 4.8 0
2004 11 17 21:43 8.2 0 1.9 92.3 299.5 6.4 4.8 0
2004 11 17 21:58 8.2 0 1.9 92.3 299.5 6.4 4.8 0
2004 11 17 22:13 7.7 0 1.4 92.3 299.5 6.4 4.8 0
2004 11 17 22:28 7.7 0 1.9 93.9 300.9 9.7 6.4 0
2004 11 17 22:43 7.7 0 2.3 90.6 296.7 8 6.4 0
2004 11 17 22:58 7.7 0 1.9 89.8 296.7 6.4 4.8 0
2004 11 17 23:13 7.3 0 1 91.5 296.7 8 4.8 0
2004 11 17 23:28 7.3 0 1.9 93.9 296.7 6.4 4.8 0
2004 11 17 23:43 7.3 0 1.9 92.3 296.7 8 6.4 0
2004 11 17 23:58 7.3 0 1.9 92.3 296.7 6.4 4.8 0
2004 11 18 0:13 6.9 0 2.7 90.6 295.3 8 6.4 0
2004 11 18 0:28 6.9 0 2.3 87.8 295.3 8 6.4 0
2004 11 18 0:43 6.9 0 2.3 87.8 296.7 8 6.4 0
2004 11 18 0:58 6.9 0 2.3 88.2 296.7 8 4.8 0
2004 11 18 1:13 6.5 0 2.7 88.2 296.7 8 4.8 0
2004 11 18 1:28 6.5 0 2.7 88.2 296.7 8 6.4 0
2004 11 18 1:43 6.5 0 2.7 87.8 295.3 8 6.4 0
2004 11 18 1:58 6.5 0 2.7 87.8 295.3 8 6.4 0
2004 11 18 2:13 6.5 0 2.7 88.2 295.3 8 6.4 0
2004 11 18 2:28 6.1 0 2.3 88.2 295.3 8 4.8 0
2004 11 18 2:43 6.1 0 1.4 90.6 295.3 6.4 6.4 0
2004 11 18 2:58 6.1 0 2.3 91.5 292.5 9.7 6.4 0
2004 11 18 3:13 6.1 0 1.4 89.8 291.1 9.7 6.4 0
2004 11 18 3:28 6.1 0 1.9 92.3 293.9 9.7 6.4 0
2004 11 18 3:43 6.1 0 2.3 89.8 285.5 9.7 6.4 0
2004 11 18 3:58 6.1 0 1.9 90.6 295.3 9.7 6.4 0
2004 11 18 4:13 5.7 0 1.9 89.8 300.9 8 6.4 0
2004 11 18 4:28 5.7 0 3.2 88.2 299.5 6.4 6.4 0
2004 11 18 4:43 5.7 0 4 85.7 338.9 8 4.8 0
2004 11 18 4:58 5.7 0 3.6 80.7 306.6 8 4.8 0
2004 11 18 5:13 5.7 0 2.3 85.7 303.8 9.7 6.4 0
2004 11 18 5:28 5.7 0 2.3 87.8 310.8 8 6.4 0
2004 11 18 5:43 5.7 0 2.3 87.8 313.6 6.4 4.8 0
2004 11 18 5:58 5.3 0 1.9 89.8 303.8 8 4.8 0
2004 11 18 6:13 5.3 0 2.3 90.6 310.8 9.7 6.4 0
2004 11 18 6:28 5.3 5.9 3.2 90.6 306.6 8 4.8 0
2004 11 18 6:43 5.3 35.3 4 86.1 296.7 8 4.8 0
2004 11 18 6:58 5.3 76.5 8.2 76.4 53.4 16.1 6.4 0
2004 11 18 7:13 5.3 117.6 10.1 60.1 12.7 16.1 8 0
2004 11 18 7:28 5.3 170.6 10.9 55.4 23.9 12.9 8 0
2004 11 18 7:43 5.3 217.6 11.3 53.1 53.4 16.1 8 0
2004 11 18 7:58 5.3 270.6 11.3 51.7 30.9 12.9 8 0
2004 11 18 8:13 5.3 317.6 12.1 50.9 50.6 17.7 6.4 0
2004 11 18 8:28 5.3 364.7 12.5 49.4 353 9.7 6.4 0
2004 11 18 8:43 5.3 411.8 13.7 47.7 357.2 8 3.2 0
2004 11 18 8:58 5.3 452.9 12.5 50.3 323.4 12.9 8 0
2004 11 18 9:13 5.3 488.2 12.9 50.1 63.3 9.7 6.4 0
2004 11 18 9:28 5.7 523.5 12.9 50.4 63.3 12.9 8 0
2004 11 18 9:43 5.7 547.1 14.1 46.9 15.5 12.9 4.8 0
2004 11 18 9:58 5.7 576.5 13.7 43.9 296.7 11.3 4.8 0
2004 11 18 10:13 6.1 600 14.4 44.1 68.9 11.3 4.8 0
2004 11 18 10:28 6.1 617.6 14.1 44.6 315 12.9 4.8 0
2004 11 18 10:43 6.5 635.3 13.7 47.2 63.3 14.5 8 0
2004 11 18 10:58 6.9 652.9 13.3 48.4 32.3 16.1 11.3 0
2004 11 18 11:13 6.9 664.7 14.4 43.9 323.4 9.7 4.8 0
2004 11 18 11:28 7.3 676.5 14.8 42.7 257.3 12.9 4.8 0
2004 11 18 11:43 7.7 682.4 14.8 42 201.1 8 3.2 0
2004 11 18 11:58 8.2 688.2 14.4 43.2 168.8 8 3.2 0
2004 11 18 12:13 8.6 682.4 14.8 41.4 300.9 12.9 4.8 0
2004 11 18 12:28 9 682.4 14.8 43.5 21.1 11.3 4.8 0
2004 11 18 12:43 9 658.8 14.4 43.5 118.1 9.7 4.8 0
2004 11 18 12:58 9.4 635.3 14.8 42 323.4 11.3 4.8 0
2004 11 18 13:13 9.8 605.9 14.8 41.8 277 12.9 6.4 0
2004 11 18 13:28 10.1 570.6 14.4 42 281.3 11.3 6.4 0
2004 11 18 13:43 10.1 529.4 14.8 42.7 282.7 16.1 6.4 0
2004 11 18 13:58 10.5 482.4 14.8 42.7 313.6 9.7 4.8 0
2004 11 18 14:13 10.5 429.4 14.8 42.7 270 11.3 6.4 0
2004 11 18 14:28 10.9 370.6 14.8 42.7 213.8 9.7 4.8 0
2004 11 18 14:43 10.9 311.8 14.8 43.2 281.3 11.3 4.8 0
2004 11 18 14:58 10.9 247.1 14.4 43.2 274.2 8 4.8 0
2004 11 18 15:13 11.3 188.2 14.4 42 291.1 6.4 3.2 0
2004 11 18 15:28 11.3 135.3 14.4 42 284.1 6.4 3.2 0
2004 11 18 15:43 11.3 76.5 13.3 43.7 270 6.4 3.2 0
2004 11 18 15:58 11.3 47.1 12.5 46.7 289.7 4.8 3.2 0
2004 11 18 16:13 11.3 11.8 10.5 50.3 275.6 6.4 3.2 0
2004 11 18 16:28 11.3 5.9 8.2 57.7 274.2 4.8 3.2 0
2004 11 18 16:43 11.3 0 7.3 63 288.3 6.4 4.8 0
2004 11 18 16:58 10.9 0 7.3 62.6 291.1 8 6.4 0
2004 11 18 17:13 10.9 0 6.5 66.2 295.3 8 4.8 0
2004 11 18 17:28 10.9 0 6.5 69.2 289.7 9.7 6.4 0
2004 11 18 17:43 10.5 0 6.9 67.7 299.5 11.3 6.4 0
2004 11 18 17:58 10.5 0 6.5 69.5 292.5 8 6.4 0
2004 11 18 18:13 10.1 0 6.1 71.9 300.9 8 6.4 0
2004 11 18 18:28 10.1 0 5.7 74.1 291.1 9.7 6.4 0
2004 11 18 18:43 10.1 0 5.7 76.2 286.9 8 6.4 0
2004 11 18 18:58 9.8 0 6.1 78.5 302.3 9.7 6.4 0
2004 11 18 19:13 9.8 0 6.5 76.8 300.9 9.7 6.4 0
2004 11 18 19:28 9.4 0 6.5 76.4 300.9 9.7 8 0
2004 11 18 19:43 9.4 0 6.1 79.2 293.9 9.7 6.4 0
2004 11 18 19:58 9.4 0 5.3 81.5 292.5 6.4 4.8 0
2004 11 18 20:13 9 0 5.3 84.3 285.5 8 4.8 0
2004 11 18 20:28 9 0 4.9 84.3 289.7 6.4 4.8 0
2004 11 18 20:43 9 0 4.5 86.9 288.3 8 6.4 0
2004 11 18 20:58 9 0 5.3 85.7 289.7 8 4.8 0
2004 11 18 21:13 8.6 0 4 84.3 288.3 6.4 3.2 0
2004 11 18 21:28 8.6 0 2.3 89 310.8 6.4 4.8 0
2004 11 18 21:43 8.6 0 2.7 92.3 305.2 6.4 4.8 0
2004 11 18 21:58 8.2 0 2.7 92.3 295.3 8 6.4 0
2004 11 18 22:13 8.2 0 4.5 90.6 281.3 8 4.8 0
2004 11 18 22:28 8.2 0 4.5 85.7 298.1 8 6.4 0
2004 11 18 22:43 8.2 0 5.3 82.6 313.6 8 6.4 0
2004 11 18 22:58 7.7 0 5.3 81.2 313.6 8 6.4 0
2004 11 18 23:13 7.7 0 5.3 81.2 315 8 6.4 0
2004 11 18 23:28 7.7 0 4.9 80.7 308 8 6.4 0
2004 11 18 23:43 7.7 0 4.5 81.5 296.7 8 6.4 0
2004 11 18 23:58 7.3 0 4.5 80.7 295.3 8 6.4 0
2004 11 19 0:13 7.3 0 3.6 82.6 292.5 8 6.4 0
2004 11 19 0:28 7.3 0 2.7 82.6 296.7 8 6.4 0
2004 11 19 0:43 7.3 0 2.7 86.6 299.5 8 4.8 0
2004 11 19 0:58 7.3 0 1.9 86.9 299.5 8 6.4 0
2004 11 19 1:13 6.9 0 1.4 88.2 298.1 6.4 6.4 0
2004 11 19 1:28 6.9 0 2.7 88.2 296.7 8 6.4 0
2004 11 19 1:43 6.9 0 3.2 86.6 298.1 8 6.4 0
2004 11 19 1:58 6.9 0 2.7 86.1 292.5 6.4 6.4 0
2004 11 19 2:13 6.5 0 2.7 86.6 295.3 8 6.4 0
2004 11 19 2:28 6.5 0 3.6 85.7 300.9 8 6.4 0
2004 11 19 2:43 6.5 0 3.2 85.7 292.5 6.4 4.8 0
2004 11 19 2:58 6.5 0 3.6 84.8 291.1 8 6.4 0
2004 11 19 3:13 6.5 0 3.6 82.6 298.1 6.4 4.8 0
2004 11 19 3:28 6.1 0 3.2 83.5 302.3 6.4 4.8 0
2004 11 19 3:43 6.1 0 3.2 83.5 298.1 8 6.4 0
2004 11 19 3:58 6.1 0 3.2 84.3 299.5 8 6.4 0
2004 11 19 4:13 6.1 0 2.7 84.3 298.1 8 6.4 0
2004 11 19 4:28 6.1 0 2.7 84.3 299.5 6.4 6.4 0
2004 11 19 4:43 6.1 0 2.3 84.8 299.5 6.4 4.8 0
2004 11 19 4:58 5.7 0 1.9 85.7 299.5 6.4 4.8 0
2004 11 19 5:13 5.7 0 1.9 86.9 299.5 6.4 6.4 0
2004 11 19 5:28 5.7 0 1 86.9 299.5 6.4 4.8 0
2004 11 19 5:43 5.7 0 1.4 88.2 292.5 8 4.8 0
2004 11 19 5:58 5.7 0 1.4 86.9 299.5 6.4 4.8 0
2004 11 19 6:13 5.7 0 1.9 86.6 295.3 6.4 6.4 0
2004 11 19 6:28 5.3 5.9 1.4 85.7 295.3 6.4 4.8 0
2004 11 19 6:43 5.3 29.4 2.3 84.3 293.9 6.4 4.8 0
2004 11 19 6:58 5.3 76.5 5.3 79.2 299.5 6.4 4.8 0
2004 11 19 7:13 5.3 117.6 8.2 69.2 296.7 6.4 3.2 0
2004 11 19 7:28 5.3 164.7 10.1 60.7 296.7 4.8 3.2 0
2004 11 19 7:43 5.3 217.6 11.3 51.1 315 8 4.8 0
2004 11 19 7:58 5.3 264.7 12.1 47.2 302.3 9.7 6.4 0
2004 11 19 8:13 5.3 317.6 12.5 45.6 306.6 8 4.8 0
2004 11 19 8:28 5.3 364.7 12.9 43.9 319.2 8 6.4 0
2004 11 19 8:43 5.3 411.8 13.3 43.7 298.1 8 4.8 0
2004 11 19 8:58 5.3 452.9 14.1 41.4 270 6.4 3.2 0
2004 11 19 9:13 5.3 488.2 14.1 41.4 303.8 9.7 4.8 0
2004 11 19 9:28 5.3 517.6 14.1 40.9 302.3 9.7 6.4 0
2004 11 19 9:43 5.7 547.1 14.1 41.8 334.7 12.9 8 0
2004 11 19 9:58 5.7 576.5 14.4 40.5 313.6 12.9 4.8 0
2004 11 19 10:13 6.1 600 14.4 40 279.8 8 4.8 0
2004 11 19 10:28 6.1 617.6 14.4 39.4 312.2 12.9 6.4 0
2004 11 19 10:43 6.5 647.1 14.8 38.5 338.9 14.5 6.4 0
2004 11 19 10:58 6.5 700 15.2 38.2 331.9 16.1 6.4 0
2004 11 19 11:13 6.9 705.9 15.2 38.2 309.4 12.9 6.4 0
2004 11 19 11:28 7.3 570.6 15.2 38.2 343.1 12.9 6.4 0
2004 11 19 11:43 7.7 729.4 14.8 41.2 111.1 9.7 4.8 0
2004 11 19 11:58 8.2 600 14.4 41.8 97 14.5 6.4 0
2004 11 19 12:13 8.6 447.1 14.8 41.4 67.5 11.3 4.8 0
2004 11 19 12:28 8.6 700 14.4 41.4 140.6 12.9 8 0
2004 11 19 12:43 9 688.2 15.2 41.4 78.8 17.7 8 0
2004 11 19 12:58 9.4 647.1 14.8 41.4 52 12.9 8 0
2004 11 19 13:13 9.8 617.6 14.4 42 140.6 16.1 8 0
2004 11 19 13:28 10.1 576.5 14.4 41.8 71.7 12.9 6.4 0
2004 11 19 13:43 10.1 382.4 14.8 41.8 87.2 12.9 8 0
2004 11 19 13:58 10.5 435.3 13.7 42.3 73.1 12.9 8 0
2004 11 19 14:13 10.5 247.1 13.7 42.7 77.3 17.7 8 0
2004 11 19 14:28 10.9 235.3 13.3 43.7 38 14.5 8 0
2004 11 19 14:43 10.9 129.4 12.5 44.4 59.1 14.5 8 0
2004 11 19 14:58 11.3 158.8 12.5 45.4 75.9 12.9 8 0
2004 11 19 15:13 11.3 117.6 12.1 47.5 63.3 14.5 8 0
2004 11 19 15:28 11.3 70.6 11.3 52.2 331.9 12.9 8 0
2004 11 19 15:43 11.3 64.7 10.9 54.7 337.5 11.3 8 0
2004 11 19 15:58 11.3 58.8 11.3 51.9 343.1 8 3.2 0
2004 11 19 16:13 11.3 29.4 10.9 51.7 61.9 8 3.2 0
2004 11 19 16:28 11.3 5.9 10.5 48.4 56.3 11.3 6.4 0
2004 11 19 16:43 11.3 0 9.4 50.3 52 4.8 1.6 0
2004 11 19 16:58 10.9 0 8.2 56.5 52 0 0 0
2004 11 19 17:13 10.9 0 7.3 59.2 40.8 3.2 0 0
2004 11 19 17:28 10.9 0 8.2 58.4 1.4 14.5 3.2 0
2004 11 19 17:43 10.9 0 9.8 48.4 357.2 20.9 8 0
2004 11 19 17:58 10.5 0 9.8 47.2 33.8 25.7 9.7 0
2004 11 19 18:13 10.5 0 9.8 47.2 16.9 24.1 12.9 0
2004 11 19 18:28 10.5 0 9.8 46.9 22.5 25.7 11.3 0
2004 11 19 18:43 10.1 0 9.8 47.5 344.5 20.9 9.7 0
2004 11 19 18:58 10.1 0 9.8 47.7 57.7 24.1 9.7 0
2004 11 19 19:13 10.1 0 9.4 48.4 1.4 24.1 8 0
2004 11 19 19:28 9.8 0 9.4 49.1 327.7 19.3 8 0
2004 11 19 19:43 9.8 0 9.4 49.4 36.6 22.5 8 0
2004 11 19 19:58 9.8 0 9 50.4 0 20.9 8 0
2004 11 19 20:13 9.8 0 9 51.2 63.3 19.3 6.4 0
2004 11 19 20:28 9.4 0 8.6 53.2 63.3 16.1 8 0
2004 11 19 20:43 9.4 0 8.6 53.7 57.7 17.7 8 0
2004 11 19 20:58 9.4 0 8.2 54 38 17.7 8 0
2004 11 19 21:13 9.4 0 8.6 53.7 56.3 19.3 9.7 0
2004 11 19 21:28 9 0 8.2 56.2 23.9 16.1 9.7 0
2004 11 19 21:43 9 0 8.2 57.1 61.9 19.3 9.7 0
2004 11 19 21:58 9 0 8.2 57.4 2.8 19.3 11.3 0
2004 11 19 22:13 9 0 7.7 57.5 12.7 16.1 8 0
2004 11 19 22:28 8.6 0 7.7 56.8 52 12.9 8 0
2004 11 19 22:43 8.6 0 7.7 57.2 49.2 11.3 6.4 0
2004 11 19 22:58 8.6 0 7.3 57.2 135 14.5 4.8 0
2004 11 19 23:13 8.6 0 6.5 59.8 344.5 4.8 1.6 0
2004 11 19 23:28 8.2 0 6.1 60.9 355.8 9.7 1.6 0
2004 11 19 23:43 8.2 0 7.3 57.5 32.3 14.5 4.8 0
2004 11 19 23:58 8.2 0 7.7 54.3 61.9 14.5 8 0
2004 11 20 0:13 8.2 0 6.9 56.5 40.8 14.5 8 0
2004 11 20 0:28 8.2 0 6.9 59.8 66.1 16.1 8 0
2004 11 20 0:43 7.7 0 6.9 60.3 45 20.9 9.7 0
2004 11 20 0:58 7.7 0 6.5 63 26.7 22.5 14.5 0
2004 11 20 1:13 7.7 0 6.9 62.8 43.6 22.5 12.9 0
2004 11 20 1:28 7.7 0 6.5 61.9 23.9 19.3 12.9 0
2004 11 20 1:43 7.7 0 6.5 61.7 33.8 22.5 14.5 0
2004 11 20 1:58 7.7 0 6.5 61.5 45 24.1 14.5 0
2004 11 20 2:13 7.3 0 6.1 61.2 25.3 17.7 12.9 0
2004 11 20 2:28 7.3 0 6.1 61.9 26.7 24.1 14.5 0
2004 11 20 2:43 7.3 0 6.1 62 61.9 27.4 17.7 0
2004 11 20 2:58 7.3 0 6.1 62.3 28.1 29 16.1 0
2004 11 20 3:13 7.3 0 5.7 64.4 22.5 27.4 16.1 0
2004 11 20 3:28 7.3 0 5.7 64.6 21.1 27.4 17.7 0
2004 11 20 3:43 7.3 0 5.3 66.6 61.9 25.7 16.1 0
2004 11 20 3:58 6.9 0 5.3 68.6 53.4 29 16.1 0
2004 11 20 4:13 6.9 0 4.9 69.2 42.2 25.7 16.1 0
2004 11 20 4:28 6.9 0 4.9 70 49.2 30.6 16.1 0
2004 11 20 4:43 6.9 0 4.5 71.6 70.3 24.1 16.1 0
2004 11 20 4:58 6.9 0 4.9 70.5 8.4 32.2 17.7 0
2004 11 20 5:13 6.9 0 4.9 68.3 30.9 27.4 16.1 0
2004 11 20 5:28 6.9 0 4.9 67.7 61.9 27.4 17.7 0
2004 11 20 5:43 6.5 0 4.5 68.3 47.8 24.1 16.1 0
2004 11 20 5:58 6.5 0 4.5 69.5 56.3 29 16.1 0
2004 11 20 6:13 6.5 0 4 70.9 18.3 24.1 14.5 0
2004 11 20 6:28 6.5 5.9 4.5 70.5 30.9 25.7 12.9 0
2004 11 20 6:43 6.5 29.4 4.5 67.2 19.7 29 14.5 0
2004 11 20 6:58 6.5 70.6 4.9 65.5 52 22.5 12.9 0
2004 11 20 7:13 6.5 111.8 4.9 66.6 61.9 24.1 14.5 0
2004 11 20 7:28 6.5 170.6 5.3 66 59.1 25.7 16.1 0
2004 11 20 7:43 6.1 152.9 5.7 63.8 59.1 25.7 14.5 0
2004 11 20 7:58 6.1 188.2 5.7 63.8 47.8 27.4 14.5 0
2004 11 20 8:13 6.1 405.9 5.7 64.4 46.4 16.1 9.7 0
2004 11 20 8:28 6.1 394.1 6.1 64.7 46.4 16.1 8 0
2004 11 20 8:43 6.1 400 6.9 60.3 71.7 16.1 9.7 0
2004 11 20 8:58 6.5 435.3 7.7 59.2 40.8 17.7 11.3 0
2004 11 20 9:13 6.5 476.5 8.2 56.3 39.4 16.1 6.4 0
2004 11 20 9:28 6.5 517.6 8.2 57.7 326.3 12.9 8 0
2004 11 20 9:43 6.5 552.9 8.6 53.1 333.3 12.9 8 0
2004 11 20 9:58 6.5 641.2 9.4 51.2 320.6 14.5 8 0
2004 11 20 10:13 6.9 511.8 9 49.6 278.4 17.7 9.7 0
2004 11 20 10:28 6.9 488.2 9.4 49.6 313.6 16.1 9.7 0
2004 11 20 10:43 6.9 341.2 8.2 47.7 306.6 16.1 11.3 0
2004 11 20 10:58 7.3 682.4 8.6 46.7 312.2 17.7 11.3 0
2004 11 20 11:13 7.7 605.9 8.6 46.9 282.7 20.9 12.9 0
2004 11 20 11:28 7.7 682.4 8.6 46.9 291.1 17.7 11.3 0
2004 11 20 11:43 8.2 670.6 9 45.8 316.4 14.5 9.7 0
2004 11 20 11:58 8.2 676.5 9.4 45.1 308 14.5 8 0
2004 11 20 12:13 8.6 752.9 9.4 45.1 281.3 12.9 9.7 0
2004 11 20 12:28 9 705.9 9.4 45.1 265.8 12.9 8 0
2004 11 20 12:43 9 641.2 9.8 44.9 299.5 16.1 8 0
2004 11 20 12:58 9.4 623.5 9.8 44.9 308 12.9 6.4 0
2004 11 20 13:13 9.4 458.8 9 45.8 263 11.3 6.4 0
2004 11 20 13:28 9.8 570.6 10.1 46 170.2 6.4 3.2 0
2004 11 20 13:43 9.8 523.5 10.5 47.5 129.4 16.1 8 0
2004 11 20 13:58 10.1 476.5 10.5 47.5 174.4 19.3 8 0
2004 11 20 14:13 10.1 447.1 10.9 46.5 154.7 12.9 6.4 0
2004 11 20 14:28 10.1 429.4 10.9 45.6 187 11.3 6.4 0
2004 11 20 14:43 10.5 329.4 10.9 44.9 248.9 14.5 6.4 0
2004 11 20 14:58 10.5 176.5 10.5 44.4 248.9 12.9 8 0
2004 11 20 15:13 10.5 100 9 46.5 243.3 11.3 6.4 0
2004 11 20 15:28 10.5 70.6 8.2 48 305.2 11.3 8 0
2004 11 20 15:43 10.9 35.3 7.7 49.1 288.3 12.9 8 0
2004 11 20 15:58 10.9 23.5 7.3 49.3 299.5 12.9 8 0
2004 11 20 16:13 10.9 11.8 6.9 49.1 299.5 16.1 9.7 0
2004 11 20 16:28 10.5 0 6.1 50.1 298.1 19.3 11.3 0
2004 11 20 16:43 10.5 0 5.7 51.1 286.9 17.7 9.7 0
2004 11 20 16:58 10.5 0 5.7 51.7 288.3 14.5 9.7 0
2004 11 20 17:13 10.5 0 5.7 51.9 302.3 12.9 8 0
2004 11 20 17:28 10.1 0 4.9 53.1 292.5 9.7 4.8 0
2004 11 20 17:43 10.1 0 4.5 54 316.4 8 4.8 0
2004 11 20 17:58 10.1 0 4.5 53.7 331.9 6.4 3.2 0
2004 11 20 18:13 10.1 0 4.5 55 303.8 6.4 3.2 0
2004 11 20 18:28 9.8 0 4.9 53.7 319.2 8 4.8 0
2004 11 20 18:43 9.8 0 4.5 50.7 7 17.7 11.3 0
2004 11 20 18:58 9.8 0 4.5 49.1 336.1 22.5 11.3 0
2004 11 20 19:13 9.4 0 4.5 49.9 123.8 12.9 6.4 0
2004 11 20 19:28 9.4 0 3.6 51.1 292.5 22.5 8 0
2004 11 20 19:43 9.4 0 3.6 52.5 265.8 14.5 6.4 0
2004 11 20 19:58 9.4 0 3.2 50.7 308 20.9 11.3 0
2004 11 20 20:13 9 0 2.7 53.7 306.6 24.1 12.9 0
2004 11 20 20:28 9 0 2.3 57.1 302.3 25.7 12.9 0
2004 11 20 20:43 9 0 1.9 59.6 330.5 20.9 12.9 0
2004 11 20 20:58 9 0 1.4 64.6 322 20.9 12.9 0
2004 11 20 21:13 8.6 0 0.1 77 303.8 17.7 11.3 0
2004 11 20 21:28 8.6 0 0.1 84.3 25.3 14.5 8 0
2004 11 20 21:43 8.6 0 0.1 84.3 243.3 19.3 8 0
2004 11 20 21:58 8.2 0 0.1 85.7 293.9 24.1 8 0
2004 11 20 22:13 8.2 0 -0.8 88.2 326.3 20.9 8 0
2004 11 20 22:28 8.2 0 -1.3 96.2 288.3 20.9 8 0
2004 11 20 22:43 7.7 0 -1.7 99.5 319.2 11.3 8 0
2004 11 20 22:58 7.7 0 -1.7 100 289.7 11.3 8 0
2004 11 20 23:13 7.7 0 -2.2 100 324.8 12.9 6.4 0
2004 11 20 23:28 7.3 0 -1.7 100 315 11.3 8 0
2004 11 20 23:43 7.3 0 -1.7 100 353 16.1 6.4 0
2004 11 20 23:58 7.3 0 -1.7 100 324.8 11.3 6.4 0
2004 11 21 0:13 6.9 0 -1.7 100 327.7 12.9 8 0
2004 11 21 0:28 6.9 0 -1.7 100 308 20.9 6.4 0
2004 11 21 0:43 6.9 0 -2.2 100 42.2 19.3 6.4 0
2004 11 21 0:58 6.5 0 -2.2 100 42.2 17.7 9.7 0
2004 11 21 1:13 6.5 0 -2.2 100 306.6 16.1 8 0
2004 11 21 1:28 6.5 0 -2.7 100 353 17.7 9.7 0
2004 11 21 1:43 6.5 0 -2.7 100 56.3 17.7 9.7 0
2004 11 21 1:58 6.1 0 -2.7 100 12.7 20.9 9.7 0
2004 11 21 2:13 6.1 0 -2.7 100 340.3 19.3 9.7 0
2004 11 21 2:28 6.1 0 -2.7 100 348.8 16.1 8 0
2004 11 21 2:43 6.1 0 -2.7 100 5.6 19.3 8 0
2004 11 21 2:58 6.1 0 -2.7 99.5 289.7 12.9 6.4 0
2004 11 21 3:13 6.1 0 -3.1 100 340.3 4.8 1.6 0
2004 11 21 3:28 5.7 0 -3.1 100 61.9 8 3.2 0
2004 11 21 3:43 5.7 0 -3.1 100 180 11.3 3.2 0
2004 11 21 3:58 5.7 0 -3.1 100 263 22.5 8 0
2004 11 21 4:13 5.7 0 -3.1 100 278.4 20.9 8 0
2004 11 21 4:28 5.7 0 -3.1 100 322 22.5 9.7 0
2004 11 21 4:43 5.7 0 -3.1 100 341.7 19.3 9.7 0
2004 11 21 4:58 5.3 0 -3.1 99.5 11.3 16.1 9.7 0
2004 11 21 5:13 5.3 0 -3.1 99.5 57.7 20.9 11.3 0
2004 11 21 5:28 5.3 0 -3.1 99.5 322 19.3 9.7 0
2004 11 21 5:43 5.3 0 -3.1 99.5 22.5 22.5 11.3 0
2004 11 21 5:58 5.3 0 -3.1 99.5 312.2 17.7 8 0
2004 11 21 6:13 5.3 0 -3.1 100 22.5 22.5 8 0
2004 11 21 6:28 5.3 0 -3.6 100 310.8 27.4 9.7 0
2004 11 21 6:43 5.3 5.9 -3.6 100 178.6 19.3 6.4 0
2004 11 21 6:58 4.9 5.9 -3.1 100 120.9 16.1 4.8 0
2004 11 21 7:13 4.9 11.8 -3.1 100 312.2 14.5 6.4 0
2004 11 21 7:28 4.9 23.5 -3.1 100 337.5 24.1 8 0
2004 11 21 7:43 4.9 29.4 -3.1 100 320.6 33.8 11.3 0
2004 11 21 7:58 4.9 52.9 -3.1 100 337.5 33.8 16.1 0
2004 11 21 8:13 4.9 88.2 -2.7 100 327.7 27.4 16.1 0
2004 11 21 8:28 4.9 111.8 -2.2 100 316.4 46.7 17.7 0
2004 11 21 8:43 4.9 158.8 -2.2 99.5 329.1 33.8 14.5 0
2004 11 21 8:58 4.9 158.8 -2.2 99.5 323.4 46.7 20.9 0
2004 11 21 9:13 4.9 158.8 -2.2 100 23.9 66 20.9 0
2004 11 21 9:28 4.5 182.4 -1.7 99.5 305.2 49.9 12.9 0
2004 11 21 9:43 4.5 229.4 -1.7 99.5 345.9 46.7 17.7 0
2004 11 21 9:58 4.5 182.4 -1.7 99.5 319.2 40.2 11.3 0
2004 11 21 10:13 4.5 182.4 -1.7 100 22.5 38.6 14.5 0
2004 11 21 10:28 4.5 229.4 -1.7 100 300.9 38.6 17.7 0
2004 11 21 10:43 4.5 294.1 -1.3 100 355.8 41.8 14.5 0
2004 11 21 10:58 4.5 364.7 -1.3 100 281.3 45.1 17.7 0
2004 11 21 11:13 4.5 329.4 -0.8 100 323.4 48.3 16.1 0
2004 11 21 11:28 4.5 388.2 -0.8 99.5 316.4 45.1 16.1 0
2004 11 21 11:43 4.5 305.9 -0.3 100 350.2 33.8 12.9 0
2004 11 21 11:58 4.5 247.1 -0.8 100 348.8 41.8 14.5 0
2004 11 21 12:13 4.5 294.1 -0.3 100 302.3 33.8 11.3 0
2004 11 21 12:28 4 329.4 -0.3 99.5 261.6 41.8 9.7 0
2004 11 21 12:43 4 241.2 0.1 97.1 75.9 25.7 8 0
2004 11 21 12:58 4 176.5 -0.8 97.1 19.7 38.6 11.3 0
2004 11 21 13:13 4 176.5 -0.8 100 68.9 41.8 11.3 0
2004 11 21 13:28 4 217.6 -0.8 100 9.8 37 14.5 0
2004 11 21 13:43 4 229.4 -0.3 100 61.9 27.4 12.9 0
2004 11 21 13:58 4 194.1 -0.8 100 57.7 32.2 14.5 0
2004 11 21 14:13 4 135.3 -0.8 100 326.3 38.6 8 0
2004 11 21 14:28 4 182.4 -0.3 100 319.2 29 9.7 0
2004 11 21 14:43 4 129.4 -0.3 100 285.5 30.6 8 0
2004 11 21 14:58 4 117.6 -0.8 100 112.5 22.5 8 0
2004 11 21 15:13 4 123.5 -0.8 100 2.8 29 14.5 0
2004 11 21 15:28 4 170.6 -0.8 100 36.6 27.4 12.9 0
2004 11 21 15:43 4 111.8 -0.8 100 50.6 25.7 14.5 0
2004 11 21 15:58 3.6 64.7 -0.8 100 68.9 24.1 14.5 0
2004 11 21 16:13 3.6 29.4 -0.8 100 288.3 22.5 12.9 0
2004 11 21 16:28 3.6 0 -1.3 100 61.9 25.7 9.7 0
2004 11 21 16:43 3.6 0 -1.3 100 45 19.3 9.7 0
2004 11 21 16:58 3.6 0 -1.3 100 61.9 16.1 8 0
2004 11 21 17:13 3.6 0 -1.3 100 61.9 19.3 9.7 0
2004 11 21 17:28 3.6 0 -1.3 100 42.2 14.5 8 0
2004 11 21 17:43 3.6 0 -1.3 100 50.6 16.1 8 0
2004 11 21 17:58 3.6 0 -1.3 100 26.7 14.5 8 0
2004 11 21 18:13 3.6 0 -1.3 100 91.4 14.5 6.4 0
2004 11 21 18:28 3.6 0 -1.3 100 61.9 17.7 8 0
2004 11 21 18:43 3.6 0 -1.3 100 85.8 12.9 8 0
2004 11 21 18:58 3.6 0 -1.3 100 53.4 16.1 9.7 0
2004 11 21 19:13 3.6 0 -1.3 100 39.4 20.9 9.7 0
2004 11 21 19:28 3.6 0 -1.3 100 25.3 17.7 9.7 0
2004 11 21 19:43 3.6 0 -1.3 100 336.1 16.1 8 0
2004 11 21 19:58 3.6 0 -1.3 100 105.5 25.7 8 0
2004 11 21 20:13 3.6 0 -1.3 100 28.1 14.5 6.4 0
2004 11 21 20:28 3.6 0 -1.3 100 61.9 16.1 8 0
2004 11 21 20:43 3.6 0 -1.3 100 78.8 16.1 8 0
2004 11 21 20:58 3.6 0 -1.3 100 45 25.7 9.7 0
2004 11 21 21:13 3.6 0 -1.3 100 16.9 20.9 11.3 0
2004 11 21 21:28 3.6 0 -1.3 100 61.9 16.1 8 0
2004 11 21 21:43 3.6 0 -1.3 100 61.9 16.1 9.7 0
2004 11 21 21:58 3.6 0 -1.3 100 56.3 16.1 9.7 0
2004 11 21 22:13 3.2 0 -1.3 100 39.4 16.1 9.7 0
2004 11 21 22:28 3.2 0 -1.3 100 67.5 16.1 9.7 0
2004 11 21 22:43 3.2 0 -1.7 100 102.7 12.9 6.4 0
2004 11 21 22:58 3.2 0 -1.7 100 61.9 14.5 6.4 0
2004 11 21 23:13 3.2 0 -1.3 100 53.4 19.3 11.3 0
2004 11 21 23:28 3.2 0 -1.3 100 61.9 25.7 11.3 0
2004 11 21 23:43 3.2 0 -1.3 100 60.5 20.9 11.3 0
2004 11 21 23:58 3.2 0 -1.3 100 46.4 17.7 8 0
2004 11 22 0:13 3.2 0 -1.3 100 67.5 17.7 9.7 0
2004 11 22 0:28 3.2 0 -1.3 100 61.9 16.1 11.3 0
2004 11 22 0:43 3.2 0 -1.3 100 52 20.9 11.3 0
2004 11 22 0:58 3.2 0 -1.3 100 5.6 16.1 8 0
2004 11 22 1:13 3.2 0 -1.3 100 57.7 16.1 9.7 0
2004 11 22 1:28 3.2 0 -1.3 100 49.2 20.9 11.3 0
2004 11 22 1:43 3.2 0 -1.3 100 53.4 24.1 12.9 0
2004 11 22 1:58 3.2 0 -1.3 100 52 17.7 8 0
2004 11 22 2:13 3.2 0 -1.3 100 23.9 19.3 8 0
2004 11 22 2:28 3.2 0 -1.3 100 61.9 19.3 8 0
2004 11 22 2:43 3.2 0 -0.8 100 42.2 19.3 8 0
2004 11 22 2:58 3.2 0 -0.8 100 32.3 17.7 8 0
2004 11 22 3:13 3.2 0 -1.3 100 92.8 14.5 6.4 0
2004 11 22 3:28 3.2 0 -1.3 100 53.4 9.7 4.8 0
2004 11 22 3:43 3.2 0 -1.3 100 347.3 8 1.6 0
2004 11 22 3:58 3.2 0 -1.3 100 84.4 3.2 1.6 0
2004 11 22 4:13 3.2 0 -1.3 100 83 4.8 1.6 0
2004 11 22 4:28 3.2 0 -0.8 100 85.8 11.3 3.2 0
2004 11 22 4:43 3.2 0 -0.8 100 284.1 11.3 4.8 0
2004 11 22 4:58 3.2 0 -0.8 100 303.8 25.7 9.7 0
2004 11 22 5:13 3.2 0 -0.8 100 298.1 9.7 6.4 0
2004 11 22 5:28 3.2 0 -0.8 100 85.8 9.7 4.8 0
2004 11 22 5:43 3.2 0 -0.8 100 49.2 12.9 6.4 0
2004 11 22 5:58 3.2 0 -0.8 100 36.6 12.9 6.4 0
2004 11 22 6:13 3.2 0 -0.8 100 329.1 9.7 3.2 0
2004 11 22 6:28 3.2 0 -0.8 100 29.5 9.7 3.2 0
2004 11 22 6:43 3.2 23.5 -0.8 100 295.3 4.8 1.6 0
2004 11 22 6:58 3.2 29.4 -0.3 100 67.5 8 3.2 0
2004 11 22 7:13 3.2 35.3 -0.8 100 67.5 6.4 3.2 0
2004 11 22 7:28 3.2 88.2 -0.8 100 343.1 6.4 1.6 0
2004 11 22 7:43 3.2 117.6 -0.3 100 71.7 11.3 3.2 0
2004 11 22 7:58 3.2 82.4 -0.3 100 83 14.5 6.4 0
2004 11 22 8:13 3.2 176.5 0.1 100 49.2 9.7 3.2 0
2004 11 22 8:28 3.2 223.5 0.6 100 241.9 3.2 0 0
2004 11 22 8:43 3.2 252.9 0.6 100 343.1 20.9 6.4 0
2004 11 22 8:58 3.2 294.1 1 100 336.1 20.9 6.4 0
2004 11 22 9:13 3.2 270.6 1 100 45 17.7 6.4 0
2004 11 22 9:28 3.2 317.6 1.4 100 38 17.7 8 0
2004 11 22 9:43 3.2 217.6 1 100 53.4 20.9 9.7 0
2004 11 22 9:58 3.2 276.5 1.4 100 68.9 16.1 9.7 0
2004 11 22 10:13 3.2 358.8 1.9 99.5 292.5 22.5 8 0
2004 11 22 10:28 3.2 458.8 1.9 97.1 4.2 20.9 9.7 0
2004 11 22 10:43 2.7 376.5 2.7 96.2 116.7 22.5 9.7 0
2004 11 22 10:58 2.7 352.9 1.9 97.1 92.8 12.9 8 0
2004 11 22 11:13 2.7 200 1.4 97.9 133.6 11.3 4.8 0
2004 11 22 11:28 2.7 335.3 2.3 99.5 73.1 11.3 3.2 0
2004 11 22 11:43 2.7 417.6 2.3 98.7 67.5 14.5 6.4 0
2004 11 22 11:58 2.7 300 2.7 96.2 324.8 14.5 4.8 0
2004 11 22 12:13 2.7 282.4 2.7 93.9 333.3 12.9 6.4 0
2004 11 22 12:28 2.7 488.2 2.7 93.9 7 12.9 6.4 1
2004 11 22 12:43 2.7 470.6 3.2 91.5 18.3 9.7 4.8 0.8
2004 11 22 12:58 2.7 564.7 3.6 89.8 45 14.5 6.4 0.8
2004 11 22 13:13 2.7 288.2 2.7 89 4.2 12.9 6.4 1
2004 11 22 13:28 2.7 329.4 2.3 89.8 25.3 16.1 8 0.8
2004 11 22 13:43 2.7 500 3.2 90.6 4.2 11.3 4.8 1
2004 11 22 13:58 2.7 294.1 2.7 93.1 324.8 8 3.2 1
2004 11 22 14:13 2.7 147.1 1.9 95.4 319.2 12.9 6.4 0.8
2004 11 22 14:28 2.7 194.1 1.9 97.1 319.2 9.7 4.8 1
2004 11 22 14:43 2.7 147.1 2.7 95.4 316.4 17.7 8 0.3
2004 11 22 14:58 2.7 94.1 1.9 96.2 355.8 19.3 9.7 0.8
2004 11 22 15:13 2.7 235.3 2.7 96.2 299.5 12.9 6.4 0.3
2004 11 22 15:28 2.7 82.4 1.9 96.2 299.5 14.5 9.7 0.5
2004 11 22 15:43 2.7 88.2 1.9 97.1 347.3 14.5 9.7 0.5
2004 11 22 15:58 2.7 64.7 1.4 97.1 331.9 16.1 11.3 0.3
2004 11 22 16:13 2.7 11.8 1.4 97.9 320.6 17.7 11.3 0.3
2004 11 22 16:28 2.7 5.9 1.4 98.7 312.2 17.7 9.7 0.3
2004 11 22 16:43 2.7 0 1.9 98.7 327.7 20.9 9.7 0.3
2004 11 22 16:58 2.7 0 2.7 96.2 316.4 24.1 9.7 0
2004 11 22 17:13 2.7 0 1.9 96.2 298.1 19.3 11.3 0.3
2004 11 22 17:28 2.7 0 1.9 97.1 313.6 12.9 8 0.3
2004 11 22 17:43 2.7 0 1.4 97.9 306.6 14.5 9.7 0.3
2004 11 22 17:58 2.7 0 1.9 99.5 2.8 12.9 8 0
2004 11 22 18:13 2.7 0 1.4 98.7 300.9 12.9 8 0.3
2004 11 22 18:28 2.3 0 1.4 99.5 268.6 9.7 6.4 0
2004 11 22 18:43 2.3 0 1 99.5 296.7 8 4.8 0
2004 11 22 18:58 2.3 0 1 100 330.5 14.5 8 0
2004 11 22 19:13 2.3 0 2.3 99.5 327.7 16.1 9.7 0
2004 11 22 19:28 2.3 0 1.4 99.5 305.2 14.5 9.7 0
2004 11 22 19:43 2.3 0 0.6 99.5 308 9.7 6.4 0.3
2004 11 22 19:58 2.3 0 0.1 100 305.2 8 6.4 0
2004 11 22 20:13 2.3 0 -0.3 100 299.5 9.7 6.4 0
2004 11 22 20:28 2.3 0 -0.3 100 296.7 9.7 6.4 0
2004 11 22 20:43 2.3 0 0.6 100 357.2 11.3 6.4 0
2004 11 22 20:58 2.3 0 0.6 100 312.2 12.9 6.4 0
2004 11 22 21:13 2.3 0 0.1 100 303.8 8 4.8 0
2004 11 22 21:28 2.3 0 0.6 100 300.9 6.4 4.8 0
2004 11 22 21:43 2.3 0 -0.3 100 300.9 4.8 3.2 0
2004 11 22 21:58 2.3 0 -1.3 100 300.9 4.8 3.2 0
2004 11 22 22:13 2.3 0 -1.3 100 296.7 6.4 4.8 0
2004 11 22 22:28 2.3 0 -1.3 100 302.3 6.4 4.8 0
2004 11 22 22:43 2.3 0 -1.7 100 306.6 6.4 4.8 0
2004 11 22 22:58 2.3 0 -0.8 100 313.6 8 4.8 0
2004 11 22 23:13 2.3 0 -0.3 100 295.3 8 4.8 0
2004 11 22 23:28 2.3 0 -0.3 100 305.2 9.7 6.4 0
2004 11 22 23:43 2.3 0 -0.3 100 295.3 9.7 8 0
2004 11 22 23:58 2.3 0 -0.8 100 295.3 9.7 8 0
2004 11 23 0:13 2.3 0 -0.3 100 298.1 11.3 8 0
2004 11 23 0:28 2.3 0 0.6 100 306.6 12.9 9.7 0
2004 11 23 0:43 2.3 0 0.1 100 303.8 11.3 8 0
2004 11 23 0:58 2.3 0 0.1 100 316.4 9.7 8 0
2004 11 23 1:13 2.3 0 0.1 100 292.5 12.9 8 0
2004 11 23 1:28 2.3 0 -0.8 100 295.3 9.7 6.4 0
2004 11 23 1:43 2.3 0 -0.3 100 279.8 9.7 8 0
2004 11 23 1:58 2.3 0 0.1 100 288.3 11.3 8 0
2004 11 23 2:13 2.3 0 -0.3 100 310.8 9.7 6.4 0
2004 11 23 2:28 2.3 0 0.1 100 313.6 11.3 8 0
2004 11 23 2:43 2.3 0 0.6 100 292.5 11.3 8 0
2004 11 23 2:58 2.3 0 0.6 99.5 305.2 11.3 8 0
2004 11 23 3:13 2.3 0 0.6 97.9 296.7 12.9 9.7 0
2004 11 23 3:28 2.3 0 0.6 97.1 308 14.5 9.7 0
2004 11 23 3:43 2.3 0 0.6 96.2 298.1 11.3 9.7 0
2004 11 23 3:58 2.3 0 0.1 97.1 296.7 12.9 9.7 0
2004 11 23 4:13 2.3 0 -0.3 97.1 302.3 12.9 9.7 0
2004 11 23 4:28 2.3 0 0.1 97.1 303.8 14.5 9.7 0
2004 11 23 4:43 2.3 0 0.1 97.1 316.4 14.5 9.7 0
2004 11 23 4:58 2.3 0 0.1 97.1 319.2 14.5 11.3 0
2004 11 23 5:13 2.3 0 0.1 96.2 306.6 17.7 11.3 0
2004 11 23 5:28 2.3 0 0.1 96.2 319.2 16.1 11.3 0
2004 11 23 5:43 2.3 0 0.1 96.2 298.1 16.1 11.3 0
2004 11 23 5:58 2.7 0 0.1 96.2 309.4 12.9 9.7 0
2004 11 23 6:13 2.7 0 0.1 97.1 303.8 14.5 11.3 0
2004 11 23 6:28 2.7 5.9 -0.3 97.1 302.3 12.9 9.7 0
2004 11 23 6:43 2.7 17.6 0.1 97.1 305.2 12.9 9.7 0
2004 11 23 6:58 2.7 88.2 1.4 95.4 306.6 17.7 9.7 0
2004 11 23 7:13 2.7 164.7 2.7 86.6 315 16.1 9.7 0
2004 11 23 7:28 2.7 247.1 3.6 82.3 302.3 14.5 6.4 0
2004 11 23 7:43 2.7 317.6 4.5 79.2 319.2 16.1 8 0.3
2004 11 23 7:58 2.7 370.6 4.9 77.3 313.6 9.7 8 0
2004 11 23 8:13 2.7 76.5 3.6 78.1 320.6 9.7 8 0.3
2004 11 23 8:28 2.7 376.5 4 82.3 306.6 9.7 6.4 0
2004 11 23 8:43 2.7 505.9 6.1 74.9 333.3 11.3 8 0.3
2004 11 23 8:58 2.7 529.4 6.9 65.2 312.2 11.3 8 0
2004 11 23 9:13 2.7 552.9 7.3 63.3 357.2 9.7 6.4 0
2004 11 23 9:28 2.7 605.9 7.3 61.1 316.4 11.3 6.4 0
2004 11 23 9:43 2.7 547.1 7.3 60.9 300.9 12.9 8 0.3
2004 11 23 9:58 2.7 629.4 6.5 59.8 277 19.3 11.3 0
2004 11 23 10:13 2.7 635.3 6.5 63 320.6 20.9 11.3 0
2004 11 23 10:28 2.7 652.9 6.5 64.6 309.4 16.1 11.3 0
2004 11 23 10:43 2.7 664.7 7.3 64.7 309.4 16.1 9.7 0
2004 11 23 10:58 2.7 664.7 8.2 63.4 295.3 9.7 4.8 0
2004 11 23 11:13 2.7 670.6 8.2 62.6 312.2 6.4 4.8 0
2004 11 23 11:28 2.7 670.6 8.6 62.8 292.5 6.4 4.8 0
2004 11 23 11:43 2.7 670.6 8.6 62.5 275.6 8 6.4 0
2004 11 23 11:58 2.7 658.8 8.2 61.9 303.8 9.7 6.4 0
2004 11 23 12:13 2.7 635.3 8.2 60.3 289.7 11.3 8 0
2004 11 23 12:28 2.7 611.8 8.2 59.9 289.7 11.3 8 0
2004 11 23 12:43 2.7 588.2 8.2 59.4 291.1 12.9 9.7 0
2004 11 23 12:58 2.7 547.1 8.2 61.1 285.5 14.5 9.7 0
2004 11 23 13:13 2.7 452.9 8.2 60.7 293.9 12.9 8 0
2004 11 23 13:28 2.7 458.8 8.6 60.9 293.9 12.9 6.4 0
2004 11 23 13:43 2.7 394.1 8.2 58.3 319.2 11.3 6.4 0
2004 11 23 13:58 2.7 311.8 8.6 59.9 300.9 11.3 6.4 0
2004 11 23 14:13 2.7 276.5 8.2 62.3 299.5 9.7 6.4 0
2004 11 23 14:28 2.7 217.6 8.2 62.3 300.9 9.7 6.4 0
2004 11 23 14:43 2.7 158.8 8.2 63.6 302.3 9.7 6.4 0
2004 11 23 14:58 2.7 64.7 7.3 65.5 298.1 8 4.8 0
2004 11 23 15:13 2.7 23.5 6.5 70.7 291.1 6.4 4.8 0
2004 11 23 15:28 2.7 23.5 5.7 74.1 291.1 4.8 3.2 0
2004 11 23 15:43 2.7 5.9 3.6 79.6 291.1 4.8 1.6 0
2004 11 23 15:58 2.7 0 3.2 83.5 291.1 3.2 0 0
2004 11 23 16:13 2.7 0 1.9 86.9 291.1 0 0 0
2004 11 23 16:28 2.7 0 -0.3 89 291.1 4.8 1.6 0
2004 11 23 16:43 2.7 0 0.1 95.4 291.1 4.8 3.2 0
2004 11 23 16:58 2.7 0 -0.8 97.1 291.1 4.8 3.2 0
2004 11 23 17:13 2.7 0 0.1 99.5 291.1 4.8 3.2 0
2004 11 23 17:28 2.7 0 -0.8 99.5 291.1 4.8 3.2 0
2004 11 23 17:43 2.7 0 1 100 275.6 6.4 3.2 0
2004 11 23 17:58 2.7 0 0.6 99.5 277 6.4 4.8 0
2004 11 23 18:13 2.7 0 -1.3 99.5 313.6 6.4 4.8 0
2004 11 23 18:28 2.7 0 -1.7 100 316.4 8 4.8 0
2004 11 23 18:43 2.7 0 -1.3 100 313.6 6.4 4.8 0
2004 11 23 18:58 2.7 0 -1.3 100 315 8 4.8 0
2004 11 23 19:13 2.7 0 -0.8 100 310.8 6.4 4.8 0
2004 11 23 19:28 2.7 0 -1.3 100 310.8 9.7 4.8 0
2004 11 23 19:43 2.7 0 -0.8 100 300.9 6.4 4.8 0
2004 11 23 19:58 2.7 0 -1.3 100 291.1 6.4 4.8 0
2004 11 23 20:13 2.3 0 -1.7 100 295.3 8 4.8 0
2004 11 23 20:28 2.3 0 -1.3 100 295.3 6.4 4.8 0
2004 11 23 20:43 2.3 0 -0.8 99.5 295.3 8 4.8 0
2004 11 23 20:58 2.3 0 -1.7 99.5 313.6 6.4 3.2 0
2004 11 23 21:13 2.3 0 -1.3 99.5 293.9 9.7 6.4 0
2004 11 23 21:28 2.3 0 -0.3 99.5 296.7 8 4.8 0
2004 11 23 21:43 2.3 0 -1.3 97.9 300.9 8 4.8 0
2004 11 23 21:58 2.3 0 -0.8 97.1 300.9 8 6.4 0
2004 11 23 22:13 2.3 0 -0.8 95.4 296.7 8 6.4 0
2004 11 23 22:28 2.3 0 -2.2 95.4 315 8 6.4 0
2004 11 23 22:43 2.3 0 -1.7 96.2 293.9 8 6.4 0
2004 11 23 22:58 2.3 0 -1.7 95.4 296.7 9.7 4.8 0
2004 11 23 23:13 2.3 0 -1.3 96.2 295.3 8 4.8 0
2004 11 23 23:28 2.3 0 -2.7 95.4 295.3 4.8 3.2 0
2004 11 23 23:43 2.3 0 -3.6 96.2 299.5 6.4 4.8 0
2004 11 23 23:58 2.3 0 -2.7 97.1 296.7 8 4.8 0
2004 11 24 0:13 2.3 0 -0.3 97.1 261.6 8 3.2 0
2004 11 24 0:28 2.3 0 -0.8 92.3 261.6 4.8 3.2 0
2004 11 24 0:43 2.3 0 -1.7 90.6 305.2 8 4.8 0
2004 11 24 0:58 2.3 0 -3.1 92.3 306.6 6.4 4.8 0
2004 11 24 1:13 2.3 0 -2.7 95.4 296.7 6.4 4.8 0
2004 11 24 1:28 2.3 0 -3.1 95.4 316.4 8 3.2 0
2004 11 24 1:43 2.3 0 -1.7 96.2 320.6 4.8 3.2 0
2004 11 24 1:58 1.9 0 1.4 91.5 210.9 9.7 3.2 0
2004 11 24 2:13 1.9 0 1 86.9 177.2 6.4 3.2 0
2004 11 24 2:28 1.9 0 0.6 87.8 167.3 6.4 1.6 0
2004 11 24 2:43 1.9 0 -1.3 88.2 293.9 6.4 1.6 0
2004 11 24 2:58 1.9 0 -0.8 91.5 333.3 6.4 3.2 0
2004 11 24 3:13 1.9 0 -1.3 93.9 306.6 4.8 3.2 0
2004 11 24 3:28 1.9 0 -2.2 93.1 300.9 6.4 3.2 0
2004 11 24 3:43 1.9 0 -1.7 95.4 306.6 4.8 3.2 0
2004 11 24 3:58 1.9 0 -1.3 93.9 306.6 4.8 3.2 0
2004 11 24 4:13 1.9 0 -2.2 93.9 312.2 6.4 3.2 0
2004 11 24 4:28 1.9 0 -2.2 93.1 299.5 6.4 3.2 0
2004 11 24 4:43 1.9 0 -2.7 93.1 299.5 6.4 3.2 0
2004 11 24 4:58 1.9 0 -2.7 93.9 296.7 8 3.2 0
2004 11 24 5:13 1.9 0 -2.2 93.9 310.8 6.4 4.8 0
2004 11 24 5:28 1.9 0 -2.2 92.3 298.1 6.4 3.2 0
2004 11 24 5:43 1.9 0 -2.7 90.6 300.9 6.4 3.2 0
2004 11 24 5:58 1.9 5.9 -1.3 89.8 300.9 4.8 1.6 0
2004 11 24 6:13 1.9 29.4 -0.8 87.8 293.9 6.4 3.2 0
2004 11 24 6:28 1.9 70.6 0.6 84.8 293.9 4.8 1.6 0
2004 11 24 6:43 1.9 117.6 2.7 81.5 293.9 6.4 1.6 0
2004 11 24 6:58 1.9 164.7 5.7 70 248.9 4.8 1.6 0
2004 11 24 7:13 1.9 217.6 6.1 59.2 14.1 12.9 6.4 0
2004 11 24 7:28 1.9 264.7 6.1 58.7 19.7 22.5 12.9 0
2004 11 24 7:43 1.9 311.8 6.1 58.3 56.3 22.5 12.9 0
2004 11 24 7:58 1.9 358.8 6.9 56.3 60.5 19.3 9.7 0
2004 11 24 8:13 1.9 405.9 6.9 57.7 251.7 14.5 6.4 0
2004 11 24 8:28 1.9 447.1 6.9 58.3 97 16.1 6.4 0
2004 11 24 8:43 1.9 482.4 6.9 60.3 73.1 17.7 8 0
2004 11 24 8:58 1.9 511.8 6.9 59.6 99.8 12.9 6.4 0
2004 11 24 9:13 1.9 541.2 6.9 55.9 63.3 17.7 8 0
2004 11 24 9:28 1.9 564.7 7.3 56.2 33.8 12.9 8 0
2004 11 24 9:43 1.9 588.2 6.9 54 30.9 16.1 9.7 0
2004 11 24 9:58 1.9 611.8 7.3 52.5 64.7 16.1 8 0
2004 11 24 10:13 1.9 629.4 7.7 52.1 32.3 16.1 8 0
2004 11 24 10:28 1.9 641.2 8.2 52.5 0 11.3 6.4 0
2004 11 24 10:43 1.9 658.8 9 49.6 45 14.5 6.4 0
2004 11 24 10:58 1.9 664.7 7.7 52.5 54.8 19.3 11.3 0
2004 11 24 11:13 1.9 670.6 8.2 54.5 63.3 19.3 9.7 0
2004 11 24 11:28 2.3 670.6 7.7 55.2 63.3 20.9 11.3 0
2004 11 24 11:43 2.3 664.7 8.2 55 53.4 19.3 11.3 0
2004 11 24 11:58 2.7 752.9 9.4 51.9 22.5 16.1 6.4 0
2004 11 24 12:13 2.7 635.3 9.4 50.7 112.5 8 3.2 0
2004 11 24 12:28 3.2 611.8 9 52.1 128 9.7 6.4 0
2004 11 24 12:43 3.2 517.6 9 53.9 68.9 11.3 6.4 0
2004 11 24 12:58 3.6 547.1 9.4 52.1 92.8 9.7 4.8 0
2004 11 24 13:13 3.6 482.4 9 52.1 74.5 8 4.8 0
2004 11 24 13:28 4 452.9 9.8 48 295.3 9.7 4.8 0
2004 11 24 13:43 4 394.1 10.1 47.4 315 9.7 4.8 0
2004 11 24 13:58 4.5 335.3 10.1 47.4 296.7 9.7 4.8 0
2004 11 24 14:13 4.5 276.5 10.1 48 312.2 11.3 4.8 0
2004 11 24 14:28 4.9 217.6 9.8 49.1 303.8 8 6.4 0
2004 11 24 14:43 4.9 158.8 9.4 48.6 288.3 9.7 4.8 0
2004 11 24 14:58 4.9 29.4 8.6 50.3 268.6 8 4.8 0
2004 11 24 15:13 4.9 23.5 7.7 53.7 286.9 4.8 3.2 0
2004 11 24 15:28 4.9 17.6 6.9 57.4 286.9 4.8 3.2 0
2004 11 24 15:43 4.9 5.9 5.3 61.9 286.9 4.8 3.2 0
2004 11 24 15:58 4.9 0 3.2 67.2 286.9 4.8 1.6 0
2004 11 24 16:13 4.9 0 2.3 73.7 286.9 6.4 3.2 0
2004 11 24 16:28 4.9 0 3.2 78.1 291.1 11.3 8 0
2004 11 24 16:43 4.9 0 3.2 80.7 296.7 9.7 6.4 0
2004 11 24 16:58 4.9 0 3.2 83.5 288.3 8 6.4 0
2004 11 24 17:13 4.5 0 2.7 85.7 281.3 8 4.8 0
2004 11 24 17:28 4.5 0 2.7 86.9 282.7 8 4.8 0
2004 11 24 17:43 4.5 0 0.6 86.9 302.3 6.4 4.8 0
2004 11 24 17:58 4.5 0 -0.3 91.5 316.4 8 4.8 0
2004 11 24 18:13 4 0 0.6 93.9 303.8 6.4 4.8 0
2004 11 24 18:28 4 0 0.6 95.4 300.9 6.4 4.8 0
2004 11 24 18:43 4 0 1 93.9 291.1 6.4 3.2 0
2004 11 24 18:58 4 0 1.9 89.8 282.7 6.4 3.2 0
2004 11 24 19:13 3.6 0 0.6 89.8 281.3 4.8 3.2 0
2004 11 24 19:28 3.6 0 -0.3 92.3 296.7 6.4 4.8 0
2004 11 24 19:43 3.6 0 -0.3 95.4 281.3 6.4 4.8 0
2004 11 24 19:58 3.6 0 0.1 96.2 333.3 8 4.8 0
2004 11 24 20:13 3.6 0 -0.3 93.9 288.3 6.4 4.8 0
2004 11 24 20:28 3.2 0 -0.8 92.3 298.1 9.7 6.4 0
2004 11 24 20:43 3.2 0 -0.3 89.8 284.1 6.4 4.8 0
2004 11 24 20:58 3.2 0 -0.3 85.7 309.4 11.3 4.8 0
2004 11 24 21:13 3.2 0 -0.3 80 309.4 6.4 4.8 0
2004 11 24 21:28 3.2 0 -0.3 81.5 285.5 8 4.8 0
2004 11 24 21:43 3.2 0 -0.8 77.3 323.4 6.4 4.8 0
2004 11 24 21:58 2.7 0 -1.3 78.1 285.5 9.7 6.4 0
2004 11 24 22:13 2.7 0 -0.8 77.3 326.3 8 4.8 0
2004 11 24 22:28 2.7 0 1 67.4 310.8 9.7 4.8 0
2004 11 24 22:43 2.7 0 1.4 64.4 284.1 9.7 6.4 0
2004 11 24 22:58 2.7 0 2.3 60.3 282.7 9.7 6.4 0
2004 11 24 23:13 2.7 0 1.9 61.2 300.9 11.3 8 0
2004 11 24 23:28 2.7 0 3.2 63.9 313.6 11.3 9.7 0
2004 11 24 23:43 2.7 0 3.2 64.6 291.1 9.7 6.4 0
2004 11 24 23:58 2.7 0 2.3 65.5 309.4 9.7 6.4 0
2004 11 25 0:13 2.7 0 1.4 66.6 299.5 8 4.8 0
2004 11 25 0:28 2.3 0 1.9 68.3 305.2 6.4 4.8 0
2004 11 25 0:43 2.3 0 2.3 70 298.1 8 4.8 0
2004 11 25 0:58 2.3 0 1.4 70.2 298.1 8 4.8 0
2004 11 25 1:13 2.3 0 1 71.6 298.1 4.8 3.2 0
2004 11 25 1:28 2.3 0 -0.8 75.6 282.7 6.4 3.2 0
2004 11 25 1:43 2.3 0 -2.2 77.3 308 6.4 4.8 0
2004 11 25 1:58 2.3 0 -1.7 80 293.9 6.4 4.8 0
2004 11 25 2:13 2.3 0 -2.2 79.2 302.3 8 6.4 0
2004 11 25 2:28 2.3 0 -2.2 81.5 330.5 9.7 6.4 0
2004 11 25 2:43 2.3 0 -0.8 80 300.9 8 6.4 0
2004 11 25 2:58 2.3 0 0.1 70.2 298.1 9.7 6.4 0
2004 11 25 3:13 2.3 0 1.4 62.6 292.5 8 6.4 0
2004 11 25 3:28 2.3 0 1.9 57.7 293.9 8 6.4 0
2004 11 25 3:43 2.3 0 0.6 59 306.6 8 6.4 0
2004 11 25 3:58 2.3 0 -0.3 64.4 306.6 6.4 4.8 0
2004 11 25 4:13 2.3 0 0.6 64.4 302.3 8 4.8 0
2004 11 25 4:28 2.3 0 1.4 61.7 293.9 8 4.8 0
2004 11 25 4:43 2.3 0 -0.8 67.2 293.9 8 4.8 0
2004 11 25 4:58 1.9 0 0.6 65.5 288.3 8 4.8 0
2004 11 25 5:13 1.9 0 -1.3 71.6 299.5 8 4.8 0
2004 11 25 5:28 1.9 0 -0.3 71.6 296.7 8 6.4 0
2004 11 25 5:43 1.9 11.8 1.4 64.4 295.3 8 6.4 0
2004 11 25 5:58 1.9 11.8 2.7 58.3 299.5 6.4 6.4 0
2004 11 25 6:13 1.9 35.3 2.7 57.1 302.3 6.4 4.8 0
2004 11 25 6:28 1.9 64.7 5.3 51.1 313.6 8 6.4 0
2004 11 25 6:43 1.9 94.1 6.5 47.2 322 8 6.4 0
2004 11 25 6:58 1.9 105.9 7.7 44.4 337.5 9.7 6.4 0
2004 11 25 7:13 1.9 117.6 8.2 43.7 303.8 9.7 4.8 0
2004 11 25 7:28 1.9 129.4 7.7 44.4 293.9 6.4 3.2 0
2004 11 25 7:43 1.9 194.1 8.2 44.1 292.5 6.4 3.2 0
2004 11 25 7:58 1.9 358.8 9.8 43.7 302.3 4.8 3.2 0
2004 11 25 8:13 1.9 229.4 10.9 40.9 308 4.8 3.2 0
2004 11 25 8:28 1.9 252.9 10.9 40.9 306.6 4.8 1.6 0
2004 11 25 8:43 1.9 517.6 10.5 41.8 296.7 8 4.8 0
2004 11 25 8:58 1.9 364.7 11.7 39.1 309.4 8 4.8 0
2004 11 25 9:13 1.9 688.2 12.1 39.6 295.3 6.4 3.2 0
2004 11 25 9:28 1.9 500 13.3 37.9 182.8 12.9 6.4 0
2004 11 25 9:43 1.9 594.1 12.9 38.2 230.6 11.3 8 0
2004 11 25 9:58 1.9 570.6 12.5 38.5 188.4 12.9 8 0
2004 11 25 10:13 2.3 411.8 12.1 39.4 255.9 16.1 8 0
2004 11 25 10:28 2.3 488.2 12.5 38.5 246.1 16.1 8 0
2004 11 25 10:43 2.7 641.2 12.9 38.8 292.5 11.3 4.8 0
2004 11 25 10:58 3.2 517.6 13.3 37.9 255.9 12.9 6.4 0
2004 11 25 11:13 3.2 682.4 13.3 38.5 241.9 12.9 6.4 0
2004 11 25 11:28 3.6 670.6 13.3 37.9 226.4 12.9 6.4 0
2004 11 25 11:43 4 664.7 13.3 37.9 229.2 12.9 6.4 0
2004 11 25 11:58 4 647.1 13.3 37.9 288.3 22.5 9.7 0
2004 11 25 12:13 4.5 629.4 13.3 37.9 182.8 12.9 8 0
2004 11 25 12:28 4.9 605.9 12.9 38.2 255.9 16.1 9.7 0
2004 11 25 12:43 4.9 576.5 12.9 38.2 291.1 12.9 8 0
2004 11 25 12:58 5.3 541.2 12.9 38.2 229.2 12.9 8 0
2004 11 25 13:13 5.3 494.1 12.9 38.2 300.9 16.1 9.7 0
2004 11 25 13:28 5.7 447.1 12.5 38.5 237.7 19.3 11.3 0
2004 11 25 13:43 5.7 388.2 12.5 38.5 274.2 17.7 8 0
2004 11 25 13:58 5.7 335.3 12.5 38.5 206.7 12.9 8 0
2004 11 25 14:13 6.1 276.5 12.5 38.5 208.1 16.1 8 0
2004 11 25 14:28 6.1 229.4 12.1 38.8 247.5 14.5 8 0
2004 11 25 14:43 6.1 188.2 10.9 39.6 219.4 17.7 9.7 0
2004 11 25 14:58 6.1 94.1 10.5 40 281.3 12.9 8 0
2004 11 25 15:13 6.1 23.5 9.4 40.9 284.1 17.7 8 0
2004 11 25 15:28 6.1 23.5 9 41.8 274.2 16.1 9.7 0
2004 11 25 15:43 6.1 11.8 8.6 42.7 230.6 17.7 9.7 0
2004 11 25 15:58 6.1 0 8.6 43.5 265.8 30.6 14.5 0
2004 11 25 16:13 6.1 0 8.2 44.1 254.5 22.5 9.7 0
2004 11 25 16:28 6.1 0 8.6 44.6 250.3 22.5 11.3 0
2004 11 25 16:43 6.1 0 8.2 44.7 274.2 20.9 12.9 0
2004 11 25 16:58 5.7 0 8.6 44.9 257.3 19.3 11.3 0
2004 11 25 17:13 5.7 0 9 44.6 270 22.5 12.9 0
2004 11 25 17:28 5.7 0 9 44.6 278.4 27.4 14.5 0
2004 11 25 17:43 5.7 0 9 44.6 275.6 27.4 14.5 0
2004 11 25 17:58 5.3 0 9 44.6 246.1 22.5 11.3 0
2004 11 25 18:13 5.3 0 8.6 44.9 247.5 12.9 8 0
2004 11 25 18:28 5.3 0 8.6 44.9 230.6 16.1 8 0
2004 11 25 18:43 5.3 0 7.7 46 261.6 14.5 6.4 0
2004 11 25 18:58 5.3 0 6.5 48 263 9.7 3.2 0
2004 11 25 19:13 5.3 0 6.9 48.6 226.4 8 4.8 0
2004 11 25 19:28 4.9 0 6.1 50.4 267.2 4.8 1.6 0
2004 11 25 19:43 4.9 0 5.7 52.7 277 4.8 3.2 0
2004 11 25 19:58 4.9 0 5.3 54.5 260.2 4.8 1.6 0
2004 11 25 20:13 4.9 0 4.9 57.2 248.9 6.4 3.2 0
2004 11 25 20:28 4.9 0 4.9 57.7 234.8 11.3 4.8 0
2004 11 25 20:43 4.9 0 5.3 56.6 206.7 12.9 8 0
2004 11 25 20:58 4.5 0 5.3 56.2 227.8 12.9 8 0
2004 11 25 21:13 4.5 0 4.9 57.1 234.8 11.3 8 0
2004 11 25 21:28 4.5 0 4.5 57.5 239.1 12.9 6.4 0
2004 11 25 21:43 4.5 0 4.5 58.3 237.7 11.3 6.4 0
2004 11 25 21:58 4.5 0 4.5 57.7 194.1 11.3 6.4 0
2004 11 25 22:13 4.5 0 3.6 58.9 171.6 8 3.2 0
2004 11 25 22:28 4 0 3.2 59.6 94.2 6.4 1.6 0
2004 11 25 22:43 4 0 3.6 58.3 170.2 6.4 4.8 0
2004 11 25 22:58 4 0 3.2 58.1 164.5 8 4.8 0
2004 11 25 23:13 4 0 2.7 58.3 163.1 8 3.2 0
2004 11 25 23:28 4 0 3.2 59.2 205.3 6.4 3.2 0
2004 11 25 23:43 4 0 3.6 56.5 45 12.9 4.8 0
2004 11 25 23:58 3.6 0 3.2 55.9 284.1 8 1.6 0
2004 11 26 0:13 3.6 0 1.4 60.9 281.3 6.4 3.2 0
2004 11 26 0:28 3.6 0 1 63.8 250.3 6.4 3.2 0
2004 11 26 0:43 3.6 0 1.9 66 292.5 8 4.8 0
2004 11 26 0:58 3.6 0 2.7 63.6 291.1 9.7 4.8 0
2004 11 26 1:13 3.2 0 3.2 59.9 316.4 9.7 6.4 0
2004 11 26 1:28 3.2 0 2.3 61.2 302.3 9.7 4.8 0
2004 11 26 1:43 3.2 0 1.9 63.4 302.3 8 4.8 0
2004 11 26 1:58 3.2 0 1.9 64.4 308 8 6.4 0
2004 11 26 2:13 3.2 0 1.9 66.6 303.8 8 6.4 0
2004 11 26 2:28 3.2 0 1.4 66.6 298.1 9.7 8 0
2004 11 26 2:43 3.2 0 1 68.8 302.3 9.7 6.4 0
2004 11 26 2:58 3.2 0 1.4 70 300.9 9.7 8 0
2004 11 26 3:13 3.2 0 1.4 69.5 288.3 9.7 8 0
2004 11 26 3:28 2.7 0 1 70.2 289.7 8 4.8 0
2004 11 26 3:43 2.7 0 1 72.2 289.7 6.4 3.2 0
2004 11 26 3:58 2.7 0 0.6 74.3 289.7 6.4 4.8 0
2004 11 26 4:13 2.7 0 0.1 76.2 292.5 6.4 4.8 0
2004 11 26 4:28 2.7 0 0.6 76.8 298.1 8 4.8 0
2004 11 26 4:43 2.7 0 0.6 77.3 306.6 8 6.4 0
2004 11 26 4:58 2.7 0 1 79.2 303.8 6.4 4.8 0
2004 11 26 5:13 2.7 0 1.4 81.5 324.8 11.3 6.4 0
2004 11 26 5:28 2.7 0 2.3 75.6 315 11.3 8 0
2004 11 26 5:43 2.7 0 2.3 76.4 323.4 8 6.4 0
2004 11 26 5:58 2.7 5.9 2.7 76.2 343.1 9.7 6.4 0
2004 11 26 6:13 2.7 29.4 3.2 75.4 331.9 8 4.8 0
2004 11 26 6:28 2.7 64.7 4 72.2 341.7 8 4.8 0
2004 11 26 6:43 2.3 111.8 5.3 66.6 319.2 12.9 8 0
2004 11 26 6:58 2.3 158.8 5.7 63 327.7 14.5 8 0
2004 11 26 7:13 2.3 211.8 6.1 61.1 330.5 14.5 9.7 0
2004 11 26 7:28 2.3 252.9 6.1 61.1 298.1 16.1 11.3 0
2004 11 26 7:43 2.3 305.9 6.5 59.6 302.3 14.5 11.3 0
2004 11 26 7:58 2.3 352.9 6.9 58.3 296.7 14.5 9.7 0
2004 11 26 8:13 2.3 400 7.7 56.8 254.5 14.5 9.7 0
2004 11 26 8:28 2.3 435.3 8.6 54.5 334.7 12.9 8 0
2004 11 26 8:43 2.3 470.6 9 52.7 279.8 12.9 8 0
2004 11 26 8:58 2.3 511.8 9.4 51.2 310.8 9.7 6.4 0
2004 11 26 9:13 2.3 452.9 9.8 50.9 288.3 11.3 6.4 0
2004 11 26 9:28 2.7 564.7 10.1 50.1 285.5 9.7 4.8 0
2004 11 26 9:43 2.7 582.4 9.8 51.4 316.4 12.9 8 0
2004 11 26 9:58 2.7 605.9 10.5 50.1 272.8 9.7 4.8 0
2004 11 26 10:13 3.2 629.4 10.5 49.6 310.8 11.3 6.4 0
2004 11 26 10:28 3.2 452.9 10.5 50.4 317.8 12.9 6.4 0
2004 11 26 10:43 3.6 670.6 10.5 50.4 302.3 12.9 6.4 0
2004 11 26 10:58 4 600 10.5 49.9 292.5 12.9 6.4 0
2004 11 26 11:13 4 700 10.5 50.9 296.7 9.7 4.8 0
2004 11 26 11:28 4.5 347.1 10.5 50.1 300.9 9.7 4.8 0
2004 11 26 11:43 4.9 788.2 10.5 50.4 274.2 9.7 6.4 0
2004 11 26 11:58 4.9 688.2 10.9 49.9 329.1 11.3 6.4 0
2004 11 26 12:13 5.3 664.7 11.3 48.4 315 8 3.2 0
2004 11 26 12:28 5.7 617.6 11.7 48.6 118.1 9.7 4.8 0
2004 11 26 12:43 5.7 570.6 11.3 51.1 180 11.3 4.8 0
2004 11 26 12:58 6.1 529.4 11.3 53.2 154.7 12.9 8 0
2004 11 26 13:13 6.1 494.1 11.3 54.5 174.4 11.3 8 0
2004 11 26 13:28 6.5 441.2 11.7 50.9 241.9 19.3 6.4 0
2004 11 26 13:43 6.5 388.2 12.1 48 233.4 8 3.2 0
2004 11 26 13:58 6.9 323.5 11.3 52.7 184.2 14.5 4.8 0
2004 11 26 14:13 6.9 270.6 10.9 56.8 168.8 16.1 8 0
2004 11 26 14:28 6.9 211.8 10.5 59 144.8 16.1 9.7 0
2004 11 26 14:43 6.9 152.9 10.5 57.5 202.5 12.9 6.4 0
2004 11 26 14:58 7.3 29.4 10.1 56.2 203.9 9.7 4.8 0
2004 11 26 15:13 7.3 23.5 9 53.9 295.3 6.4 3.2 0
2004 11 26 15:28 7.3 11.8 8.2 56.5 295.3 4.8 3.2 0
2004 11 26 15:43 7.3 5.9 6.5 61.1 295.3 4.8 3.2 0
2004 11 26 15:58 7.3 0 4.9 67.9 295.3 4.8 3.2 0
2004 11 26 16:13 6.9 0 3.6 72.7 295.3 6.4 3.2 0
2004 11 26 16:28 6.9 0 3.6 75.1 288.3 6.4 4.8 0
2004 11 26 16:43 6.9 0 2.3 77 288.3 4.8 3.2 0
2004 11 26 16:58 6.5 0 1 82.3 288.3 4.8 3.2 0
2004 11 26 17:13 6.5 0 1.4 86.6 285.5 6.4 3.2 0
2004 11 26 17:28 6.5 0 1.4 88.2 286.9 6.4 4.8 0
2004 11 26 17:43 6.1 0 1.9 90.6 295.3 4.8 3.2 0
2004 11 26 17:58 6.1 0 1 89 295.3 4.8 1.6 0
2004 11 26 18:13 6.1 0 -0.3 90.6 295.3 4.8 3.2 0
2004 11 26 18:28 5.7 0 -0.8 93.9 295.3 4.8 3.2 0
2004 11 26 18:43 5.7 0 -0.8 96.2 295.3 6.4 4.8 0
2004 11 26 18:58 5.7 0 -1.3 96.2 295.3 4.8 3.2 0
2004 11 26 19:13 5.3 0 0.1 97.1 295.3 4.8 3.2 0
2004 11 26 19:28 5.3 0 0.6 96.2 295.3 6.4 3.2 0
2004 11 26 19:43 5.3 0 0.1 96.2 295.3 6.4 4.8 0
2004 11 26 19:58 5.3 0 0.1 96.2 295.3 4.8 3.2 0
2004 11 26 20:13 4.9 0 0.1 97.1 295.3 6.4 4.8 0
2004 11 26 20:28 4.9 0 1 96.2 295.3 4.8 3.2 0
2004 11 26 20:43 4.9 0 1 95.4 295.3 6.4 3.2 0
2004 11 26 20:58 4.9 0 3.2 84.8 289.7 4.8 1.6 0
2004 11 26 21:13 4.5 0 2.3 83.5 289.7 4.8 1.6 0
2004 11 26 21:28 4.5 0 1.9 86.9 289.7 3.2 3.2 0
2004 11 26 21:43 4.5 0 2.7 87.8 288.3 4.8 3.2 0
2004 11 26 21:58 4.5 0 4 83.5 270 6.4 4.8 0
2004 11 26 22:13 4 0 4.5 75.6 247.5 9.7 4.8 0
2004 11 26 22:28 4 0 3.2 74.6 292.5 6.4 3.2 0
2004 11 26 22:43 4 0 3.2 75.6 309.4 6.4 4.8 0
2004 11 26 22:58 4 0 2.7 75.6 309.4 4.8 3.2 0
2004 11 26 23:13 4 0 2.7 77.8 309.4 6.4 4.8 0
2004 11 26 23:28 4 0 3.6 75.6 308 6.4 4.8 0
2004 11 26 23:43 4 0 4.5 71.6 312.2 6.4 3.2 0
2004 11 26 23:58 3.6 0 4.5 69.5 313.6 6.4 3.2 0
2004 11 27 0:13 3.6 0 4.5 69.5 323.4 6.4 3.2 0
2004 11 27 0:28 3.6 0 5.3 66.2 309.4 6.4 3.2 0
2004 11 27 0:43 3.6 0 4.5 67.2 309.4 6.4 3.2 0
2004 11 27 0:58 3.6 0 4.9 68.3 213.8 9.7 3.2 0
2004 11 27 1:13 3.6 0 5.3 65.2 285.5 8 3.2 0
2004 11 27 1:28 3.6 0 5.3 63.6 285.5 8 4.8 0
2004 11 27 1:43 3.6 0 4.9 64.4 305.2 6.4 3.2 0
2004 11 27 1:58 3.6 0 5.3 63.9 230.6 8 3.2 0
2004 11 27 2:13 3.6 0 5.3 62.5 244.7 9.7 4.8 0
2004 11 27 2:28 3.6 0 5.3 61.5 277 8 4.8 0
2004 11 27 2:43 3.2 0 5.7 61.5 253.1 11.3 4.8 0
2004 11 27 2:58 3.2 0 6.1 60.1 229.2 12.9 6.4 0
2004 11 27 3:13 3.2 0 6.1 60.9 284.1 16.1 6.4 0
2004 11 27 3:28 3.2 0 6.1 61.1 270 14.5 6.4 0
2004 11 27 3:43 3.2 0 6.1 61.1 198.3 19.3 8 0
2004 11 27 3:58 3.2 0 6.5 58.3 236.3 27.4 12.9 0
2004 11 27 4:13 3.2 0 6.5 58.4 250.3 22.5 12.9 0
2004 11 27 4:28 3.2 0 6.1 60.1 227.8 25.7 11.3 0
2004 11 27 4:43 3.2 0 6.1 60.1 227.8 19.3 11.3 0
2004 11 27 4:58 3.2 0 6.5 57.1 240.5 20.9 12.9 0
2004 11 27 5:13 3.2 0 6.9 53.1 248.9 24.1 14.5 0
2004 11 27 5:28 3.2 0 6.9 52.2 234.8 20.9 14.5 0
2004 11 27 5:43 3.2 0 6.9 51.7 239.1 24.1 12.9 0
2004 11 27 5:58 3.2 5.9 6.9 50.7 230.6 25.7 14.5 0
2004 11 27 6:13 3.2 23.5 6.9 51.4 254.5 24.1 12.9 0
2004 11 27 6:28 3.2 64.7 7.7 48.4 237.7 27.4 16.1 0
2004 11 27 6:43 3.2 105.9 8.2 48 240.5 22.5 14.5 0
2004 11 27 6:58 3.2 152.9 8.6 47.4 255.9 25.7 14.5 0
2004 11 27 7:13 3.2 200 9 45.8 222.2 22.5 12.9 0
2004 11 27 7:28 3.2 247.1 9.4 44.4 199.7 29 12.9 0
2004 11 27 7:43 3.2 294.1 9.8 44.1 239.1 29 14.5 0
2004 11 27 7:58 3.2 341.2 10.1 42 213.8 25.7 14.5 0
2004 11 27 8:13 3.2 388.2 10.5 40.5 201.1 30.6 16.1 0
2004 11 27 8:28 3.6 429.4 10.5 40.5 225 24.1 16.1 0
2004 11 27 8:43 3.6 464.7 10.9 40.9 215.2 20.9 14.5 0
2004 11 27 8:58 3.6 500 10.9 40.9 248.9 22.5 12.9 0
2004 11 27 9:13 3.6 529.4 10.9 40.3 233.4 27.4 14.5 0
2004 11 27 9:28 3.6 552.9 10.9 40.3 215.2 27.4 16.1 0
2004 11 27 9:43 4 582.4 11.3 41.2 223.6 29 17.7 0
2004 11 27 9:58 4 600 11.3 41.2 222.2 33.8 17.7 0
2004 11 27 10:13 4 617.6 11.3 41.4 191.3 30.6 17.7 0
2004 11 27 10:28 4.5 635.3 11.7 42 237.7 25.7 16.1 0
2004 11 27 10:43 4.5 652.9 11.7 41.8 223.6 29 17.7 0
2004 11 27 10:58 4.9 658.8 12.1 40.5 255.9 30.6 17.7 0
2004 11 27 11:13 4.9 664.7 11.7 41.8 171.6 32.2 19.3 0
2004 11 27 11:28 5.3 664.7 12.1 41.8 184.2 38.6 17.7 0
2004 11 27 11:43 5.3 658.8 12.1 41.8 206.7 30.6 17.7 0
2004 11 27 11:58 5.7 641.2 12.1 42.3 180 32.2 17.7 0
2004 11 27 12:13 6.1 623.5 12.5 42 194.1 33.8 17.7 0
2004 11 27 12:28 6.1 605.9 12.1 42.7 158.9 30.6 19.3 0
2004 11 27 12:43 6.1 570.6 12.1 43.5 220.8 30.6 19.3 0
2004 11 27 12:58 6.5 529.4 11.7 44.9 209.5 32.2 17.7 0
2004 11 27 13:13 6.5 482.4 11.7 45.1 194.1 35.4 19.3 0
2004 11 27 13:28 6.9 429.4 11.7 45.1 212.3 30.6 17.7 0
2004 11 27 13:43 6.9 376.5 11.7 46 195.5 32.2 19.3 0
2004 11 27 13:58 6.9 323.5 11.3 47.7 164.5 37 17.7 0
2004 11 27 14:13 7.3 270.6 11.3 49.9 215.2 30.6 17.7 0
2004 11 27 14:28 7.3 117.6 10.1 54 212.3 32.2 17.7 0
2004 11 27 14:43 7.3 52.9 9 61.1 206.7 33.8 16.1 0
2004 11 27 14:58 7.3 11.8 9 63.4 289.7 38.6 17.7 0
2004 11 27 15:13 7.3 11.8 9 64.7 187 33.8 16.1 0
2004 11 27 15:28 7.3 5.9 8.6 67.4 226.4 27.4 16.1 0
2004 11 27 15:43 7.3 5.9 8.6 70.2 255.9 40.2 17.7 0
2004 11 27 15:58 7.3 0 8.2 76.2 237.7 38.6 20.9 0
2004 11 27 16:13 7.3 0 7.7 79.6 227.8 38.6 20.9 0
2004 11 27 16:28 7.3 0 7.3 82.6 271.4 29 20.9 0
2004 11 27 16:43 7.3 0 6.9 83.5 219.4 33.8 17.7 0
2004 11 27 16:58 7.3 0 6.9 83.1 229.2 32.2 19.3 0
2004 11 27 17:13 6.9 0 6.9 82.3 229.2 40.2 19.3 0
2004 11 27 17:28 6.9 0 6.5 86.9 265.8 33.8 17.7 0
2004 11 27 17:43 6.9 0 6.5 89.8 250.3 30.6 16.1 0
2004 11 27 17:58 6.9 0 6.5 89 244.7 25.7 14.5 0
2004 11 27 18:13 6.9 0 6.5 90.6 271.4 27.4 14.5 0
2004 11 27 18:28 6.9 0 6.1 93.1 281.3 24.1 12.9 0
2004 11 27 18:43 6.5 0 6.1 92.3 267.2 24.1 14.5 0
2004 11 27 18:58 6.5 0 5.7 89 270 35.4 19.3 0
2004 11 27 19:13 6.5 0 5.7 89 275.6 40.2 20.9 0
2004 11 27 19:28 6.5 0 5.3 90.6 264.4 35.4 20.9 0
2004 11 27 19:43 6.5 0 4.9 92.3 257.3 38.6 24.1 0
2004 11 27 19:58 6.5 0 4.5 93.1 232 35.4 20.9 0
2004 11 27 20:13 6.5 0 4 92.3 264.4 32.2 17.7 0
2004 11 27 20:28 6.5 0 3.6 92.3 223.6 32.2 16.1 0
2004 11 27 20:43 6.5 0 3.2 87.8 272.8 32.2 16.1 0
2004 11 27 20:58 6.1 0 3.2 90.6 277 24.1 12.9 0
2004 11 27 21:13 6.1 0 3.2 86.9 278.4 32.2 12.9 0
2004 11 27 21:28 6.1 0 3.2 84.3 240.5 29 16.1 0
2004 11 27 21:43 6.1 0 2.7 79.6 260.2 29 17.7 0
2004 11 27 21:58 6.1 0 2.7 79.6 236.3 29 16.1 0
2004 11 27 22:13 6.1 0 2.7 79.2 239.1 25.7 14.5 0
2004 11 27 22:28 5.7 0 2.7 79.6 270 22.5 12.9 0
2004 11 27 22:43 5.7 0 2.7 78.5 271.4 16.1 9.7 0
2004 11 27 22:58 5.7 0 2.7 77 292.5 16.1 8 0
2004 11 27 23:13 5.7 0 2.3 78.1 306.6 14.5 8 0
2004 11 27 23:28 5.7 0 2.3 74.9 306.6 17.7 11.3 0
2004 11 27 23:43 5.7 0 1.4 76.2 286.9 12.9 8 0
2004 11 27 23:58 5.7 0 1 78.9 313.6 12.9 8 0
2004 11 28 0:13 5.3 0 0.6 73.7 305.2 16.1 9.7 0
2004 11 28 0:28 5.3 0 0.1 66.6 303.8 19.3 9.7 0
2004 11 28 0:43 5.3 0 -0.8 69.2 305.2 11.3 6.4 0
2004 11 28 0:58 5.3 0 -0.8 72.2 343.1 14.5 9.7 0
2004 11 28 1:13 5.3 0 -0.8 72.7 308 16.1 11.3 0
2004 11 28 1:28 4.9 0 -0.3 72.9 310.8 22.5 11.3 0
2004 11 28 1:43 4.9 0 -0.8 70 316.4 22.5 14.5 0
2004 11 28 1:58 4.9 0 -0.8 69.2 274.2 19.3 12.9 0
2004 11 28 2:13 4.5 0 -0.8 67.2 317.8 24.1 16.1 0
2004 11 28 2:28 4.5 0 -1.3 65.5 322 20.9 14.5 0
2004 11 28 2:43 4.5 0 -1.3 63.6 270 19.3 12.9 0
2004 11 28 2:58 4.5 0 -1.7 62.8 295.3 17.7 11.3 0
2004 11 28 3:13 4 0 -1.3 62.8 315 20.9 12.9 0
2004 11 28 3:28 4 0 -1.3 62.6 305.2 17.7 11.3 0
2004 11 28 3:43 4 0 -1.7 61.9 281.3 19.3 12.9 0
2004 11 28 3:58 4 0 -1.7 61.7 300.9 19.3 12.9 0
2004 11 28 4:13 4 0 -1.7 62.6 309.4 19.3 11.3 0
2004 11 28 4:28 4 0 -2.2 62.5 288.3 17.7 11.3 0
2004 11 28 4:43 3.6 0 -2.2 62 293.9 17.7 12.9 0
2004 11 28 4:58 3.6 0 -2.7 62.3 315 20.9 14.5 0
2004 11 28 5:13 3.6 0 -2.7 62.6 319.2 19.3 12.9 0
2004 11 28 5:28 3.6 0 -3.1 64.6 326.3 20.9 11.3 0
2004 11 28 5:43 3.6 0 -3.1 63.8 295.3 20.9 12.9 0
2004 11 28 5:58 3.6 5.9 -3.1 64.4 320.6 14.5 8 0
2004 11 28 6:13 3.6 29.4 -2.7 64.4 303.8 14.5 9.7 0
2004 11 28 6:28 3.2 76.5 -1.7 61.5 302.3 14.5 8 0
2004 11 28 6:43 3.2 52.9 -2.2 58.9 296.7 16.1 9.7 0
2004 11 28 6:58 3.2 41.2 -2.7 60.9 299.5 12.9 9.7 0
2004 11 28 7:13 3.2 205.9 -1.3 59.6 291.1 16.1 8 0
2004 11 28 7:28 3.2 252.9 -0.8 56.2 270 20.9 12.9 0
2004 11 28 7:43 3.2 300 -0.8 54.3 326.3 22.5 16.1 0
2004 11 28 7:58 3.2 347.1 -0.3 51.9 306.6 25.7 17.7 0
2004 11 28 8:13 3.2 394.1 -0.3 51.2 296.7 32.2 19.3 0
2004 11 28 8:28 2.7 429.4 -0.3 50.4 284.1 29 19.3 0
2004 11 28 8:43 2.7 470.6 -0.3 50.4 303.8 27.4 19.3 0
2004 11 28 8:58 2.7 500 0.6 49.9 296.7 27.4 16.1 0
2004 11 28 9:13 2.7 529.4 0.6 49.9 298.1 22.5 16.1 0
2004 11 28 9:28 2.7 552.9 0.6 49.6 312.2 25.7 17.7 0
2004 11 28 9:43 2.7 576.5 0.6 49.3 319.2 24.1 17.7 0
2004 11 28 9:58 2.7 600 1 49.3 334.7 29 17.7 0
2004 11 28 10:13 2.7 617.6 1 49.1 316.4 25.7 17.7 0
2004 11 28 10:28 2.7 635.3 1.4 47.7 317.8 29 17.7 0
2004 11 28 10:43 2.7 647.1 1.9 47.2 308 27.4 16.1 0
2004 11 28 10:58 3.2 658.8 1.4 46.5 317.8 33.8 19.3 0
2004 11 28 11:13 3.2 664.7 1.9 45.1 302.3 30.6 20.9 0
2004 11 28 11:28 3.2 664.7 1.9 45.1 291.1 30.6 20.9 0
2004 11 28 11:43 3.6 658.8 2.3 45.8 306.6 29 19.3 0
2004 11 28 11:58 3.6 652.9 1.4 45.1 289.7 30.6 20.9 0
2004 11 28 12:13 4 635.3 1.4 45.1 298.1 30.6 22.5 0
2004 11 28 12:28 4 647.1 1.9 45.1 316.4 29 20.9 0
2004 11 28 12:43 4 582.4 1.4 45.8 309.4 33.8 22.5 0
2004 11 28 12:58 4.5 547.1 1.9 45.8 298.1 32.2 19.3 0
2004 11 28 13:13 4.5 500 1.4 45.1 296.7 32.2 22.5 0
2004 11 28 13:28 4.5 452.9 1.4 44.6 299.5 32.2 20.9 0
2004 11 28 13:43 4.5 394.1 1.4 44.6 305.2 37 24.1 0
2004 11 28 13:58 4.5 335.3 1.4 45.1 305.2 38.6 24.1 0
2004 11 28 14:13 4.9 270.6 1 44.6 309.4 33.8 20.9 0
2004 11 28 14:28 4.9 211.8 1 44.6 315 32.2 22.5 0
2004 11 28 14:43 4.9 158.8 1 44.6 295.3 29 20.9 0
2004 11 28 14:58 4.9 47.1 0.1 45.1 296.7 29 17.7 0
2004 11 28 15:13 4.9 23.5 -0.8 45.8 319.2 32.2 22.5 0
2004 11 28 15:28 4.5 17.6 -1.3 47.7 323.4 25.7 19.3 0
2004 11 28 15:43 4.5 11.8 -1.7 51.2 312.2 32.2 17.7 0
2004 11 28 15:58 4.5 0 -1.7 50.7 312.2 20.9 11.3 0
2004 11 28 16:13 4.5 0 -2.2 50.3 308 17.7 11.3 0
2004 11 28 16:28 4.5 0 -2.2 50.7 295.3 17.7 12.9 0
2004 11 28 16:43 4 0 -2.2 51.4 323.4 25.7 16.1 0
2004 11 28 16:58 4 0 -2.2 53.1 310.8 19.3 12.9 0
2004 11 28 17:13 4 0 -2.7 53.7 298.1 22.5 11.3 0
2004 11 28 17:28 4 0 -2.7 54.3 295.3 17.7 11.3 0
2004 11 28 17:43 3.6 0 -2.7 54.3 313.6 20.9 12.9 0
2004 11 28 17:58 3.6 0 -3.1 55.6 320.6 20.9 12.9 0
2004 11 28 18:13 3.6 0 -3.1 56.6 326.3 16.1 9.7 0
2004 11 28 18:28 3.6 0 -4.1 57.1 333.3 9.7 4.8 0
2004 11 28 18:43 3.6 0 -4.6 57.7 320.6 6.4 4.8 0
2004 11 28 18:58 3.2 0 -4.6 56.5 337.5 6.4 4.8 0
2004 11 28 19:13 3.2 0 -4.1 53.1 337.5 12.9 6.4 0
2004 11 28 19:28 3.2 0 -4.6 51.1 292.5 9.7 6.4 0
2004 11 28 19:43 3.2 0 -5.1 52.5 336.1 9.7 4.8 0
2004 11 28 19:58 3.2 0 -4.6 50.3 324.8 9.7 4.8 0
2004 11 28 20:13 3.2 0 -5.6 51.1 322 4.8 3.2 0
2004 11 28 20:28 2.7 0 -6.1 53.7 284.1 6.4 3.2 0
2004 11 28 20:43 2.7 0 -5.6 53.7 295.3 8 4.8 0
2004 11 28 20:58 2.7 0 -5.6 52.5 288.3 8 4.8 0
2004 11 28 21:13 2.7 0 -6.1 51.9 296.7 8 4.8 0
2004 11 28 21:28 2.7 0 -6.1 52.9 270 6.4 4.8 0
2004 11 28 21:43 2.7 0 -5.1 53.1 326.3 14.5 4.8 0
2004 11 28 21:58 2.7 0 -5.1 51.4 323.4 12.9 8 0
2004 11 28 22:13 2.7 0 -5.1 51.2 1.4 11.3 9.7 0
2004 11 28 22:28 2.3 0 -5.6 51.2 351.6 11.3 8 0
2004 11 28 22:43 2.3 0 -5.6 51.7 324.8 12.9 8 0
2004 11 28 22:58 2.3 0 -5.6 51.9 315 11.3 6.4 0
2004 11 28 23:13 2.3 0 -6.1 52.5 323.4 6.4 3.2 0
2004 11 28 23:28 2.3 0 -6.1 53.7 340.3 11.3 4.8 0
2004 11 28 23:43 2.3 0 -6.1 53.2 354.4 12.9 8 0
2004 11 28 23:58 2.3 0 -5.6 52.9 351.6 19.3 11.3 0
2004 11 29 0:13 2.3 0 -5.6 52.5 333.3 17.7 12.9 0
2004 11 29 0:28 2.3 0 -5.6 51.9 330.5 25.7 14.5 0
2004 11 29 0:43 2.3 0 -5.6 51.7 345.9 19.3 12.9 0
2004 11 29 0:58 1.9 0 -5.6 51.7 326.3 19.3 12.9 0
2004 11 29 1:13 1.9 0 -6.1 52.2 330.5 16.1 11.3 0
2004 11 29 1:28 1.9 0 -6.1 52.9 348.8 14.5 9.7 0
2004 11 29 1:43 1.9 0 -6.1 52.5 313.6 22.5 12.9 0
2004 11 29 1:58 1.9 0 -6.1 52.5 329.1 20.9 14.5 0
2004 11 29 2:13 1.9 0 -6.1 52.5 327.7 20.9 14.5 0
2004 11 29 2:28 1.9 0 -6.1 52.2 324.8 17.7 12.9 0
2004 11 29 2:43 1.9 0 -5.6 51.4 333.3 19.3 11.3 0
2004 11 29 2:58 1.9 0 -6.1 51.2 0 17.7 9.7 0
2004 11 29 3:13 1.9 0 -6.1 51.2 354.4 12.9 6.4 0
2004 11 29 3:28 1.9 0 -6.1 51.7 1.4 9.7 4.8 0
2004 11 29 3:43 1.9 0 -6.1 51.9 322 14.5 6.4 0
2004 11 29 3:58 1.9 0 -5.1 49.9 9.8 19.3 9.7 0
2004 11 29 4:13 1.9 0 -5.6 49.9 1.4 11.3 6.4 0
2004 11 29 4:28 1.4 0 -5.6 50.3 347.3 17.7 9.7 0
2004 11 29 4:43 1.4 0 -6.1 50.7 333.3 20.9 12.9 0
2004 11 29 4:58 1.4 0 -6.1 51.1 331.9 17.7 11.3 0
2004 11 29 5:13 1.4 0 -6.6 51.7 315 14.5 9.7 0
2004 11 29 5:28 1.4 0 -6.6 52.5 288.3 9.7 6.4 0
2004 11 29 5:43 1.4 0 -6.6 52.5 278.4 9.7 8 0
2004 11 29 5:58 1.4 5.9 -7.1 52.5 316.4 9.7 6.4 0
2004 11 29 6:13 1.4 23.5 -7.1 55.9 308 14.5 9.7 0
2004 11 29 6:28 1.4 58.8 -5.6 54.8 326.3 12.9 8 0
2004 11 29 6:43 1.4 105.9 -4.6 51.2 316.4 12.9 8 0
2004 11 29 6:58 1.4 152.9 -3.6 49.3 337.5 16.1 9.7 0
2004 11 29 7:13 1.4 200 -3.1 48.4 303.8 14.5 9.7 0
2004 11 29 7:28 1.4 247.1 -2.2 47.7 354.4 11.3 6.4 0
2004 11 29 7:43 1.4 294.1 -1.7 45.8 317.8 14.5 8 0
2004 11 29 7:58 1.4 341.2 -0.8 45.1 344.5 16.1 9.7 0
2004 11 29 8:13 1.4 388.2 -0.3 44.6 330.5 16.1 11.3 0
2004 11 29 8:28 1.4 429.4 -0.3 44.6 343.1 29 14.5 0
2004 11 29 8:43 1.4 464.7 0.1 43.9 334.7 29 16.1 0
2004 11 29 8:58 1 500 0.6 43.9 22.5 29 17.7 0
2004 11 29 9:13 1 529.4 0.6 43.9 0 25.7 12.9 0
2004 11 29 9:28 1 552.9 1 43.9 322 20.9 11.3 0
2004 11 29 9:43 1 576.5 1 43.9 330.5 38.6 16.1 0
2004 11 29 9:58 1 600 0.6 43.9 8.4 24.1 17.7 0
2004 11 29 10:13 1 617.6 1 43.9 329.1 33.8 17.7 0
2004 11 29 10:28 1 629.4 0.6 43.9 327.7 45.1 19.3 0
2004 11 29 10:43 1 641.2 1 43.9 347.3 29 19.3 0
2004 11 29 10:58 1 652.9 1 43.9 322 29 17.7 0
2004 11 29 11:13 1 658.8 1 43.9 16.9 25.7 16.1 0
2004 11 29 11:28 1 658.8 1.4 43.9 4.2 24.1 12.9 0
2004 11 29 11:43 1 658.8 1.4 43.9 2.8 27.4 12.9 0
2004 11 29 11:58 1 647.1 1.9 43.9 308 17.7 11.3 0
2004 11 29 12:13 1 629.4 1.4 43.9 353 17.7 9.7 0
2004 11 29 12:28 1 605.9 1.4 43.9 324.8 22.5 14.5 0
2004 11 29 12:43 1 576.5 1.4 43.9 327.7 22.5 16.1 0
2004 11 29 12:58 1 535.3 1.4 43.9 351.6 19.3 14.5 0
2004 11 29 13:13 1 494.1 1.4 43.9 347.3 20.9 11.3 0
2004 11 29 13:28 1 441.2 1.4 43.9 343.1 17.7 9.7 0
2004 11 29 13:43 1 388.2 1.4 43.9 347.3 24.1 12.9 0
2004 11 29 13:58 1 335.3 1.4 43.9 0 24.1 16.1 0
2004 11 29 14:13 1 270.6 1.4 43.9 341.7 22.5 16.1 0
2004 11 29 14:28 1.4 211.8 1 43.9 322 22.5 14.5 0
2004 11 29 14:43 1.4 158.8 1 43.9 344.5 24.1 14.5 0
2004 11 29 14:58 1.4 58.8 0.6 43.9 21.1 19.3 9.7 0
2004 11 29 15:13 1.4 23.5 0.1 43.9 353 19.3 12.9 0
2004 11 29 15:28 1.4 17.6 -0.3 44.6 336.1 17.7 11.3 0
2004 11 29 15:43 1.4 5.9 -1.3 44.6 354.4 19.3 11.3 0
2004 11 29 15:58 1.4 0 -1.3 45.1 343.1 16.1 11.3 0
2004 11 29 16:13 1.4 0 -1.3 45.1 331.9 20.9 11.3 0
2004 11 29 16:28 1.4 0 -1.7 45.1 0 19.3 9.7 0
2004 11 29 16:43 1.4 0 -2.2 45.1 14.1 16.1 8 0
2004 11 29 16:58 1.4 0 -1.7 45.1 330.5 11.3 4.8 0
2004 11 29 17:13 1.4 0 -1.7 44.6 275.6 12.9 6.4 0
2004 11 29 17:28 1.4 0 -2.7 45.1 334.7 14.5 6.4 0
2004 11 29 17:43 1.4 0 -1.7 44.6 355.8 19.3 9.7 0
2004 11 29 17:58 1.4 0 -2.2 44.6 298.1 22.5 9.7 0
2004 11 29 18:13 1.4 0 -3.6 45.8 319.2 16.1 8 0
2004 11 29 18:28 1.4 0 -4.1 47.2 336.1 11.3 9.7 0
2004 11 29 18:43 1.4 0 -4.1 47.7 312.2 12.9 9.7 0
2004 11 29 18:58 1.4 0 -3.1 45.8 288.3 14.5 8 0
2004 11 29 19:13 1.4 0 -3.1 45.1 296.7 17.7 6.4 0
2004 11 29 19:28 1.4 0 -1.3 43.9 315 17.7 9.7 0
2004 11 29 19:43 1.4 0 -1.3 43.9 327.7 32.2 11.3 0
2004 11 29 19:58 1.4 0 -1.3 43.9 2.8 25.7 11.3 0
2004 11 29 20:13 1.4 0 -1.3 43.9 334.7 29 14.5 0
2004 11 29 20:28 1.4 0 -1.3 43.9 338.9 17.7 11.3 0
2004 11 29 20:43 1.4 0 -1.3 43.9 340.3 27.4 11.3 0
2004 11 29 20:58 1.4 0 -1.3 43.2 331.9 19.3 11.3 0
2004 11 29 21:13 1.4 0 -1.3 43.9 338.9 25.7 9.7 0
2004 11 29 21:28 1.4 0 -1.7 43.9 125.2 27.4 8 0
2004 11 29 21:43 1.4 0 -2.7 43.9 59.1 11.3 3.2 0
2004 11 29 21:58 1.4 0 -3.1 43.9 112.5 8 3.2 0
2004 11 29 22:13 1.4 0 -2.7 43.9 63.3 12.9 4.8 0
2004 11 29 22:28 1.4 0 -5.1 43.9 263 8 3.2 0
2004 11 29 22:43 1.4 0 -4.6 44.6 299.5 6.4 3.2 0
2004 11 29 22:58 1.4 0 -3.1 44.6 209.5 12.9 4.8 0
2004 11 29 23:13 1.4 0 -3.1 43.9 308 11.3 4.8 0
2004 11 29 23:28 1.4 0 -2.2 43.9 278.4 14.5 6.4 0
2004 11 29 23:43 1.4 0 -2.2 43.9 336.1 14.5 4.8 0
2004 11 29 23:58 1.4 0 -2.7 43.9 191.3 11.3 3.2 0
2004 11 30 0:13 1.4 0 -3.1 43.9 243.3 14.5 4.8 0
2004 11 30 0:28 1.4 0 -4.6 43.9 240.5 8 3.2 0
2004 11 30 0:43 1 0 -4.6 43.9 205.3 9.7 3.2 0
2004 11 30 0:58 1 0 -5.1 44.6 274.2 8 3.2 0
2004 11 30 1:13 1 0 -6.6 45.1 324.8 6.4 3.2 0
2004 11 30 1:28 1 0 -5.6 46.5 277 8 4.8 0
2004 11 30 1:43 1 0 -5.1 45.8 272.8 8 4.8 0
2004 11 30 1:58 1 0 -7.1 46.5 303.8 6.4 3.2 0
2004 11 30 2:13 1 0 -6.6 47.2 261.6 4.8 1.6 0
2004 11 30 2:28 1 0 -5.6 46.5 272.8 8 4.8 0
2004 11 30 2:43 1 0 -6.6 46.5 274.2 6.4 4.8 0
2004 11 30 2:58 1 0 -8.2 48.4 302.3 8 4.8 0
2004 11 30 3:13 1 0 -8.2 49.9 300.9 8 4.8 0
2004 11 30 3:28 1 0 -8.2 49.9 323.4 8 4.8 0
2004 11 30 3:43 1 0 -10.4 51.7 302.3 6.4 4.8 0
2004 11 30 3:58 1 0 -11 55 299.5 8 4.8 0
2004 11 30 4:13 1 0 -9.8 55.4 303.8 6.4 4.8 0
2004 11 30 4:28 1 0 -10.4 55.6 309.4 8 4.8 0
2004 11 30 4:43 1 0 -11 57.1 299.5 6.4 4.8 0
2004 11 30 4:58 1 0 -10.4 57.1 299.5 8 4.8 0
2004 11 30 5:13 1 0 -10.4 57.5 305.2 6.4 4.8 0
2004 11 30 5:28 1 0 -9.3 56.2 308 6.4 3.2 0
2004 11 30 5:43 1 0 -9.8 55.9 302.3 6.4 3.2 0
2004 11 30 5:58 0.6 5.9 -10.4 56.5 306.6 8 3.2 0
2004 11 30 6:13 0.6 23.5 -9.8 58.3 306.6 4.8 3.2 0
2004 11 30 6:28 0.6 58.8 -7.1 58.1 303.8 6.4 3.2 0
2004 11 30 6:43 0.6 105.9 -4.1 54.3 302.3 4.8 3.2 0
2004 11 30 6:58 0.6 152.9 -1.3 49.9 302.3 3.2 1.6 0
2004 11 30 7:13 0.6 200 1.9 45.1 309.4 1.6 0 0
2004 11 30 7:28 0.6 247.1 1 43.9 81.6 8 3.2 0
2004 11 30 7:43 0.6 294.1 1.4 43.9 95.6 8 4.8 0
2004 11 30 7:58 0.6 341.2 2.3 43.9 70.3 4.8 3.2 0
2004 11 30 8:13 0.6 388.2 2.3 43.9 84.4 8 3.2 0
2004 11 30 8:28 0.6 429.4 2.7 43.2 113.9 9.7 4.8 0
2004 11 30 8:43 0.6 458.8 3.2 43.2 118.1 8 4.8 0
2004 11 30 8:58 0.6 494.1 2.7 43.2 73.1 11.3 6.4 0
2004 11 30 9:13 0.6 523.5 3.2 43.2 109.7 8 4.8 0
2004 11 30 9:28 0.6 558.8 3.6 43.2 133.6 8 3.2 0
2004 11 30 9:43 0.6 570.6 3.2 43.2 95.6 8 4.8 0
2004 11 30 9:58 0.6 594.1 3.2 43.2 85.8 8 4.8 0
2004 11 30 10:13 0.6 600 3.6 43.2 108.3 9.7 4.8 0
2004 11 30 10:28 0.6 617.6 4 43.2 119.5 8 4.8 0
2004 11 30 10:43 0.6 629.4 4.9 43.2 66.1 11.3 4.8 0
2004 11 30 10:58 0.6 635.3 4.9 43.2 111.1 9.7 4.8 0
2004 11 30 11:13 0.6 647.1 4.9 43.2 63.3 9.7 4.8 0
2004 11 30 11:28 0.6 635.3 4.5 43.9 85.8 12.9 8 0
2004 11 30 11:43 0.6 641.2 4.5 43.9 102.7 12.9 6.4 0
2004 11 30 11:58 0.6 623.5 4.9 43.9 95.6 11.3 6.4 0
2004 11 30 12:13 0.6 611.8 4.5 43.9 116.7 9.7 4.8 0
2004 11 30 12:28 0.6 588.2 4.9 43.9 167.3 8 4.8 0
2004 11 30 12:43 0.6 558.8 5.3 43.7 151.9 9.7 4.8 0
2004 11 30 12:58 0.6 523.5 5.3 43.7 151.9 11.3 4.8 0
2004 11 30 13:13 0.6 482.4 4.9 43.2 94.2 11.3 4.8 0
2004 11 30 13:28 0.6 429.4 4.9 43.2 90 9.7 6.4 0
2004 11 30 13:43 0.6 376.5 5.3 42.9 122.3 12.9 6.4 0
2004 11 30 13:58 0.6 329.4 5.3 42.9 108.3 11.3 6.4 0
2004 11 30 14:13 0.6 294.1 4 43.9 77.3 12.9 9.7 0
2004 11 30 14:28 0.6 247.1 4.5 43.9 120.9 9.7 6.4 0
2004 11 30 14:43 0.6 170.6 4.5 43.9 125.2 8 4.8 0
2004 11 30 14:58 0.6 100 3.6 43.9 84.4 8 4.8 0
2004 11 30 15:13 0.6 41.2 2.7 43.9 130.8 8 3.2 0
2004 11 30 15:28 0.6 29.4 1.9 44.6 150.5 6.4 3.2 0
2004 11 30 15:43 1 11.8 0.6 44.6 150.5 4.8 1.6 0
2004 11 30 15:58 1 0 -0.3 45.8 150.5 0 0 0
2004 11 30 16:13 1 0 -1.3 47.7 150.5 0 0 0
2004 11 30 16:28 1 0 -1.3 48.9 274.2 4.8 3.2 0
2004 11 30 16:43 1 0 -1.7 49.6 274.2 6.4 3.2 0
2004 11 30 16:58 1 0 -1.7 49.9 284.1 6.4 4.8 0
2004 11 30 17:13 1 0 -1.7 49.9 296.7 6.4 4.8 0
2004 11 30 17:28 1 0 -2.2 50.4 295.3 6.4 4.8 0
2004 11 30 17:43 1 0 -2.2 51.2 295.3 6.4 4.8 0
2004 11 30 17:58 1 0 -2.2 50.4 295.3 4.8 1.6 0
2004 11 30 18:13 1 0 -2.2 51.1 295.3 4.8 1.6 0
2004 11 30 18:28 1 0 -2.7 51.4 295.3 4.8 1.6 0
2004 11 30 18:43 1 0 -2.7 51.4 298.1 6.4 1.6 0
2004 11 30 18:58 1 0 -3.1 53.1 298.1 4.8 3.2 0
2004 11 30 19:13 1 0 -3.6 56.2 298.1 4.8 3.2 0
2004 11 30 19:28 1 0 -4.1 58.3 298.1 4.8 1.6 0
2004 11 30 19:43 1 0 -3.6 58.7 298.1 4.8 3.2 0
2004 11 30 19:58 1 0 -4.1 60.5 298.1 4.8 3.2 0
2004 11 30 20:13 1 0 -3.6 60.1 298.1 6.4 3.2 0
2004 11 30 20:28 1 0 -4.1 59.8 298.1 4.8 3.2 0
2004 11 30 20:43 1 0 -4.1 62 298.1 6.4 3.2 0
2004 11 30 20:58 1 0 -4.1 61.5 298.1 6.4 3.2 0
2004 11 30 21:13 1 0 -4.6 59.6 298.1 4.8 3.2 0
2004 11 30 21:28 1 0 -5.1 61.5 298.1 4.8 3.2 0
2004 11 30 21:43 1 0 -4.6 59.8 298.1 4.8 3.2 0
2004 11 30 21:58 1 0 -4.6 59.2 298.1 4.8 1.6 0
2004 11 30 22:13 1 0 -4.1 57.1 298.1 4.8 1.6 0
2004 11 30 22:28 1 0 -5.1 60.5 298.1 4.8 3.2 0
2004 11 30 22:43 1 0 -4.1 61.1 298.1 4.8 3.2 0
2004 11 30 22:58 1 0 -4.1 63 298.1 4.8 1.6 0
2004 11 30 23:13 1 0 -3.6 57.5 298.1 3.2 0 0
2004 11 30 23:28 1 0 -4.6 56.2 298.1 4.8 3.2 0
2004 11 30 23:43 1 0 -7.1 58.9 298.1 4.8 3.2 0
2004 11 30 23:58 1 0 -7.6 64.4 298.1 6.4 3.2 0
2004 12 1 0:13 1 0 -7.6 67.9 298.1 6.4 3.2 0
2004 12 1 0:28 1 0 -8.2 68.3 298.1 6.4 3.2 0
2004 12 1 0:43 1 0 -8.7 70 298.1 8 4.8 0
2004 12 1 0:58 1 0 -7.6 70 298.1 6.4 3.2 0
2004 12 1 1:13 1 0 -8.2 69.2 298.1 6.4 4.8 0
2004 12 1 1:28 1 0 -8.2 69.5 298.1 6.4 4.8 0
2004 12 1 1:43 1 0 -7.6 69 298.1 8 4.8 0
2004 12 1 1:58 1 0 -7.6 65.5 298.1 6.4 4.8 0
2004 12 1 2:13 1 0 -8.2 64.6 298.1 4.8 3.2 0
2004 12 1 2:28 1 0 -8.2 65.4 298.1 6.4 3.2 0
2004 12 1 2:43 1 0 -8.7 66.6 298.1 6.4 3.2 0
2004 12 1 2:58 1 0 -8.7 67.9 298.1 6.4 3.2 0
2004 12 1 3:13 1 0 -9.3 69 298.1 8 4.8 0
2004 12 1 3:28 1 0 -8.2 68.3 298.1 6.4 3.2 0
2004 12 1 3:43 1 0 -7.6 62.5 298.1 4.8 3.2 0
2004 12 1 3:58 1 0 -8.2 60.1 341.7 8 3.2 0
2004 12 1 4:13 1 0 -7.1 56.6 341.7 4.8 1.6 0
2004 12 1 4:28 1 0 -6.6 55 338.9 8 3.2 0
2004 12 1 4:43 1 0 -6.1 54 177.2 14.5 3.2 0
2004 12 1 4:58 0.6 0 -2.7 49.9 30.9 11.3 4.8 0
2004 12 1 5:13 0.6 0 -3.1 45.8 7 14.5 6.4 0
2004 12 1 5:28 0.6 0 -1.3 45.1 22.5 22.5 11.3 0
2004 12 1 5:43 0.6 0 -1.3 44.6 39.4 20.9 9.7 0
2004 12 1 5:58 0.6 5.9 -1.3 44.6 21.1 19.3 8 0
2004 12 1 6:13 0.6 23.5 -1.3 44.6 353 27.4 11.3 0
2004 12 1 6:28 0.6 58.8 -0.3 43.9 8.4 24.1 11.3 0
2004 12 1 6:43 0.6 100 0.1 43.9 29.5 20.9 12.9 0
2004 12 1 6:58 0.6 141.2 0.6 43.9 59.1 27.4 12.9 0
2004 12 1 7:13 0.6 188.2 0.6 43.9 53.4 35.4 20.9 0
2004 12 1 7:28 0.6 235.3 0.6 43.9 28.1 38.6 22.5 0
2004 12 1 7:43 0.6 282.4 0.6 43.9 88.6 33.8 20.9 0
2004 12 1 7:58 0.6 329.4 0.6 44.6 50.6 41.8 22.5 0
2004 12 1 8:13 0.6 370.6 1 44.6 61.9 32.2 22.5 0
2004 12 1 8:28 0.6 411.8 1 44.6 52 38.6 22.5 0
2004 12 1 8:43 0.6 447.1 1.4 43.9 61.9 38.6 22.5 0
2004 12 1 8:58 0.6 482.4 1.4 43.9 57.7 40.2 22.5 0
2004 12 1 9:13 0.6 511.8 1.9 43.9 52 35.4 22.5 0
2004 12 1 9:28 0.6 535.3 1.4 44.6 36.6 41.8 24.1 0
2004 12 1 9:43 0.6 558.8 1.9 44.6 60.5 33.8 24.1 0
2004 12 1 9:58 0.6 576.5 1.9 43.9 354.4 37 24.1 0
2004 12 1 10:13 0.6 594.1 2.3 44.6 45 33.8 22.5 0
2004 12 1 10:28 0.6 611.8 2.3 43.9 7 37 25.7 0
2004 12 1 10:43 0.6 623.5 2.3 43.9 39.4 41.8 24.1 0
2004 12 1 10:58 0.6 635.3 2.7 43.9 36.6 40.2 24.1 0
2004 12 1 11:13 0.6 641.2 2.7 43.9 47.8 49.9 24.1 0
2004 12 1 11:28 0.6 641.2 2.7 43.9 54.8 32.2 20.9 0
2004 12 1 11:43 0.6 635.3 2.7 43.9 60.5 33.8 22.5 0
2004 12 1 11:58 0.6 623.5 3.2 43.9 49.2 35.4 22.5 0
2004 12 1 12:13 0.6 611.8 2.7 43.9 61.9 33.8 24.1 0
2004 12 1 12:28 0.6 588.2 2.7 43.9 45 37 24.1 0
2004 12 1 12:43 0.6 558.8 2.7 43.9 56.3 35.4 22.5 0
2004 12 1 12:58 0.6 523.5 3.2 43.9 61.9 30.6 20.9 0
2004 12 1 13:13 0.6 476.5 3.2 43.9 61.9 29 19.3 0
2004 12 1 13:28 0.6 429.4 3.6 43.9 50.6 22.5 12.9 0
2004 12 1 13:43 0.6 376.5 3.6 43.9 74.5 24.1 14.5 0
2004 12 1 13:58 0.6 317.6 3.2 43.9 29.5 22.5 14.5 0
2004 12 1 14:13 0.6 258.8 3.2 43.9 18.3 24.1 14.5 0
2004 12 1 14:28 0.6 200 3.2 43.9 54.8 30.6 16.1 0
2004 12 1 14:43 0.6 147.1 3.2 43.9 39.4 25.7 16.1 0
2004 12 1 14:58 0.6 41.2 2.3 43.9 42.2 32.2 17.7 0
2004 12 1 15:13 0.6 17.6 1.9 43.9 33.8 30.6 17.7 0
2004 12 1 15:28 0.6 17.6 1.9 44.6 50.6 37 20.9 0
2004 12 1 15:43 1 5.9 1.4 44.6 36.6 33.8 20.9 0
2004 12 1 15:58 1 0 1.4 44.6 348.8 29 17.7 0
2004 12 1 16:13 1 0 1.9 43.9 42.2 33.8 16.1 0
2004 12 1 16:28 1 0 1.9 43.9 61.9 29 17.7 0
2004 12 1 16:43 1 0 1.4 43.9 30.9 32.2 16.1 0
2004 12 1 16:58 1 0 1.4 43.9 52 33.8 17.7 0
2004 12 1 17:13 1 0 1.4 43.9 32.3 37 19.3 0
2004 12 1 17:28 1 0 1.4 44.6 338.9 41.8 19.3 0
2004 12 1 17:43 1 0 1.4 44.6 39.4 33.8 19.3 0
2004 12 1 17:58 1 0 1.9 44.6 1.4 32.2 19.3 0
2004 12 1 18:13 1 0 1.4 43.9 39.4 29 16.1 0
2004 12 1 18:28 1 0 1.4 44.6 49.2 40.2 19.3 0
2004 12 1 18:43 1 0 1.4 44.6 36.6 33.8 17.7 0
2004 12 1 18:58 1 0 1.4 44.6 0 32.2 17.7 0
2004 12 1 19:13 1 0 1.4 45.1 35.2 35.4 19.3 0
2004 12 1 19:28 1 0 1.4 44.6 63.3 37 20.9 0
2004 12 1 19:43 1 0 1.4 45.1 45 32.2 17.7 0
2004 12 1 19:58 1 0 1.4 45.1 8.4 33.8 19.3 0
2004 12 1 20:13 1 0 1.4 45.1 26.7 35.4 20.9 0
2004 12 1 20:28 1 0 1.4 45.1 11.3 37 19.3 0
2004 12 1 20:43 1 0 1.4 45.1 29.5 40.2 19.3 0
2004 12 1 20:58 1 0 1.4 45.1 23.9 40.2 20.9 0
2004 12 1 21:13 1 0 1 45.8 38 37 20.9 0
2004 12 1 21:28 1 0 1 45.8 22.5 32.2 20.9 0
2004 12 1 21:43 1 0 0.6 46.5 46.4 38.6 19.3 0
2004 12 1 21:58 1 0 0.6 46.5 73.1 33.8 20.9 0
2004 12 1 22:13 1 0 0.6 47.2 38 35.4 19.3 0
2004 12 1 22:28 1 0 0.6 47.2 46.4 33.8 19.3 0
2004 12 1 22:43 1 0 0.6 47.7 26.7 35.4 20.9 0
2004 12 1 22:58 1 0 0.6 47.7 54.8 41.8 20.9 0
2004 12 1 23:13 1 0 0.1 48.4 23.9 32.2 17.7 0
2004 12 1 23:28 1 0 0.1 49.1 43.6 32.2 17.7 0
2004 12 1 23:43 1 0 0.1 48.9 39.4 35.4 17.7 0
2004 12 1 23:58 1 0 0.1 48.9 42.2 33.8 19.3 0
2004 12 2 0:13 1 0 -0.3 49.3 42.2 35.4 17.7 0
2004 12 2 0:28 1 0 -0.3 49.3 1.4 32.2 19.3 0
2004 12 2 0:43 1 0 -0.3 49.1 39.4 35.4 22.5 0
2004 12 2 0:58 1 0 -0.3 48.9 56.3 37 22.5 0
2004 12 2 1:13 1 0 -0.3 48.9 11.3 35.4 22.5 0
2004 12 2 1:28 1 0 -0.8 49.1 22.5 41.8 19.3 0
2004 12 2 1:43 1 0 -0.8 49.1 43.6 37 20.9 0
2004 12 2 1:58 1 0 -0.8 49.3 39.4 32.2 22.5 0
2004 12 2 2:13 1 0 -0.8 48.9 56.3 41.8 22.5 0
2004 12 2 2:28 1 0 -1.3 49.3 35.2 37 22.5 0
2004 12 2 2:43 1 0 -1.3 49.9 18.3 35.4 22.5 0
2004 12 2 2:58 1 0 -1.3 49.9 29.5 38.6 22.5 0
2004 12 2 3:13 1 0 -1.3 49.9 33.8 35.4 20.9 0
2004 12 2 3:28 1 0 -1.7 49.9 49.2 37 19.3 0
2004 12 2 3:43 1 0 -1.3 49.9 29.5 30.6 17.7 0
2004 12 2 3:58 1 0 -1.3 49.3 7 38.6 19.3 0
2004 12 2 4:13 1 0 -1.3 49.3 63.3 33.8 22.5 0
2004 12 2 4:28 1 0 -1.3 49.1 30.9 35.4 22.5 0
2004 12 2 4:43 1 0 -1.7 49.1 42.2 37 20.9 0
2004 12 2 4:58 1 0 -1.3 49.1 35.2 38.6 24.1 0
2004 12 2 5:13 1 0 -1.7 49.3 47.8 32.2 19.3 0
2004 12 2 5:28 1 0 -1.7 49.6 22.5 40.2 24.1 0
2004 12 2 5:43 1 0 -1.7 49.6 29.5 48.3 24.1 0
2004 12 2 5:58 1 0 -1.7 49.6 21.1 37 22.5 0
2004 12 2 6:13 1 17.6 -1.7 49.6 21.1 41.8 22.5 0
2004 12 2 6:28 1 52.9 -1.3 48.9 11.3 46.7 25.7 0
2004 12 2 6:43 0.6 94.1 -0.8 48.4 23.9 49.9 25.7 0
2004 12 2 6:58 0.6 141.2 -0.3 48.4 60.5 32.2 22.5 0
2004 12 2 7:13 0.6 182.4 -0.3 48.4 2.8 41.8 24.1 0
2004 12 2 7:28 0.6 229.4 -0.3 48.4 43.6 38.6 22.5 0
2004 12 2 7:43 0.6 276.5 0.1 47.7 26.7 38.6 22.5 0
2004 12 2 7:58 0.6 323.5 0.1 47.7 7 41.8 24.1 0
2004 12 2 8:13 0.6 364.7 0.6 47.2 61.9 35.4 20.9 0
2004 12 2 8:28 0.6 405.9 1 46.5 74.5 37 17.7 0
2004 12 2 8:43 0.6 441.2 0.6 46.5 61.9 37 20.9 0
2004 12 2 8:58 0.6 470.6 1 46.5 15.5 46.7 24.1 0
2004 12 2 9:13 0.6 505.9 1 46.5 63.3 35.4 19.3 0
2004 12 2 9:28 0.6 523.5 1 45.8 32.3 38.6 24.1 0
2004 12 2 9:43 0.6 547.1 1.4 45.8 61.9 32.2 17.7 0
2004 12 2 9:58 0.6 570.6 1.4 45.8 18.3 33.8 19.3 0
2004 12 2 10:13 0.6 588.2 1.4 45.8 61.9 41.8 22.5 0
2004 12 2 10:28 0.6 605.9 1.4 45.8 38 40.2 24.1 0
2004 12 2 10:43 0.6 617.6 1.9 45.8 85.8 35.4 22.5 0
2004 12 2 10:58 0.6 629.4 1.9 45.1 61.9 32.2 19.3 0
2004 12 2 11:13 0.6 629.4 3.2 45.1 26.7 27.4 12.9 0
2004 12 2 11:28 0.6 635.3 3.2 44.6 35.2 29 11.3 0
2004 12 2 11:43 0.6 629.4 3.2 44.6 60.5 25.7 11.3 0
2004 12 2 11:58 0.6 617.6 3.2 44.6 84.4 27.4 11.3 0
2004 12 2 12:13 0.6 600 3.6 44.6 66.1 19.3 8 0
2004 12 2 12:28 0.6 582.4 3.2 44.6 67.5 25.7 11.3 0
2004 12 2 12:43 1 552.9 3.2 44.6 63.3 27.4 12.9 0
2004 12 2 12:58 1 517.6 3.6 44.6 7 22.5 9.7 0
2004 12 2 13:13 1 476.5 3.2 44.6 53.4 29 12.9 0
2004 12 2 13:28 1 423.5 3.2 44.6 85.8 24.1 14.5 0
2004 12 2 13:43 1.4 370.6 2.7 44.6 40.8 30.6 14.5 0
2004 12 2 13:58 1.4 317.6 3.2 44.6 61.9 29 9.7 0
2004 12 2 14:13 1.4 252.9 3.2 44.6 357.2 30.6 11.3 0
2004 12 2 14:28 1.9 200 2.7 44.6 16.9 22.5 8 0
2004 12 2 14:43 1.9 147.1 2.7 44.6 40.8 27.4 9.7 0
2004 12 2 14:58 1.9 35.3 1.9 44.6 104.1 30.6 9.7 0
2004 12 2 15:13 1.9 17.6 1.4 45.1 305.2 41.8 12.9 0
2004 12 2 15:28 1.9 17.6 1.4 45.1 337.5 27.4 12.9 0
2004 12 2 15:43 2.3 5.9 1 45.8 0 32.2 9.7 0
2004 12 2 15:58 1.9 0 1 45.8 19.7 33.8 12.9 0
2004 12 2 16:13 1.9 0 1 45.8 60.5 24.1 9.7 0
2004 12 2 16:28 1.9 0 1 45.8 327.7 27.4 12.9 0
2004 12 2 16:43 1.9 0 1 45.1 347.3 25.7 12.9 0
2004 12 2 16:58 1.9 0 1 45.1 348.8 29 11.3 0
2004 12 2 17:13 1.9 0 1 45.1 75.9 27.4 11.3 0
2004 12 2 17:28 1.9 0 1 45.8 16.9 30.6 9.7 0
2004 12 2 17:43 1.9 0 1 45.8 347.3 20.9 9.7 0
2004 12 2 17:58 1.9 0 1 45.8 357.2 35.4 12.9 0
2004 12 2 18:13 1.9 0 1 45.1 47.8 32.2 12.9 0
2004 12 2 18:28 1.9 0 1 45.1 299.5 35.4 14.5 0
2004 12 2 18:43 1.4 0 1.4 45.1 337.5 30.6 12.9 0
2004 12 2 18:58 1.4 0 1.4 45.1 43.6 38.6 11.3 0
2004 12 2 19:13 1.4 0 1 45.1 300.9 35.4 12.9 0
2004 12 2 19:28 1.4 0 1 45.1 316.4 24.1 11.3 0
2004 12 2 19:43 1.4 0 1.4 45.1 125.2 24.1 9.7 0
2004 12 2 19:58 1.4 0 1 45.1 94.2 22.5 8 0
2004 12 2 20:13 1.4 0 1 45.8 279.8 27.4 9.7 0
2004 12 2 20:28 1.4 0 1 45.8 130.8 19.3 6.4 0
2004 12 2 20:43 1.4 0 1 45.8 1.4 27.4 8 0
2004 12 2 20:58 1.4 0 0.6 45.8 68.9 24.1 8 0
2004 12 2 21:13 1.4 0 1 45.8 71.7 29 8 0
2004 12 2 21:28 1.4 0 1 46.5 264.4 22.5 8 0
2004 12 2 21:43 1.4 0 0.6 46.5 285.5 16.1 6.4 0
2004 12 2 21:58 1.4 0 0.6 46.5 95.6 32.2 6.4 0
2004 12 2 22:13 1.4 0 0.6 46.5 47.8 17.7 8 0
2004 12 2 22:28 1.4 0 0.6 46.5 43.6 25.7 11.3 0
2004 12 2 22:43 1.4 0 0.6 46.5 59.1 29 14.5 0
2004 12 2 22:58 1.4 0 0.6 46.5 11.3 38.6 12.9 0
2004 12 2 23:13 1.4 0 0.6 46.5 46.4 54.7 19.3 0
2004 12 2 23:28 1 0 0.6 46.5 357.2 38.6 17.7 0
2004 12 2 23:43 1 0 0.6 46.5 341.7 41.8 16.1 0
2004 12 2 23:58 1 0 0.1 47.2 25.3 32.2 12.9 0
2004 12 3 0:13 1 0 0.6 47.2 336.1 41.8 16.1 0
2004 12 3 0:28 1 0 0.1 47.7 28.1 40.2 14.5 0
2004 12 3 0:43 1 0 0.1 47.7 9.8 33.8 11.3 0
2004 12 3 0:58 1 0 0.1 47.7 63.3 24.1 12.9 0
2004 12 3 1:13 1 0 0.1 47.7 336.1 25.7 11.3 0
2004 12 3 1:28 1 0 0.1 47.2 4.2 32.2 11.3 0
2004 12 3 1:43 1 0 0.1 47.2 355.8 45.1 16.1 0
2004 12 3 1:58 1 0 -0.3 47.7 29.5 35.4 14.5 0
2004 12 3 2:13 1 0 0.1 47.2 61.9 46.7 20.9 0
2004 12 3 2:28 1 0 0.1 47.2 308 53.1 17.7 0
2004 12 3 2:43 1 0 0.1 47.2 33.8 40.2 20.9 0
2004 12 3 2:58 1 0 0.1 46.5 9.8 33.8 17.7 0
2004 12 3 3:13 1 0 0.1 46.5 26.7 48.3 16.1 0
2004 12 3 3:28 1 0 -0.3 46.5 19.7 35.4 16.1 0
2004 12 3 3:43 1 0 -0.3 46.5 299.5 33.8 9.7 0
2004 12 3 3:58 1 0 -0.3 46.5 347.3 43.5 12.9 0
2004 12 3 4:13 1 0 -0.3 46.5 102.7 32.2 14.5 0
2004 12 3 4:28 1 0 -0.8 47.2 348.8 41.8 19.3 0
2004 12 3 4:43 1 0 -0.8 47.7 11.3 32.2 16.1 0
2004 12 3 4:58 1 0 -1.3 47.7 46.4 48.3 20.9 0
2004 12 3 5:13 1 0 -0.8 47.7 52 46.7 19.3 0
2004 12 3 5:28 1 0 -0.8 47.2 351.6 43.5 25.7 0
2004 12 3 5:43 1 0 -0.8 46.5 40.8 49.9 25.7 0
2004 12 3 5:58 1 0 -0.8 46.5 61.9 49.9 25.7 0
2004 12 3 6:13 1 17.6 -0.8 47.2 61.9 48.3 27.4 0
2004 12 3 6:28 1 52.9 -0.3 46.5 54.8 53.1 27.4 0
2004 12 3 6:43 1 94.1 0.1 45.8 61.9 41.8 24.1 0
2004 12 3 6:58 1 135.3 0.6 45.1 81.6 40.2 24.1 0
2004 12 3 7:13 1 182.4 0.6 45.1 36.6 37 20.9 0
2004 12 3 7:28 1 223.5 0.6 45.8 67.5 41.8 22.5 0
2004 12 3 7:43 1 270.6 1 45.8 52 41.8 22.5 0
2004 12 3 7:58 1 317.6 1 45.1 57.7 40.2 24.1 0
2004 12 3 8:13 1 358.8 1 45.8 16.9 37 24.1 0
2004 12 3 8:28 1 400 1 46.5 39.4 33.8 22.5 0
2004 12 3 8:43 1 435.3 1.4 46.5 46.4 35.4 24.1 0
2004 12 3 8:58 1 470.6 1.4 46.5 32.3 38.6 22.5 0
2004 12 3 9:13 0.6 500 1.4 46.5 40.8 35.4 22.5 0
2004 12 3 9:28 0.6 523.5 1.9 45.8 80.2 40.2 22.5 0
2004 12 3 9:43 0.6 547.1 1.9 45.1 57.7 40.2 24.1 0
2004 12 3 9:58 0.6 570.6 2.3 45.1 25.3 45.1 25.7 0
2004 12 3 10:13 0.6 588.2 2.3 45.1 57.7 38.6 24.1 0
2004 12 3 10:28 0.6 605.9 2.7 44.6 54.8 49.9 27.4 0
2004 12 3 10:43 0.6 617.6 3.2 44.6 63.3 45.1 25.7 0
2004 12 3 10:58 0.6 623.5 3.2 44.6 63.3 38.6 25.7 0
2004 12 3 11:13 0.6 635.3 3.6 43.9 63.3 38.6 27.4 0
2004 12 3 11:28 0.6 635.3 4 43.9 50.6 32.2 22.5 0
2004 12 3 11:43 0.6 629.4 4 43.9 36.6 35.4 20.9 0
2004 12 3 11:58 1 617.6 4.5 43.9 64.7 29 19.3 0
2004 12 3 12:13 1 600 4.5 43.9 71.7 30.6 20.9 0
2004 12 3 12:28 1 576.5 4.5 43.9 63.3 33.8 20.9 0
2004 12 3 12:43 1 547.1 4.5 43.9 83 32.2 20.9 0
2004 12 3 12:58 1 517.6 4.9 43.9 52 29 17.7 0
2004 12 3 13:13 1.4 470.6 4.9 43.9 71.7 32.2 17.7 0
2004 12 3 13:28 1.4 423.5 4.5 43.9 67.5 33.8 20.9 0
2004 12 3 13:43 1.9 370.6 4.5 43.9 63.3 33.8 20.9 0
2004 12 3 13:58 1.9 317.6 4.5 43.9 57.7 30.6 20.9 0
2004 12 3 14:13 1.9 258.8 4 43.9 39.4 33.8 20.9 0
2004 12 3 14:28 2.3 200 4.5 43.9 61.9 30.6 17.7 0
2004 12 3 14:43 2.3 147.1 4 43.9 61.9 27.4 19.3 0
2004 12 3 14:58 2.3 29.4 3.6 43.9 87.2 27.4 16.1 0
2004 12 3 15:13 2.3 17.6 3.2 43.9 30.9 22.5 14.5 0
2004 12 3 15:28 2.3 17.6 3.2 43.9 63.3 25.7 16.1 0
2004 12 3 15:43 2.3 5.9 2.7 43.9 63.3 24.1 14.5 0
2004 12 3 15:58 2.3 0 2.7 43.9 57.7 19.3 12.9 0
2004 12 3 16:13 2.3 0 2.7 43.9 66.1 24.1 12.9 0
2004 12 3 16:28 2.3 0 2.7 43.9 45 29 17.7 0
2004 12 3 16:43 2.3 0 2.7 43.9 45 33.8 19.3 0
2004 12 3 16:58 2.3 0 2.7 43.9 52 32.2 20.9 0
2004 12 3 17:13 2.3 0 2.3 43.9 60.5 32.2 19.3 0
2004 12 3 17:28 2.3 0 2.3 43.9 52 33.8 20.9 0
2004 12 3 17:43 1.9 0 2.3 43.9 33.8 32.2 19.3 0
2004 12 3 17:58 1.9 0 2.7 43.9 61.9 29 19.3 0
2004 12 3 18:13 1.9 0 2.3 43.9 59.1 29 17.7 0
2004 12 3 18:28 1.9 0 2.3 43.9 63.3 30.6 14.5 0
2004 12 3 18:43 1.9 0 2.7 43.9 2.8 30.6 16.1 0
2004 12 3 18:58 1.9 0 2.7 43.9 30.9 30.6 19.3 0
2004 12 3 19:13 1.9 0 2.7 43.9 61.9 25.7 19.3 0
2004 12 3 19:28 1.9 0 2.3 43.9 49.2 30.6 17.7 0
2004 12 3 19:43 1.9 0 2.7 43.9 14.1 33.8 19.3 0
2004 12 3 19:58 1.9 0 2.7 43.9 35.2 30.6 17.7 0
2004 12 3 20:13 1.9 0 2.7 43.9 43.6 29 17.7 0
2004 12 3 20:28 1.9 0 2.7 43.9 36.6 25.7 17.7 0
2004 12 3 20:43 1.4 0 3.2 43.9 38 30.6 19.3 0
2004 12 3 20:58 1.4 0 3.2 43.9 50.6 32.2 19.3 0
2004 12 3 21:13 1.4 0 3.2 43.9 32.3 32.2 20.9 0
2004 12 3 21:28 1.4 0 3.2 43.9 42.2 37 20.9 0
2004 12 3 21:43 1.4 0 3.2 43.9 35.2 29 17.7 0
2004 12 3 21:58 1.4 0 3.2 43.9 14.1 35.4 19.3 0
2004 12 3 22:13 1.4 0 3.2 43.9 11.3 29 20.9 0
2004 12 3 22:28 1.4 0 3.2 43.9 45 32.2 20.9 0
2004 12 3 22:43 1.4 0 3.2 43.9 61.9 32.2 17.7 0
2004 12 3 22:58 1.4 0 3.2 43.9 61.9 27.4 19.3 0
2004 12 3 23:13 1.4 0 3.2 43.9 59.1 27.4 17.7 0
2004 12 3 23:28 1.4 0 3.2 43.9 33.8 29 17.7 0
2004 12 3 23:43 1.4 0 3.2 43.9 60.5 25.7 17.7 0
2004 12 3 23:58 1.4 0 3.2 43.9 56.3 29 16.1 0
2004 12 4 0:13 1.4 0 3.2 43.9 36.6 24.1 14.5 0
2004 12 4 0:28 1.4 0 3.2 43.9 52 19.3 12.9 0
2004 12 4 0:43 1.4 0 3.2 43.9 78.8 19.3 11.3 0
2004 12 4 0:58 1.4 0 3.2 43.9 49.2 19.3 11.3 0
2004 12 4 1:13 1.4 0 3.2 43.9 50.6 17.7 11.3 0
2004 12 4 1:28 1.4 0 2.7 43.9 45 17.7 11.3 0
2004 12 4 1:43 1.4 0 2.7 43.9 63.3 19.3 11.3 0
2004 12 4 1:58 1.4 0 3.2 44.6 46.4 22.5 12.9 0
2004 12 4 2:13 1.4 0 2.7 44.6 63.3 24.1 12.9 0
2004 12 4 2:28 1.4 0 2.7 44.6 63.3 24.1 12.9 0
2004 12 4 2:43 1.4 0 2.7 44.6 40.8 22.5 11.3 0
2004 12 4 2:58 1.4 0 2.7 44.6 54.8 24.1 12.9 0
2004 12 4 3:13 1.4 0 2.7 44.6 45 20.9 12.9 0
2004 12 4 3:28 1.4 0 2.7 44.6 38 24.1 12.9 0
2004 12 4 3:43 1.4 0 2.3 44.6 59.1 17.7 12.9 0
2004 12 4 3:58 1.4 0 1.9 44.6 73.1 16.1 9.7 0
2004 12 4 4:13 1.4 0 1.9 44.6 63.3 17.7 4.8 0
2004 12 4 4:28 1.4 0 1.9 45.1 63.3 12.9 6.4 0
2004 12 4 4:43 1 0 2.3 44.6 49.2 17.7 9.7 0
2004 12 4 4:58 1 0 1.9 45.1 156.1 16.1 6.4 0
2004 12 4 5:13 1 0 0.1 45.8 184.2 14.5 6.4 0
2004 12 4 5:28 1 0 -0.3 46.5 192.7 12.9 4.8 0
2004 12 4 5:43 1 0 0.1 46.5 133.6 9.7 4.8 0
2004 12 4 5:58 1 0 0.1 46.5 196.9 9.7 4.8 0
2004 12 4 6:13 1 11.8 0.1 47.2 11.3 9.7 3.2 0
2004 12 4 6:28 1 29.4 1 45.8 230.6 12.9 4.8 0
2004 12 4 6:43 1 129.4 1.9 45.8 167.3 11.3 6.4 0
2004 12 4 6:58 1 82.4 2.3 45.1 112.5 12.9 8 0
2004 12 4 7:13 1 170.6 2.3 45.8 130.8 9.7 6.4 0
2004 12 4 7:28 1 235.3 3.2 45.1 118.1 11.3 6.4 0
2004 12 4 7:43 1 241.2 4.5 44.6 108.3 11.3 8 0
2004 12 4 7:58 1 247.1 3.6 44.6 91.4 14.5 9.7 0
2004 12 4 8:13 1 382.4 3.2 45.1 123.8 12.9 9.7 0
2004 12 4 8:28 1 429.4 3.6 44.6 139.2 12.9 8 0
2004 12 4 8:43 1 447.1 4.5 44.6 92.8 14.5 9.7 0
2004 12 4 8:58 1 482.4 5.7 43.9 105.5 16.1 9.7 0
2004 12 4 9:13 1 511.8 5.7 43.5 91.4 17.7 11.3 0
2004 12 4 9:28 1 558.8 6.1 43.2 94.2 16.1 9.7 0
2004 12 4 9:43 1 594.1 6.1 43.2 111.1 17.7 11.3 0
2004 12 4 9:58 1 317.6 5.7 43.5 75.9 17.7 11.3 0
2004 12 4 10:13 1 641.2 6.5 43.5 70.3 14.5 9.7 0
2004 12 4 10:28 1 400 6.1 43.2 102.7 16.1 9.7 0
2004 12 4 10:43 1.4 705.9 6.1 43.7 80.2 14.5 9.7 0
2004 12 4 10:58 1.4 558.8 6.5 42.9 90 16.1 9.7 0
2004 12 4 11:13 1.4 670.6 6.9 42.7 70.3 16.1 11.3 0
2004 12 4 11:28 1.9 500 6.5 42.9 63.3 16.1 9.7 0
2004 12 4 11:43 1.9 617.6 6.5 42.9 63.3 14.5 9.7 0
2004 12 4 11:58 2.3 641.2 6.9 42.7 77.3 16.1 11.3 0
2004 12 4 12:13 2.3 611.8 6.9 42.7 85.8 14.5 9.7 0
2004 12 4 12:28 2.7 623.5 6.9 42.7 99.8 16.1 9.7 0
2004 12 4 12:43 2.7 570.6 6.9 42.7 73.1 17.7 8 0
2004 12 4 12:58 3.2 452.9 6.5 42.9 105.5 14.5 8 0
2004 12 4 13:13 3.2 476.5 6.9 42.7 88.6 11.3 8 0
2004 12 4 13:28 3.6 417.6 6.9 42.7 74.5 12.9 8 0
2004 12 4 13:43 3.6 364.7 6.9 42.7 78.8 9.7 6.4 0
2004 12 4 13:58 4 311.8 6.9 42.7 98.4 12.9 4.8 0
2004 12 4 14:13 4 252.9 6.9 43.2 129.4 12.9 6.4 0
2004 12 4 14:28 4 194.1 6.9 43.2 164.5 17.7 9.7 0
2004 12 4 14:43 4 147.1 6.9 43.2 132.2 12.9 6.4 0
2004 12 4 14:58 4.5 29.4 5.7 43.9 119.5 11.3 6.4 0
2004 12 4 15:13 4.5 23.5 4 45.8 241.9 8 4.8 0
2004 12 4 15:28 4.5 17.6 3.2 46.5 227.8 6.4 1.6 0
2004 12 4 15:43 4.5 5.9 1.4 47.7 227.8 0 0 0
2004 12 4 15:58 4.5 0 0.1 49.3 227.8 3.2 1.6 0
2004 12 4 16:13 4.5 0 -1.3 51.4 278.4 4.8 3.2 0
2004 12 4 16:28 4 0 -1.7 53.1 282.7 6.4 3.2 0
2004 12 4 16:43 4 0 -2.2 54 279.8 4.8 3.2 0
2004 12 4 16:58 4 0 -2.2 55.4 288.3 6.4 4.8 0
2004 12 4 17:13 4 0 -3.1 56.5 288.3 6.4 4.8 0
2004 12 4 17:28 3.6 0 -4.1 59.9 289.7 6.4 4.8 0
2004 12 4 17:43 3.6 0 -4.1 61.7 289.7 6.4 4.8 0
2004 12 4 17:58 3.6 0 -4.6 63 289.7 4.8 3.2 0
2004 12 4 18:13 3.2 0 -4.1 64.4 289.7 4.8 3.2 0
2004 12 4 18:28 3.2 0 -4.6 64.4 289.7 4.8 3.2 0
2004 12 4 18:43 3.2 0 -5.1 66.6 289.7 4.8 3.2 0
2004 12 4 18:58 3.2 0 -4.6 65.5 289.7 4.8 3.2 0
2004 12 4 19:13 2.7 0 -5.1 67.7 289.7 4.8 3.2 0
2004 12 4 19:28 2.7 0 -5.1 70.5 289.7 4.8 3.2 0
2004 12 4 19:43 2.7 0 -3.6 65.5 289.7 6.4 3.2 0
2004 12 4 19:58 2.7 0 -4.6 64.6 289.7 4.8 4.8 0
2004 12 4 20:13 2.7 0 -5.1 69.5 289.7 4.8 3.2 0
2004 12 4 20:28 2.3 0 -4.1 66.4 289.7 4.8 3.2 0
2004 12 4 20:43 2.3 0 -3.1 64.6 288.3 4.8 3.2 0
2004 12 4 20:58 2.3 0 -4.1 62 285.5 4.8 3.2 0
2004 12 4 21:13 2.3 0 -3.6 63 285.5 4.8 3.2 0
2004 12 4 21:28 2.3 0 -3.6 60.7 285.5 4.8 3.2 0
2004 12 4 21:43 2.3 0 -5.1 63.9 285.5 3.2 1.6 0
2004 12 4 21:58 2.3 0 -4.1 66.6 285.5 6.4 3.2 0
2004 12 4 22:13 1.9 0 -4.1 63 285.5 4.8 3.2 0
2004 12 4 22:28 1.9 0 -5.1 65.5 285.5 4.8 3.2 0
2004 12 4 22:43 1.9 0 -5.6 68.8 285.5 4.8 3.2 0
2004 12 4 22:58 1.9 0 -5.1 69 285.5 4.8 3.2 0
2004 12 4 23:13 1.9 0 -5.6 68.3 285.5 4.8 3.2 0
2004 12 4 23:28 1.9 0 -5.6 70.7 285.5 6.4 3.2 0
2004 12 4 23:43 1.9 0 -5.6 72.2 285.5 4.8 3.2 0
2004 12 4 23:58 1.9 0 -4.6 71.6 285.5 4.8 3.2 0
2004 12 5 0:13 1.4 0 -5.1 70 285.5 4.8 3.2 0
2004 12 5 0:28 1.4 0 -5.1 72.2 285.5 6.4 3.2 0
2004 12 5 0:43 1.4 0 -5.1 73.5 285.5 4.8 3.2 0
2004 12 5 0:58 1.4 0 -6.1 74.6 285.5 4.8 3.2 0
2004 12 5 1:13 1.4 0 -6.1 78.1 285.5 3.2 1.6 0
2004 12 5 1:28 1.4 0 -5.6 80.4 285.5 4.8 3.2 0
2004 12 5 1:43 1.4 0 -7.1 80 285.5 3.2 3.2 0
2004 12 5 1:58 1.4 0 -7.6 83.5 285.5 6.4 3.2 0
2004 12 5 2:13 1.4 0 -7.1 85.7 285.5 4.8 3.2 0
2004 12 5 2:28 1.4 0 -7.6 86.9 285.5 6.4 3.2 0
2004 12 5 2:43 1.4 0 -7.6 87.8 285.5 6.4 3.2 0
2004 12 5 2:58 1.4 0 -8.2 87.8 285.5 6.4 3.2 0
2004 12 5 3:13 1 0 -7.6 89 285.5 6.4 3.2 0
2004 12 5 3:28 1 0 -7.6 88.2 285.5 4.8 1.6 0
2004 12 5 3:43 1 0 -8.7 88.2 285.5 3.2 3.2 0
2004 12 5 3:58 1 0 -8.7 89.8 285.5 4.8 3.2 0
2004 12 5 4:13 1 0 -8.2 90.6 285.5 4.8 3.2 0
2004 12 5 4:28 1 0 -7.6 92.3 285.5 4.8 3.2 0
2004 12 5 4:43 1 0 -6.1 95.4 285.5 3.2 0 0
2004 12 5 4:58 1 0 -6.6 91.5 285.5 3.2 0 0
2004 12 5 5:13 1 0 -5.6 93.9 285.5 3.2 0 0
2004 12 5 5:28 1 0 -6.6 93.9 285.5 4.8 1.6 0
2004 12 5 5:43 1 0 -5.1 97.1 285.5 6.4 3.2 0
2004 12 5 5:58 1 0 -5.6 96.2 285.5 0 0 0
2004 12 5 6:13 1 5.9 -5.6 97.1 285.5 0 0 0
2004 12 5 6:28 1 35.3 -4.1 97.9 285.5 4.8 0 0
2004 12 5 6:43 1 52.9 -2.7 98.7 285.5 4.8 1.6 0
2004 12 5 6:58 1 64.7 -2.7 97.1 285.5 0 0 0
2004 12 5 7:13 1 47.1 -1.7 96.2 285.5 4.8 1.6 0
2004 12 5 7:28 0.6 47.1 -1.3 96.2 97 8 4.8 0
2004 12 5 7:43 0.6 82.4 -0.8 96.2 113.9 11.3 8 0
2004 12 5 7:58 0.6 58.8 -1.3 97.1 118.1 9.7 4.8 0
2004 12 5 8:13 0.6 117.6 -0.8 97.1 95.6 11.3 6.4 0
2004 12 5 8:28 0.6 511.8 0.6 93.9 122.3 11.3 8 0
2004 12 5 8:43 0.6 323.5 1.9 87.8 106.9 19.3 9.7 0
2004 12 5 8:58 0.6 176.5 1 83.5 101.3 25.7 12.9 0
2004 12 5 9:13 0.6 470.6 1.4 83.5 94.2 25.7 14.5 0
2004 12 5 9:28 0.6 200 1.4 81.8 120.9 24.1 12.9 0
2004 12 5 9:43 0.6 152.9 1 84.8 105.5 17.7 11.3 0
2004 12 5 9:58 0.6 41.2 0.6 85.7 104.1 17.7 11.3 0
2004 12 5 10:13 0.6 429.4 1.4 85.7 66.1 19.3 11.3 0
2004 12 5 10:28 0.6 194.1 1.9 80.4 91.4 14.5 9.7 0
2004 12 5 10:43 0.6 229.4 1.4 80.4 67.5 17.7 9.7 0
2004 12 5 10:58 0.6 364.7 1.9 80 68.9 20.9 11.3 0
2004 12 5 11:13 0.6 211.8 1.4 77.3 74.5 19.3 9.7 0
2004 12 5 11:28 0.6 211.8 1.9 78.1 104.1 19.3 11.3 0
2004 12 5 11:43 0.6 470.6 2.3 77.8 81.6 17.7 11.3 0
2004 12 5 11:58 0.6 523.5 2.3 75.1 102.7 14.5 9.7 0
2004 12 5 12:13 0.6 235.3 2.3 73.7 90 14.5 8 0
2004 12 5 12:28 0.6 152.9 2.3 75.1 74.5 16.1 8 0
2004 12 5 12:43 0.6 300 1.9 76.2 94.2 19.3 9.7 0
2004 12 5 12:58 0.6 211.8 2.3 75.1 99.8 17.7 8 0
2004 12 5 13:13 0.6 164.7 1.9 76.8 101.3 20.9 12.9 0
2004 12 5 13:28 0.6 217.6 1.9 77.8 109.7 19.3 11.3 0
2004 12 5 13:43 0.6 241.2 1.9 75.6 91.4 17.7 9.7 0
2004 12 5 13:58 0.6 158.8 2.3 73.7 98.4 14.5 8 0
2004 12 5 14:13 0.6 176.5 1.9 72.9 57.7 12.9 8 0
2004 12 5 14:28 0.6 129.4 1.9 71.6 84.4 16.1 8 0
2004 12 5 14:43 0.6 105.9 1.4 76.2 61.9 14.5 9.7 0
2004 12 5 14:58 1 70.6 1.4 81.5 33.8 17.7 9.7 0
2004 12 5 15:13 1 41.2 0.6 86.1 61.9 22.5 12.9 0
2004 12 5 15:28 1 23.5 0.1 88.2 35.2 24.1 11.3 0
2004 12 5 15:43 1 5.9 0.1 88.2 61.9 22.5 12.9 0
2004 12 5 15:58 1 0 0.1 88.2 28.1 20.9 11.3 0
2004 12 5 16:13 1 0 0.1 88.2 50.6 19.3 12.9 0
2004 12 5 16:28 1 0 0.1 88.2 57.7 19.3 11.3 0
2004 12 5 16:43 1 0 -0.3 90.6 36.6 20.9 12.9 0
2004 12 5 16:58 1 0 -0.3 93.1 30.9 24.1 14.5 0
2004 12 5 17:13 1 0 -0.3 95.4 46.4 22.5 14.5 0
2004 12 5 17:28 1 0 -0.3 95.4 38 19.3 9.7 0
2004 12 5 17:43 1 0 -0.3 95.4 49.2 16.1 9.7 0
2004 12 5 17:58 1 0 -0.3 95.4 63.3 16.1 9.7 0
2004 12 5 18:13 1 0 -0.3 95.4 66.1 22.5 11.3 0
2004 12 5 18:28 1 0 -0.3 97.1 5.6 17.7 9.7 0
2004 12 5 18:43 1 0 -0.3 97.9 19.7 24.1 9.7 0
2004 12 5 18:58 1 0 -0.3 97.9 16.9 16.1 8 0
2004 12 5 19:13 1 0 -0.3 97.9 32.3 20.9 9.7 0
2004 12 5 19:28 1 0 -0.3 98.7 52 14.5 9.7 0
2004 12 5 19:43 1 0 -0.8 99.5 46.4 19.3 11.3 0
2004 12 5 19:58 1 0 -0.3 99.5 7 12.9 6.4 0
2004 12 5 20:13 1 0 -0.3 97.1 40.8 11.3 3.2 0
2004 12 5 20:28 1 0 -0.3 97.1 73.1 8 3.2 0
2004 12 5 20:43 1 0 -0.8 98.7 158.9 8 3.2 0
2004 12 5 20:58 1 0 -0.8 99.5 122.3 9.7 3.2 0
2004 12 5 21:13 1 0 -1.3 100 163.1 14.5 8 0
2004 12 5 21:28 1 0 -1.3 100 94.2 8 3.2 0
2004 12 5 21:43 1 0 -2.2 100 206.7 6.4 1.6 0
2004 12 5 21:58 1 0 -2.7 100 206.7 0 0 0
2004 12 5 22:13 1 0 -2.7 100 206.7 3.2 0 0
2004 12 5 22:28 1 0 -3.1 100 206.7 0 0 0
2004 12 5 22:43 1 0 -4.1 100 206.7 4.8 1.6 0
2004 12 5 22:58 1 0 -3.6 100 291.1 6.4 4.8 0
2004 12 5 23:13 1 0 -3.1 100 291.1 4.8 1.6 0
2004 12 5 23:28 1 0 -2.7 100 279.8 4.8 1.6 0
2004 12 5 23:43 1 0 -2.2 100 279.8 4.8 1.6 0
2004 12 5 23:58 1 0 -2.7 100 279.8 0 0 0
2004 12 6 0:13 1 0 -3.6 100 279.8 4.8 0 0
2004 12 6 0:28 1 0 -4.6 100 279.8 4.8 3.2 0
2004 12 6 0:43 1 0 -5.1 100 279.8 4.8 3.2 0
2004 12 6 0:58 1 0 -6.1 100 279.8 4.8 3.2 0
2004 12 6 1:13 1 0 -6.6 100 279.8 6.4 3.2 0
2004 12 6 1:28 1 0 -6.1 100 279.8 4.8 3.2 0
2004 12 6 1:43 1 0 -6.1 100 279.8 4.8 1.6 0
2004 12 6 1:58 1 0 -6.1 100 279.8 4.8 1.6 0
2004 12 6 2:13 1 0 -5.1 100 279.8 4.8 3.2 0
2004 12 6 2:28 1 0 -6.1 100 279.8 6.4 4.8 0
2004 12 6 2:43 1 0 -6.1 100 279.8 6.4 4.8 0
2004 12 6 2:58 1 0 -6.1 100 279.8 6.4 3.2 0
2004 12 6 3:13 1 0 -6.1 100 279.8 6.4 4.8 0
2004 12 6 3:28 1 0 -5.6 100 279.8 4.8 3.2 0
2004 12 6 3:43 1 0 -5.6 100 279.8 4.8 3.2 0
2004 12 6 3:58 1 0 -5.1 100 279.8 4.8 3.2 0
2004 12 6 4:13 1 0 -6.1 100 279.8 4.8 3.2 0
2004 12 6 4:28 1 0 -5.6 100 279.8 4.8 3.2 0
2004 12 6 4:43 1 0 -5.1 100 279.8 4.8 3.2 0
2004 12 6 4:58 1 0 -5.6 100 279.8 3.2 3.2 0
2004 12 6 5:13 0.6 0 -5.1 100 279.8 3.2 3.2 0
2004 12 6 5:28 0.6 0 -4.6 100 279.8 6.4 3.2 0
2004 12 6 5:43 0.6 0 -4.1 100 279.8 6.4 3.2 0
2004 12 6 5:58 0.6 0 -3.1 100 279.8 4.8 3.2 0
2004 12 6 6:13 0.6 5.9 -3.1 100 279.8 6.4 3.2 0
2004 12 6 6:28 0.6 29.4 -2.2 100 279.8 4.8 3.2 0
2004 12 6 6:43 0.6 29.4 -1.7 100 279.8 3.2 1.6 0
2004 12 6 6:58 0.6 29.4 -1.3 100 279.8 6.4 3.2 0
2004 12 6 7:13 0.6 141.2 -0.8 99.5 279.8 4.8 3.2 0
2004 12 6 7:28 0.6 200 1.4 96.2 324.8 8 4.8 0
2004 12 6 7:43 0.6 241.2 1.9 88.2 331.9 6.4 4.8 0
2004 12 6 7:58 0.6 300 1.9 83.5 296.7 9.7 4.8 0
2004 12 6 8:13 0.6 335.3 2.3 78.5 258.8 9.7 6.4 0
2004 12 6 8:28 0.6 417.6 3.2 78.1 267.2 9.7 4.8 0
2004 12 6 8:43 0.6 447.1 3.2 69.5 272.8 11.3 6.4 0
2004 12 6 8:58 0.6 241.2 3.6 67.4 246.1 12.9 6.4 0
2004 12 6 9:13 0.6 205.9 3.2 66.4 230.6 14.5 8 0
2004 12 6 9:28 0.6 223.5 2.7 70.5 286.9 11.3 6.4 0
2004 12 6 9:43 0.6 564.7 4 66.4 213.8 11.3 6.4 0
2004 12 6 9:58 0.6 264.7 3.2 64.4 248.9 12.9 8 0
2004 12 6 10:13 0.6 141.2 2.7 65 244.7 12.9 8 0
2004 12 6 10:28 0.6 135.3 2.3 66.6 285.5 14.5 8 0
2004 12 6 10:43 0.6 488.2 3.6 68.8 260.2 11.3 6.4 0
2004 12 6 10:58 0.6 341.2 4.9 62 173 16.1 9.7 0
2004 12 6 11:13 0.6 223.5 4.9 60.5 210.9 17.7 9.7 0
2004 12 6 11:28 0.6 705.9 4.9 62.3 230.6 19.3 8 0
2004 12 6 11:43 0.6 605.9 5.7 60.7 208.1 19.3 11.3 0
2004 12 6 11:58 0.6 511.8 4.9 59 189.8 17.7 9.7 0
2004 12 6 12:13 0.6 623.5 5.7 56.2 254.5 17.7 9.7 0
2004 12 6 12:28 1 241.2 4.9 57.1 212.3 14.5 8 0
2004 12 6 12:43 1 423.5 4.9 57.1 263 16.1 8 0
2004 12 6 12:58 1 582.4 4.9 56.6 254.5 14.5 9.7 0
2004 12 6 13:13 1.4 452.9 4.9 56.6 246.1 17.7 9.7 0
2004 12 6 13:28 1.4 423.5 4.9 55.6 247.5 17.7 9.7 0
2004 12 6 13:43 1.9 376.5 4.9 55.6 236.3 17.7 9.7 0
2004 12 6 13:58 1.9 323.5 4.9 55.9 189.8 14.5 8 0
2004 12 6 14:13 2.3 276.5 5.3 54.3 227.8 11.3 6.4 0
2004 12 6 14:28 2.3 70.6 4.9 54.8 229.2 16.1 8 0
2004 12 6 14:43 2.3 70.6 4 56.2 251.7 16.1 8 0
2004 12 6 14:58 2.3 64.7 2.7 60.3 223.6 14.5 6.4 0
2004 12 6 15:13 2.7 64.7 2.7 63.9 220.8 9.7 4.8 0
2004 12 6 15:28 2.7 29.4 2.3 65.5 181.4 9.7 4.8 0
2004 12 6 15:43 2.7 11.8 1.9 69.2 223.6 9.7 4.8 0
2004 12 6 15:58 2.7 0 1.4 71.4 219.4 6.4 3.2 0
2004 12 6 16:13 2.7 0 1 73.7 219.4 3.2 1.6 0
2004 12 6 16:28 2.7 0 0.6 76.2 216.6 4.8 1.6 0
2004 12 6 16:43 2.7 0 -0.8 78.1 216.6 3.2 1.6 0
2004 12 6 16:58 2.7 0 -1.7 81.5 216.6 4.8 1.6 0
2004 12 6 17:13 2.7 0 -2.2 84.3 216.6 4.8 3.2 0
2004 12 6 17:28 2.3 0 -1.7 86.6 219.4 4.8 3.2 0
2004 12 6 17:43 2.3 0 -0.3 87.8 210.9 6.4 0 0
2004 12 6 17:58 2.3 0 -1.7 84.3 210.9 0 0 0
2004 12 6 18:13 2.3 0 -2.2 86.9 210.9 0 0 0
2004 12 6 18:28 2.3 0 -2.7 88.2 210.9 0 0 0
2004 12 6 18:43 2.3 0 -2.2 92.3 210.9 3.2 1.6 0
2004 12 6 18:58 2.3 0 -1.7 93.1 272.8 4.8 3.2 0
2004 12 6 19:13 1.9 0 -0.8 93.1 272.8 4.8 3.2 0
2004 12 6 19:28 1.9 0 -0.8 90.6 272.8 4.8 1.6 0
2004 12 6 19:43 1.9 0 -0.8 90.6 272.8 0 0 0
2004 12 6 19:58 1.9 0 -1.7 93.1 272.8 0 0 0
2004 12 6 20:13 1.9 0 -2.2 93.9 272.8 1.6 0 0
2004 12 6 20:28 1.9 0 -1.7 95.4 272.8 3.2 1.6 0
2004 12 6 20:43 1.9 0 -2.2 96.2 272.8 1.6 0 0
2004 12 6 20:58 1.9 0 -1.3 97.9 272.8 3.2 0 0
2004 12 6 21:13 1.9 0 -0.3 99.5 149.1 6.4 1.6 0
2004 12 6 21:28 1.9 0 1 100 158.9 9.7 4.8 0
2004 12 6 21:43 1.4 0 1 100 156.1 4.8 1.6 0
2004 12 6 21:58 1.4 0 1 100 149.1 8 1.6 0
2004 12 6 22:13 1.4 0 1 100 167.3 4.8 1.6 0
2004 12 6 22:28 1.4 0 1 100 119.5 6.4 3.2 0
2004 12 6 22:43 1.4 0 1.4 100 119.5 6.4 4.8 0
2004 12 6 22:58 1.4 0 1 100 150.5 11.3 4.8 0
2004 12 6 23:13 1.4 0 1.4 99.5 125.2 11.3 4.8 0
2004 12 6 23:28 1.4 0 1 98.7 160.3 9.7 4.8 0
2004 12 6 23:43 1.4 0 1 99.5 119.5 9.7 4.8 0
2004 12 6 23:58 1.4 0 1 99.5 139.2 8 4.8 0
2004 12 7 0:13 1.4 0 1 99.5 118.1 6.4 1.6 0
2004 12 7 0:28 1.4 0 1 100 168.8 8 3.2 0
2004 12 7 0:43 1.4 0 1 100 144.8 12.9 4.8 0
2004 12 7 0:58 1.4 0 0.6 100 156.1 11.3 4.8 0
2004 12 7 1:13 1.4 0 0.6 100 153.3 9.7 6.4 0
2004 12 7 1:28 1.4 0 1 100 156.1 9.7 3.2 0
2004 12 7 1:43 1.4 0 1 100 139.2 8 4.8 0
2004 12 7 1:58 1.4 0 1 100 149.1 14.5 6.4 0
2004 12 7 2:13 1.4 0 1 100 140.6 4.8 1.6 0
2004 12 7 2:28 1.4 0 1 100 144.8 6.4 3.2 0
2004 12 7 2:43 1.4 0 1 100 150.5 9.7 4.8 0
2004 12 7 2:58 1.4 0 1.4 100 116.7 9.7 4.8 0
2004 12 7 3:13 1.4 0 1.4 100 125.2 9.7 6.4 0
2004 12 7 3:28 1.4 0 1.4 100 132.2 12.9 6.4 0
2004 12 7 3:43 1.4 0 1 100 144.8 16.1 8 0
2004 12 7 3:58 1.4 0 1 100 184.2 12.9 6.4 0
2004 12 7 4:13 1.4 0 1 100 140.6 11.3 4.8 0
2004 12 7 4:28 1.4 0 1 100 150.5 14.5 4.8 0
2004 12 7 4:43 1.4 0 0.6 100 133.6 9.7 4.8 0
2004 12 7 4:58 1.4 0 0.1 100 156.1 4.8 1.6 0
2004 12 7 5:13 1.4 0 0.1 100 156.1 3.2 0 0
2004 12 7 5:28 1.4 0 0.1 100 194.1 6.4 0 0
2004 12 7 5:43 1.4 0 0.1 100 170.2 6.4 1.6 0
2004 12 7 5:58 1.4 0 0.1 100 156.1 6.4 3.2 0
2004 12 7 6:13 1.4 5.9 0.1 100 157.5 8 3.2 0
2004 12 7 6:28 1.4 29.4 0.1 100 180 6.4 3.2 0
2004 12 7 6:43 1.4 41.2 0.6 100 184.2 3.2 0 0
2004 12 7 6:58 1.4 70.6 1 100 182.8 4.8 1.6 0
2004 12 7 7:13 1.4 123.5 2.3 100 189.8 8 3.2 0
2004 12 7 7:28 1.4 164.7 2.7 100 171.6 9.7 4.8 0
2004 12 7 7:43 1.4 152.9 3.2 97.1 149.1 12.9 6.4 0
2004 12 7 7:58 1.4 105.9 2.7 95.4 167.3 16.1 8 0
2004 12 7 8:13 1.4 364.7 4.5 93.9 187 14.5 8 0
2004 12 7 8:28 1.4 294.1 4.9 89.8 165.9 17.7 9.7 0
2004 12 7 8:43 1.4 694.1 4.5 87.8 163.1 22.5 12.9 0
2004 12 7 8:58 1.4 541.2 4.9 85.7 158.9 19.3 12.9 0
2004 12 7 9:13 1.4 152.9 4 84.8 184.2 16.1 11.3 0
2004 12 7 9:28 1.9 217.6 4 87.8 177.2 19.3 9.7 0
2004 12 7 9:43 1.9 217.6 4 86.9 189.8 25.7 12.9 0
2004 12 7 9:58 1.9 547.1 4.5 86.9 182.8 22.5 14.5 0
2004 12 7 10:13 1.9 229.4 4.9 82.6 174.4 24.1 14.5 0
2004 12 7 10:28 2.3 341.2 5.7 80 185.6 17.7 9.7 0
2004 12 7 10:43 2.3 294.1 5.3 77.8 180 20.9 11.3 0
2004 12 7 10:58 2.3 376.5 5.7 77.3 199.7 19.3 12.9 0
2004 12 7 11:13 2.7 282.4 5.3 76.4 180 19.3 12.9 0
2004 12 7 11:28 2.7 229.4 5.3 78.1 158.9 20.9 11.3 0
2004 12 7 11:43 2.7 317.6 4.9 77.3 165.9 17.7 11.3 0
2004 12 7 11:58 3.2 135.3 4.5 79.2 206.7 16.1 9.7 0
2004 12 7 12:13 3.2 117.6 4 82.3 180 19.3 11.3 0
2004 12 7 12:28 3.2 88.2 3.6 84.3 160.3 17.7 11.3 0
2004 12 7 12:43 3.6 123.5 3.6 86.1 164.5 16.1 9.7 0
2004 12 7 12:58 3.6 123.5 3.6 87.8 165.9 16.1 9.7 0
2004 12 7 13:13 3.6 129.4 3.2 89.8 170.2 16.1 9.7 0
2004 12 7 13:28 3.6 105.9 2.7 93.1 158.9 20.9 8 0
2004 12 7 13:43 3.6 64.7 2.3 95.4 208.1 16.1 9.7 0
2004 12 7 13:58 3.6 58.8 2.3 97.1 225 12.9 8 0
2004 12 7 14:13 4 52.9 1.9 97.1 189.8 12.9 6.4 0.5
2004 12 7 14:28 4 47.1 1 99.5 213.8 11.3 6.4 0.3
2004 12 7 14:43 4 41.2 1.4 100 219.4 9.7 4.8 0.3
2004 12 7 14:58 4 23.5 1.4 100 251.7 12.9 6.4 0
2004 12 7 15:13 3.6 17.6 1.4 100 227.8 11.3 4.8 0.3
2004 12 7 15:28 3.6 100 1 100 168.8 9.7 4.8 0.5
2004 12 7 15:43 3.6 17.6 1.4 100 196.9 14.5 8 0
2004 12 7 15:58 3.6 0 1 100 237.7 14.5 6.4 0
2004 12 7 16:13 3.6 0 1 100 227.8 11.3 6.4 0
2004 12 7 16:28 3.6 0 1.4 100 208.1 14.5 6.4 0
2004 12 7 16:43 3.6 0 1.4 100 195.5 14.5 8 0
2004 12 7 16:58 3.6 0 1.4 99.5 254.5 14.5 8 0
2004 12 7 17:13 3.6 0 1.4 99.5 265.8 16.1 6.4 0
2004 12 7 17:28 3.2 0 1 99.5 286.9 12.9 8 0
2004 12 7 17:43 3.2 0 1.4 99.5 233.4 9.7 4.8 0
2004 12 7 17:58 3.2 0 1.4 99.5 254.5 11.3 6.4 0
2004 12 7 18:13 3.2 0 1.9 99.5 270 9.7 4.8 0
2004 12 7 18:28 3.2 0 1.4 99.5 253.1 12.9 6.4 0
2004 12 7 18:43 3.2 0 1.4 99.5 236.3 11.3 4.8 0
2004 12 7 18:58 3.2 0 1.9 99.5 289.7 8 4.8 0
2004 12 7 19:13 3.2 0 1.9 99.5 234.8 11.3 4.8 0
2004 12 7 19:28 2.7 0 1.9 99.5 234.8 9.7 3.2 0
2004 12 7 19:43 2.7 0 1.9 98.7 229.2 6.4 3.2 0
2004 12 7 19:58 2.7 0 1.9 97.9 203.9 6.4 3.2 0
2004 12 7 20:13 2.7 0 1.9 97.9 257.3 8 4.8 0
2004 12 7 20:28 2.7 0 1.9 97.9 239.1 9.7 3.2 0
2004 12 7 20:43 2.7 0 1.4 98.7 274.2 11.3 3.2 0
2004 12 7 20:58 2.7 0 1.9 99.5 308 6.4 3.2 0
2004 12 7 21:13 2.7 0 2.3 98.7 271.4 8 3.2 0
2004 12 7 21:28 2.7 0 1.9 98.7 260.2 9.7 1.6 0
2004 12 7 21:43 2.7 0 1.9 99.5 288.3 11.3 3.2 0
2004 12 7 21:58 2.7 0 2.3 99.5 253.1 17.7 4.8 0
2004 12 7 22:13 2.7 0 2.7 99.5 284.1 14.5 4.8 0
2004 12 7 22:28 2.7 0 3.2 99.5 250.3 19.3 8 0
2004 12 7 22:43 2.7 0 3.2 99.5 277 22.5 9.7 0
2004 12 7 22:58 2.7 0 2.7 100 260.2 17.7 8 0
2004 12 7 23:13 2.7 0 3.2 100 265.8 17.7 6.4 0
2004 12 7 23:28 2.7 0 2.3 100 284.1 12.9 4.8 0
2004 12 7 23:43 2.7 0 2.7 100 275.6 9.7 3.2 0
2004 12 7 23:58 2.7 0 2.3 100 260.2 9.7 3.2 0
2004 12 8 0:13 2.7 0 2.7 99.5 253.1 16.1 6.4 0
2004 12 8 0:28 2.7 0 2.7 99.5 250.3 16.1 4.8 0
2004 12 8 0:43 2.7 0 2.7 99.5 253.1 16.1 6.4 0
2004 12 8 0:58 2.7 0 2.7 99.5 284.1 9.7 3.2 0
2004 12 8 1:13 2.7 0 2.7 99.5 246.1 8 3.2 0
2004 12 8 1:28 2.7 0 2.3 99.5 247.5 8 1.6 0
2004 12 8 1:43 2.7 0 3.2 100 264.4 24.1 8 0
2004 12 8 1:58 2.7 0 3.2 100 261.6 17.7 9.7 0
2004 12 8 2:13 2.7 29.4 3.2 98.7 267.2 20.9 8 0
2004 12 8 2:28 2.7 105.9 3.6 97.9 272.8 16.1 8 0
2004 12 8 2:43 2.7 194.1 4.5 96.2 289.7 11.3 4.8 0
2004 12 8 2:58 3.2 170.6 4.9 92.3 243.3 14.5 8 0
2004 12 8 3:13 3.2 300 5.3 90.6 305.2 16.1 6.4 0
2004 12 8 3:28 3.2 429.4 6.9 81.2 226.4 16.1 9.7 0
2004 12 8 3:43 3.2 470.6 7.3 76.2 247.5 22.5 11.3 0
2004 12 8 3:58 3.2 641.2 7.3 74.9 265.8 30.6 12.9 0
2004 12 8 4:13 3.6 382.4 7.7 73.5 236.3 24.1 12.9 0
2004 12 8 4:28 3.6 405.9 8.2 73.7 265.8 20.9 11.3 0
2004 12 8 4:43 4 488.2 7.7 74.1 192.7 27.4 11.3 0
2004 12 8 4:58 4.5 717.6 8.6 71.4 271.4 24.1 12.9 0
2004 12 8 5:13 4.9 594.1 8.6 70.7 305.2 24.1 14.5 0
2004 12 8 5:28 4.9 529.4 7.7 74.1 291.1 27.4 16.1 0
2004 12 8 5:43 5.3 594.1 7.7 75.6 282.7 24.1 11.3 0
2004 12 8 5:58 5.7 311.8 8.2 75.1 234.8 19.3 11.3 0
2004 12 8 6:13 5.7 94.1 6.9 76.2 267.2 22.5 12.9 0
2004 12 8 6:28 6.1 105.9 6.9 81.2 281.3 25.7 12.9 0
2004 12 8 6:43 6.1 129.4 6.9 82.3 261.6 24.1 9.7 0
2004 12 8 6:58 6.1 158.8 7.7 80.4 265.8 19.3 9.7 0
2004 12 8 7:13 6.1 17.6 6.5 83.1 265.8 19.3 9.7 0
2004 12 8 7:28 6.1 5.9 6.1 86.1 284.1 14.5 4.8 0
2004 12 8 7:43 6.1 0 5.7 89.8 277 17.7 4.8 0
2004 12 8 7:58 6.1 0 6.5 89 292.5 11.3 4.8 0
2004 12 8 8:13 5.7 0 6.1 87.3 288.3 16.1 6.4 0
2004 12 8 8:28 5.7 0 4.9 93.1 274.2 16.1 4.8 0
2004 12 8 8:43 5.7 0 5.3 93.1 292.5 17.7 6.4 0
2004 12 8 8:58 5.7 0 5.7 94.7 286.9 14.5 6.4 0
2004 12 8 9:13 5.3 0 6.1 90.6 305.2 16.1 6.4 0
2004 12 8 9:28 5.3 0 6.1 89.8 289.7 11.3 4.8 0
2004 12 8 9:43 5.3 0 5.7 91.5 293.9 16.1 4.8 0
2004 12 8 9:58 5.3 0 6.1 92.3 295.3 12.9 4.8 0
2004 12 8 10:13 5.3 0 5.3 91.5 295.3 8 3.2 0
2004 12 8 10:28 5.3 0 4 93.9 284.1 9.7 3.2 0
2004 12 8 10:43 4.9 0 4.5 97.1 285.5 9.7 3.2 0
2004 12 8 10:58 4.9 0 4.5 99.5 265.8 12.9 4.8 0
2004 12 8 11:13 4.9 0 4.9 100 272.8 16.1 4.8 0
2004 12 8 11:28 4.9 0 4.9 99.5 268.6 17.7 6.4 0
2004 12 8 11:43 4.9 0 4.5 99.5 302.3 11.3 4.8 0
2004 12 8 11:58 4.9 0 5.3 98.7 274.2 9.7 3.2 0
2004 12 8 12:13 4.5 0 5.3 98.7 241.9 16.1 8 0
2004 12 8 12:28 4.5 0 5.3 98.7 271.4 12.9 6.4 0
2004 12 8 12:43 4.5 0 5.3 98.7 275.6 17.7 8 0
2004 12 8 12:58 4.5 0 5.3 99.5 300.9 16.1 8 0
2004 12 8 13:13 4.5 0 4.9 100 308 16.1 8 0
2004 12 8 13:28 4.5 0 4.9 100 315 16.1 6.4 0
2004 12 8 13:43 4.5 0 4.9 100 303.8 9.7 3.2 0
2004 12 8 13:58 4.9 0 4.9 100 303.8 12.9 4.8 0
2004 12 8 14:13 4.9 0 5.3 100 309.4 11.3 4.8 0
2004 12 8 14:28 4.9 0 4.9 100 289.7 11.3 6.4 0
2004 12 8 14:43 4.5 0 4.5 100 291.1 8 3.2 0
2004 12 8 14:58 4.5 0 3.6 100 291.1 8 3.2 0
2004 12 8 15:13 4.5 0 2.3 100 291.1 6.4 1.6 0
2004 12 8 15:28 4.5 0 0.6 100 291.1 9.7 1.6 0
2004 12 8 15:43 4.5 17.6 0.1 100 291.1 8 3.2 0
2004 12 8 15:58 4.5 76.5 2.7 100 291.1 8 3.2 0
2004 12 8 16:13 4 76.5 6.9 99.5 289.7 12.9 1.6 0
2004 12 8 16:28 4 158.8 5.7 98.7 80.2 4.8 1.6 0
2004 12 8 16:43 4 205.9 6.1 98.7 77.3 9.7 4.8 0
2004 12 8 16:58 4 235.3 6.5 97.9 104.1 17.7 6.4 0
2004 12 8 17:13 4.5 523.5 6.9 94.7 102.7 17.7 6.4 0
2004 12 8 17:28 4.5 252.9 7.3 90.6 90 17.7 8 0
2004 12 8 17:43 4.5 276.5 6.5 94.7 64.7 17.7 9.7 0
2004 12 8 17:58 4.9 205.9 5.7 97.1 61.9 25.7 14.5 0
2004 12 8 18:13 4.9 305.9 6.1 96.2 61.9 33.8 12.9 0
2004 12 8 18:28 5.3 605.9 6.5 93.9 18.3 20.9 11.3 0
2004 12 8 18:43 5.3 623.5 6.9 89 0 25.7 14.5 0
2004 12 8 18:58 5.7 605.9 7.7 85.2 66.1 24.1 11.3 0
2004 12 8 19:13 5.7 576.5 7.7 82.6 47.8 30.6 11.3 0
2004 12 8 19:28 6.1 529.4 8.6 79.6 75.9 22.5 9.7 0
2004 12 8 19:43 6.5 464.7 9.4 76.4 116.7 17.7 8 0
2004 12 8 19:58 6.9 382.4 9 74.9 111.1 19.3 9.7 0
2004 12 8 20:13 6.9 282.4 10.5 73.7 163.1 20.9 6.4 0
2004 12 8 20:28 7.3 188.2 8.6 75.6 118.1 20.9 8 0
2004 12 8 20:43 7.3 100 9 74.9 170.2 16.1 6.4 0
2004 12 8 20:58 7.3 17.6 7.7 80 178.6 9.7 1.6 0
2004 12 8 21:13 7.3 5.9 6.5 84.3 178.6 6.4 1.6 0
2004 12 8 21:28 7.3 0 5.7 87.3 278.4 8 1.6 0
2004 12 8 21:43 6.9 0 4.5 89 278.4 17.7 1.6 0
2004 12 8 21:58 6.9 0 4 95.4 278.4 6.4 1.6 0
2004 12 8 22:13 6.5 0 10.9 57.1 28.1 24.1 9.7 0
2004 12 8 22:28 6.5 0 10.9 48.4 21.1 25.7 12.9 0
2004 12 8 22:43 6.1 0 10.9 48 71.7 29 19.3 0
2004 12 8 22:58 6.1 0 10.5 50.4 23.9 30.6 17.7 0
2004 12 8 23:13 6.1 0 11.7 46 61.9 29 14.5 0
2004 12 8 23:28 6.1 0 12.1 43.5 355.8 29 14.5 0
2004 12 8 23:43 6.1 0 12.5 44.1 343.1 29 12.9 0
2004 12 8 23:58 6.1 0 12.1 44.6 66.1 22.5 11.3 0
2004 12 9 0:13 6.1 0 12.9 42.9 46.4 37 14.5 0
2004 12 9 0:28 6.1 0 12.1 42.7 344.5 41.8 14.5 0
2004 12 9 0:43 6.1 0 11.7 43.5 43.6 27.4 11.3 0
2004 12 9 0:58 5.7 0 11.7 43.7 19.7 40.2 17.7 0
2004 12 9 1:13 5.7 0 11.7 43.7 47.8 38.6 22.5 0
2004 12 9 1:28 5.7 0 11.3 46.7 32.3 41.8 25.7 0
2004 12 9 1:43 5.7 0 10.9 49.9 54.8 45.1 25.7 0
2004 12 9 1:58 5.7 0 11.3 49.9 61.9 35.4 22.5 0
2004 12 9 2:13 5.7 0 11.3 49.6 8.4 37 14.5 0
2004 12 9 2:28 5.7 0 10.9 51.1 347.3 24.1 12.9 0
2004 12 9 2:43 5.7 0 10.5 51.7 11.3 38.6 12.9 0
2004 12 9 2:58 5.7 0 10.9 51.7 26.7 33.8 22.5 0
2004 12 9 3:13 5.7 0 10.1 53.5 30.9 45.1 22.5 0
2004 12 9 3:28 5.7 0 10.1 54 16.9 37 22.5 0
2004 12 9 3:43 5.7 0 10.1 53.7 33.8 40.2 20.9 0
2004 12 9 3:58 5.7 0 10.5 52.5 47.8 37 20.9 0
2004 12 9 4:13 5.7 0 10.5 52.5 29.5 33.8 22.5 0
2004 12 9 4:28 5.7 0 10.1 53.7 57.7 33.8 19.3 0
2004 12 9 4:43 5.7 0 10.1 53.1 350.2 30.6 16.1 0
2004 12 9 4:58 5.7 0 10.1 53.1 30.9 22.5 9.7 0
2004 12 9 5:13 5.7 0 9.8 54 54.8 22.5 8 0
2004 12 9 5:28 5.7 17.6 10.5 52.5 38 17.7 9.7 0
2004 12 9 5:43 5.7 88.2 11.7 49.1 158.9 14.5 4.8 0
2004 12 9 5:58 5.7 170.6 13.3 44.4 313.6 16.1 6.4 0
2004 12 9 6:13 5.7 235.3 14.1 42.3 23.9 14.5 6.4 0
2004 12 9 6:28 5.7 311.8 14.4 41.8 50.6 17.7 9.7 0
2004 12 9 6:43 5.7 370.6 14.8 40.5 40.8 19.3 9.7 0
2004 12 9 6:58 5.7 441.2 14.8 41.2 49.2 25.7 16.1 0
2004 12 9 7:13 5.7 494.1 14.8 41.2 53.4 32.2 19.3 0
2004 12 9 7:28 6.1 529.4 15.2 40.3 46.4 25.7 16.1 0
2004 12 9 7:43 6.5 564.7 15.6 39.6 35.2 25.7 14.5 0
2004 12 9 7:58 6.5 594.1 15.2 41.8 43.6 29 16.1 0
2004 12 9 8:13 6.9 611.8 16 39.4 36.6 24.1 14.5 0
2004 12 9 8:28 7.3 611.8 15.2 41.8 64.7 25.7 14.5 0
2004 12 9 8:43 7.7 605.9 14.8 43.2 14.1 27.4 16.1 0
2004 12 9 8:58 8.2 582.4 14.8 42.7 38 33.8 16.1 0
2004 12 9 9:13 8.6 529.4 15.2 41.2 59.1 29 14.5 0
2004 12 9 9:28 9 458.8 15.6 39.6 52 25.7 14.5 0
2004 12 9 9:43 9 370.6 15.6 39.6 42.2 22.5 14.5 0
2004 12 9 9:58 9.4 276.5 15.2 39.6 29.5 30.6 16.1 0
2004 12 10 15:54 9.4 17.6 12.9 46.3 161.7 1.6 1.6 0
2004 12 10 16:09 9.4 5.9 12.9 43.5 309.4 19.3 4.8 0
2004 12 10 16:24 9.4 0 11.7 45.8 115.3 9.7 4.8 0
2004 12 10 16:39 9.4 0 9.8 51.9 220.8 11.3 3.2 0
2004 12 10 16:54 9 0 9.4 53.2 272.8 9.7 3.2 0
2004 12 10 17:09 9 0 11.3 46.5 343.1 16.1 6.4 0
2004 12 10 17:24 8.6 0 11.7 44.4 292.5 17.7 6.4 0
2004 12 10 17:39 8.6 0 9.4 47.7 206.7 14.5 3.2 0
2004 12 10 17:54 8.6 0 12.9 40.5 348.8 22.5 9.7 0
2004 12 10 18:09 8.2 0 10.5 44.7 357.2 22.5 4.8 0
2004 12 10 18:24 8.2 0 10.1 44.9 310.8 12.9 4.8 0
2004 12 10 18:39 7.7 0 8.2 50.7 310.8 8 3.2 0
2004 12 10 18:54 7.7 0 8.6 49.3 215.2 8 1.6 0
2004 12 10 19:09 7.7 0 5.3 58.4 299.5 9.7 3.2 0
2004 12 10 19:24 7.3 0 12.1 43.5 355.8 16.1 6.4 0
2004 12 10 19:39 7.3 0 12.9 40.9 33.8 25.7 12.9 0
2004 12 10 19:54 6.9 0 12.5 40.9 0 22.5 12.9 0
2004 12 10 20:09 6.9 0 12.5 40.9 63.3 25.7 11.3 0
2004 12 10 20:24 6.9 0 10.1 45.1 210.9 14.5 4.8 0
2004 12 10 20:39 6.9 0 9 46.7 296.7 11.3 1.6 0
2004 12 10 20:54 6.9 0 7.3 48.4 264.4 8 3.2 0
2004 12 10 21:09 6.9 0 4 60.5 274.2 17.7 4.8 0
2004 12 10 21:24 6.5 0 4 63.8 292.5 9.7 4.8 0
2004 12 10 21:39 6.5 0 1.9 65 303.8 9.7 4.8 0
2004 12 10 21:54 6.1 0 3.2 68.3 289.7 12.9 4.8 0
2004 12 10 22:09 6.1 0 1.4 70 296.7 14.5 4.8 0
2004 12 10 22:24 6.1 0 3.2 68.3 298.1 9.7 4.8 0
2004 12 10 22:39 5.7 0 1.4 77.3 300.9 9.7 4.8 0
2004 12 10 22:54 5.7 0 1.9 77.3 302.3 11.3 4.8 0
2004 12 10 23:09 5.7 0 1.9 78.5 305.2 11.3 4.8 0
2004 12 10 23:24 5.3 0 2.7 77.8 305.2 8 3.2 0
2004 12 10 23:39 5.3 0 4 73.7 302.3 9.7 3.2 0
2004 12 10 23:54 5.3 0 4.9 70.9 254.5 11.3 3.2 0
2004 12 11 0:09 4.9 0 6.9 63.4 232 16.1 4.8 0
2004 12 11 0:24 4.9 5.9 4.5 66.6 305.2 14.5 4.8 0
2004 12 11 0:39 4.9 58.8 6.1 69.2 300.9 16.1 3.2 0
2004 12 11 0:54 4.9 135.3 10.9 54.7 306.6 4.8 0 0
2004 12 11 1:09 4.5 217.6 14.4 42.7 191.3 12.9 1.6 0
2004 12 11 1:24 4.5 294.1 14.4 42 194.1 9.7 3.2 0
2004 12 11 1:39 4.5 370.6 15.2 40.9 109.7 12.9 4.8 0
2004 12 11 1:54 4.9 435.3 14.8 41.8 123.8 17.7 8 0
2004 12 11 2:09 4.9 488.2 15.2 41.8 118.1 17.7 8 0
2004 12 11 2:24 4.9 529.4 14.8 44.1 125.2 17.7 8 0
2004 12 11 2:39 5.3 564.7 15.6 42.7 88.6 20.9 9.7 0
2004 12 11 2:54 5.7 588.2 15.2 44.1 120.9 17.7 9.7 0
2004 12 11 3:09 6.1 611.8 16.8 39.4 84.4 16.1 8 0
2004 12 11 3:24 6.5 617.6 17.1 38.5 102.7 17.7 8 0
2004 12 11 3:39 7.3 605.9 17.1 38.2 99.8 17.7 6.4 0
2004 12 11 3:54 7.7 576.5 16 42 67.5 20.9 8 0
2004 12 11 4:09 8.2 529.4 15.6 43.9 88.6 19.3 9.7 0
2004 12 11 4:24 8.6 464.7 16.4 42.3 142 11.3 4.8 0
2004 12 11 4:39 9 376.5 16 43.5 71.7 12.9 4.8 0
2004 12 11 4:54 9 276.5 16.4 43.2 99.8 9.7 3.2 0
2004 12 11 5:09 9.4 182.4 16 44.4 106.9 9.7 3.2 0
2004 12 11 5:24 9.4 94.1 15.6 45.8 120.9 8 3.2 0
2004 12 11 5:39 9.8 11.8 12.5 52.2 160.3 9.7 3.2 0
2004 12 11 5:54 9.8 0 9.4 59 270 6.4 0 0
2004 12 11 6:09 9.4 0 6.1 71.9 281.3 14.5 4.8 0
2004 12 11 6:24 9.4 0 6.9 71.9 282.7 11.3 4.8 0
2004 12 11 6:39 9 0 4.5 75.6 282.7 8 3.2 0
2004 12 11 6:54 9 0 3.6 81.5 282.7 8 3.2 0
2004 12 11 7:09 8.6 0 2.7 86.1 282.7 9.7 3.2 0
2004 12 11 7:24 8.6 0 2.7 89 282.7 9.7 4.8 0
2004 12 11 7:39 8.2 0 1.9 88.2 282.7 11.3 4.8 0
2004 12 11 7:54 8.2 0 2.7 89 282.7 11.3 4.8 0
2004 12 11 8:09 7.7 0 2.7 84.8 282.7 9.7 4.8 0
2004 12 11 8:24 7.7 0 4 75.1 282.7 8 4.8 0
2004 12 11 8:39 7.3 0 2.7 77 284.1 11.3 4.8 0
2004 12 11 8:54 7.3 0 1.4 80.7 284.1 12.9 4.8 0
2004 12 11 9:09 6.9 0 1 87.8 296.7 12.9 4.8 0
2004 12 11 9:24 6.9 0 1.4 87.8 296.7 11.3 4.8 0
2004 12 11 9:39 6.5 0 0.6 88.2 296.7 11.3 4.8 0
2004 12 11 9:54 6.5 0 1 87.8 296.7 14.5 4.8 0
2004 12 11 10:09 6.1 0 0.6 89.8 296.7 9.7 4.8 0
2004 12 11 10:24 6.1 0 1.4 86.6 296.7 11.3 4.8 0
2004 12 11 10:39 6.1 0 1 86.6 296.7 11.3 4.8 0
2004 12 11 10:54 5.7 0 1 88.2 296.7 11.3 4.8 0
2004 12 11 11:09 5.7 0 1.4 87.8 296.7 11.3 4.8 0
2004 12 11 11:24 5.3 0 1.9 85.7 298.1 9.7 4.8 0
2004 12 11 11:39 5.3 0 0.6 86.9 298.1 9.7 4.8 0
2004 12 11 11:54 5.3 0 -0.3 89.8 298.1 9.7 4.8 0
2004 12 11 12:09 5.3 0 0.1 87.8 298.1 11.3 4.8 0
2004 12 11 12:24 4.9 0 -0.3 86.6 298.1 17.7 4.8 0
2004 12 11 12:39 4.9 0 0.1 87.8 298.1 12.9 4.8 0
2004 12 11 12:54 4.9 0 0.1 85.7 298.1 14.5 4.8 0
2004 12 11 13:09 4.5 0 -0.3 86.1 298.1 14.5 4.8 0
2004 12 11 13:24 4.5 0 -0.3 86.1 298.1 11.3 4.8 0
2004 12 11 13:39 4.5 0 -0.3 86.1 298.1 12.9 6.4 0
2004 12 11 13:54 4.5 0 0.1 83.5 303.8 14.5 4.8 0
2004 12 11 14:09 4 17.6 0.6 86.9 303.8 11.3 4.8 0
2004 12 11 14:24 4 82.4 4.9 79.6 302.3 9.7 3.2 0
2004 12 11 14:39 4 158.8 10.5 57.1 257.3 8 1.6 0
2004 12 11 14:54 4 241.2 14.1 42 302.3 0 0 0
2004 12 11 15:09 4 317.6 14.8 39.4 302.3 8 1.6 0
2004 12 11 15:24 4 388.2 15.6 39.6 130.8 11.3 3.2 0
2004 12 11 15:39 4 452.9 16.4 39.4 106.9 9.7 3.2 0
2004 12 11 15:54 4 500 16.8 37.9 111.1 12.9 4.8 0
2004 12 11 16:09 4.5 541.2 17.1 36.6 109.7 9.7 4.8 0
2004 12 11 16:24 4.9 576.5 17.1 36.6 108.3 12.9 4.8 0
2004 12 11 16:39 5.3 600 17.1 37.6 101.3 14.5 6.4 0
2004 12 11 16:54 5.7 611.8 17.1 37.6 136.4 14.5 6.4 0
2004 12 11 17:09 6.5 611.8 17.5 38.2 130.8 12.9 4.8 0
2004 12 11 17:24 6.9 600 16.8 39.4 108.3 12.9 6.4 0
2004 12 11 17:39 7.3 564.7 17.5 38.8 137.8 11.3 4.8 0
2004 12 11 17:54 7.7 511.8 17.5 38.2 136.4 12.9 4.8 0
2004 12 11 18:09 8.2 435.3 17.9 37 133.6 14.5 3.2 0
2004 12 11 18:24 8.6 347.1 17.1 39.1 154.7 17.7 6.4 0
2004 12 11 18:39 9 247.1 17.1 37.6 143.4 14.5 8 0
2004 12 11 18:54 9 152.9 16.4 37.9 144.8 12.9 6.4 0
2004 12 11 19:09 9.4 17.6 14.4 39.1 140.6 9.7 3.2 0
2004 12 11 19:24 9.4 11.8 12.5 43.5 140.6 6.4 1.6 0
2004 12 11 19:39 9.4 0 7.3 52.7 195.5 6.4 1.6 0
2004 12 11 19:54 9 0 5.3 63.4 289.7 9.7 4.8 0
2004 12 11 20:09 9 0 3.2 69.2 289.7 9.7 3.2 0
2004 12 11 20:24 8.6 0 3.2 72.2 289.7 11.3 4.8 0
2004 12 11 20:39 8.6 0 5.3 69 289.7 11.3 3.2 0
2004 12 11 20:54 8.2 0 3.6 72.2 289.7 8 4.8 0
2004 12 11 21:09 8.2 0 4.9 68.3 316.4 11.3 4.8 0
2004 12 11 21:24 7.7 0 4 66 316.4 17.7 4.8 0
2004 12 11 21:39 7.7 0 3.2 70 316.4 11.3 4.8 0
2004 12 11 21:54 7.3 0 3.6 68.8 316.4 11.3 4.8 0
2004 12 11 22:09 7.3 0 2.7 68.3 316.4 11.3 4.8 0
2004 12 11 22:24 6.9 0 4 69.2 316.4 16.1 3.2 0
2004 12 11 22:39 6.9 0 6.1 59.2 316.4 8 1.6 0
2004 12 11 22:54 6.5 0 7.7 51.7 316.4 9.7 3.2 0
2004 12 11 23:09 6.5 0 5.3 56.3 289.7 11.3 4.8 0
2004 12 11 23:24 6.1 0 2.7 63 292.5 9.7 4.8 0
2004 12 11 23:39 6.1 0 4 66 293.9 8 3.2 0
2004 12 11 23:54 6.1 0 4.5 65.2 293.9 9.7 3.2 0
2004 12 12 0:09 5.7 0 6.1 61.9 291.1 9.7 4.8 0
2004 12 12 0:24 5.7 0 5.3 60.9 291.1 9.7 3.2 0
2004 12 12 0:39 5.7 0 5.7 64.4 291.1 11.3 4.8 0
2004 12 12 0:54 5.3 0 6.9 59.4 300.9 11.3 6.4 0
2004 12 12 1:09 5.3 0 5.7 63.8 302.3 17.7 6.4 0
2004 12 12 1:24 5.3 0 5.3 66.6 303.8 14.5 8 0
2004 12 12 1:39 5.3 0 4.9 70.9 305.2 12.9 6.4 0
2004 12 12 1:54 4.9 0 5.7 70 299.5 12.9 6.4 0
2004 12 12 2:09 4.9 0 5.3 66.6 305.2 17.7 6.4 0
2004 12 12 2:24 4.9 0 6.5 61.2 306.6 14.5 6.4 0
2004 12 12 2:39 4.9 0 6.9 58.4 313.6 12.9 6.4 0
2004 12 12 2:54 4.9 0 5.3 61.5 303.8 12.9 6.4 0
2004 12 12 3:09 4.9 0 6.1 59.9 305.2 11.3 6.4 0
2004 12 12 3:24 4.5 0 4.9 62.8 299.5 11.3 6.4 0
2004 12 12 3:39 4.5 0 4.5 66 295.3 11.3 4.8 0
2004 12 12 3:54 4.5 29.4 4.9 67.2 295.3 8 4.8 0
2004 12 12 4:09 4.5 105.9 8.6 58.7 293.9 14.5 3.2 0
2004 12 12 4:24 4.5 188.2 12.9 44.9 260.2 3.2 0 0
2004 12 12 4:39 4.5 264.7 13.3 44.1 99.8 12.9 3.2 0
2004 12 12 4:54 4.5 341.2 13.7 42.3 99.8 8 3.2 0
2004 12 12 5:09 4.5 411.8 13.7 45.1 130.8 11.3 4.8 0
2004 12 12 5:24 4.5 464.7 13.7 46.3 136.4 17.7 3.2 0
2004 12 12 5:39 4.5 511.8 13.7 47.7 174.4 22.5 6.4 0
2004 12 12 5:54 4.9 547.1 14.1 46.3 108.3 11.3 3.2 0
2004 12 12 6:09 5.3 582.4 14.4 44.7 88.6 9.7 4.8 0
2004 12 12 6:24 5.7 600 14.8 44.7 136.4 17.7 6.4 0
2004 12 12 6:39 6.1 611.8 15.2 43.7 109.7 14.5 4.8 0
2004 12 12 6:54 6.5 605.9 14.4 46 63.3 20.9 8 0
2004 12 12 7:09 6.9 588.2 14.1 48.6 91.4 20.9 11.3 0
2004 12 12 7:24 7.7 547.1 13.7 49.1 73.1 17.7 9.7 0
2004 12 12 7:39 8.2 488.2 13.3 51.1 18.3 20.9 9.7 0
2004 12 12 7:54 8.2 411.8 13.7 50.7 91.4 16.1 9.7 0
2004 12 12 8:09 8.6 317.6 13.7 49.9 84.4 17.7 8 0
2004 12 12 8:24 8.6 217.6 13.7 49.4 78.8 12.9 4.8 0
2004 12 12 8:39 9 129.4 14.1 49.3 88.6 17.7 3.2 0
2004 12 12 8:54 9 23.5 11.7 54.5 95.6 11.3 3.2 0
2004 12 12 9:09 9 5.9 9.8 57.7 95.6 0 0 0
2004 12 12 9:24 9 0 5.7 70.2 95.6 6.4 1.6 0
2004 12 12 9:39 9 0 5.3 80.4 293.9 11.3 4.8 0
2004 12 12 9:54 8.6 0 3.2 82.6 336.1 11.3 3.2 0
2004 12 12 10:09 8.6 0 2.3 85.7 336.1 11.3 3.2 0
2004 12 12 10:24 8.2 0 1.9 88.2 312.2 9.7 3.2 0
2004 12 12 10:39 7.7 0 1.4 91.5 300.9 9.7 4.8 0
2004 12 12 10:54 7.7 0 2.3 92.3 298.1 11.3 4.8 0
2004 12 12 11:09 7.3 0 5.7 85.2 35.2 17.7 4.8 0
2004 12 12 11:24 7.3 0 9.8 54.7 46.4 20.9 9.7 0
2004 12 12 11:39 6.9 0 9.8 50.9 338.9 20.9 9.7 0
2004 12 12 11:54 6.9 0 10.1 50.7 354.4 24.1 9.7 0
2004 12 12 12:09 6.9 0 9.8 53.5 309.4 27.4 9.7 0
2004 12 12 12:24 6.5 0 10.1 49.9 275.6 24.1 11.3 0
2004 12 12 12:39 6.5 0 9.8 50.7 338.9 25.7 11.3 0
2004 12 12 12:54 6.5 0 10.1 50.1 296.7 20.9 6.4 0
2004 12 12 13:09 6.5 0 10.1 48.9 271.4 19.3 6.4 0
2004 12 12 13:24 6.5 0 10.1 48 357.2 20.9 8 0
2004 12 12 13:39 6.1 0 10.5 45.8 320.6 24.1 9.7 0
2004 12 12 13:54 6.1 0 10.1 46.3 317.8 24.1 12.9 0
2004 12 12 14:09 6.1 0 10.5 45.1 322 24.1 9.7 0
2004 12 12 14:24 6.1 0 10.5 45.4 333.3 24.1 14.5 0
2004 12 12 14:39 6.1 0 10.1 45.8 324.8 20.9 11.3 0
2004 12 12 14:54 6.1 0 10.5 45.4 323.4 20.9 11.3 0
2004 12 12 15:09 6.1 0 10.1 45.8 0 22.5 11.3 0
2004 12 12 15:24 6.1 0 10.1 46.3 330.5 20.9 11.3 0
2004 12 12 15:39 5.7 0 10.1 47.5 347.3 27.4 12.9 0
2004 12 12 15:54 5.7 0 10.1 49.3 347.3 33.8 17.7 0
2004 12 12 16:09 5.7 0 10.1 51.1 355.8 29 16.1 0
2004 12 12 16:24 5.7 0 9.8 50.9 327.7 25.7 11.3 0
2004 12 12 16:39 5.7 0 8.6 52.7 324.8 19.3 6.4 0
2004 12 12 16:54 5.7 0 8.6 51.4 4.2 16.1 6.4 0
2004 12 12 17:09 5.7 0 8.6 54.3 326.3 16.1 4.8 0
2004 12 12 17:24 5.7 5.9 8.6 54.3 338.9 12.9 4.8 0
2004 12 12 17:39 5.7 47.1 10.1 52.2 61.9 17.7 8 0
2004 12 12 17:54 5.7 123.5 10.9 50.7 12.7 29 14.5 0
2004 12 12 18:09 5.3 205.9 11.7 47.2 53.4 22.5 14.5 0
2004 12 12 18:24 5.3 282.4 12.9 43.5 43.6 20.9 11.3 0
2004 12 12 18:39 5.7 364.7 13.3 42.3 61.9 19.3 11.3 0
2004 12 12 18:54 5.7 405.9 13.7 41.8 53.4 22.5 11.3 0
2004 12 12 19:09 5.7 482.4 14.4 40 30.9 22.5 11.3 0
2004 12 12 19:24 5.7 523.5 14.1 40.9 43.6 22.5 12.9 0
2004 12 12 19:39 6.1 558.8 14.4 41.2 83 24.1 11.3 0
2004 12 12 19:54 6.5 588.2 15.6 38.8 102.7 20.9 9.7 0
2004 12 12 20:09 6.9 611.8 15.6 38.8 74.5 16.1 9.7 0
2004 12 12 20:24 7.3 617.6 15.2 41.8 75.9 17.7 9.7 0
2004 12 12 20:39 7.7 611.8 15.6 40.3 64.7 16.1 8 0
2004 12 12 20:54 8.2 588.2 15.6 40.9 123.8 19.3 6.4 0
2004 12 12 21:09 8.6 547.1 14.8 43.2 61.9 14.5 8 0
2004 12 12 21:24 9 482.4 14.4 43.5 109.7 16.1 8 0
2004 12 12 21:39 9.4 417.6 15.2 41.8 164.5 16.1 6.4 0
2004 12 12 21:54 9.4 305.9 14.4 43.2 102.7 11.3 4.8 0
2004 12 12 22:09 9.8 211.8 13.7 45.1 133.6 11.3 4.8 0
2004 12 12 22:24 9.8 111.8 13.7 45.8 130.8 11.3 1.6 0
2004 12 12 22:39 9.8 17.6 11.7 49.1 284.1 9.7 1.6 0
2004 12 12 22:54 9.8 11.8 8.6 56.8 284.1 9.7 3.2 0
2004 12 12 23:09 9.8 0 7.7 63 265.8 9.7 4.8 0
2004 12 12 23:24 9.4 0 7.3 65.5 277 11.3 6.4 0
2004 12 12 23:39 9.4 0 6.9 67.2 286.9 14.5 8 0
2004 12 12 23:54 9 0 6.5 69.5 271.4 20.9 6.4 0
2004 12 13 0:09 9 0 6.1 69.5 254.5 12.9 6.4 0
2004 12 13 0:24 8.6 0 2.7 77 268.6 9.7 3.2 0
2004 12 13 0:39 8.6 0 1.9 83.5 275.6 14.5 3.2 0
2004 12 13 0:54 8.2 0 1 82.6 279.8 16.1 4.8 0
2004 12 13 1:09 8.2 0 0.1 87.8 302.3 11.3 4.8 0
2004 12 13 1:24 7.7 0 0.1 87.8 306.6 14.5 6.4 0
2004 12 13 1:39 7.3 0 -0.3 88.2 305.2 11.3 4.8 0
2004 12 13 1:54 7.3 0 -0.3 92.3 302.3 12.9 4.8 0
2004 12 13 2:09 6.9 0 0.1 92.3 293.9 17.7 6.4 0
2004 12 13 2:24 6.9 0 -1.3 92.3 310.8 8 4.8 0
2004 12 13 2:39 6.5 0 -0.8 90.6 310.8 11.3 3.2 0
2004 12 13 2:54 6.5 0 -0.8 88.2 310.8 11.3 4.8 0
2004 12 13 3:09 6.1 0 1.4 81.5 284.1 16.1 6.4 0
2004 12 13 3:24 6.1 0 2.3 74.3 289.7 11.3 6.4 0
2004 12 13 3:39 5.7 0 1.9 68.3 275.6 16.1 6.4 0
2004 12 13 3:54 5.7 0 3.6 63.6 271.4 17.7 4.8 0
2004 12 13 4:09 5.7 0 1.4 66.6 281.3 8 3.2 0
2004 12 13 4:24 5.3 0 0.6 73.3 289.7 14.5 4.8 0
2004 12 13 4:39 5.3 0 -0.8 80.7 300.9 17.7 6.4 0
2004 12 13 4:54 4.9 0 -0.8 84.3 289.7 12.9 4.8 0
2004 12 13 5:09 4.9 0 -1.7 84.3 310.8 16.1 6.4 0
2004 12 13 5:24 4.9 0 0.1 80.4 300.9 14.5 4.8 0
2004 12 13 5:39 4.5 0 -0.3 66 306.6 19.3 4.8 0
2004 12 13 5:54 4.5 0 -0.8 75.6 302.3 11.3 4.8 0
2004 12 13 6:09 4.5 0 1 70.5 337.5 9.7 3.2 0
2004 12 13 6:24 4 0 0.1 73.5 302.3 11.3 4.8 0
2004 12 13 6:39 4 0 1.4 72.2 284.1 9.7 3.2 0
2004 12 13 6:54 4 0 0.1 74.6 286.9 11.3 4.8 0
2004 12 13 7:09 4 5.9 3.6 72.9 26.7 16.1 4.8 0
2004 12 13 7:24 3.6 58.8 8.2 50.9 296.7 14.5 3.2 0
2004 12 13 7:39 3.6 135.3 10.5 42.9 317.8 25.7 6.4 0
2004 12 13 7:54 3.6 217.6 9.8 46.5 305.2 25.7 12.9 0
2004 12 13 8:09 3.6 294.1 9.8 47.7 345.9 25.7 11.3 0
2004 12 13 8:24 3.6 370.6 9.8 46.9 355.8 24.1 12.9 0
2004 12 13 8:39 3.6 435.3 10.1 43.2 60.5 46.7 14.5 0
2004 12 13 8:54 4 488.2 10.9 41.4 310.8 25.7 9.7 0
2004 12 13 9:09 4 529.4 10.5 41.8 334.7 29 9.7 0
2004 12 13 9:24 4.5 564.7 10.5 41.8 21.1 25.7 11.3 0
2004 12 13 9:39 4.9 594.1 10.5 40 18.3 32.2 14.5 0
2004 12 13 9:54 5.3 617.6 10.5 40 25.3 35.4 16.1 0
2004 12 13 10:09 5.7 623.5 10.1 40.3 22.5 35.4 16.1 0
2004 12 13 10:24 6.1 617.6 10.9 39.6 351.6 43.5 14.5 0
2004 12 13 10:39 6.5 570.6 10.5 40 63.3 30.6 16.1 0
2004 12 13 10:54 6.5 482.4 10.5 40 85.8 27.4 12.9 0
2004 12 13 11:09 6.9 452.9 11.3 39.4 11.3 29 8 0
2004 12 13 11:24 7.3 364.7 10.9 39.6 39.4 27.4 12.9 0
2004 12 13 11:39 7.3 276.5 11.3 39.4 322 24.1 11.3 0
2004 12 13 11:54 7.7 182.4 10.9 39.6 323.4 29 12.9 0
2004 12 13 12:09 7.7 94.1 10.1 40.3 291.1 32.2 16.1 0
2004 12 13 12:24 7.7 17.6 9 41.2 331.9 32.2 14.5 0
2004 12 13 12:39 7.7 0 8.6 42 317.8 30.6 14.5 0
2004 12 13 12:54 7.7 0 8.2 42.3 322 29 16.1 0
2004 12 13 13:09 7.3 0 7.7 43.5 313.6 25.7 12.9 0
2004 12 13 13:24 7.3 0 8.2 43.2 341.7 29 14.5 0
2004 12 13 13:39 7.3 0 8.6 42.7 340.3 24.1 16.1 0
2004 12 13 13:54 6.9 0 7.7 43.5 305.2 41.8 17.7 0
2004 12 13 14:09 6.9 0 9 41.2 298.1 35.4 19.3 0
2004 12 13 14:24 6.9 0 9 41.2 315 35.4 17.7 0
2004 12 13 14:39 6.9 0 9 41.2 334.7 33.8 19.3 0
2004 12 13 14:54 6.5 0 9 41.2 308 27.4 14.5 0
2004 12 13 15:09 6.5 0 8.6 42 322 38.6 17.7 0
2004 12 13 15:24 6.5 0 8.2 43.7 306.6 30.6 19.3 0
2004 12 13 15:39 6.5 0 8.2 44.7 257.3 33.8 16.1 0
2004 12 13 15:54 6.5 0 7.7 46 288.3 33.8 16.1 0
2004 12 13 16:09 6.1 0 7.3 45.8 299.5 29 12.9 0
2004 12 13 16:24 6.1 0 6.9 46.7 119.5 27.4 11.3 0
2004 12 13 16:39 6.1 0 6.5 48 296.7 30.6 14.5 0
2004 12 13 16:54 6.1 0 6.5 48 267.2 32.2 14.5 0
2004 12 13 17:09 6.1 0 6.1 48.6 313.6 24.1 11.3 0
2004 12 13 17:24 5.7 0 5.7 49.6 233.4 33.8 12.9 0
2004 12 13 17:39 5.7 0 4.9 52.5 319.2 24.1 12.9 0
2004 12 13 17:54 5.7 0 4.9 51.9 268.6 24.1 8 0
2004 12 13 18:09 5.7 0 4.5 51.2 229.2 19.3 8 0
2004 12 13 18:24 5.7 0 4.9 51.4 348.8 30.6 11.3 0
2004 12 13 18:39 5.3 0 4.5 52.2 305.2 35.4 12.9 0
2004 12 13 18:54 5.3 0 4 52.5 316.4 29 12.9 0
2004 12 13 19:09 5.3 0 4 52.2 303.8 41.8 17.7 0
2004 12 13 19:24 5.3 0 3.6 52.5 310.8 32.2 17.7 0
2004 12 13 19:39 4.9 0 4 51.9 299.5 49.9 22.5 0
2004 12 13 19:54 4.9 0 3.6 52.5 327.7 41.8 14.5 0
2004 12 13 20:09 4.9 0 3.2 53.1 338.9 30.6 12.9 0
2004 12 13 20:24 4.9 0 3.6 52.2 275.6 38.6 19.3 0
2004 12 13 20:39 4.5 0 3.6 52.5 226.4 35.4 17.7 0
2004 12 13 20:54 4.5 17.6 3.6 52.5 270 33.8 14.5 0
2004 12 13 21:09 4.5 76.5 4 51.7 243.3 19.3 11.3 0
2004 12 13 21:24 4.5 152.9 4.9 50.4 310.8 19.3 9.7 0
2004 12 13 21:39 4.5 235.3 5.3 49.4 229.2 25.7 11.3 0
2004 12 13 21:54 4.5 311.8 5.7 48.4 289.7 24.1 11.3 0
2004 12 13 22:09 4.5 382.4 6.1 47.7 182.8 25.7 12.9 0
2004 12 13 22:24 4.5 447.1 6.1 47.4 161.7 29 12.9 0
2004 12 13 22:39 4.5 500 6.5 47.2 292.5 48.3 14.5 0
2004 12 13 22:54 4.5 541.2 6.9 46 118.1 45.1 12.9 0
2004 12 13 23:09 4.9 570.6 7.3 45.4 323.4 35.4 14.5 0
2004 12 13 23:24 4.9 600 8.2 44.1 4.2 38.6 11.3 0
2004 12 13 23:39 5.3 611.8 7.7 43.9 4.2 35.4 12.9 0
2004 12 13 23:54 5.7 617.6 8.2 43.2 343.1 35.4 17.7 0
2004 12 14 0:09 6.1 600 8.6 42.7 296.7 32.2 17.7 0
2004 12 14 0:24 6.1 570.6 8.6 42.7 354.4 33.8 17.7 0
2004 12 14 0:39 6.5 517.6 8.6 42.7 324.8 30.6 16.1 0
2004 12 14 0:54 6.9 441.2 8.6 42 320.6 30.6 12.9 0
2004 12 14 1:09 6.9 358.8 8.6 41.4 317.8 25.7 14.5 0
2004 12 14 1:24 7.3 258.8 8.6 41.4 299.5 32.2 14.5 0
2004 12 14 1:39 7.3 152.9 8.2 41.8 298.1 33.8 16.1 0
2004 12 14 1:54 7.3 35.3 7.3 42.9 309.4 37 19.3 0
2004 12 14 2:09 7.3 11.8 6.9 43.2 313.6 32.2 19.3 0
2004 12 14 2:24 7.3 0 6.5 44.1 292.5 27.4 19.3 0
2004 12 14 2:39 7.3 0 6.5 44.1 308 30.6 14.5 0
2004 12 14 2:54 6.9 0 6.1 43.7 202.5 25.7 11.3 0
2004 12 14 3:09 6.9 0 6.1 43.7 120.9 27.4 11.3 0
2004 12 14 3:24 6.9 0 6.1 44.4 219.4 27.4 11.3 0
2004 12 14 3:39 6.5 0 6.1 44.4 198.3 22.5 9.7 0
2004 12 14 3:54 6.5 0 6.1 44.4 94.2 19.3 8 0
2004 12 14 4:09 6.1 0 6.1 44.4 208.1 30.6 8 0
2004 12 14 4:24 6.1 0 6.1 44.4 198.3 20.9 9.7 0
2004 12 14 4:39 6.1 0 5.7 44.6 47.8 19.3 9.7 0
2004 12 14 4:54 5.7 0 5.7 45.1 185.6 22.5 9.7 0
2004 12 14 5:09 5.7 0 5.7 45.1 210.9 24.1 8 0
2004 12 14 5:24 5.7 0 6.1 44.9 292.5 20.9 11.3 0
2004 12 14 5:39 5.7 0 5.7 45.1 289.7 22.5 8 0
2004 12 14 5:54 5.3 0 5.7 45.1 324.8 16.1 8 0
2004 12 14 6:09 5.3 0 5.7 45.1 296.7 24.1 9.7 0
2004 12 14 6:24 5.3 0 6.1 44.4 291.1 29 14.5 0
2004 12 14 6:39 5.3 0 6.1 44.9 310.8 30.6 14.5 0
2004 12 14 6:54 5.3 0 5.7 45.1 288.3 37 16.1 0
2004 12 14 7:09 5.3 0 5.7 45.1 286.9 32.2 14.5 0
2004 12 14 7:24 4.9 0 5.7 45.1 319.2 27.4 14.5 0
2004 12 14 7:39 4.9 0 5.3 46.7 194.1 27.4 9.7 0
2004 12 14 7:54 4.9 0 5.3 46 15.5 37 14.5 0
2004 12 14 8:09 4.9 0 5.7 45.1 334.7 38.6 19.3 0
2004 12 14 8:24 4.9 0 5.7 45.1 12.7 30.6 17.7 0
2004 12 14 8:39 4.9 0 5.3 45.4 64.7 30.6 14.5 0
2004 12 14 8:54 4.5 0 5.3 44.7 345.9 38.6 16.1 0
2004 12 14 9:09 4.5 0 5.3 44.7 12.7 33.8 19.3 0
2004 12 14 9:24 4.5 0 4.9 45.1 344.5 29 14.5 0
2004 12 14 9:39 4.5 0 5.3 45.4 331.9 35.4 12.9 0
2004 12 14 9:54 4.5 0 4.9 45.8 88.6 24.1 9.7 0
2004 12 14 10:09 4.5 0 4.9 45.8 254.5 16.1 4.8 0
2004 12 14 10:24 4 0 4.9 45.8 295.3 30.6 8 0
2004 12 14 10:39 4 23.5 5.3 45.4 36.6 20.9 8 0
2004 12 14 10:54 4 88.2 6.1 44.4 33.8 25.7 8 0
2004 12 14 11:09 4 170.6 6.5 43.5 61.9 29 12.9 0
2004 12 14 11:24 4 247.1 6.1 43.7 7 35.4 17.7 0
2004 12 14 11:39 4 329.4 6.5 43.5 21.1 27.4 16.1 0
2004 12 14 11:54 4 400 6.9 43.2 53.4 30.6 14.5 0
2004 12 14 12:09 4 464.7 6.9 44.6 68.9 27.4 12.9 0
2004 12 14 12:24 4 494.1 6.9 44.9 67.5 25.7 11.3 0
2004 12 14 12:39 4 541.2 6.9 44.9 75.9 17.7 9.7 0
2004 12 14 12:54 4.5 582.4 7.7 43.5 78.8 22.5 11.3 0
2004 12 14 13:09 4.9 605.9 9.4 40.9 38 22.5 9.7 0
2004 12 14 13:24 4.9 600 9.4 41.4 67.5 19.3 9.7 0
2004 12 14 13:39 5.3 658.8 9.4 41.4 16.9 20.9 8 0
2004 12 14 13:54 5.7 500 9.8 41.2 98.4 14.5 8 0
2004 12 14 14:09 6.1 570.6 10.9 39.6 80.2 17.7 6.4 0
2004 12 14 14:24 6.5 505.9 11.7 38.2 40.8 19.3 8 0
2004 12 14 14:39 6.9 447.1 12.1 37.9 0 14.5 8 0
2004 12 14 14:54 6.9 352.9 12.1 37.9 313.6 29 9.7 0
2004 12 14 15:09 7.3 270.6 11.7 38.2 284.1 24.1 12.9 0
2004 12 14 15:24 7.3 141.2 10.5 39.1 302.3 24.1 9.7 0
2004 12 14 15:39 7.7 35.3 9 41.2 327.7 14.5 8 0
2004 12 14 15:54 7.7 17.6 7.7 42 319.2 12.9 6.4 0
2004 12 14 16:09 7.3 0 5.7 44.6 293.9 16.1 6.4 0
2004 12 14 16:24 7.3 0 3.2 48.4 281.3 11.3 4.8 0
2004 12 14 16:39 7.3 0 1.4 49.3 288.3 9.7 3.2 0
2004 12 14 16:54 6.9 0 1.4 50.3 323.4 9.7 3.2 0
2004 12 14 17:09 6.9 0 3.2 47.2 302.3 16.1 4.8 0
2004 12 14 17:24 6.5 0 8.2 40.9 30.9 17.7 8 0
2004 12 14 17:39 6.5 0 9.8 39.6 46.4 29 11.3 0
2004 12 14 17:54 6.1 0 9.4 40 59.1 37 20.9 0
2004 12 14 18:09 6.1 0 9.4 40 30.9 41.8 22.5 0
2004 12 14 18:24 6.1 0 9.8 39.6 324.8 29 16.1 0
2004 12 14 18:39 5.7 0 9.8 39.6 303.8 43.5 16.1 0
2004 12 14 18:54 5.7 0 9.8 39.6 33.8 27.4 12.9 0
2004 12 14 19:09 5.7 0 9 40.3 274.2 24.1 12.9 0
2004 12 14 19:24 5.7 0 10.1 39.4 265.8 29 14.5 0
2004 12 14 19:39 5.7 0 9.4 40 7 35.4 9.7 0
2004 12 14 19:54 5.7 0 9 40.3 347.3 25.7 11.3 0
2004 12 14 20:09 5.7 0 9 40.3 333.3 29 9.7 0
2004 12 14 20:24 5.7 0 9 40.3 63.3 19.3 6.4 0
2004 12 14 20:39 5.3 0 8.6 40.5 171.6 19.3 6.4 0
2004 12 14 20:54 5.3 0 6.5 42 67.5 16.1 6.4 0
2004 12 14 21:09 5.3 0 6.9 41.8 244.7 17.7 8 0
2004 12 14 21:24 5.3 0 7.7 41.2 73.1 17.7 8 0
2004 12 14 21:39 5.3 0 7.7 41.2 85.8 24.1 8 0
2004 12 14 21:54 5.3 0 9 40.3 257.3 33.8 11.3 0
2004 12 14 22:09 4.9 0 9.4 40 74.5 32.2 12.9 0
2004 12 14 22:24 4.9 0 10.1 39.4 0 38.6 17.7 0
2004 12 14 22:39 4.9 0 10.1 39.4 337.5 51.5 19.3 0
2004 12 14 22:54 4.9 0 10.1 39.4 71.7 30.6 16.1 0
2004 12 14 23:09 4.9 0 10.1 39.4 7 43.5 17.7 0
2004 12 14 23:24 4.9 0 10.1 39.4 5.6 29 17.7 0
2004 12 14 23:39 4.9 0 9.8 39.6 300.9 32.2 16.1 0
2004 12 14 23:54 4.9 0 9.8 39.6 275.6 35.4 19.3 0
2004 12 15 0:09 4.9 0 9 40.3 303.8 32.2 14.5 0
2004 12 15 0:24 4.9 29.4 9.8 39.6 302.3 32.2 19.3 0
2004 12 15 0:39 4.9 105.9 10.1 39.4 316.4 33.8 16.1 0
2004 12 15 0:54 4.9 182.4 9.8 39.6 331.9 32.2 16.1 0
2004 12 15 1:09 4.9 258.8 9.8 39.6 320.6 46.7 19.3 0
2004 12 15 1:24 5.3 335.3 10.1 39.4 191.3 30.6 14.5 0
2004 12 15 1:39 5.3 405.9 10.5 39.1 305.2 22.5 9.7 0
2004 12 15 1:54 5.3 464.7 10.1 40.3 56.3 32.2 12.9 0
2004 12 15 2:09 5.3 511.8 10.1 40.3 113.9 48.3 17.7 0
2004 12 15 2:24 5.7 547.1 9.8 40.5 56.3 38.6 19.3 0
2004 12 15 2:39 5.7 576.5 10.5 40 270 35.4 11.3 0
2004 12 15 2:54 6.1 605.9 10.1 40.3 348.8 32.2 14.5 0
2004 12 15 3:09 6.5 617.6 10.9 39.6 109.7 20.9 11.3 0
2004 12 15 3:24 6.9 611.8 11.3 39.4 316.4 29 9.7 0
2004 12 15 3:39 6.9 594.1 11.7 39.1 63.3 33.8 11.3 0
2004 12 15 3:54 7.3 558.8 11.7 39.1 77.3 32.2 12.9 0
2004 12 15 4:09 7.7 494.1 12.1 38.8 61.9 25.7 11.3 0
2004 12 15 4:24 8.2 417.6 12.1 38.8 63.3 27.4 12.9 0
2004 12 15 4:39 8.2 323.5 12.1 38.8 57.7 25.7 11.3 0
2004 12 15 4:54 8.2 223.5 11.7 39.1 64.7 22.5 14.5 0
2004 12 15 5:09 8.6 129.4 11.3 39.4 29.5 29 12.9 0
2004 12 15 5:24 8.6 23.5 10.1 40.3 59.1 22.5 8 0
2004 12 15 5:39 8.6 5.9 9.4 40.9 316.4 25.7 8 0
2004 12 15 5:54 8.6 0 9.4 40.9 21.1 22.5 8 0
2004 12 15 6:09 8.2 0 10.1 40.3 2.8 32.2 12.9 0
2004 12 15 6:24 8.2 0 10.1 40.3 9.8 27.4 16.1 0
2004 12 15 6:39 7.7 0 9.8 40.5 33.8 33.8 19.3 0
2004 12 15 6:54 7.7 0 9.4 40.9 29.5 32.2 16.1 0
2004 12 15 7:09 7.7 0 9.4 40.9 337.5 25.7 11.3 0
2004 12 15 7:24 7.3 0 9.8 41.2 26.7 35.4 12.9 0
2004 12 15 7:39 7.3 0 9.4 41.4 30.9 32.2 11.3 0
2004 12 15 7:54 7.3 0 9.8 41.2 46.4 35.4 12.9 0
2004 12 15 8:09 6.9 0 9.4 42 353 27.4 8 0
2004 12 15 8:24 6.9 0 9.8 41.2 12.7 29 14.5 0
2004 12 15 8:39 6.9 0 9.8 41.2 29.5 22.5 14.5 0
2004 12 15 8:54 6.9 0 9.4 42 43.6 27.4 9.7 0
2004 12 15 9:09 6.5 0 9.8 41.2 52 27.4 14.5 0
2004 12 15 9:24 6.5 0 10.1 40.9 61.9 30.6 16.1 0
2004 12 15 9:39 6.5 0 9.8 41.2 357.2 30.6 17.7 0
2004 12 15 9:54 6.5 0 10.1 40.9 1.4 29 19.3 0
2004 12 15 10:09 6.5 0 9.8 41.8 19.7 29 17.7 0
2004 12 15 10:24 6.5 0 9.4 42 357.2 30.6 19.3 0
2004 12 15 10:39 6.1 0 9.4 42 61.9 35.4 20.9 0
2004 12 15 10:54 6.1 0 9.8 41.2 11.3 41.8 22.5 0
2004 12 15 11:09 6.1 0 9.8 41.2 8.4 40.2 24.1 0
2004 12 15 11:24 6.1 0 9.4 41.4 40.8 43.5 24.1 0
2004 12 15 11:39 6.1 0 9.4 41.4 340.3 37 20.9 0
2004 12 15 11:54 6.1 0 9.4 40.9 354.4 25.7 12.9 0
2004 12 15 12:09 6.1 0 9 41.2 270 17.7 8 0
2004 12 15 12:24 6.1 0 6.5 43.5 284.1 17.7 4.8 0
2004 12 15 12:39 6.1 0 5.3 44.1 248.9 16.1 6.4 0
2004 12 15 12:54 5.7 0 4 45.1 39.4 11.3 3.2 0
2004 12 15 13:09 5.7 0 7.7 42.7 327.7 11.3 4.8 0
2004 12 15 13:24 5.7 0 8.6 41.4 195.5 19.3 8 0
2004 12 15 13:39 5.7 0 9 41.2 50.6 17.7 8 0
2004 12 15 13:54 5.3 0 7.7 42.7 1.4 17.7 4.8 0
2004 12 15 14:09 5.3 41.2 9.4 40.9 316.4 11.3 4.8 0
2004 12 15 14:24 5.3 117.6 10.5 40 357.2 22.5 8 0
2004 12 15 14:39 5.3 194.1 12.1 38.8 35.2 14.5 4.8 0
2004 12 15 14:54 5.3 276.5 12.5 37.6 53.4 24.1 11.3 0
2004 12 15 15:09 5.3 352.9 12.9 37 60.5 25.7 16.1 0
2004 12 15 15:24 5.3 417.6 13.7 36 53.4 30.6 14.5 0
2004 12 15 15:39 5.3 476.5 14.1 35.6 43.6 25.7 14.5 0
2004 12 15 15:54 5.7 517.6 13.7 36 54.8 22.5 11.3 0
2004 12 15 16:09 5.7 558.8 14.4 35.6 36.6 19.3 11.3 0
2004 12 15 16:24 6.1 582.4 14.8 35.6 80.2 14.5 8 0
2004 12 15 16:39 6.5 605.9 14.8 35.6 104.1 12.9 6.4 0
2004 12 15 16:54 6.9 617.6 14.4 36.6 97 20.9 8 0
2004 12 15 17:09 7.3 611.8 14.4 36.6 71.7 16.1 8 0
2004 12 15 17:24 7.7 582.4 14.8 36.6 80.2 20.9 6.4 0
2004 12 15 17:39 8.2 541.2 14.8 36.6 116.7 16.1 4.8 0
2004 12 15 17:54 8.6 476.5 14.8 36.6 90 17.7 4.8 0
2004 12 15 18:09 8.6 394.1 14.4 36.6 83 17.7 6.4 0
2004 12 15 18:24 9 294.1 13.7 37.6 73.1 16.1 4.8 0
2004 12 15 18:39 9 200 13.3 38.5 133.6 9.7 4.8 0
2004 12 15 18:54 9.4 111.8 14.1 37 135 8 1.6 0
2004 12 15 19:09 9.4 17.6 10.9 40.9 136.4 6.4 0 0
2004 12 15 19:24 9.4 5.9 7.3 45.8 330.5 6.4 0 0
2004 12 15 19:39 9.4 0 6.1 47.7 286.9 9.7 6.4 0
2004 12 15 19:54 9 0 6.1 48.2 282.7 17.7 6.4 0
2004 12 15 20:09 9 0 5.7 49.3 253.1 11.3 6.4 0
2004 12 15 20:24 8.6 0 3.6 51.2 241.9 12.9 4.8 0
2004 12 15 20:39 8.6 0 1.9 53.7 293.9 11.3 4.8 0
2004 12 15 20:54 8.2 0 1.9 57.1 300.9 19.3 6.4 0
2004 12 15 21:09 7.7 0 1.4 57.1 300.9 25.7 6.4 0
2004 12 15 21:24 7.7 0 0.6 58.3 298.1 11.3 6.4 0
2004 12 15 21:39 7.3 0 1 59.2 286.9 12.9 6.4 0
2004 12 15 21:54 7.3 0 -0.8 57.1 286.9 9.7 4.8 0
2004 12 15 22:09 6.9 0 1 59.6 296.7 16.1 6.4 0
2004 12 15 22:24 6.9 0 1 57.5 303.8 12.9 6.4 0
2004 12 15 22:39 6.5 0 1 55.9 293.9 20.9 6.4 0
2004 12 15 22:54 6.5 0 0.1 57.1 300.9 17.7 6.4 0
2004 12 15 23:09 6.1 0 -0.3 57.5 305.2 14.5 6.4 0
2004 12 15 23:24 6.1 0 0.1 57.1 302.3 17.7 6.4 0
2004 12 15 23:39 5.7 0 0.6 56.2 293.9 11.3 6.4 0
2004 12 15 23:54 5.7 0 -0.3 53.2 295.3 12.9 6.4 0
2004 12 16 0:09 5.7 0 2.7 50.3 286.9 17.7 6.4 0
2004 12 16 0:24 5.3 0 1.9 49.3 289.7 16.1 6.4 0
2004 12 16 0:39 5.3 0 3.6 47.2 298.1 19.3 6.4 0
2004 12 16 0:54 5.3 0 3.6 45.1 293.9 22.5 6.4 0
2004 12 16 1:09 4.9 0 2.3 47.7 300.9 14.5 4.8 0
2004 12 16 1:24 4.9 0 4 46.5 281.3 11.3 3.2 0
2004 12 16 1:39 4.9 0 1.9 47.7 281.3 12.9 4.8 0
2004 12 16 1:54 4.9 0 2.3 48.4 285.5 14.5 4.8 0
2004 12 16 2:09 4.5 0 4.9 44.6 288.3 16.1 8 0
2004 12 16 2:24 4.5 0 3.2 44.6 288.3 8 3.2 0
2004 12 16 2:39 4.5 0 2.7 46.5 288.3 16.1 6.4 0
2004 12 16 2:54 4.5 0 2.7 45.8 288.3 11.3 6.4 0
2004 12 16 3:09 4.5 0 4.5 45.1 286.9 11.3 4.8 0
2004 12 16 3:24 4 0 1.4 47.7 289.7 19.3 4.8 0
2004 12 16 3:39 4 11.8 0.6 47.7 299.5 11.3 6.4 0
2004 12 16 3:54 4 64.7 5.3 44.7 292.5 17.7 6.4 0
2004 12 16 4:09 4 135.3 9 41.2 303.8 16.1 4.8 0
2004 12 16 4:24 4 211.8 11.7 38.2 299.5 17.7 4.8 0
2004 12 16 4:39 4 294.1 12.9 37 293.9 9.7 4.8 0
2004 12 16 4:54 4 364.7 13.7 36 336.1 14.5 4.8 0
2004 12 16 5:09 4 429.4 14.8 35.6 74.5 11.3 3.2 0
2004 12 16 5:24 4 476.5 14.1 35.6 98.4 17.7 6.4 0
2004 12 16 5:39 4.5 523.5 14.4 35.6 132.2 14.5 6.4 0
2004 12 16 5:54 4.9 558.8 15.2 35 120.9 17.7 6.4 0
2004 12 16 6:09 5.3 588.2 15.2 35 147.7 14.5 6.4 0
2004 12 16 6:24 5.7 605.9 15.6 35 177.2 19.3 8 0
2004 12 16 6:39 6.1 605.9 16.8 34.6 160.3 17.7 8 0
2004 12 16 6:54 6.5 600 17.1 34.6 140.6 14.5 6.4 0
2004 12 16 7:09 6.9 570.6 16.8 34.6 327.7 16.1 6.4 0
2004 12 16 7:24 7.3 517.6 16.4 34.6 317.8 14.5 6.4 0
2004 12 16 7:39 7.7 452.9 16.4 34.6 135 22.5 6.4 0
2004 12 16 7:54 8.2 364.7 16.4 34.6 293.9 16.1 4.8 0
2004 12 16 8:09 8.6 264.7 15.2 35 198.3 17.7 8 0
2004 12 16 8:24 8.6 170.6 14.4 35.6 209.5 16.1 8 0
2004 12 16 8:39 9 82.4 13.3 36.6 203.9 16.1 6.4 0
2004 12 16 8:54 9 17.6 10.5 40.5 227.8 8 1.6 0
2004 12 16 9:09 9 5.9 9.8 41.8 244.7 14.5 4.8 0
2004 12 16 9:24 8.6 0 8.2 43.7 315 12.9 4.8 0
2004 12 16 9:39 8.6 0 7.3 42.9 275.6 19.3 6.4 0
2004 12 16 9:54 8.6 0 8.2 41.8 292.5 12.9 4.8 0
2004 12 16 10:09 8.2 0 7.7 42 305.2 9.7 4.8 0
2004 12 16 10:24 8.2 0 6.9 42.7 289.7 14.5 3.2 0
2004 12 16 10:39 8.2 0 7.3 42.3 258.8 9.7 3.2 0
2004 12 16 10:54 7.7 0 6.1 43.2 285.5 8 3.2 0
2004 12 16 11:09 7.7 0 8.2 41.8 277 11.3 3.2 0
2004 12 16 11:24 7.3 0 6.5 43.5 271.4 8 3.2 0
2004 12 16 11:39 7.3 0 4.5 45.1 282.7 9.7 3.2 0
2004 12 16 11:54 7.3 0 5.3 46.7 282.7 9.7 4.8 0
2004 12 16 12:09 6.9 0 6.1 44.9 282.7 14.5 3.2 0
2004 12 16 12:24 6.9 0 6.9 43.9 282.7 6.4 1.6 0
2004 12 16 12:39 6.9 0 7.3 42.9 257.3 9.7 3.2 0
2004 12 16 12:54 6.5 0 7.3 43.7 250.3 11.3 3.2 0
2004 12 16 13:09 6.5 0 7.3 44.4 246.1 6.4 1.6 0
2004 12 16 13:24 6.5 0 6.1 45.6 246.1 4.8 0 0
2004 12 16 13:39 6.5 0 6.5 45.1 246.1 6.4 1.6 0
2004 12 16 13:54 6.5 0 5.7 46.5 246.1 6.4 1.6 0
2004 12 16 14:09 6.5 0 6.1 46.3 246.1 8 3.2 0
2004 12 16 14:24 6.1 0 4.9 47.2 246.1 11.3 1.6 0
2004 12 16 14:39 6.1 0 2.7 52.5 229.2 6.4 1.6 0
2004 12 16 14:54 6.1 0 1.4 56.2 246.1 12.9 3.2 0
2004 12 16 15:09 6.1 0 1 59.4 246.1 9.7 1.6 0
2004 12 16 15:24 6.1 0 4.5 52.5 195.5 20.9 4.8 0
2004 12 16 15:39 5.7 0 5.7 51.2 33.8 20.9 8 0
2004 12 16 15:54 5.7 0 6.1 50.1 19.7 17.7 9.7 0
2004 12 16 16:09 5.7 0 5.7 51.9 289.7 17.7 8 0
2004 12 16 16:24 5.7 0 5.7 51.2 274.2 24.1 6.4 0
2004 12 16 16:39 5.7 0 5.7 50.4 340.3 30.6 12.9 0
2004 12 16 16:54 5.7 0 4.9 51.9 319.2 25.7 12.9 0
2004 12 16 17:09 5.7 0 5.7 50.7 306.6 33.8 11.3 0
2004 12 16 17:24 5.3 5.9 5.7 50.9 341.7 27.4 12.9 0
2004 12 16 17:39 5.3 41.2 6.1 49.4 278.4 19.3 11.3 0
2004 12 16 17:54 5.3 35.3 6.1 49.6 302.3 24.1 11.3 0
2004 12 16 18:09 5.3 247.1 7.7 46.5 320.6 22.5 9.7 0
2004 12 16 18:24 5.3 311.8 8.2 46.3 322 29 14.5 0
2004 12 16 18:39 5.3 382.4 8.2 46.3 1.4 27.4 12.9 0
2004 12 16 18:54 5.3 435.3 8.2 45.8 12.7 24.1 12.9 0
2004 12 16 19:09 5.3 488.2 8.2 46.3 102.7 40.2 16.1 0
2004 12 16 19:24 5.7 529.4 9 45.1 18.3 29 11.3 0
2004 12 16 19:39 5.7 558.8 9.8 44.1 317.8 19.3 9.7 0
2004 12 16 19:54 6.1 588.2 10.1 43.7 313.6 19.3 9.7 0
2004 12 16 20:09 6.5 600 10.1 43.7 279.8 20.9 11.3 0
2004 12 16 20:24 6.5 605.9 10.1 43.2 265.8 19.3 9.7 0
2004 12 16 20:39 6.9 588.2 10.1 42.7 300.9 19.3 11.3 0
2004 12 16 20:54 7.3 558.8 10.1 42 322 22.5 11.3 0
2004 12 16 21:09 7.7 500 9.8 42.9 300.9 25.7 12.9 0
2004 12 16 21:24 8.2 429.4 9.4 42.9 282.7 25.7 14.5 0
2004 12 16 21:39 8.2 335.3 9.4 42 302.3 24.1 14.5 0
2004 12 16 21:54 8.2 235.3 9 41.8 305.2 27.4 12.9 0
2004 12 16 22:09 8.6 147.1 9 41.8 312.2 25.7 9.7 0
2004 12 16 22:24 8.6 17.6 7.7 42.7 293.9 22.5 9.7 0
2004 12 16 22:39 8.6 11.8 6.5 42.9 284.1 16.1 8 0
2004 12 16 22:54 8.2 0 5.3 43.7 286.9 19.3 8 0
2004 12 16 23:09 8.2 0 2.3 45.1 306.6 11.3 4.8 0
2004 12 16 23:24 7.7 0 1.9 46.5 285.5 16.1 6.4 0
2004 12 16 23:39 7.7 0 0.6 47.7 288.3 12.9 4.8 0
2004 12 16 23:54 7.3 0 1.9 46.5 308 12.9 6.4 0
2004 12 17 0:09 7.3 0 1.4 45.8 303.8 11.3 6.4 0
2004 12 17 0:24 6.9 0 4.5 43.9 315 24.1 9.7 0
2004 12 17 0:39 6.9 0 4.9 43.2 292.5 22.5 12.9 0
2004 12 17 0:54 6.5 0 4.9 43.2 312.2 29 17.7 0
2004 12 17 1:09 6.5 0 5.3 42.9 324.8 35.4 22.5 0
2004 12 17 1:24 6.1 0 4.9 43.2 308 27.4 17.7 0
2004 12 17 1:39 6.1 0 4.5 43.2 302.3 30.6 17.7 0
2004 12 17 1:54 6.1 0 3.2 43.2 345.9 30.6 14.5 0
2004 12 17 2:09 5.7 0 1 43.9 298.1 12.9 3.2 0
2004 12 17 2:24 5.7 0 1 43.9 303.8 12.9 4.8 0
2004 12 17 2:39 5.7 0 0.1 44.6 330.5 19.3 8 0
2004 12 17 2:54 5.3 0 4 43.9 357.2 24.1 12.9 0
2004 12 17 3:09 5.3 0 1.4 43.9 333.3 19.3 8 0
2004 12 17 3:24 4.9 0 2.7 43.9 4.2 22.5 8 0
2004 12 17 3:39 4.9 0 2.3 43.9 61.9 32.2 12.9 0
2004 12 17 3:54 4.9 0 2.3 43.9 28.1 25.7 11.3 0
2004 12 17 4:09 4.9 0 1.9 44.6 29.5 27.4 16.1 0
2004 12 17 4:24 4.5 0 1.9 44.6 338.9 33.8 17.7 0
2004 12 17 4:39 4.5 0 1.4 44.6 29.5 37 20.9 0
2004 12 17 4:54 4.5 0 1.4 44.6 354.4 29 17.7 0
2004 12 17 5:09 4.5 0 1.4 44.6 355.8 30.6 16.1 0
2004 12 17 5:24 4 0 1 44.6 345.9 35.4 17.7 0
2004 12 17 5:39 4 0 0.6 43.9 12.7 24.1 12.9 0
2004 12 17 5:54 4 0 0.6 43.9 5.6 37 16.1 0
2004 12 17 6:09 4 0 0.6 43.9 345.9 33.8 20.9 0
2004 12 17 6:24 4 0 0.1 44.6 47.8 27.4 19.3 0
2004 12 17 6:39 3.6 0 -0.3 44.6 54.8 35.4 19.3 0
2004 12 17 6:54 3.6 0 -0.3 45.1 4.2 38.6 24.1 0
2004 12 17 7:09 3.6 35.3 0.1 44.6 61.9 35.4 20.9 0
2004 12 17 7:24 3.6 70.6 0.1 44.6 53.4 38.6 19.3 0
2004 12 17 7:39 3.6 123.5 0.1 45.1 288.3 30.6 9.7 0
2004 12 17 7:54 3.6 147.1 -0.3 45.1 277 37 9.7 0
2004 12 17 8:09 3.6 347.1 0.6 45.1 57.7 32.2 11.3 0
2004 12 17 8:24 3.6 394.1 1 45.1 336.1 32.2 14.5 0
2004 12 17 8:39 3.6 394.1 1 45.1 310.8 35.4 14.5 0
2004 12 17 8:54 3.6 482.4 1 45.1 116.7 37 14.5 0
2004 12 17 9:09 3.6 505.9 1.4 44.6 295.3 33.8 12.9 0
2004 12 17 9:24 4 600 2.3 44.6 326.3 32.2 12.9 0
2004 12 17 9:39 4 594.1 2.3 43.9 289.7 30.6 14.5 0
2004 12 17 9:54 4.5 617.6 1.9 43.9 348.8 41.8 16.1 0
2004 12 17 10:09 4.5 611.8 2.3 43.9 28.1 33.8 19.3 0
2004 12 17 10:24 4.9 588.2 2.3 43.9 5.6 29 16.1 0
2004 12 17 10:39 4.9 523.5 2.7 43.9 53.4 27.4 17.7 0
2004 12 17 10:54 5.3 482.4 2.3 43.9 22.5 29 16.1 0
2004 12 17 11:09 5.3 405.9 3.2 43.9 11.3 27.4 14.5 0
2004 12 17 11:24 5.7 311.8 3.6 43.9 4.2 25.7 12.9 0
2004 12 17 11:39 5.7 235.3 4 43.9 348.8 17.7 8 0
2004 12 17 11:54 5.7 194.1 4 43.9 329.1 19.3 8 0
2004 12 17 12:09 5.7 47.1 2.3 43.9 45 14.5 8 0
2004 12 17 12:24 5.7 5.9 1.4 44.6 18.3 19.3 9.7 0
2004 12 17 12:39 5.7 0 1 44.6 38 19.3 9.7 0
2004 12 17 12:54 5.7 0 0.6 44.6 29.5 24.1 9.7 0
2004 12 17 13:09 5.7 0 0.1 45.1 39.4 17.7 9.7 0
2004 12 17 13:24 5.3 0 0.1 45.1 26.7 27.4 14.5 0
2004 12 17 13:39 5.3 0 0.1 44.6 19.7 20.9 12.9 0
2004 12 17 13:54 5.3 0 -0.3 44.6 16.9 24.1 12.9 0
2004 12 17 14:09 4.9 0 -0.3 44.6 32.3 22.5 11.3 0
2004 12 17 14:24 4.9 0 0.1 44.6 320.6 40.2 17.7 0
2004 12 17 14:39 4.5 0 0.1 44.6 329.1 35.4 16.1 0
2004 12 17 14:54 4.5 0 0.1 44.6 14.1 33.8 17.7 0
2004 12 17 15:09 4.5 0 0.1 44.6 357.2 37 19.3 0
2004 12 17 15:24 4 0 0.1 44.6 40.8 37 16.1 0
2004 12 17 15:39 4 0 0.1 44.6 18.3 27.4 16.1 0
2004 12 17 15:54 4 0 0.6 44.6 357.2 33.8 19.3 0
2004 12 17 16:09 4 0 0.1 43.9 8.4 30.6 17.7 0
2004 12 17 16:24 3.6 0 0.1 44.6 355.8 32.2 19.3 0
2004 12 17 16:39 3.6 0 -0.3 44.6 357.2 35.4 16.1 0
2004 12 17 16:54 3.6 0 -0.3 44.6 345.9 27.4 16.1 0
2004 12 17 17:09 3.6 0 -0.8 45.1 40.8 27.4 14.5 0
2004 12 17 17:24 3.2 0 -0.8 45.1 33.8 22.5 12.9 0
2004 12 17 17:39 3.2 0 -0.8 45.1 22.5 32.2 17.7 0
2004 12 17 17:54 3.2 0 -0.8 45.8 36.6 32.2 20.9 0
2004 12 17 18:09 2.7 0 -1.3 45.8 350.2 27.4 17.7 0
2004 12 17 18:24 2.7 0 -1.3 46.5 5.6 35.4 20.9 0
2004 12 17 18:39 2.7 0 -1.3 47.2 45 35.4 20.9 0
2004 12 17 18:54 2.7 0 -1.3 47.7 2.8 37 20.9 0
2004 12 17 19:09 2.7 0 -1.7 48.4 71.7 38.6 22.5 0
2004 12 17 19:24 2.7 0 -1.7 48.4 35.2 38.6 25.7 0
2004 12 17 19:39 2.3 0 -1.7 47.7 53.4 40.2 30.6 0
2004 12 17 19:54 2.3 0 -1.7 48.4 18.3 32.2 19.3 0
2004 12 17 20:09 2.3 0 -2.2 48.4 15.5 27.4 17.7 0
2004 12 17 20:24 2.3 0 -1.7 48.4 282.7 35.4 19.3 0
2004 12 17 20:39 2.3 5.9 -1.7 47.7 1.4 35.4 20.9 0
2004 12 17 20:54 2.3 58.8 -0.8 46.5 61.9 41.8 22.5 0
2004 12 17 21:09 1.9 129.4 -0.3 45.8 348.8 48.3 19.3 0
2004 12 17 21:24 1.9 211.8 0.1 45.8 327.7 38.6 17.7 0
2004 12 17 21:39 1.9 288.2 0.1 45.1 153.3 37 17.7 0
2004 12 17 21:54 1.9 370.6 0.1 45.8 323.4 56.3 22.5 0
2004 12 17 22:09 1.9 429.4 0.1 45.8 4.2 54.7 33.8 0
2004 12 17 22:24 1.9 482.4 0.1 45.8 355.8 48.3 32.2 0
2004 12 17 22:39 1.9 523.5 1 45.8 322 41.8 24.1 0
2004 12 17 22:54 1.9 558.8 1 45.8 320.6 48.3 20.9 0
2004 12 17 23:09 2.3 582.4 1 45.8 323.4 48.3 24.1 0
2004 12 17 23:24 2.3 605.9 1.4 45.8 1.4 53.1 24.1 0.3
2004 12 17 23:39 2.7 611.8 1.4 45.8 33.8 37 19.3 0
2004 12 17 23:54 3.2 605.9 1 45.8 23.9 30.6 16.1 0
2004 12 18 0:09 3.2 576.5 1.4 45.8 350.2 35.4 17.7 0
2004 12 18 0:24 3.6 523.5 1.4 45.8 333.3 29 16.1 0
2004 12 18 0:39 3.6 452.9 1.9 45.1 49.2 32.2 16.1 0
2004 12 18 0:54 4 370.6 1.9 45.1 343.1 29 16.1 0
2004 12 18 1:09 4 276.5 1.9 44.6 357.2 29 14.5 0
2004 12 18 1:24 4.5 182.4 1.4 44.6 338.9 27.4 16.1 0
2004 12 18 1:39 4.5 94.1 1.4 44.6 344.5 29 16.1 0
2004 12 18 1:54 4.5 17.6 0.1 45.1 353 27.4 14.5 0
2004 12 18 2:09 4.5 0 -0.3 45.1 319.2 25.7 16.1 0
2004 12 18 2:24 4.5 0 -0.8 45.8 336.1 29 16.1 0
2004 12 18 2:39 4 0 -1.3 45.1 341.7 30.6 14.5 0
2004 12 18 2:54 4 0 -1.3 44.6 308 30.6 12.9 0
2004 12 18 3:09 3.6 0 -2.2 44.6 348.8 29 12.9 0
2004 12 18 3:24 3.6 0 -0.8 43.9 333.3 29 16.1 0
2004 12 18 3:39 3.6 0 -1.3 43.9 338.9 25.7 14.5 0
2004 12 18 3:54 3.2 0 -0.8 43.9 317.8 27.4 14.5 0
2004 12 18 4:09 3.2 0 -0.8 43.9 357.2 33.8 17.7 0
2004 12 18 4:24 3.2 0 -0.8 43.9 323.4 29 16.1 0
2004 12 18 4:39 2.7 0 -0.8 43.9 61.9 37 14.5 0
2004 12 18 4:54 2.7 0 -0.8 43.9 21.1 30.6 16.1 0
2004 12 18 5:09 2.7 0 0.1 43.2 12.7 46.7 29 0
2004 12 18 5:24 2.7 0 -0.3 43.9 26.7 41.8 22.5 0
2004 12 18 5:39 2.3 0 -0.3 43.9 340.3 38.6 20.9 0
2004 12 18 5:54 2.3 0 -1.3 43.2 317.8 37 17.7 0
2004 12 18 6:09 2.3 0 -1.3 43.2 343.1 35.4 16.1 0
2004 12 18 6:24 2.3 0 -1.3 43.2 302.3 43.5 19.3 0
2004 12 18 6:39 2.3 0 -1.3 43.2 206.7 40.2 19.3 0
2004 12 18 6:54 2.3 0 -1.3 43.2 306.6 37 16.1 0
2004 12 18 7:09 1.9 0 -1.3 43.2 334.7 33.8 12.9 0
2004 12 18 7:24 1.9 0 -0.8 43.2 324.8 33.8 12.9 0
2004 12 18 7:39 1.9 0 -0.8 43.2 317.8 45.1 14.5 0
2004 12 18 7:54 1.9 0 -1.3 43.2 317.8 38.6 16.1 0
2004 12 18 8:09 1.9 0 -0.8 43.2 327.7 45.1 12.9 0
2004 12 18 8:24 1.9 0 -0.8 43.2 11.3 27.4 17.7 0
2004 12 18 8:39 1.9 0 -1.3 43.2 60.5 35.4 17.7 0
2004 12 18 8:54 1.9 0 -0.8 43.2 26.7 33.8 16.1 0
2004 12 18 9:09 1.4 0 -1.3 43.2 43.6 41.8 17.7 0
2004 12 18 9:24 1.4 0 -1.3 43.2 312.2 33.8 12.9 0
2004 12 18 9:39 1.4 0 -0.8 43.2 61.9 37 16.1 0
2004 12 18 9:54 1.4 0 -0.8 43.2 306.6 32.2 17.7 0
2004 12 18 10:09 1.4 0 -0.8 43.2 54.8 37 14.5 0
2004 12 18 10:24 1.4 17.6 -0.3 43.2 337.5 29 16.1 0
2004 12 18 10:39 1.4 76.5 0.6 43.2 23.9 30.6 12.9 0
2004 12 18 10:54 1.4 152.9 0.1 43.2 43.6 24.1 9.7 0
2004 12 18 11:09 1.4 235.3 0.6 43.2 331.9 29 12.9 0
2004 12 18 11:24 1.4 311.8 1.9 43.2 49.2 37 12.9 0
2004 12 18 11:39 1.4 388.2 2.3 43.2 66.1 30.6 12.9 0
2004 12 18 11:54 1.4 447.1 2.7 43.2 38 27.4 11.3 0
2004 12 18 12:09 1.4 494.1 2.3 43.9 45 37 19.3 0
2004 12 18 12:24 1.4 535.3 1.9 43.9 47.8 29 17.7 0
2004 12 18 12:39 1.4 570.6 2.7 43.9 38 25.7 12.9 0
2004 12 18 12:54 1.9 594.1 2.7 43.9 64.7 30.6 14.5 0
2004 12 18 13:09 1.9 611.8 3.2 43.9 16.9 27.4 14.5 0
2004 12 18 13:24 2.3 617.6 4.5 43.9 26.7 29 16.1 0
2004 12 18 13:39 2.7 600 4.9 43.9 39.4 27.4 14.5 0
2004 12 18 13:54 3.2 570.6 5.7 43.5 18.3 27.4 11.3 0
2004 12 18 14:09 3.6 517.6 5.7 43.5 53.4 24.1 11.3 0
2004 12 18 14:24 3.6 441.2 5.3 43.7 87.2 19.3 11.3 0
2004 12 18 14:39 4 352.9 5.3 43.7 50.6 22.5 12.9 0
2004 12 18 14:54 4.5 252.9 4.9 43.9 36.6 27.4 14.5 0
2004 12 18 15:09 4.5 152.9 3.6 43.9 52 25.7 12.9 0
2004 12 18 15:24 4.5 17.6 3.2 43.9 63.3 29 11.3 0
2004 12 18 15:39 4.5 11.8 2.3 43.9 191.3 14.5 3.2 0
2004 12 18 15:54 4.5 0 -0.3 44.6 248.9 8 3.2 0
2004 12 18 16:09 4.5 0 -0.3 46.5 286.9 16.1 4.8 0
2004 12 18 16:24 4.5 0 -0.3 45.1 271.4 16.1 6.4 0
2004 12 18 16:39 4 0 0.1 45.1 292.5 16.1 6.4 0
2004 12 18 16:54 4 0 -2.2 45.1 302.3 14.5 6.4 0
2004 12 18 17:09 3.6 0 -1.7 47.2 267.2 14.5 6.4 0
2004 12 18 17:24 3.6 0 -0.8 45.8 337.5 11.3 3.2 0
2004 12 18 17:39 3.6 0 -2.7 48.4 310.8 11.3 3.2 0
2004 12 18 17:54 3.2 0 -0.3 48.9 275.6 9.7 4.8 0
2004 12 18 18:09 3.2 0 1 48.4 295.3 16.1 6.4 0
2004 12 18 18:24 2.7 0 0.6 47.7 300.9 11.3 4.8 0
2004 12 18 18:39 2.7 0 1 47.2 277 14.5 6.4 0
2004 12 18 18:54 2.7 0 1.9 45.8 261.6 14.5 4.8 0
2004 12 18 19:09 2.3 0 -0.8 48.4 305.2 11.3 1.6 0
2004 12 18 19:24 2.3 0 1 47.7 343.1 12.9 3.2 0
2004 12 18 19:39 2.3 0 0.6 46.5 165.9 8 3.2 0
2004 12 18 19:54 2.3 0 -1.3 49.1 326.3 12.9 4.8 0
2004 12 18 20:09 2.3 0 -0.3 48.4 57.7 8 1.6 0
2004 12 18 20:24 1.9 0 -3.1 51.4 293.9 11.3 3.2 0
2004 12 18 20:39 1.9 0 -2.7 51.2 277 9.7 6.4 0
2004 12 18 20:54 1.9 0 0.1 48.4 61.9 16.1 4.8 0
2004 12 18 21:09 1.9 0 -1.3 49.1 277 8 1.6 0
2004 12 18 21:24 1.9 0 -0.3 48.4 355.8 16.1 4.8 0
2004 12 18 21:39 1.9 0 -1.7 49.3 303.8 9.7 4.8 0
2004 12 18 21:54 1.4 0 -2.7 49.9 305.2 12.9 4.8 0
2004 12 18 22:09 1.4 0 -1.3 50.7 284.1 12.9 4.8 0
2004 12 18 22:24 1.4 0 -1.7 50.3 293.9 8 3.2 0
2004 12 18 22:39 1.4 0 -2.2 52.2 300.9 9.7 3.2 0
2004 12 18 22:54 1.4 0 -2.7 52.9 315 11.3 3.2 0
2004 12 18 23:09 1.4 0 -4.1 54.5 315 14.5 4.8 0
2004 12 18 23:24 1.4 0 -6.1 57.5 315 11.3 4.8 0
2004 12 18 23:39 1.4 0 -6.6 59.2 292.5 14.5 4.8 0
2004 12 18 23:54 1.4 0 -6.6 59.9 292.5 9.7 4.8 0
2004 12 19 0:09 1 35.3 -5.6 61.2 292.5 12.9 4.8 0
2004 12 19 0:24 1 105.9 0.1 54.3 291.1 11.3 4.8 0
2004 12 19 0:39 1 188.2 7.3 43.7 291.1 1.6 0 0
2004 12 19 0:54 1 270.6 9 41.2 104.1 8 1.6 0
2004 12 19 1:09 1 347.1 9.4 40.9 109.7 11.3 3.2 0
2004 12 19 1:24 1 417.6 10.1 39.4 90 8 3.2 0
2004 12 19 1:39 1 476.5 11.3 38.5 125.2 16.1 6.4 0
2004 12 19 1:54 1 523.5 11.3 38.5 137.8 17.7 8 0
2004 12 19 2:09 1 558.8 10.9 38.8 80.2 12.9 4.8 0
2004 12 19 2:24 1 588.2 12.1 37.9 232 16.1 6.4 0
2004 12 19 2:39 1.4 611.8 11.7 38.2 115.3 17.7 6.4 0
2004 12 19 2:54 1.9 617.6 12.5 37.6 326.3 16.1 8 0
2004 12 19 3:09 2.3 617.6 12.5 37.6 173 19.3 4.8 0
2004 12 19 3:24 2.7 594.1 12.1 38.8 344.5 19.3 8 0
2004 12 19 3:39 3.6 552.9 12.5 38.5 164.5 16.1 8 0
2004 12 19 3:54 4 494.1 12.1 38.8 109.7 16.1 6.4 0
2004 12 19 4:09 4.5 411.8 11.3 38.5 102.7 17.7 8 0
2004 12 19 4:24 4.9 317.6 10.9 38.8 97 16.1 6.4 0
2004 12 19 4:39 4.9 217.6 12.1 37.9 130.8 11.3 4.8 0
2004 12 19 4:54 5.3 123.5 12.5 37.6 140.6 11.3 3.2 0
2004 12 19 5:09 5.3 17.6 9.8 39.6 198.3 11.3 3.2 0
2004 12 19 5:24 5.3 5.9 6.9 41.8 194.1 12.9 4.8 0
2004 12 19 5:39 5.3 0 4 43.9 194.1 4.8 1.6 0
2004 12 19 5:54 5.3 0 4.5 43.9 258.8 8 1.6 0
2004 12 19 6:09 5.3 0 2.7 43.9 295.3 6.4 1.6 0
2004 12 19 6:24 4.9 0 4 43.9 263 11.3 3.2 0
2004 12 19 6:39 4.9 0 4 43.2 189.8 6.4 1.6 0
2004 12 19 6:54 4.5 0 4.9 43.2 157.5 9.7 3.2 0
2004 12 19 7:09 4.5 0 2.7 43.9 324.8 14.5 3.2 0
2004 12 19 7:24 4 0 2.7 43.9 271.4 8 3.2 0
2004 12 19 7:39 4 0 -0.8 44.6 264.4 24.1 3.2 0
2004 12 19 7:54 4 0 -0.8 45.1 308 12.9 4.8 0
2004 12 19 8:09 3.6 0 0.1 45.8 302.3 11.3 4.8 0
2004 12 19 8:24 3.6 0 -0.3 46.5 302.3 11.3 4.8 0
2004 12 19 8:39 3.6 0 -0.3 47.7 286.9 9.7 3.2 0
2004 12 19 8:54 3.2 0 1 47.2 286.9 9.7 3.2 0
2004 12 19 9:09 3.2 0 4.5 44.6 286.9 11.3 4.8 0
2004 12 19 9:24 3.2 0 1.9 45.1 286.9 8 3.2 0
2004 12 19 9:39 3.2 0 1 45.1 286.9 14.5 3.2 0
2004 12 19 9:54 2.7 0 1.4 45.1 305.2 12.9 4.8 0
2004 12 19 10:09 2.7 0 1 45.1 305.2 11.3 3.2 0
2004 12 19 10:24 2.7 0 -0.8 47.2 305.2 9.7 3.2 0
2004 12 19 10:39 2.7 0 1.4 46.5 305.2 12.9 3.2 0
2004 12 19 10:54 2.3 0 3.2 44.6 305.2 12.9 3.2 0
2004 12 19 11:09 2.3 0 4 44.6 305.2 4.8 1.6 0
2004 12 19 11:24 2.3 0 4 43.9 305.2 11.3 1.6 0
2004 12 19 11:39 2.3 0 3.2 44.6 305.2 8 3.2 0
2004 12 19 11:54 2.3 0 2.3 44.6 305.2 9.7 3.2 0
2004 12 19 12:09 1.9 0 2.3 44.6 305.2 8 3.2 0
2004 12 19 12:24 1.9 0 3.2 44.6 305.2 4.8 0 0
2004 12 19 12:39 1.9 0 0.1 45.8 305.2 11.3 1.6 0
2004 12 19 12:54 1.9 0 -2.2 49.1 305.2 8 3.2 0
2004 12 19 13:09 1.9 0 0.1 49.1 305.2 9.7 3.2 0
2004 12 19 13:24 1.9 0 -1.3 49.6 305.2 9.7 3.2 0
2004 12 19 13:39 1.9 11.8 -1.3 51.1 305.2 11.3 4.8 0
2004 12 19 13:54 1.9 47.1 0.1 50.4 305.2 19.3 3.2 0
2004 12 19 14:09 1.4 105.9 2.7 50.3 305.2 6.4 1.6 0
2004 12 19 14:24 1.4 176.5 8.2 42.3 303.8 6.4 0 0
2004 12 19 14:39 1.4 217.6 9.8 40.5 99.8 8 1.6 0
2004 12 19 14:54 1.4 376.5 9.8 39.6 101.3 14.5 4.8 0
2004 12 19 15:09 1.4 411.8 9 41.2 91.4 14.5 6.4 0
2004 12 19 15:24 1.9 270.6 9.4 40.9 101.3 14.5 4.8 0
2004 12 19 15:39 1.9 382.4 9.8 40.5 130.8 16.1 6.4 0
2004 12 19 15:54 2.3 294.1 9.8 40.5 92.8 17.7 8 0
2004 12 19 16:09 2.7 311.8 10.5 40 164.5 19.3 9.7 0
2004 12 19 16:24 2.7 447.1 11.3 39.4 126.6 29 12.9 0
2004 12 19 16:39 3.2 494.1 10.1 40.3 123.8 25.7 11.3 0
2004 12 19 16:54 3.6 211.8 9.8 40.5 137.8 20.9 11.3 0
2004 12 19 17:09 4 258.8 9.4 40.9 104.1 22.5 12.9 0
2004 12 19 17:24 4.5 247.1 9 41.2 106.9 19.3 11.3 0
2004 12 19 17:39 4.5 176.5 9 41.2 122.3 24.1 12.9 0
2004 12 19 17:54 4.9 235.3 9 41.2 120.9 17.7 11.3 0
2004 12 19 18:09 4.9 123.5 8.2 41.8 132.2 24.1 11.3 0
2004 12 19 18:24 5.3 70.6 7.7 42 122.3 22.5 9.7 0
2004 12 19 18:39 5.3 29.4 6.9 42.7 137.8 16.1 8 0
2004 12 19 18:54 5.3 11.8 6.1 43.2 140.6 12.9 4.8 0
2004 12 19 19:09 5.3 0 5.3 44.1 140.6 6.4 0 0
2004 12 19 19:24 5.3 0 4.9 44.6 132.2 9.7 1.6 0
2004 12 19 19:39 5.3 0 3.6 45.1 132.2 16.1 1.6 0
2004 12 19 19:54 5.3 0 3.6 45.8 132.2 4.8 0 0
2004 12 19 20:09 4.9 0 4 45.8 132.2 6.4 0 0
2004 12 19 20:24 4.9 0 4 45.8 132.2 4.8 1.6 0
2004 12 19 20:39 4.9 0 4.5 45.1 132.2 6.4 1.6 0
2004 12 19 20:54 4.9 0 4 45.8 132.2 6.4 1.6 0
2004 12 19 21:09 4.9 0 4 45.8 75.9 4.8 0 0
2004 12 19 21:24 4.5 0 4.9 45.8 289.7 11.3 3.2 0
2004 12 19 21:39 4.5 0 7.7 43.5 98.4 17.7 4.8 0
2004 12 19 21:54 4.5 0 4.5 45.8 158.9 25.7 9.7 0
2004 12 19 22:09 4.5 0 4.5 45.8 143.4 16.1 4.8 0
2004 12 19 22:24 4.5 0 2.7 47.2 143.4 6.4 3.2 0
2004 12 19 22:39 4.5 0 3.2 47.2 143.4 9.7 1.6 0
2004 12 19 22:54 4.5 0 3.6 46.5 116.7 11.3 3.2 0
2004 12 19 23:09 4.5 0 3.6 45.8 146.3 12.9 4.8 0
2004 12 19 23:24 4.5 0 4 45.1 115.3 9.7 3.2 0
2004 12 19 23:39 4 0 4 45.1 105.5 11.3 4.8 0
2004 12 19 23:54 4 0 4 45.1 112.5 14.5 4.8 0
2004 12 20 0:09 4 0 3.2 45.8 181.4 12.9 4.8 0
2004 12 20 0:24 4 0 3.6 45.8 112.5 11.3 1.6 0
2004 12 20 0:39 4 0 3.6 45.1 111.1 6.4 3.2 0
2004 12 20 0:54 4 0 3.6 45.1 102.7 11.3 3.2 0
2004 12 20 1:09 4 0 3.6 44.6 129.4 9.7 3.2 0
2004 12 20 1:24 4 0 3.2 45.1 113.9 9.7 3.2 0
2004 12 20 1:39 4 0 3.2 45.8 222.2 11.3 1.6 0
2004 12 20 1:54 4 0 4 44.6 125.2 9.7 4.8 0
2004 12 20 2:09 4 0 3.6 45.1 71.7 16.1 8 0
2004 12 20 2:24 3.6 0 3.6 44.6 90 12.9 6.4 0
2004 12 20 2:39 3.6 0 3.2 44.6 73.1 11.3 3.2 0
2004 12 20 2:54 3.6 0 3.2 44.6 73.1 12.9 6.4 0
2004 12 20 3:09 3.6 0 3.2 45.8 78.8 22.5 9.7 0
2004 12 20 3:24 3.6 11.8 3.6 49.6 102.7 17.7 9.7 0
2004 12 20 3:39 3.6 35.3 4 55.4 116.7 20.9 9.7 0
2004 12 20 3:54 3.6 58.8 3.6 56.6 112.5 20.9 12.9 0
2004 12 20 4:09 3.6 105.9 4 60.1 109.7 20.9 9.7 0
2004 12 20 4:24 3.6 111.8 4.5 59.8 63.3 20.9 9.7 0
2004 12 20 4:39 3.6 329.4 5.3 60.3 95.6 17.7 9.7 0
2004 12 20 4:54 4 170.6 5.7 59.8 95.6 20.9 9.7 0
2004 12 20 5:09 4 252.9 6.9 58 88.6 17.7 9.7 0
2004 12 20 5:24 4 152.9 5.7 61.1 94.2 24.1 12.9 0
2004 12 20 5:39 4.5 252.9 6.1 56.8 88.6 22.5 11.3 0
2004 12 20 5:54 4.5 223.5 6.1 54.8 95.6 24.1 11.3 0
2004 12 20 6:09 4.5 488.2 7.3 52.1 119.5 30.6 14.5 0
2004 12 20 6:24 4.9 364.7 7.3 54 63.3 30.6 17.7 0
2004 12 20 6:39 4.9 482.4 6.9 59.8 130.8 25.7 16.1 0
2004 12 20 6:54 5.3 652.9 8.2 55 112.5 27.4 16.1 0
2004 12 20 7:09 5.7 258.8 6.9 59.9 116.7 25.7 14.5 0
2004 12 20 7:24 5.7 229.4 6.9 57.1 88.6 27.4 14.5 0
2004 12 20 7:39 6.1 194.1 6.5 54.5 81.6 29 16.1 0
2004 12 20 7:54 6.1 294.1 6.9 51.1 85.8 22.5 14.5 0
2004 12 20 8:09 6.1 152.9 5.3 52.1 97 24.1 12.9 0
2004 12 20 8:24 6.1 64.7 5.3 55.2 101.3 20.9 11.3 0
2004 12 20 8:39 6.1 11.8 4.5 58.9 118.1 19.3 11.3 0
2004 12 20 8:54 6.1 0 3.2 62.5 90 17.7 9.7 0
2004 12 20 9:09 6.1 0 2.7 65.4 105.5 22.5 9.7 0
2004 12 20 9:24 6.1 0 2.7 66 106.9 16.1 9.7 0
2004 12 20 9:39 6.1 0 3.2 61.7 88.6 25.7 14.5 0
2004 12 20 9:54 5.7 0 3.2 61.9 83 24.1 12.9 0
2004 12 20 10:09 5.7 0 3.2 61.7 68.9 29 12.9 0
2004 12 20 10:24 5.7 0 3.2 61.5 74.5 22.5 12.9 0
2004 12 20 10:39 5.3 0 3.2 62.3 113.9 25.7 12.9 0
2004 12 20 10:54 5.3 0 3.6 57.1 98.4 22.5 14.5 0
2004 12 20 11:09 5.3 0 3.6 58.9 75.9 29 16.1 0
2004 12 20 11:24 5.3 0 4 55 78.8 37 20.9 0
2004 12 20 11:39 5.3 0 3.6 57.1 83 32.2 19.3 0
2004 12 20 11:54 4.9 0 3.6 59.4 88.6 24.1 16.1 0
2004 12 20 12:09 4.9 0 3.6 60.7 98.4 25.7 14.5 0
2004 12 20 12:24 4.9 0 3.6 66.6 91.4 25.7 12.9 0
2004 12 20 12:39 4.9 0 3.6 68.8 80.2 29 14.5 0
2004 12 20 12:54 4.9 0 3.6 69.2 77.3 25.7 12.9 0
2004 12 20 13:09 4.9 0 4 67.7 95.6 24.1 12.9 0
2004 12 20 13:24 4.9 0 4 68.3 63.3 32.2 17.7 0
2004 12 20 13:39 4.9 0 3.6 64.4 101.3 29 19.3 0
2004 12 20 13:54 4.5 0 3.6 63.9 80.2 27.4 14.5 0
2004 12 20 14:09 4.5 0 3.6 64.4 92.8 30.6 17.7 0
2004 12 20 14:24 4.5 0 3.6 64.6 70.3 27.4 14.5 0
2004 12 20 14:39 4.5 0 3.2 68.8 119.5 25.7 14.5 0
2004 12 20 14:54 4.5 0 3.2 72.2 95.6 25.7 12.9 0
2004 12 20 15:09 4.5 0 3.6 77.3 115.3 29 12.9 0
2004 12 20 15:24 4.5 0 3.6 78.5 116.7 30.6 16.1 0
2004 12 20 15:39 4.5 0 3.6 81.5 102.7 32.2 19.3 0
2004 12 20 15:54 4.5 0 3.6 79.2 112.5 40.2 20.9 0
2004 12 20 16:09 4.5 0 3.6 81.5 85.8 29 16.1 0
2004 12 20 16:24 4.5 0 3.6 82.3 109.7 25.7 17.7 0
2004 12 20 16:39 4.5 0 3.6 86.9 80.2 37 17.7 0
2004 12 20 16:54 4.5 0 4 89.8 122.3 29 17.7 0
2004 12 20 17:09 4.5 0 3.6 91.5 99.8 37 20.9 0
2004 12 20 17:24 4.5 35.3 3.6 97.1 119.5 37 24.1 0
2004 12 20 17:39 4.5 23.5 3.6 97.1 91.4 32.2 17.7 0
2004 12 20 17:54 4.5 29.4 4 97.9 113.9 33.8 20.9 0
2004 12 20 18:09 4.5 58.8 4 99.5 115.3 33.8 20.9 0
2004 12 20 18:24 4.5 76.5 4.5 97.1 113.9 38.6 25.7 0
2004 12 20 18:39 4.5 47.1 4 100 109.7 43.5 27.4 0
2004 12 20 18:54 4.5 23.5 3.6 100 104.1 40.2 25.7 0
2004 12 20 19:09 4.5 35.3 3.6 100 129.4 33.8 24.1 0
2004 12 20 19:24 4.5 29.4 3.6 100 112.5 35.4 20.9 0
2004 12 20 19:39 4.5 17.6 4 100 105.5 37 22.5 0
2004 12 20 19:54 4.9 41.2 4 100 136.4 32.2 17.7 0
2004 12 20 20:09 4.9 35.3 4 100 109.7 30.6 17.7 0
2004 12 20 20:24 4.9 100 4 100 151.9 24.1 14.5 1.3
2004 12 20 20:39 4.9 23.5 3.6 100 139.2 25.7 12.9 1.8
2004 12 20 20:54 4.9 17.6 3.6 100 135 22.5 11.3 2
2004 12 20 21:09 4.9 47.1 3.6 100 109.7 16.1 8 3
2004 12 20 21:24 4.9 17.6 3.6 100 113.9 17.7 6.4 1.3
2004 12 20 21:39 4.9 23.5 4 100 95.6 16.1 8 2
2004 12 20 21:54 4.9 5.9 4 100 118.1 20.9 9.7 1.3
2004 12 20 22:09 4.9 17.6 4 100 119.5 14.5 8 0.8
2004 12 20 22:24 4.9 5.9 4 100 87.2 16.1 9.7 0.5
2004 12 20 22:39 4.9 0 4 100 101.3 16.1 8 0
2004 12 20 22:54 4.9 0 4.5 100 118.1 14.5 6.4 0.5
2004 12 20 23:09 4.9 0 4.9 100 94.2 19.3 9.7 0
2004 12 20 23:24 4.9 0 4.5 100 122.3 19.3 8 0.5
2004 12 20 23:39 4.9 0 4.9 100 119.5 17.7 8 1.5
2004 12 20 23:54 4.9 0 4.9 100 116.7 14.5 6.4 0.5
2004 12 21 0:09 4.9 0 4.9 100 97 12.9 6.4 0.5
2004 12 21 0:24 4.9 0 4.9 100 119.5 11.3 4.8 1.8
2004 12 21 0:39 4.9 0 4.9 100 90 16.1 8 0
2004 12 21 0:54 4.9 0 4.9 100 60.5 11.3 3.2 0.8
2004 12 21 1:09 4.9 0 4.9 100 92.8 11.3 3.2 0.5
2004 12 21 1:24 4.9 0 4.9 100 111.1 11.3 4.8 0
2004 12 21 1:39 4.9 0 5.3 100 87.2 14.5 3.2 0.3
2004 12 21 1:54 4.9 0 5.3 100 128 14.5 6.4 1.8
2004 12 21 2:09 4.9 0 5.3 100 101.3 16.1 6.4 1.5
2004 12 21 2:24 4.9 0 5.3 100 81.6 12.9 6.4 1.8
2004 12 21 2:39 4.9 0 4.9 100 63.3 19.3 8 3
2004 12 21 2:54 4.9 0 4.9 100 116.7 17.7 8 2.8
2004 12 21 3:09 4.9 0 4.9 100 112.5 16.1 4.8 3
2004 12 21 3:24 4.9 0 5.3 100 111.1 11.3 4.8 1.5
2004 12 21 3:39 4.9 0 4.9 100 104.1 14.5 6.4 0.3
2004 12 21 3:54 4.9 0 5.3 100 143.4 24.1 8 1
2004 12 21 4:09 4.9 0 5.7 100 109.7 29 12.9 0.8
2004 12 21 4:24 4.9 0 5.3 100 122.3 19.3 8 4.1
2004 12 21 4:39 4.9 0 6.1 100 120.9 27.4 14.5 3
2004 12 21 4:54 5.3 0 6.1 100 161.7 37 17.7 6.1
2004 12 21 5:09 5.3 0 6.1 100 147.7 35.4 20.9 2.3
2004 12 21 5:24 5.3 0 5.7 100 168.8 32.2 17.7 3.8
2004 12 21 5:39 5.3 0 5.7 100 177.2 38.6 16.1 0
2004 12 21 5:54 5.3 0 5.7 100 164.5 40.2 19.3 0.3
2004 12 21 6:09 5.3 0 5.3 100 202.5 27.4 14.5 0
2004 12 21 6:24 5.3 0 4.5 100 223.6 22.5 9.7 1.3
2004 12 21 6:39 5.3 0 3.6 100 216.6 32.2 17.7 2.5
2004 12 21 6:54 5.3 0 3.6 100 153.3 33.8 14.5 1.5
2004 12 21 7:09 5.3 23.5 3.2 100 171.6 25.7 12.9 0.5
2004 12 21 7:24 4.9 76.5 3.2 100 255.9 20.9 12.9 0
2004 12 21 7:39 4.9 94.1 2.7 100 192.7 27.4 12.9 0
2004 12 21 7:54 4.9 200 2.7 100 210.9 22.5 11.3 0
2004 12 21 8:09 4.9 358.8 3.6 100 244.7 24.1 12.9 0
2004 12 21 8:24 4.9 647.1 4.5 100 219.4 24.1 12.9 0
2004 12 21 8:39 4.9 135.3 3.6 96.2 212.3 20.9 11.3 0
2004 12 21 8:54 5.3 135.3 3.6 97.1 205.3 20.9 9.7 0
2004 12 21 9:09 5.3 88.2 3.6 97.9 201.1 14.5 8 0
2004 12 21 9:24 5.3 135.3 4 97.1 130.8 19.3 8 0
2004 12 21 9:39 5.3 117.6 4.9 97.1 158.9 27.4 11.3 0
2004 12 21 9:54 5.3 247.1 4.9 96.2 151.9 20.9 11.3 0
2004 12 21 10:09 5.7 117.6 4.9 95.4 137.8 29 14.5 0
2004 12 21 10:24 5.7 205.9 4 96.2 144.8 22.5 12.9 0
2004 12 21 10:39 5.7 58.8 4.5 97.1 194.1 24.1 9.7 0
2004 12 21 10:54 5.7 241.2 4.5 95.4 218 19.3 8 0
2004 12 21 11:09 5.7 94.1 4.9 92.3 149.1 20.9 9.7 0
2004 12 21 11:24 5.7 58.8 4.5 96.2 128 19.3 9.7 0
2004 12 21 11:39 5.7 58.8 4.5 96.2 139.2 35.4 9.7 0
2004 12 21 11:54 5.7 17.6 4.5 96.2 147.7 22.5 9.7 0
2004 12 21 12:09 5.7 0 4 96.2 160.3 20.9 11.3 0
2004 12 21 12:24 5.7 0 3.6 97.1 185.6 20.9 8 0
2004 12 21 12:39 5.7 0 2.7 97.1 213.8 17.7 6.4 0
2004 12 21 12:54 5.7 0 3.2 99.5 223.6 14.5 4.8 0
2004 12 21 13:09 5.3 0 3.2 97.9 173 19.3 6.4 0
2004 12 21 13:24 5.3 0 2.7 99.5 184.2 12.9 4.8 0
2004 12 21 13:39 5.3 0 2.7 99.5 237.7 14.5 4.8 0
2004 12 21 13:54 5.3 0 2.7 100 233.4 16.1 6.4 0
2004 12 21 14:09 4.9 0 2.7 100 225 14.5 6.4 0
2004 12 21 14:24 4.9 0 2.3 99.5 270 19.3 6.4 0
2004 12 21 14:39 4.9 0 1.9 100 264.4 14.5 6.4 0
2004 12 21 14:54 4.9 0 1.9 99.5 265.8 17.7 6.4 0
2004 12 21 15:09 4.9 0 1.9 98.7 285.5 22.5 11.3 0
2004 12 21 15:24 4.5 0 1.9 99.5 247.5 22.5 9.7 0
2004 12 21 15:39 4.5 0 1.9 99.5 226.4 19.3 11.3 0
2004 12 21 15:54 4.5 0 2.3 97.1 268.6 19.3 9.7 0
2004 12 21 16:09 4.5 0 1.9 95.4 285.5 22.5 9.7 0
2004 12 21 16:24 4 0 2.3 95.4 275.6 17.7 9.7 0
2004 12 21 16:39 4 0 1.9 93.1 277 17.7 8 0
2004 12 21 16:54 4 0 1.4 93.9 226.4 17.7 9.7 0
2004 12 21 17:09 4 0 1.4 95.4 250.3 12.9 4.8 0
2004 12 21 17:24 3.6 0 0.1 97.9 279.8 9.7 3.2 0
2004 12 21 17:39 3.6 0 1 100 263 8 1.6 0
2004 12 21 17:54 3.6 0 0.6 100 239.1 9.7 1.6 0
2004 12 21 18:09 3.6 0 0.1 100 219.4 6.4 1.6 0
2004 12 21 18:24 3.2 0 -0.8 100 219.4 3.2 0 0
2004 12 21 18:39 3.2 0 -1.3 100 219.4 3.2 0 0
2004 12 21 18:54 3.2 0 -1.7 100 219.4 4.8 1.6 0
2004 12 21 19:09 3.2 0 -1.7 100 219.4 8 1.6 0
2004 12 21 19:24 3.2 0 -1.7 100 220.8 6.4 1.6 0
2004 12 21 19:39 2.7 0 -0.8 100 279.8 9.7 3.2 0
2004 12 21 19:54 2.7 0 -0.3 100 268.6 11.3 3.2 0
2004 12 21 20:09 2.7 0 -0.3 100 306.6 8 1.6 0
2004 12 21 20:24 2.7 5.9 0.1 100 189.8 9.7 3.2 0
2004 12 21 20:39 2.7 82.4 1.4 100 201.1 17.7 8 0
2004 12 21 20:54 2.7 152.9 2.3 99.5 150.5 14.5 6.4 0
2004 12 21 21:09 2.7 217.6 3.6 90.6 175.8 11.3 4.8 0
2004 12 21 21:24 2.3 294.1 4.5 81.8 153.3 14.5 6.4 0
2004 12 21 21:39 2.3 370.6 5.3 77 168.8 16.1 6.4 0
2004 12 21 21:54 2.3 435.3 5.3 72.5 158.9 17.7 9.7 0
2004 12 21 22:09 2.3 488.2 5.3 73.3 156.1 20.9 9.7 0
2004 12 21 22:24 2.3 529.4 6.1 71.9 129.4 19.3 8 0
2004 12 21 22:39 2.7 488.2 6.5 66 178.6 17.7 8 0
2004 12 21 22:54 2.7 635.3 6.5 62.6 160.3 17.7 9.7 0
2004 12 21 23:09 3.2 535.3 6.5 61.7 158.9 27.4 11.3 0
2004 12 21 23:24 3.6 670.6 7.3 62.5 173 19.3 9.7 0
2004 12 21 23:39 4 382.4 7.3 55.2 194.1 19.3 9.7 0
2004 12 21 23:54 4.5 676.5 7.7 54.3 156.1 27.4 9.7 0
2004 12 22 0:09 4.9 582.4 7.7 52.7 135 20.9 12.9 0
2004 12 22 0:24 5.3 494.1 7.3 54.5 160.3 29 11.3 0
2004 12 22 0:39 5.3 300 7.3 55.6 130.8 22.5 9.7 0
2004 12 22 0:54 5.7 170.6 6.5 62 144.8 19.3 11.3 0
2004 12 22 1:09 5.7 164.7 6.1 71.4 181.4 20.9 9.7 0
2004 12 22 1:24 5.7 58.8 4.9 78.9 154.7 16.1 8 0
2004 12 22 1:39 5.7 41.2 4 83.1 160.3 17.7 6.4 0
2004 12 22 1:54 5.7 0 3.6 86.9 182.8 12.9 4.8 0
2004 12 22 2:09 5.7 0 3.2 90.6 185.6 12.9 3.2 0
2004 12 22 2:24 5.3 0 2.7 92.3 213.8 12.9 3.2 0
2004 12 22 2:39 5.3 0 2.3 93.9 181.4 6.4 1.6 0
2004 12 22 2:54 5.3 0 2.3 93.9 150.5 11.3 3.2 0
2004 12 22 3:09 4.9 0 2.3 95.4 154.7 11.3 4.8 0
2004 12 22 3:24 4.9 0 1.9 98.7 137.8 11.3 4.8 0
2004 12 22 3:39 4.9 0 1.9 99.5 177.2 12.9 3.2 0
2004 12 22 3:54 4.5 0 1.9 99.5 178.6 14.5 3.2 0
2004 12 22 4:09 4.5 0 2.3 98.7 39.4 11.3 3.2 0
2004 12 22 4:24 4.5 0 1.9 97.9 144.8 11.3 3.2 0
2004 12 22 4:39 4.5 0 1.4 98.7 147.7 6.4 1.6 0
2004 12 22 4:54 4 0 1 98.7 161.7 8 3.2 0
2004 12 22 5:09 4 0 1.4 97.1 135 16.1 6.4 0
2004 12 22 5:24 4 0 1.9 95.4 177.2 19.3 8 0
2004 12 22 5:39 4 0 2.3 93.1 161.7 20.9 9.7 0
2004 12 22 5:54 3.6 0 2.3 93.1 147.7 12.9 6.4 0
2004 12 22 6:09 3.6 0 1.9 93.1 116.7 17.7 8 0
2004 12 22 6:24 3.6 0 1.9 93.9 147.7 16.1 8 0
2004 12 22 6:39 3.6 0 2.3 95.4 137.8 19.3 8 0
2004 12 22 6:54 3.6 0 2.3 95.4 140.6 16.1 9.7 0
2004 12 22 7:09 3.6 0 2.3 96.2 116.7 22.5 11.3 0
2004 12 22 7:24 3.6 0 2.3 96.2 151.9 24.1 9.7 0
2004 12 22 7:39 3.6 0 2.3 95.4 126.6 17.7 8 0
2004 12 22 7:54 3.6 0 2.3 93.1 125.2 17.7 6.4 0
2004 12 22 8:09 3.6 0 2.3 90.6 113.9 16.1 8 0
2004 12 22 8:24 3.2 0 2.3 90.6 125.2 16.1 6.4 0
2004 12 22 8:39 3.2 0 2.3 88.2 147.7 20.9 9.7 0
2004 12 22 8:54 3.2 0 2.3 86.6 135 20.9 12.9 0
2004 12 22 9:09 3.2 0 2.3 85.7 153.3 17.7 11.3 0
2004 12 22 9:24 3.2 0 2.3 86.1 157.5 17.7 8 0
2004 12 22 9:39 3.2 0 2.3 85.7 113.9 19.3 12.9 0
2004 12 22 9:54 3.2 0 2.3 86.6 142 25.7 9.7 0
2004 12 22 10:09 3.2 0 2.3 86.6 129.4 20.9 9.7 0
2004 12 22 10:24 3.2 17.6 2.3 85.7 144.8 22.5 12.9 0
2004 12 22 10:39 3.2 41.2 2.7 87.8 156.1 27.4 12.9 0
2004 12 22 10:54 3.2 58.8 3.2 82.3 142 25.7 14.5 0
2004 12 22 11:09 3.2 170.6 3.6 80 173 24.1 12.9 0
2004 12 22 11:24 3.2 323.5 4.9 73.3 156.1 22.5 14.5 0
2004 12 22 11:39 3.2 435.3 6.1 68.6 174.4 27.4 16.1 0
2004 12 22 11:54 3.2 541.2 6.9 65.4 167.3 27.4 16.1 0
2004 12 22 12:09 3.6 305.9 5.7 69.5 158.9 30.6 16.1 0
2004 12 22 12:24 3.6 358.8 6.1 69.2 173 30.6 14.5 0
2004 12 22 12:39 4 570.6 7.3 68.1 158.9 20.9 14.5 0
2004 12 22 12:54 4 358.8 6.9 67.4 149.1 29 16.1 0
2004 12 22 13:09 4.5 358.8 6.1 72.7 165.9 30.6 14.5 0
2004 12 22 13:24 4.5 188.2 5.7 73.7 161.7 20.9 12.9 0
2004 12 22 13:39 4.9 158.8 5.3 75.4 160.3 19.3 12.9 0
2004 12 22 13:54 4.9 152.9 5.3 77 175.8 20.9 12.9 0
2004 12 22 14:09 4.9 135.3 5.3 78.9 154.7 20.9 12.9 0
2004 12 22 14:24 4.9 152.9 4.9 80 189.8 22.5 12.9 0
2004 12 22 14:39 5.3 129.4 4.9 83.1 154.7 22.5 12.9 0
2004 12 22 14:54 5.3 141.2 4.5 88.2 180 17.7 9.7 0
2004 12 22 15:09 5.3 76.5 4 92.3 202.5 19.3 9.7 0
2004 12 22 15:24 5.3 111.8 3.2 96.2 241.9 19.3 9.7 0
2004 12 22 15:39 5.3 100 3.2 97.9 229.2 12.9 6.4 0
2004 12 22 15:54 5.3 94.1 4 97.9 198.3 9.7 4.8 0
2004 12 22 16:09 5.3 76.5 3.6 97.1 234.8 14.5 8 0
2004 12 22 16:24 5.3 52.9 3.6 97.9 250.3 16.1 9.7 0
2004 12 22 16:39 5.3 47.1 3.6 99.5 191.3 16.1 6.4 0
2004 12 22 16:54 5.3 29.4 3.6 99.5 254.5 12.9 4.8 0
2004 12 22 17:09 5.3 5.9 3.6 99.5 312.2 16.1 6.4 0
2004 12 22 17:24 5.3 0 3.2 99.5 209.5 17.7 6.4 0
2004 12 22 17:39 5.3 0 2.7 99.5 225 14.5 6.4 0
2004 12 22 17:54 4.9 0 2.7 97.9 270 12.9 4.8 0
2004 12 22 18:09 4.9 0 2.7 97.1 261.6 12.9 4.8 0
2004 12 22 18:24 4.9 0 2.7 97.9 247.5 12.9 4.8 0
2004 12 22 18:39 4.5 0 1.9 97.1 263 16.1 4.8 0
2004 12 22 18:54 4.5 0 1.4 96.2 274.2 11.3 4.8 0
2004 12 22 19:09 4.5 0 1.4 92.3 258.8 22.5 8 0
2004 12 22 19:24 4 0 1.4 95.4 278.4 17.7 11.3 0
2004 12 22 19:39 4 0 1.4 96.2 279.8 24.1 11.3 0
2004 12 22 19:54 4 0 1 95.4 258.8 24.1 12.9 0
2004 12 22 20:09 3.6 0 1 95.4 232 19.3 9.7 0
2004 12 22 20:24 3.6 0 1 95.4 229.2 20.9 11.3 0
2004 12 22 20:39 3.6 0 0.6 95.4 247.5 22.5 9.7 0
2004 12 22 20:54 3.2 0 0.6 96.2 250.3 20.9 9.7 0
2004 12 22 21:09 3.2 0 0.1 96.2 275.6 20.9 9.7 0
2004 12 22 21:24 3.2 0 0.1 97.1 279.8 22.5 12.9 0
2004 12 22 21:39 3.2 0 0.1 97.1 286.9 20.9 11.3 0
2004 12 22 21:54 2.7 0 0.1 97.1 285.5 20.9 9.7 0
2004 12 22 22:09 2.7 0 -0.3 97.1 247.5 19.3 9.7 0
2004 12 22 22:24 2.7 0 -0.3 97.1 292.5 22.5 9.7 0
2004 12 22 22:39 2.7 0 -0.8 97.1 268.6 16.1 6.4 0
2004 12 22 22:54 2.7 0 -0.8 95.4 268.6 19.3 8 0
2004 12 22 23:09 2.7 0 -0.3 92.3 282.7 17.7 8 0
2004 12 22 23:24 2.7 0 -0.8 89.8 279.8 16.1 6.4 0
2004 12 22 23:39 2.3 0 -0.8 88.2 268.6 16.1 4.8 0
2004 12 22 23:54 2.3 0 -3.1 95.4 128 8 1.6 0.3
2004 12 23 0:09 2.3 0 -3.6 97.9 128 4.8 0 0
2004 12 23 0:24 2.3 0 -2.2 97.9 271.4 12.9 3.2 0
2004 12 23 0:39 2.3 0 -2.2 96.2 271.4 6.4 1.6 0
2004 12 23 0:54 2.3 0 -2.7 96.2 271.4 9.7 3.2 0
2004 12 23 1:09 2.3 0 -3.1 97.1 271.4 9.7 3.2 0
2004 12 23 1:24 1.9 5.9 -4.1 99.5 271.4 9.7 3.2 0
2004 12 23 1:39 1.9 58.8 0.1 100 317.8 12.9 3.2 0
2004 12 23 1:54 1.9 129.4 2.7 91.5 282.7 6.4 1.6 0
2004 12 23 2:09 1.9 205.9 3.6 77.3 161.7 9.7 3.2 0
2004 12 23 2:24 1.9 294.1 4.5 68.3 161.7 14.5 3.2 0
2004 12 23 2:39 1.9 370.6 4.5 66.6 181.4 16.1 6.4 0
2004 12 23 2:54 1.9 435.3 4.5 57.7 206.7 16.1 8 0
2004 12 23 3:09 1.9 494.1 4.9 54.8 241.9 19.3 9.7 0
2004 12 23 3:24 1.9 547.1 5.3 50.1 244.7 17.7 8 0
2004 12 23 3:39 1.9 582.4 5.3 48.9 258.8 16.1 9.7 0
2004 12 23 3:54 1.9 594.1 5.7 46.5 201.1 19.3 9.7 0
2004 12 23 4:09 1.9 476.5 6.1 47.7 160.3 25.7 8 0
2004 12 23 4:24 2.3 670.6 5.7 49.6 254.5 20.9 8 0
2004 12 23 4:39 2.3 464.7 6.1 49.3 226.4 16.1 6.4 0
2004 12 23 4:54 2.7 317.6 6.1 49.4 213.8 14.5 6.4 0.3
2004 12 23 5:09 2.7 394.1 5.3 50.9 226.4 14.5 8 0
2004 12 23 5:24 3.2 317.6 5.7 56.6 164.5 12.9 6.4 0
2004 12 23 5:39 3.2 305.9 4.9 60.1 222.2 12.9 6.4 0
2004 12 23 5:54 3.6 317.6 4.9 63.8 195.5 12.9 6.4 0
2004 12 23 6:09 3.6 341.2 5.3 64.6 226.4 11.3 6.4 0
2004 12 23 6:24 3.6 305.9 5.3 60.5 196.9 11.3 6.4 0
2004 12 23 6:39 4 205.9 4.9 52.5 251.7 11.3 4.8 0
2004 12 23 6:54 4 182.4 4.5 53.1 191.3 9.7 4.8 0
2004 12 23 7:09 4 176.5 4.5 54.8 220.8 8 4.8 0
2004 12 23 7:24 4 135.3 4 58.7 234.8 9.7 4.8 0
2004 12 23 7:39 4.5 117.6 3.6 61.1 239.1 9.7 3.2 0
2004 12 23 7:54 4.5 76.5 3.2 63.4 194.1 8 3.2 0
2004 12 23 8:09 4.5 47.1 2.7 60.3 255.9 6.4 3.2 0
2004 12 23 8:24 4.5 35.3 2.3 60.7 255.9 3.2 0 0
2004 12 23 8:39 4.5 11.8 1.9 62 255.9 4.8 1.6 0
2004 12 23 8:54 4.5 0 1 65 255.9 0 0 0
2004 12 23 9:09 4 0 -0.3 69.5 255.9 3.2 0 0
2004 12 23 9:24 4 0 -0.3 70.5 255.9 4.8 3.2 0
2004 12 23 9:39 4 0 -0.8 74.6 319.2 6.4 3.2 0
2004 12 23 9:54 4 0 -0.3 76.8 319.2 6.4 3.2 0
2004 12 23 10:09 4 0 -0.3 76.2 319.2 6.4 3.2 0
2004 12 23 10:24 4 0 -0.8 76.2 319.2 4.8 3.2 0
2004 12 23 10:39 3.6 0 -1.3 74.9 319.2 4.8 3.2 0
2004 12 23 10:54 3.6 0 -2.2 80.4 319.2 6.4 3.2 0
2004 12 23 11:09 3.6 0 -2.7 83.5 319.2 6.4 4.8 0
2004 12 23 11:24 3.6 0 -2.2 84.8 319.2 6.4 4.8 0
2004 12 23 11:39 3.2 0 -2.7 84.8 319.2 4.8 3.2 0
2004 12 23 11:54 3.2 0 -3.1 86.6 319.2 4.8 3.2 0
2004 12 23 12:09 3.2 0 -3.1 89.8 319.2 4.8 3.2 0
2004 12 23 12:24 3.2 0 -3.6 92.3 319.2 4.8 3.2 0
2004 12 23 12:39 3.2 0 -3.6 93.9 319.2 3.2 3.2 0
2004 12 23 12:54 3.2 0 -3.1 96.2 319.2 3.2 1.6 0
2004 12 23 13:09 2.7 0 -2.7 97.1 319.2 3.2 3.2 0
2004 12 23 13:24 2.7 0 -2.2 97.1 319.2 4.8 3.2 0
2004 12 23 13:39 2.7 0 -2.2 97.9 319.2 4.8 1.6 0
2004 12 23 13:54 2.7 0 -2.2 98.7 319.2 3.2 1.6 0
2004 12 23 14:09 2.7 0 -1.7 99.5 319.2 3.2 1.6 0
2004 12 23 14:24 2.7 0 -1.7 99.5 319.2 3.2 1.6 0
2004 12 23 14:39 2.7 0 -1.7 99.5 319.2 3.2 0 0
2004 12 23 14:54 2.7 0 -2.2 99.5 319.2 0 0 0
2004 12 23 15:09 2.3 0 -3.1 99.5 319.2 0 0 0
2004 12 23 15:24 2.3 0 -2.7 100 319.2 0 0 0
2004 12 23 15:39 2.3 0 -2.2 100 319.2 1.6 0 0
2004 12 23 15:54 2.3 0 -3.1 100 319.2 3.2 1.6 0
2004 12 23 16:09 2.3 0 -2.7 100 319.2 4.8 1.6 0
2004 12 23 16:24 2.3 0 -3.1 100 319.2 3.2 1.6 0
2004 12 23 16:39 2.3 0 -3.6 100 319.2 3.2 1.6 0
2004 12 23 16:54 2.3 0 -3.1 100 319.2 4.8 1.6 0
2004 12 23 17:09 2.3 0 -3.1 100 319.2 4.8 1.6 0
2004 12 23 17:24 2.3 0 -3.1 100 319.2 4.8 3.2 0
2004 12 23 17:39 2.3 0 -3.1 100 319.2 6.4 3.2 0
2004 12 23 17:54 1.9 0 -2.7 100 319.2 4.8 1.6 0
2004 12 23 18:09 1.9 0 -3.1 99.5 319.2 6.4 3.2 0
2004 12 23 18:24 1.9 0 -2.7 100 319.2 6.4 3.2 0
2004 12 23 18:39 1.9 0 -2.7 99.5 319.2 4.8 1.6 0
2004 12 23 18:54 1.9 0 -3.1 99.5 319.2 4.8 1.6 0
2004 12 23 19:09 1.9 0 -3.6 99.5 319.2 3.2 1.6 0
2004 12 23 19:24 1.9 0 -4.1 99.5 319.2 4.8 3.2 0
2004 12 23 19:39 1.9 0 -4.6 99.5 319.2 4.8 3.2 0
2004 12 23 19:54 1.9 0 -4.1 100 319.2 4.8 3.2 0
2004 12 23 20:09 1.9 0 -4.6 100 319.2 0 0 0
2004 12 23 20:24 1.9 0 -4.6 100 319.2 6.4 3.2 0
2004 12 23 20:39 1.9 0 -5.1 100 319.2 3.2 1.6 0
2004 12 23 20:54 1.9 0 -5.1 100 319.2 4.8 3.2 0
2004 12 23 21:09 1.9 0 -4.6 100 319.2 3.2 1.6 0
2004 12 23 21:24 1.9 0 -4.1 100 319.2 3.2 0 0
2004 12 23 21:39 1.4 0 -3.6 100 319.2 0 0 0
2004 12 23 21:54 1.4 0 -3.1 100 319.2 3.2 0 0
2004 12 23 22:09 1.4 0 -2.7 100 319.2 3.2 0 0
2004 12 23 22:24 1.4 0 -2.2 99.5 2.8 4.8 1.6 0
2004 12 23 22:39 1.4 0 -2.2 98.7 61.9 4.8 1.6 0
2004 12 23 22:54 1.4 0 -1.7 97.1 61.9 6.4 3.2 0
2004 12 23 23:09 1.4 5.9 -2.2 97.1 61.9 3.2 1.6 0
2004 12 23 23:24 1.4 23.5 -2.7 97.1 61.9 3.2 0 0
2004 12 23 23:39 1.4 35.3 -1.7 98.7 61.9 6.4 1.6 0
2004 12 23 23:54 1.4 58.8 -1.3 97.9 126.6 6.4 3.2 0
2004 12 24 0:09 1.4 82.4 -0.8 97.9 87.2 6.4 3.2 0
2004 12 24 0:24 1.4 94.1 0.1 98.7 91.4 6.4 4.8 0
2004 12 24 0:39 1.4 141.2 1 98.7 102.7 6.4 4.8 0
2004 12 24 0:54 1.4 152.9 1.4 97.1 97 11.3 6.4 0
2004 12 24 1:09 1.4 247.1 1.9 96.2 105.5 12.9 8 0
2004 12 24 1:24 1.4 270.6 1.9 95.4 126.6 12.9 9.7 0
2004 12 24 1:39 1.4 347.1 2.7 93.9 122.3 12.9 9.7 0
2004 12 24 1:54 1.4 458.8 3.6 87.8 132.2 16.1 9.7 0
2004 12 24 2:09 1.4 382.4 3.6 83.5 133.6 20.9 12.9 0
2004 12 24 2:24 1.4 229.4 4 77.8 126.6 24.1 14.5 0
2004 12 24 2:39 1.4 347.1 4 80.7 120.9 19.3 12.9 0
2004 12 24 2:54 1.4 176.5 3.6 79.2 118.1 19.3 14.5 0
2004 12 24 3:09 1.4 258.8 4 77.3 128 20.9 12.9 0
2004 12 24 3:24 1.4 623.5 4.9 76.4 154.7 24.1 12.9 0
2004 12 24 3:39 1.4 452.9 5.3 75.4 165.9 29 14.5 0
2004 12 24 3:54 1.4 341.2 5.3 72.5 88.6 24.1 12.9 0
2004 12 24 4:09 1.4 670.6 5.3 72.5 112.5 25.7 12.9 0
2004 12 24 4:24 1.9 494.1 5.3 69.7 132.2 27.4 14.5 0
2004 12 24 4:39 2.3 723.5 5.3 69.7 128 25.7 14.5 0
2004 12 24 4:54 2.7 270.6 5.3 69.7 196.9 27.4 12.9 0
2004 12 24 5:09 3.2 129.4 4.5 67.9 122.3 29 14.5 0
2004 12 24 5:24 3.2 164.7 4.5 72.7 136.4 24.1 12.9 0
2004 12 24 5:39 3.6 76.5 3.6 76.8 154.7 25.7 14.5 0
2004 12 24 5:54 3.6 52.9 3.2 78.1 146.3 20.9 11.3 0
2004 12 24 6:09 3.6 17.6 2.7 80.4 108.3 22.5 9.7 0
2004 12 24 6:24 3.6 0 1.9 78.9 92.8 19.3 6.4 0
2004 12 24 6:39 3.6 0 0.6 83.5 133.6 16.1 4.8 0
2004 12 24 6:54 3.6 0 -0.8 87.8 112.5 8 1.6 0
2004 12 24 7:09 3.6 0 -1.3 92.3 112.5 0 0 0
2004 12 24 7:24 3.2 0 -0.3 93.9 112.5 3.2 0 0
2004 12 24 7:39 3.2 0 -1.3 93.9 112.5 0 0 0
2004 12 24 7:54 3.2 0 -1.3 96.2 112.5 0 0 0
2004 12 24 8:09 2.7 0 -1.3 96.2 112.5 0 0 0
2004 12 24 8:24 2.7 0 -0.8 96.2 112.5 0 0 0
2004 12 24 8:39 2.7 0 -0.8 96.2 112.5 6.4 1.6 0
2004 12 24 8:54 2.7 0 -0.8 97.1 109.7 8 1.6 0
2004 12 24 9:09 2.3 0 -1.3 97.1 109.7 8 1.6 0
2004 12 24 9:24 2.3 0 -1.3 97.9 111.1 4.8 0 0
2004 12 24 9:39 2.3 0 -0.8 99.5 104.1 4.8 1.6 0
2004 12 24 9:54 2.3 0 -0.3 99.5 101.3 6.4 3.2 0
2004 12 24 10:09 2.3 0 0.1 100 102.7 17.7 8 0
2004 12 24 10:24 2.3 0 0.6 99.5 106.9 19.3 9.7 0
2004 12 24 10:39 2.3 0 0.6 97.9 81.6 16.1 11.3 0
2004 12 24 10:54 2.3 0 0.6 97.1 106.9 17.7 11.3 0
2004 12 24 11:09 2.3 0 0.6 97.1 101.3 17.7 9.7 0
2004 12 24 11:24 1.9 0 0.1 97.1 102.7 14.5 9.7 0
2004 12 24 11:39 1.9 0 0.1 96.2 106.9 17.7 9.7 0
2004 12 24 11:54 1.9 0 0.1 96.2 105.5 16.1 8 0
2004 12 24 12:09 1.9 0 0.1 93.9 102.7 17.7 9.7 0
2004 12 24 12:24 1.9 0 0.1 93.1 84.4 14.5 8 0
2004 12 24 12:39 1.9 0 0.6 90.6 101.3 20.9 9.7 0
2004 12 24 12:54 1.9 0 0.1 93.1 101.3 17.7 9.7 0
2004 12 24 13:09 1.9 0 0.6 90.6 128 24.1 9.7 0
2004 12 24 13:24 1.9 0 0.6 89.8 120.9 16.1 9.7 0
2004 12 24 13:39 1.9 0 0.1 92.3 92.8 11.3 6.4 0
2004 12 24 13:54 1.9 0 0.6 95.4 130.8 14.5 6.4 0
2004 12 24 14:09 1.9 0 1.4 93.9 84.4 14.5 8 0
2004 12 24 14:24 1.9 0 1.4 95.4 105.5 22.5 12.9 0
2004 12 24 14:39 1.9 0 1 97.1 116.7 22.5 8 0
2004 12 24 14:54 1.9 0 1 100 102.7 20.9 8 0.3
2004 12 24 15:09 1.9 17.6 1.4 100 126.6 20.9 4.8 0.3
2004 12 24 15:24 1.9 5.9 1.9 100 80.2 16.1 9.7 0
2004 12 24 15:39 1.4 17.6 1 100 61.9 17.7 9.7 0.5
2004 12 24 15:54 1.4 58.8 1.4 100 70.3 16.1 9.7 0.3
2004 12 24 16:09 1.4 58.8 1.4 100 68.9 20.9 11.3 0.3
2004 12 24 16:24 1.9 52.9 1.4 100 60.5 16.1 11.3 0.3
2004 12 24 16:39 1.9 88.2 1.9 100 71.7 20.9 11.3 0
2004 12 24 16:54 1.9 35.3 1.9 100 70.3 22.5 11.3 0
2004 12 24 17:09 1.9 41.2 1.9 100 111.1 24.1 12.9 0
2004 12 24 17:24 1.9 47.1 2.3 100 80.2 20.9 12.9 0.5
2004 12 24 17:39 1.9 64.7 2.3 100 67.5 25.7 12.9 0.3
2004 12 24 17:54 2.3 35.3 2.3 100 42.2 25.7 14.5 0
2004 12 24 18:09 2.3 64.7 2.7 100 88.6 24.1 12.9 0.3
2004 12 24 18:24 2.3 58.8 2.7 100 85.8 25.7 12.9 0
2004 12 24 18:39 2.3 35.3 2.7 100 74.5 22.5 12.9 0
2004 12 24 18:54 2.7 58.8 2.7 100 57.7 32.2 14.5 0.5
2004 12 24 19:09 2.7 41.2 2.7 100 90 20.9 11.3 0
2004 12 24 19:24 2.7 35.3 3.2 100 122.3 19.3 11.3 0
2004 12 24 19:39 2.7 11.8 3.2 100 108.3 24.1 9.7 1.3
2004 12 24 19:54 2.7 47.1 3.2 100 98.4 22.5 11.3 1.8
2004 12 24 20:09 2.7 23.5 2.7 100 120.9 17.7 6.4 0
2004 12 24 20:24 3.2 5.9 2.7 100 123.8 17.7 8 0
2004 12 24 20:39 3.2 17.6 2.7 100 116.7 14.5 6.4 0.3
2004 12 24 20:54 3.2 0 2.7 100 105.5 9.7 4.8 0
2004 12 24 21:09 3.2 0 2.7 100 71.7 12.9 4.8 0
2004 12 24 21:24 3.2 0 2.3 100 120.9 16.1 6.4 0
2004 12 24 21:39 3.2 0 2.3 100 80.2 14.5 8 0
2004 12 24 21:54 3.2 0 1.9 100 63.3 20.9 9.7 0
2004 12 24 22:09 3.2 0 1.9 100 60.5 17.7 8 0
2004 12 24 22:24 3.2 0 1.9 100 71.7 12.9 4.8 0
2004 12 24 22:39 3.2 0 1.9 100 83 11.3 4.8 0
2004 12 24 22:54 3.2 0 1.9 100 60.5 14.5 6.4 0
2004 12 24 23:09 3.2 0 1.4 100 63.3 19.3 9.7 0
2004 12 24 23:24 3.2 0 1.9 100 71.7 19.3 9.7 0.3
2004 12 24 23:39 3.2 0 1.9 100 60.5 20.9 9.7 0
2004 12 24 23:54 3.2 0 1.4 100 80.2 19.3 8 0.3
2004 12 25 0:09 3.2 0 1 100 102.7 24.1 9.7 1.8
2004 12 25 0:24 2.7 0 -0.3 100 202.5 16.1 3.2 0.5
2004 12 25 0:39 2.7 0 -0.3 100 32.3 6.4 0 0
2004 12 25 0:54 2.7 0 -0.3 100 32.3 4.8 0 0
2004 12 25 1:09 2.7 0 -0.3 100 32.3 3.2 0 0
2004 12 25 1:24 2.3 0 0.1 100 230.6 8 0 0
2004 12 25 1:39 2.3 0 -0.3 100 253.1 11.3 1.6 0
2004 12 25 1:54 2.3 0 -0.3 100 285.5 22.5 1.6 0
2004 12 25 2:09 2.3 0 -0.3 100 293.9 12.9 4.8 0
2004 12 25 2:24 2.3 0 -0.3 100 296.7 9.7 4.8 0
2004 12 25 2:39 2.3 0 -0.3 100 293.9 16.1 4.8 0
2004 12 25 2:54 2.3 0 -0.3 100 303.8 9.7 3.2 0
2004 12 25 3:09 1.9 0 -0.3 100 310.8 8 3.2 0
2004 12 25 3:24 1.9 0 -0.3 100 338.9 14.5 6.4 0
2004 12 25 3:39 1.9 0 -0.3 100 337.5 20.9 8 0
2004 12 25 3:54 1.9 0 -0.8 100 337.5 12.9 3.2 0
2004 12 25 4:09 1.9 0 -0.8 100 337.5 9.7 3.2 0
2004 12 25 4:24 1.9 0 -0.8 100 337.5 8 1.6 0
2004 12 25 4:39 1.9 0 -1.3 100 337.5 8 3.2 0
2004 12 25 4:54 1.9 0 -0.8 100 337.5 9.7 1.6 0
2004 12 25 5:09 1.9 23.5 -1.3 100 337.5 3.2 0 0
2004 12 25 5:24 1.9 35.3 -1.3 100 337.5 6.4 1.6 0
2004 12 25 5:39 1.9 41.2 -0.8 100 337.5 9.7 1.6 0
2004 12 25 5:54 1.9 52.9 -0.3 100 337.5 8 1.6 0
2004 12 25 6:09 1.9 82.4 -0.3 100 331.9 6.4 1.6 0
2004 12 25 6:24 1.9 147.1 -0.3 99.5 298.1 16.1 4.8 0
2004 12 25 6:39 1.9 400 0.1 99.5 303.8 14.5 8 0
2004 12 25 6:54 1.9 276.5 0.6 99.5 312.2 14.5 6.4 0
2004 12 25 7:09 2.3 152.9 0.6 99.5 299.5 12.9 4.8 1.3
2004 12 25 7:24 2.3 88.2 0.1 99.5 270 12.9 4.8 1
2004 12 25 7:39 2.3 170.6 0.1 99.5 300.9 16.1 6.4 0.5
2004 12 25 7:54 2.7 129.4 0.1 99.5 272.8 17.7 8 0.5
2004 12 25 8:09 2.7 82.4 0.1 100 296.7 19.3 9.7 0.3
2004 12 25 8:24 2.7 70.6 -0.3 100 279.8 19.3 9.7 0
2004 12 25 8:39 2.7 100 -0.3 100 306.6 17.7 9.7 0
2004 12 25 8:54 2.7 117.6 -0.3 100 306.6 19.3 8 0
2004 12 25 9:09 2.7 94.1 -0.3 100 254.5 20.9 9.7 0.3
2004 12 25 9:24 2.7 111.8 -0.3 99.5 271.4 16.1 8 0
2004 12 25 9:39 2.7 100 -0.3 98.7 279.8 17.7 8 0
2004 12 25 9:54 2.7 94.1 -0.3 97.1 277 19.3 9.7 0
2004 12 25 10:09 2.7 58.8 -0.3 97.1 244.7 24.1 9.7 0
2004 12 25 10:24 2.7 5.9 -0.3 97.1 229.2 16.1 6.4 0
2004 12 25 10:39 2.7 0 -0.8 98.7 230.6 12.9 8 0
2004 12 25 10:54 2.3 0 -1.3 97.9 230.6 16.1 8 0
2004 12 25 11:09 2.3 0 -1.3 97.9 230.6 17.7 8 0
2004 12 25 11:24 2.3 0 -1.3 96.2 230.6 16.1 9.7 0
2004 12 25 11:39 2.3 0 -0.8 95.4 230.6 22.5 11.3 0
2004 12 25 11:54 2.3 0 -0.8 95.4 230.6 27.4 11.3 0
2004 12 25 12:09 2.3 0 -0.8 96.2 230.6 17.7 9.7 0
2004 12 25 12:24 1.9 0 -1.3 96.2 230.6 19.3 8 0
2004 12 25 12:39 1.9 0 -1.3 96.2 230.6 25.7 8 0
2004 12 25 12:54 1.9 0 -1.7 96.2 230.6 11.3 6.4 0
2004 12 25 13:09 1.9 0 -1.7 96.2 230.6 17.7 6.4 0
2004 12 25 13:24 1.9 0 -1.7 96.2 230.6 16.1 4.8 0
2004 12 25 13:39 1.9 0 -2.2 96.2 230.6 9.7 1.6 0
2004 12 25 13:54 1.9 0 -2.2 96.2 230.6 12.9 4.8 0
2004 12 25 14:09 1.9 0 -2.7 97.1 230.6 17.7 6.4 0
2004 12 25 14:24 1.9 0 -2.7 97.1 230.6 14.5 4.8 0
2004 12 25 14:39 1.9 0 -2.7 97.1 230.6 17.7 4.8 0
2004 12 25 14:54 1.4 0 -3.1 97.1 230.6 19.3 4.8 0
2004 12 25 15:09 1.4 0 -3.1 98.7 230.6 12.9 6.4 0
2004 12 25 15:24 1.4 0 -2.7 99.5 230.6 17.7 6.4 0
2004 12 25 15:39 1.4 0 -2.7 97.1 230.6 20.9 8 0
2004 12 25 15:54 1.4 0 -2.2 97.1 230.6 22.5 8 0
2004 12 25 16:09 1.4 0 -2.7 97.1 230.6 16.1 8 0
2004 12 25 16:24 1.4 0 -3.1 97.9 230.6 17.7 8 0
2004 12 25 16:39 1.4 0 -3.1 98.7 230.6 16.1 8 0
2004 12 25 16:54 1.4 0 -3.1 97.9 230.6 14.5 6.4 0
2004 12 25 17:09 1.4 0 -3.1 95.4 230.6 11.3 4.8 0
2004 12 25 17:24 1.4 0 -3.1 95.4 230.6 11.3 4.8 0
2004 12 25 17:39 1.4 0 -3.6 95.4 230.6 11.3 4.8 0
2004 12 25 17:54 1.4 0 -4.1 95.4 230.6 11.3 4.8 0
2004 12 25 18:09 1.4 0 -4.1 95.4 230.6 8 3.2 0
2004 12 25 18:24 1.4 0 -5.1 95.4 230.6 8 1.6 0
2004 12 25 18:39 1 47.1 -4.1 97.1 230.6 1.6 0 0
2004 12 25 18:54 1 52.9 -2.2 93.1 230.6 11.3 3.2 0
2004 12 25 19:09 1 535.3 -0.8 93.9 220.8 9.7 3.2 0
2004 12 25 19:24 1 382.4 0.1 85.7 237.7 12.9 4.8 0
2004 12 25 19:39 1 335.3 1.4 73.5 226.4 20.9 8 0
2004 12 25 19:54 1 405.9 2.3 66.6 240.5 16.1 8 0
2004 12 25 20:09 1 464.7 2.3 67.9 257.3 17.7 6.4 0
2004 12 25 20:24 1 511.8 2.7 66 255.9 14.5 6.4 0
2004 12 25 20:39 1 552.9 2.7 67.2 229.2 16.1 6.4 0
2004 12 25 20:54 1 594.1 2.7 66.4 282.7 17.7 6.4 0
2004 12 25 21:09 1 605.9 2.7 68.8 291.1 17.7 6.4 0
2004 12 25 21:24 1 664.7 4 67.4 253.1 16.1 4.8 0
2004 12 25 21:39 1 747.1 4 65.4 195.5 14.5 4.8 0
2004 12 25 21:54 1 276.5 3.2 65.5 289.7 12.9 4.8 0
2004 12 25 22:09 1.4 305.9 2.7 66.6 272.8 24.1 6.4 0
2004 12 25 22:24 1.9 347.1 3.2 65.2 326.3 14.5 4.8 0
2004 12 25 22:39 2.3 141.2 3.2 67.2 292.5 9.7 3.2 0
2004 12 25 22:54 2.3 182.4 3.2 66.6 212.3 9.7 3.2 0
2004 12 25 23:09 2.7 100 2.7 68.8 206.7 9.7 4.8 0
2004 12 25 23:24 2.7 52.9 2.3 71.1 265.8 11.3 1.6 0
2004 12 25 23:39 2.7 23.5 1.9 80 164.5 11.3 3.2 0
2004 12 25 23:54 2.7 11.8 1 83.5 157.5 12.9 3.2 0
2004 12 26 0:09 2.7 0 0.1 86.9 189.8 6.4 1.6 0
2004 12 26 0:24 2.7 0 -0.8 90.6 191.3 8 1.6 0
2004 12 26 0:39 2.7 0 -1.3 93.9 191.3 3.2 0 0
2004 12 26 0:54 2.7 0 -1.7 95.4 191.3 4.8 0 0
2004 12 26 1:09 2.3 0 -2.7 95.4 191.3 4.8 1.6 0
2004 12 26 1:24 2.3 0 -2.2 96.2 288.3 8 1.6 0
2004 12 26 1:39 2.3 0 -2.2 95.4 319.2 9.7 1.6 0
2004 12 26 1:54 2.3 0 -2.2 93.9 257.3 9.7 1.6 0
2004 12 26 2:09 1.9 0 -2.7 96.2 312.2 9.7 3.2 0
2004 12 26 2:24 1.9 0 -2.2 95.4 295.3 6.4 3.2 0
2004 12 26 2:39 1.9 0 -2.7 93.9 295.3 12.9 3.2 0
2004 12 26 2:54 1.9 0 -2.2 93.9 279.8 9.7 1.6 0
2004 12 26 3:09 1.9 0 -3.6 93.9 279.8 8 3.2 0
2004 12 26 3:24 1.9 0 -4.1 95.4 281.3 9.7 1.6 0
2004 12 26 3:39 1.9 0 -3.6 93.9 281.3 6.4 3.2 0
2004 12 26 3:54 1.4 0 -4.1 95.4 281.3 6.4 3.2 0
2004 12 26 4:09 1.4 0 -3.6 93.9 281.3 8 3.2 0
2004 12 26 4:24 1.4 0 -3.6 93.9 281.3 12.9 4.8 0
2004 12 26 4:39 1.4 0 -3.6 95.4 281.3 14.5 3.2 0
2004 12 26 4:54 1.4 0 -2.7 96.2 281.3 11.3 3.2 0
2004 12 26 5:09 1.4 0 -2.7 95.4 268.6 9.7 3.2 0
2004 12 26 5:24 1.4 0 -1.7 93.9 281.3 12.9 3.2 0
2004 12 26 5:39 1.4 0 -1.7 93.9 271.4 8 3.2 0
2004 12 26 5:54 1.4 0 -1.3 91.5 253.1 8 3.2 0
2004 12 26 6:09 1.4 0 -1.3 86.9 188.4 9.7 4.8 0
2004 12 26 6:24 1.4 0 -1.3 86.1 219.4 12.9 4.8 0
2004 12 26 6:39 1 0 -1.7 87.8 215.2 6.4 1.6 0
2004 12 26 6:54 1 0 -1.3 86.9 218 9.7 3.2 0
2004 12 26 7:09 1 0 -1.3 86.9 185.6 9.7 3.2 0
2004 12 26 7:24 1 0 -1.3 85.7 191.3 9.7 3.2 0
2004 12 26 7:39 1 0 -1.3 83.5 210.9 9.7 4.8 0
2004 12 26 7:54 1 0 -1.7 86.9 199.7 8 1.6 0
2004 12 26 8:09 1 0 -1.7 90.6 191.3 9.7 1.6 0
2004 12 26 8:24 1 29.4 -1.7 93.1 196.9 6.4 1.6 0
2004 12 26 8:39 1 52.9 -0.8 92.3 263 6.4 1.6 0
2004 12 26 8:54 1 129.4 0.1 87.8 189.8 9.7 3.2 0
2004 12 26 9:09 1 176.5 0.6 77.3 251.7 16.1 6.4 0
2004 12 26 9:24 1 158.8 0.1 78.1 250.3 12.9 4.8 0
2004 12 26 9:39 1 200 0.6 74.6 240.5 12.9 4.8 0
2004 12 26 9:54 1 294.1 1.9 69.5 288.3 17.7 4.8 0
2004 12 26 10:09 1 294.1 1.9 68.3 258.8 17.7 4.8 0
2004 12 26 10:24 1 341.2 1.4 63.4 354.4 14.5 4.8 0
2004 12 26 10:39 1 547.1 2.3 64.6 216.6 14.5 4.8 0
2004 12 26 10:54 1 547.1 3.2 63 0 11.3 3.2 0
2004 12 26 11:09 1 770.6 3.2 67.2 264.4 17.7 6.4 0
2004 12 26 11:24 1 482.4 4.5 61.7 270 14.5 6.4 0
2004 12 26 11:39 1.4 158.8 1.4 75.6 341.7 24.1 8 0
2004 12 26 11:54 1.9 64.7 0.6 80.7 296.7 17.7 9.7 0
2004 12 26 12:09 2.3 223.5 1.4 79.6 331.9 17.7 6.4 0
2004 12 26 12:24 2.3 100 1 76.2 305.2 14.5 6.4 0
2004 12 26 12:39 2.3 141.2 1 77.3 343.1 19.3 6.4 0
2004 12 26 12:54 2.7 47.1 1 78.5 282.7 9.7 4.8 0
2004 12 26 13:09 2.7 17.6 0.1 82.6 324.8 12.9 6.4 0
2004 12 26 13:24 2.7 23.5 0.1 86.9 334.7 17.7 4.8 0
2004 12 26 13:39 2.7 5.9 -0.3 86.1 310.8 14.5 4.8 0
2004 12 26 13:54 2.7 0 -2.2 87.8 310.8 6.4 3.2 0
2004 12 26 14:09 2.3 0 -2.7 92.3 289.7 16.1 4.8 0
2004 12 26 14:24 2.3 0 -2.7 93.9 291.1 16.1 4.8 0
2004 12 26 14:39 2.3 0 -3.1 95.4 291.1 12.9 4.8 0
2004 12 26 14:54 2.3 0 -3.1 96.2 291.1 11.3 4.8 0
2004 12 26 15:09 1.9 0 -2.7 97.1 284.1 11.3 4.8 0
2004 12 26 15:24 1.9 0 -2.7 97.9 315 9.7 3.2 0
2004 12 26 15:39 1.9 0 -2.7 97.9 291.1 12.9 4.8 0
2004 12 26 15:54 1.9 0 -4.1 97.1 291.1 8 3.2 0
2004 12 26 16:09 1.9 0 -5.1 97.1 281.3 9.7 3.2 0
2004 12 26 16:24 1.9 0 -5.6 97.1 291.1 8 3.2 0
2004 12 26 16:39 1.4 0 -6.1 96.2 292.5 11.3 1.6 0
2004 12 26 16:54 1.4 0 -5.1 97.1 292.5 6.4 1.6 0
2004 12 26 17:09 1.4 0 -3.6 98.7 292.5 8 3.2 0
2004 12 26 17:24 1.4 0 -5.6 97.1 292.5 8 3.2 0
2004 12 26 17:39 1.4 0 -5.6 97.1 298.1 9.7 3.2 0
2004 12 26 17:54 1.4 0 -5.6 95.4 302.3 11.3 4.8 0
2004 12 26 18:09 1.4 0 -5.6 93.9 302.3 8 3.2 0
2004 12 26 18:24 1.4 0 -5.1 93.1 302.3 9.7 3.2 0
2004 12 26 18:39 1 0 -3.1 91.5 105.5 11.3 4.8 0
2004 12 26 18:54 1 0 -4.1 89.8 157.5 9.7 3.2 0
2004 12 26 19:09 1 0 -4.6 91.5 157.5 9.7 0 0
2004 12 26 19:24 1 0 -3.6 89.8 149.1 11.3 3.2 0
2004 12 26 19:39 1 0 -4.1 87.8 168.8 8 3.2 0
2004 12 26 19:54 1 0 -5.1 89.8 168.8 3.2 0 0
2004 12 26 20:09 1 0 -4.6 89.8 168.8 0 0 0
2004 12 26 20:24 1 0 -4.1 87.8 168.8 4.8 0 0
2004 12 26 20:39 1 0 -4.1 87.8 168.8 8 3.2 0
2004 12 26 20:54 1 0 -3.6 87.8 147.7 9.7 3.2 0
2004 12 26 21:09 1 0 -3.1 87.8 132.2 12.9 6.4 0
2004 12 26 21:24 1 0 -2.2 86.9 85.8 20.9 9.7 0
2004 12 26 21:39 1 0 -2.2 87.8 81.6 19.3 6.4 0
2004 12 26 21:54 0.6 0 -1.7 87.8 91.4 20.9 11.3 0
2004 12 26 22:09 0.6 11.8 -1.7 89 77.3 29 12.9 0
2004 12 26 22:24 0.6 29.4 -1.7 89 91.4 20.9 11.3 0
2004 12 26 22:39 0.6 29.4 -1.3 90.6 119.5 20.9 11.3 0
2004 12 26 22:54 0.6 23.5 -2.2 99.5 105.5 30.6 16.1 0
2004 12 26 23:09 0.6 35.3 -1.7 100 101.3 20.9 12.9 0
2004 12 26 23:24 0.6 76.5 -1.7 100 118.1 24.1 14.5 0
2004 12 26 23:39 0.6 70.6 -1.7 100 143.4 27.4 11.3 0
2004 12 26 23:54 0.6 100 -1.3 100 139.2 24.1 14.5 0
2004 12 27 0:09 0.6 152.9 -1.7 100 125.2 25.7 14.5 0
2004 12 27 0:24 0.6 117.6 -1.3 100 119.5 22.5 12.9 0
2004 12 27 0:39 0.6 164.7 -1.3 100 136.4 27.4 14.5 0
2004 12 27 0:54 0.6 229.4 -0.8 100 133.6 27.4 16.1 0
2004 12 27 1:09 0.6 617.6 0.1 100 154.7 29 17.7 0
2004 12 27 1:24 0.6 205.9 0.1 100 116.7 35.4 19.3 0.3
2004 12 27 1:39 0.6 364.7 0.6 100 147.7 24.1 16.1 0
2004 12 27 1:54 0.6 176.5 0.1 100 128 27.4 17.7 0.5
2004 12 27 2:09 0.6 76.5 -0.3 100 133.6 27.4 14.5 0.5
2004 12 27 2:24 0.6 52.9 -0.8 100 149.1 25.7 16.1 0
2004 12 27 2:39 0.6 29.4 -0.8 100 168.8 29 14.5 0
2004 12 27 2:54 0.6 23.5 -0.8 100 139.2 22.5 12.9 0.3
2004 12 27 3:09 0.6 11.8 -0.8 100 135 25.7 14.5 0
2004 12 27 3:24 0.6 0 -0.8 100 125.2 24.1 11.3 0
2004 12 27 3:39 0.6 0 -0.8 100 111.1 24.1 9.7 0
2004 12 27 3:54 0.6 0 -0.8 100 120.9 17.7 6.4 0
2004 12 27 4:09 0.6 0 -0.8 100 126.6 22.5 12.9 0
2004 12 27 4:24 0.6 0 -0.3 100 142 17.7 9.7 0
2004 12 27 4:39 0.6 0 -0.3 100 133.6 22.5 11.3 0
2004 12 27 4:54 0.6 0 -0.3 100 136.4 19.3 8 0
2004 12 27 5:09 0.6 0 -0.3 100 136.4 17.7 6.4 0
2004 12 27 5:24 0.6 0 0.1 100 153.3 16.1 6.4 0
2004 12 27 5:39 0.6 0 0.1 100 123.8 20.9 8 0
2004 12 27 5:54 0.6 0 0.1 100 157.5 17.7 9.7 0
2004 12 27 6:09 0.6 0 0.1 100 128 24.1 12.9 0
2004 12 27 6:24 0.6 0 0.1 100 147.7 24.1 12.9 0
2004 12 27 6:39 0.6 0 0.1 100 147.7 16.1 6.4 0
2004 12 27 6:54 0.6 0 0.6 100 126.6 16.1 8 0.3
2004 12 27 7:09 0.6 0 0.6 100 115.3 17.7 8 0
2004 12 27 7:24 0.6 0 0.6 100 130.8 22.5 8 0
2004 12 27 7:39 0.6 0 1 100 143.4 24.1 11.3 0
2004 12 27 7:54 0.6 0 1 100 150.5 22.5 11.3 0.3
2004 12 27 8:09 0.6 0 1 100 158.9 25.7 12.9 0
2004 12 27 8:24 0.6 0 1 100 149.1 24.1 9.7 0
2004 12 27 8:39 0.6 0 1 100 170.2 22.5 9.7 0
2004 12 27 8:54 0.6 0 1.4 100 147.7 19.3 9.7 0
2004 12 27 9:09 0.6 0 1.4 100 147.7 17.7 8 0
2004 12 27 9:24 0.6 0 1.4 100 151.9 22.5 9.7 0
2004 12 27 9:39 0.6 0 1.4 100 160.3 25.7 9.7 0
2004 12 27 9:54 0.6 0 1.4 100 168.8 24.1 12.9 0
2004 12 27 10:09 0.6 0 1.4 100 199.7 16.1 8 0
2004 12 27 10:24 0.6 0 1.4 100 194.1 20.9 6.4 0
2004 12 27 10:39 0.6 0 1.9 100 143.4 20.9 8 0
2004 12 27 10:54 0.6 0 1.9 100 215.2 14.5 6.4 0
2004 12 27 11:09 0.6 0 1.9 100 185.6 17.7 6.4 0
2004 12 27 11:24 0.6 0 2.3 100 168.8 14.5 6.4 0
2004 12 27 11:39 0.6 11.8 2.3 100 185.6 16.1 6.4 0
2004 12 27 11:54 0.6 29.4 2.7 100 147.7 17.7 9.7 0
2004 12 27 12:09 0.6 82.4 3.2 100 167.3 24.1 11.3 0
2004 12 27 12:24 0.6 100 3.2 100 196.9 19.3 9.7 0
2004 12 27 12:39 0.6 129.4 3.6 100 163.1 17.7 8 0
2004 12 27 12:54 0.6 182.4 3.6 100 153.3 17.7 8 0
2004 12 27 13:09 0.6 364.7 4.9 100 164.5 19.3 8 0
2004 12 27 13:24 0.6 482.4 4.9 97.1 149.1 22.5 11.3 0
2004 12 27 13:39 0.6 123.5 4.9 93.9 129.4 27.4 16.1 0
2004 12 27 13:54 0.6 405.9 6.1 89.8 143.4 30.6 17.7 0
2004 12 27 14:09 0.6 529.4 6.1 89 130.8 32.2 17.7 0
2004 12 27 14:24 0.6 105.9 5.7 91.5 156.1 32.2 19.3 0
2004 12 27 14:39 0.6 70.6 5.3 92.3 157.5 33.8 17.7 0
2004 12 27 14:54 0.6 123.5 5.3 93.1 118.1 35.4 19.3 0
2004 12 27 15:09 1 135.3 5.3 95.4 154.7 32.2 16.1 0
2004 12 27 15:24 1 64.7 5.3 95.4 161.7 30.6 19.3 0
2004 12 27 15:39 1.4 64.7 5.3 97.1 208.1 27.4 14.5 0
2004 12 27 15:54 1.4 41.2 4.9 99.5 167.3 24.1 16.1 0
2004 12 27 16:09 1.9 111.8 5.3 98.7 144.8 25.7 14.5 0
2004 12 27 16:24 1.9 70.6 5.7 96.2 188.4 38.6 17.7 0
2004 12 27 16:39 1.9 29.4 5.3 96.2 177.2 27.4 14.5 0
2004 12 27 16:54 2.3 17.6 5.3 96.2 171.6 32.2 16.1 0
2004 12 27 17:09 2.3 0 4.9 97.9 157.5 27.4 14.5 0
2004 12 27 17:24 2.3 0 4.9 99.5 196.9 24.1 11.3 0
2004 12 27 17:39 2.3 0 4.5 98.7 146.3 24.1 12.9 0
2004 12 27 17:54 2.7 0 4 99.5 205.3 20.9 8 0
2004 12 27 18:09 2.7 0 4 99.5 175.8 16.1 6.4 0
2004 12 27 18:24 2.3 0 4 100 194.1 11.3 4.8 0
2004 12 27 18:39 2.3 0 3.6 100 153.3 17.7 3.2 0
2004 12 27 18:54 2.3 0 4 100 171.6 8 1.6 0
2004 12 27 19:09 2.3 0 4.5 100 177.2 12.9 6.4 0
2004 12 27 19:24 2.3 0 4.9 100 181.4 25.7 11.3 0
2004 12 27 19:39 2.3 0 4.5 100 156.1 22.5 9.7 0
2004 12 27 19:54 2.3 0 4.5 100 165.9 19.3 9.7 0
2004 12 27 20:09 2.7 0 4 100 181.4 14.5 3.2 0
2004 12 27 20:24 2.7 0 4 100 158.9 11.3 4.8 0
2004 12 27 20:39 2.7 0 4 100 182.8 6.4 1.6 0
2004 12 27 20:54 2.7 0 4 100 14.1 6.4 1.6 0
2004 12 27 21:09 2.7 0 4 100 153.3 11.3 1.6 0
2004 12 27 21:24 2.7 0 4 100 161.7 12.9 4.8 0
2004 12 27 21:39 2.3 0 4.5 100 146.3 11.3 3.2 0
2004 12 27 21:54 2.7 0 4.9 100 142 19.3 8 0
2004 12 27 22:09 2.7 0 4.9 100 129.4 14.5 6.4 0
2004 12 27 22:24 2.7 0 4.9 100 133.6 14.5 4.8 0
2004 12 27 22:39 2.7 0 4.9 100 157.5 16.1 4.8 0
2004 12 27 22:54 2.7 0 4.5 100 137.8 9.7 3.2 0
2004 12 27 23:09 2.7 0 4 100 132.2 11.3 4.8 0
2004 12 27 23:24 2.7 0 3.6 100 188.4 9.7 1.6 0
2004 12 27 23:39 2.7 0 3.6 100 165.9 9.7 1.6 0
2004 12 27 23:54 2.7 0 3.6 100 158.9 12.9 4.8 0
2004 12 28 0:09 2.7 0 3.6 100 165.9 11.3 4.8 0
2004 12 28 0:24 2.7 0 3.2 100 163.1 9.7 3.2 0
2004 12 28 0:39 2.3 0 4 100 139.2 9.7 4.8 0
2004 12 28 0:54 2.3 0 4 100 99.8 9.7 3.2 0
2004 12 28 1:09 2.3 0 4 100 164.5 17.7 4.8 0
2004 12 28 1:24 2.3 23.5 4.9 100 142 17.7 8 0
2004 12 28 1:39 2.3 35.3 5.3 100 150.5 14.5 6.4 0
2004 12 28 1:54 2.3 47.1 5.7 100 164.5 14.5 6.4 0
2004 12 28 2:09 2.3 176.5 6.5 100 135 16.1 6.4 0
2004 12 28 2:24 2.7 141.2 6.9 100 143.4 17.7 9.7 0
2004 12 28 2:39 2.7 70.6 6.9 100 123.8 17.7 9.7 0
2004 12 28 2:54 3.2 129.4 6.9 100 126.6 20.9 8 0
2004 12 28 3:09 3.2 88.2 6.9 100 150.5 25.7 11.3 0
2004 12 28 3:24 3.6 117.6 6.9 100 174.4 22.5 9.7 0
2004 12 28 3:39 3.6 211.8 8.2 98.7 135 22.5 11.3 0
2004 12 28 3:54 3.6 82.4 7.7 97.9 135 24.1 12.9 0
2004 12 28 4:09 4 58.8 7.3 99.5 146.3 19.3 9.7 0.5
2004 12 28 4:24 4 211.8 7.3 100 150.5 16.1 8 0.8
2004 12 28 4:39 4.5 129.4 7.3 100 156.1 14.5 6.4 0.3
2004 12 28 4:54 4.5 94.1 7.3 100 129.4 17.7 8 0.3
2004 12 28 5:09 4.5 211.8 7.7 100 167.3 19.3 8 0.5
2004 12 28 5:24 4.9 94.1 7.7 100 144.8 16.1 6.4 0
2004 12 28 5:39 4.9 88.2 7.7 100 137.8 16.1 6.4 0
2004 12 28 5:54 4.9 70.6 7.7 100 160.3 16.1 8 0
2004 12 28 6:09 5.3 52.9 7.7 100 192.7 25.7 8 0
2004 12 28 6:24 5.3 29.4 7.3 100 135 14.5 6.4 0
2004 12 28 6:39 5.3 5.9 7.3 100 154.7 16.1 6.4 0
2004 12 28 6:54 5.3 0 6.9 100 151.9 9.7 3.2 0
2004 12 28 7:09 5.3 0 6.9 100 144.8 16.1 8 0
2004 12 28 7:24 5.3 0 6.9 100 165.9 17.7 8 0.3
2004 12 28 7:39 5.3 0 6.9 100 144.8 17.7 6.4 0
2004 12 28 7:54 5.3 0 6.9 100 164.5 16.1 6.4 0.5
2004 12 28 8:09 5.3 0 6.9 100 161.7 12.9 6.4 1.5
2004 12 28 8:24 5.3 0 7.3 100 173 22.5 9.7 1.8
2004 12 28 8:39 5.3 0 7.3 100 158.9 27.4 11.3 0.8
2004 12 28 8:54 5.3 0 6.9 100 164.5 20.9 11.3 0.8
2004 12 28 9:09 5.7 0 6.9 100 194.1 22.5 9.7 0.3
2004 12 28 9:24 5.7 0 6.5 100 187 17.7 9.7 0
2004 12 28 9:39 5.7 0 6.9 100 180 19.3 11.3 0.5
2004 12 28 9:54 5.7 0 6.9 100 168.8 22.5 9.7 1.3
2004 12 28 10:09 5.7 0 6.9 100 213.8 19.3 9.7 2
2004 12 28 10:24 5.7 0 6.9 100 154.7 20.9 11.3 2.3
2004 12 28 10:39 5.7 0 6.5 100 158.9 20.9 11.3 0.3
2004 12 28 10:54 5.7 0 6.1 100 181.4 20.9 11.3 0
2004 12 28 11:09 5.7 0 5.7 100 241.9 14.5 4.8 0
2004 12 28 11:24 5.7 0 5.7 100 282.7 11.3 4.8 0
2004 12 28 11:39 5.3 0 5.7 100 278.4 17.7 4.8 0
2004 12 28 11:54 5.3 0 5.3 100 296.7 9.7 4.8 0
2004 12 28 12:09 5.3 0 5.3 100 248.9 9.7 4.8 0
2004 12 28 12:24 5.3 0 5.3 100 267.2 14.5 4.8 0
2004 12 28 12:39 5.3 0 5.3 99.5 274.2 12.9 4.8 0
2004 12 28 12:54 4.9 0 5.3 99.5 281.3 14.5 6.4 0
2004 12 28 13:09 4.9 0 5.7 99.5 260.2 12.9 4.8 0
2004 12 28 13:24 4.9 0 5.7 99.5 248.9 22.5 6.4 0
2004 12 28 13:39 4.9 0 5.7 99.5 278.4 12.9 4.8 0
2004 12 28 13:54 4.9 0 5.7 99.5 263 14.5 4.8 0
2004 12 28 14:09 4.5 0 6.1 98.7 277 12.9 4.8 0
2004 12 28 14:24 4.5 0 6.1 97.9 285.5 9.7 4.8 0
2004 12 28 14:39 4.5 0 6.1 97.9 265.8 14.5 4.8 0
2004 12 28 14:54 4.5 0 6.1 98.7 265.8 11.3 4.8 0
2004 12 28 15:09 4.5 23.5 6.1 98.7 272.8 9.7 3.2 0.3
2004 12 28 15:24 4.5 47.1 6.9 97.9 205.3 9.7 3.2 0
2004 12 28 15:39 4.5 100 8.2 94.7 223.6 8 1.6 0
2004 12 28 15:54 4.5 200 9 89.8 170.2 4.8 1.6 0
2004 12 28 16:09 4.5 94.1 8.6 87.8 142 9.7 1.6 0
2004 12 28 16:24 4.9 41.2 7.3 93.9 192.7 16.1 4.8 1
2004 12 28 16:39 4.9 52.9 6.9 97.1 150.5 14.5 3.2 2
2004 12 28 16:54 4.9 211.8 7.3 97.9 243.3 4.8 1.6 1.8
2004 12 28 17:09 5.3 235.3 7.7 97.9 146.3 9.7 3.2 1
2004 12 28 17:24 5.3 158.8 7.3 98.7 202.5 16.1 4.8 1.5
2004 12 28 17:39 5.3 188.2 7.3 100 164.5 24.1 9.7 0.3
2004 12 28 17:54 5.7 888.2 8.6 99.5 196.9 29 11.3 0
2004 12 28 18:09 5.7 352.9 10.5 93.1 173 19.3 9.7 0

Last updated: February 28, 2015

Contact the Park

Mailing Address:

2701 Barstow Road
Barstow, CA 92311

Phone:

(760) 252-6100

Contact Us